# Wetter Temperatur Luftdruck Luftfeuchtigkeit Sichtweite Windgeschwindigkeit Windrichtung Zeit
1 Clouds -1 1006 98 7000 3.6 240 21:57 02.12.2021
2 Clear -1 1006 97 10000 3.1 256 21:30 02.12.2021
3 Clear -1 1006 97 10000 3.09 256 20:40 02.12.2021
4 Clear 0 1005 97 10000 2.81 263 19:43 02.12.2021
5 Clear -1 1005 96 10000 2.57 240 18:34 02.12.2021
6 Clear 1 1002 94 10000 1.54 260 15:52 02.12.2021
7 Rain 1 1001 95 10000 2.57 260 15:28 02.12.2021
8 Clouds 1 1001 95 10000 3.09 280 14:48 02.12.2021
9 Rain 2 1000 95 10000 2.01 345 12:53 02.12.2021
10 Snow 1 1000 90 7000 6.17 360 12:19 02.12.2021
11 Clouds 1 998 98 10000 2.57 240 10:38 02.12.2021
12 Snow 1 997 95 10000 1.03 0 09:25 02.12.2021
13 Clouds 1 995 89 10000 3.09 300 06:45 02.12.2021
14 Clouds 3 991 89 10000 9.77 280 00:55 02.12.2021
15 Clouds 4 989 87 10000 9.77 290 23:30 01.12.2021
16 Clouds 5 988 81 10000 11.83 280 22:25 01.12.2021
17 Clouds 5 987 80 10000 12.35 280 21:36 01.12.2021
18 Clouds 6 984 82 10000 14.4 270 19:59 01.12.2021
19 Clouds 6 984 81 10000 14.4 270 19:36 01.12.2021
20 Clouds 7 982 81 10000 13.89 260 17:50 01.12.2021
21 Clouds 7 982 81 10000 13.38 250 16:58 01.12.2021
22 Clouds 8 982 85 10000 10.8 250 15:37 01.12.2021
23 Clouds 9 982 84 10000 13.38 230 14:24 01.12.2021
24 Clouds 9 983 86 10000 11.32 240 13:36 01.12.2021
25 Drizzle 9 986 93 8000 9.26 210 10:43 01.12.2021
26 Clouds 8 987 95 6000 9.26 210 09:59 01.12.2021
27 Clouds 8 988 93 8000 8.75 210 08:51 01.12.2021
28 Clouds 9 989 94 10000 8.75 210 07:56 01.12.2021
29 Drizzle 9 990 96 6000 8.23 210 07:19 01.12.2021
30 Rain 7 995 99 10000 3.6 170 03:53 01.12.2021
31 Rain 6 996 99 6000 5.14 160 03:19 01.12.2021
32 Clouds 6 1002 95 10000 2.06 200 23:59 30.11.2021
33 Rain 5 1003 98 10000 2.57 210 23:28 30.11.2021
34 Clouds 5 1003 94 10000 3.6 240 22:29 30.11.2021
35 Clouds 5 1003 91 10000 3.09 270 20:46 30.11.2021
36 Clouds 5 1003 90 10000 4.63 260 20:24 30.11.2021
37 Clouds 6 1003 88 10000 5.14 270 19:39 30.11.2021
38 Clouds 6 1002 85 10000 5.14 270 18:52 30.11.2021
39 Clouds 6 1002 78 10000 7.72 290 17:45 30.11.2021
40 Clouds 7 1001 80 10000 7.2 290 15:57 30.11.2021
41 Clouds 7 1000 80 10000 8.75 290 14:34 30.11.2021
42 Clouds 7 999 81 10000 8.75 290 13:41 30.11.2021
43 Clouds 7 999 85 10000 9.26 290 12:54 30.11.2021
44 Clouds 7 999 88 10000 8.75 290 11:59 30.11.2021
45 Clouds 7 998 88 10000 7.2 280 11:25 30.11.2021
46 Clouds 7 998 95 10000 7.2 270 10:36 30.11.2021
47 Clouds 6 998 96 4000 7.72 250 08:57 30.11.2021
48 Clouds 6 998 96 4000 7.72 250 08:32 30.11.2021
49 Clouds 5 998 96 10000 8.75 240 07:59 30.11.2021
50 Clouds 4 998 96 7000 9.26 240 06:38 30.11.2021
51 Rain 3 1005 95 10000 6.17 220 01:50 30.11.2021
52 Rain 3 1006 95 10000 5.66 220 01:28 30.11.2021
53 Clear 2 1007 95 10000 3.09 230 23:51 29.11.2021
54 Clear 2 1008 95 10000 3.09 220 23:20 29.11.2021
55 Clear 2 1008 95 10000 3.09 210 22:42 29.11.2021
56 Clouds 2 1008 95 10000 3.09 220 22:23 29.11.2021
57 Clear 2 1008 95 10000 3.6 220 21:21 29.11.2021
58 Clouds 2 1009 95 10000 3.09 230 20:54 29.11.2021
59 Clouds 3 1009 94 10000 3.09 230 20:21 29.11.2021
60 Clouds 3 1009 92 10000 2.57 240 19:42 29.11.2021
61 Clouds 3 1009 94 10000 2.57 270 19:21 29.11.2021
62 Clouds 3 1008 82 10000 1.19 295 18:42 29.11.2021
63 Clouds 2 1008 87 10000 2.29 338 17:22 29.11.2021
64 Clouds 2 1008 87 10000 2.29 338 16:54 29.11.2021
65 Clouds 3 1007 86 10000 2.76 332 16:25 29.11.2021
66 Clouds 4 1007 87 10000 2.5 329 14:52 29.11.2021
67 Clouds 4 1006 88 10000 2.92 326 14:29 29.11.2021
68 Clouds 4 1006 87 10000 3.13 325 13:25 29.11.2021
69 Clouds 4 1005 81 10000 2.55 335 12:20 29.11.2021
70 Clouds 4 1005 81 10000 2.55 335 11:31 29.11.2021
71 Clouds 2 1004 84 10000 1.93 303 10:27 29.11.2021
72 Clouds 2 1003 93 10000 3.09 350 08:30 29.11.2021
73 Clouds 2 1000 93 10000 1.54 50 05:54 29.11.2021
74 Clouds 3 998 93 10000 4.63 300 01:31 29.11.2021
75 Clouds 3 998 93 10000 3.6 290 00:36 29.11.2021
76 Clouds 3 997 93 10000 3.09 260 23:42 28.11.2021
77 Clouds 3 997 87 10000 3.09 250 22:30 28.11.2021
78 Clouds 3 997 93 10000 3.09 260 21:41 28.11.2021
79 Clouds 3 997 93 10000 3.6 270 20:51 28.11.2021
80 Clouds 2 997 93 10000 2.57 250 19:54 28.11.2021
81 Clouds 4 997 93 10000 2.57 240 18:45 28.11.2021
82 Clouds 4 996 93 10000 1.54 230 18:26 28.11.2021
83 Clouds 4 996 93 10000 1.54 220 17:49 28.11.2021
84 Clouds 4 996 93 10000 2.57 220 17:27 28.11.2021
85 Clouds 4 996 87 8000 2.57 200 16:28 28.11.2021
86 Clouds 4 996 87 8000 2.57 200 16:28 28.11.2021
87 Clouds 4 996 93 10000 2.57 220 15:52 28.11.2021
88 Clouds 4 996 87 10000 2.06 220 14:56 28.11.2021
89 Clouds 4 996 87 10000 3.6 250 14:30 28.11.2021
90 Clouds 4 996 87 10000 3.6 260 12:58 28.11.2021
91 Clouds 4 996 93 6000 3.09 260 11:57 28.11.2021
92 Mist 3 996 93 4000 3.09 270 10:53 28.11.2021
93 Mist 3 996 93 3500 3.09 270 10:20 28.11.2021
94 Mist 2 995 100 3800 2.57 240 09:36 28.11.2021
95 Clouds 2 994 93 7000 2.57 270 06:29 28.11.2021
96 Clouds 2 994 93 10000 3.09 240 23:33 27.11.2021
97 Clouds 3 993 93 10000 3.6 240 20:44 27.11.2021
98 Clouds 3 992 93 10000 2.06 240 18:57 27.11.2021
99 Mist 4 990 93 4000 2.57 200 16:52 27.11.2021
100 Clouds 4 990 93 6000 1.54 140 15:55 27.11.2021
101 Clouds 4 989 93 9000 2.57 130 13:47 27.11.2021
102 Clouds 4 988 87 8000 3.09 130 12:31 27.11.2021
103 Clouds 4 988 87 8000 4.12 130 10:42 27.11.2021
104 Clouds 3 987 93 8000 4.12 130 09:53 27.11.2021
105 Clouds 3 987 93 8000 4.12 120 08:43 27.11.2021
106 Clouds 3 985 93 10000 4.63 120 05:18 27.11.2021
107 Drizzle 3 985 93 9000 5.14 140 01:57 27.11.2021
108 Drizzle 3 985 93 10000 6.17 130 23:36 26.11.2021
109 Clouds 3 986 93 10000 6.69 150 22:25 26.11.2021
110 Clouds 4 986 81 10000 6.69 140 21:37 26.11.2021
111 Clouds 4 987 81 10000 6.17 150 20:59 26.11.2021
112 Clouds 4 987 75 10000 7.72 150 20:29 26.11.2021
113 Clouds 4 987 75 10000 6.17 150 19:49 26.11.2021
114 Clouds 4 988 81 10000 6.17 160 18:41 26.11.2021
115 Clouds 4 989 81 10000 5.66 170 17:23 26.11.2021
116 Clouds 5 990 81 10000 5.66 180 15:59 26.11.2021
117 Clouds 5 993 88 10000 6.17 190 13:36 26.11.2021
118 Clouds 5 994 90 10000 5.66 200 12:55 26.11.2021
119 Clouds 4 996 95 10000 4.12 200 10:42 26.11.2021
120 Clouds 4 997 96 8000 3.6 200 09:29 26.11.2021
121 Clouds 4 998 96 7000 3.09 210 08:47 26.11.2021
122 Drizzle 3 998 96 9000 4.12 220 08:19 26.11.2021
123 Clouds 3 1000 98 9000 4.12 220 06:29 26.11.2021
124 Clouds 3 1001 95 7000 3.6 210 04:52 26.11.2021
125 Clouds 2 1002 98 10000 3.6 230 03:32 26.11.2021
126 Clear 3 1005 95 10000 2.57 220 23:29 25.11.2021
127 Clouds 3 1006 97 10000 3.83 255 21:58 25.11.2021
128 Clouds 3 1006 97 10000 3.89 254 20:41 25.11.2021
129 Clouds 4 1007 97 10000 4.03 256 19:21 25.11.2021
130 Clouds 4 1006 97 10000 4.15 245 18:19 25.11.2021
131 Mist 5 1006 95 5000 4.12 240 17:27 25.11.2021
132 Clouds 5 1006 95 6000 4.63 240 16:41 25.11.2021
133 Mist 6 1007 95 5000 5.14 240 15:58 25.11.2021
134 Clouds 6 1007 95 4200 5.14 250 14:30 25.11.2021
135 Clouds 6 1008 93 3800 5.14 250 12:55 25.11.2021
136 Clouds 6 1008 89 9000 5.14 250 11:56 25.11.2021
137 Clouds 5 1009 90 7000 4.12 240 10:34 25.11.2021
138 Clear 4 1010 89 10000 2.57 210 06:36 25.11.2021
139 Clouds 5 1013 83 10000 1.03 0 02:58 25.11.2021
140 Clouds 6 1014 70 10000 3.09 200 00:37 25.11.2021
141 Clouds 6 1016 81 10000 2.06 170 22:29 24.11.2021
142 Clouds 5 1016 87 10000 1.54 170 21:48 24.11.2021
143 Clouds 6 1016 83 10000 0.51 0 21:22 24.11.2021
144 Clouds 6 1017 86 10000 1.03 0 20:27 24.11.2021
145 Clouds 6 1017 86 10000 1.03 0 20:27 24.11.2021
146 Clouds 6 1017 85 10000 3.6 160 19:40 24.11.2021
147 Clouds 6 1018 85 10000 2.06 200 18:19 24.11.2021
148 Clouds 7 1019 81 10000 4.12 180 16:47 24.11.2021
149 Clouds 7 1020 79 10000 3.09 230 15:21 24.11.2021
150 Clouds 7 1020 86 10000 3.76 222 14:30 24.11.2021
151 Clouds 8 1021 85 10000 4.12 210 13:35 24.11.2021
152 Clouds 7 1022 98 10000 3.16 225 11:36 24.11.2021
153 Clouds 7 1023 96 10000 3.09 220 11:18 24.11.2021
154 Clouds 7 1023 96 10000 3.09 230 10:36 24.11.2021
155 Clouds 7 1024 96 10000 4.12 220 09:35 24.11.2021
156 Drizzle 6 1024 98 6000 2.57 240 07:41 24.11.2021
157 Mist 6 1025 96 3800 1.54 240 06:20 24.11.2021
158 Clouds 5 1026 98 6000 1.54 260 03:44 24.11.2021
159 Clouds 5 1027 98 10000 2.06 230 23:36 23.11.2021
160 Clouds 5 1027 98 10000 1.54 270 22:39 23.11.2021
161 Fog 5 1027 95 6000 2.06 230 21:46 23.11.2021
162 Fog 5 1027 98 6000 1.54 250 20:47 23.11.2021
163 Clouds 6 1027 95 10000 1.03 250 19:37 23.11.2021
164 Clouds 7 1027 95 10000 1.54 290 18:37 23.11.2021
165 Clouds 7 1027 98 10000 1.54 280 17:57 23.11.2021
166 Clouds 7 1027 94 10000 2.57 280 16:54 23.11.2021
167 Clouds 7 1027 94 10000 2.57 280 16:54 23.11.2021
168 Clouds 9 1027 89 10000 4.12 290 15:57 23.11.2021
169 Clouds 9 1027 88 10000 4.63 290 15:19 23.11.2021
170 Clouds 9 1027 91 10000 3.6 280 13:43 23.11.2021
171 Clouds 8 1028 96 10000 3.09 250 10:41 23.11.2021
172 Clouds 7 1027 98 10000 2.57 270 09:57 23.11.2021
173 Clouds 6 1027 98 9000 1.54 260 08:44 23.11.2021
174 Clouds 6 1026 95 10000 3.09 260 05:57 23.11.2021
175 Clouds 6 1026 95 10000 3.6 260 03:42 23.11.2021
176 Clouds 4 1027 93 10000 2.06 250 00:28 23.11.2021
177 Clear 4 1027 91 10000 2.06 240 23:20 22.11.2021
178 Clear 3 1027 94 10000 2.57 240 22:32 22.11.2021
179 Clouds 4 1027 93 10000 1.03 250 21:48 22.11.2021
180 Clouds 4 1027 93 10000 2.57 250 21:29 22.11.2021
181 Clouds 4 1027 93 10000 2.57 260 20:50 22.11.2021
182 Clouds 4 1027 90 10000 2.06 240 19:47 22.11.2021
183 Clouds 4 1027 92 10000 3.03 258 19:18 22.11.2021
184 Clouds 4 1027 88 10000 1.03 250 18:37 22.11.2021
185 Clear 5 1027 85 10000 3.1 261 17:18 22.11.2021
186 Clouds 6 1027 76 10000 2.06 250 15:43 22.11.2021
187 Clouds 7 1026 73 10000 2.57 280 13:57 22.11.2021
188 Clear 5 1026 89 10000 1.54 290 11:50 22.11.2021
189 Clear 3 1026 96 10000 2.06 260 10:39 22.11.2021
190 Clear 0 1025 95 10000 2.06 290 09:26 22.11.2021
191 Clear -1 1025 100 10000 2.06 290 08:39 22.11.2021
192 Clear 2 1021 95 10000 4.12 10 04:33 22.11.2021
193 Clouds 6 1016 91 10000 4.63 20 23:26 21.11.2021
194 Clouds 6 1016 91 10000 5.14 20 22:48 21.11.2021
195 Clouds 6 1015 91 10000 4.63 10 21:51 21.11.2021
196 Clouds 5 1014 91 10000 3.09 330 20:42 21.11.2021
197 Clouds 5 1013 97 10000 1.54 310 19:46 21.11.2021
198 Clouds 5 1011 93 10000 1.03 230 18:24 21.11.2021
199 Clouds 6 1011 92 10000 1.03 0 17:38 21.11.2021
200 Clouds 8 1010 88 10000 2.92 308 15:49 21.11.2021
201 Rain 9 1009 79 10000 4.63 290 14:45 21.11.2021
202 Clouds 10 1009 75 10000 5.66 300 13:46 21.11.2021
203 Clouds 10 1009 83 10000 6.69 280 12:37 21.11.2021
204 Clouds 9 1009 91 10000 4.12 270 11:43 21.11.2021
205 Clouds 8 1009 95 10000 3.6 270 11:24 21.11.2021
206 Clouds 8 1009 98 10000 3.6 270 10:18 21.11.2021
207 Clouds 8 1009 98 10000 2.06 270 08:42 21.11.2021
208 Clouds 8 1009 98 10000 2.06 270 08:23 21.11.2021
209 Clouds 8 1009 98 10000 3.09 270 07:47 21.11.2021
210 Drizzle 9 1009 95 3300 4.12 260 05:55 21.11.2021
211 Drizzle 9 1009 95 3800 5.66 240 05:25 21.11.2021
212 Clouds 9 1010 94 10000 5.66 230 03:19 21.11.2021
213 Clouds 9 1010 94 10000 5.14 230 02:52 21.11.2021
214 Drizzle 9 1012 94 10000 5.14 240 00:59 21.11.2021
215 Drizzle 9 1013 95 10000 5.66 260 23:56 20.11.2021
216 Mist 9 1014 95 4400 5.14 240 21:49 20.11.2021
217 Drizzle 9 1014 95 4400 4.63 240 21:28 20.11.2021
218 Drizzle 9 1016 98 3000 4.63 240 19:22 20.11.2021
219 Drizzle 9 1016 98 3000 4.63 230 18:45 20.11.2021
220 Drizzle 9 1017 95 3500 5.14 230 18:19 20.11.2021
221 Drizzle 10 1018 92 6000 5.14 220 16:59 20.11.2021
222 Clouds 10 1019 85 10000 6.17 230 14:49 20.11.2021
223 Clouds 11 1020 86 10000 6.17 240 14:28 20.11.2021
224 Clouds 11 1020 85 10000 5.14 240 13:32 20.11.2021
225 Clouds 11 1023 91 10000 5.14 240 11:20 20.11.2021
226 Clouds 11 1023 92 10000 4.63 240 09:53 20.11.2021
227 Clouds 11 1024 92 10000 4.63 240 08:25 20.11.2021
228 Clouds 11 1024 92 10000 4.63 260 05:30 20.11.2021
229 Clouds 11 1024 92 10000 4.63 250 04:51 20.11.2021
230 Clouds 11 1025 92 10000 5.14 260 03:25 20.11.2021
231 Clouds 11 1026 94 10000 5.66 270 00:42 20.11.2021
232 Clouds 11 1026 91 10000 5.66 260 23:44 19.11.2021
233 Clouds 11 1026 91 10000 5.66 270 22:53 19.11.2021
234 Clouds 12 1025 88 10000 6.69 270 21:22 19.11.2021
235 Clouds 12 1025 88 10000 6.69 270 20:39 19.11.2021
236 Clouds 12 1025 88 10000 7.72 270 20:20 19.11.2021
237 Clouds 12 1025 87 10000 9.26 270 19:43 19.11.2021
238 Clouds 12 1025 87 10000 6.69 260 18:44 19.11.2021
239 Clouds 12 1025 86 10000 5.66 260 17:39 19.11.2021
240 Clouds 13 1025 83 10000 6.69 270 16:22 19.11.2021
241 Clouds 13 1025 82 10000 7.2 270 14:51 19.11.2021
242 Clouds 12 1025 92 10000 5.66 250 10:56 19.11.2021
243 Clouds 12 1025 92 10000 5.14 250 10:23 19.11.2021
244 Drizzle 12 1024 95 10000 5.66 260 08:32 19.11.2021
245 Clouds 12 1023 96 10000 6.17 270 04:58 19.11.2021
246 Drizzle 12 1023 96 8000 6.17 260 03:19 19.11.2021
247 Drizzle 11 1023 96 6000 7.2 260 23:53 18.11.2021
248 Drizzle 11 1024 96 4500 7.72 250 22:49 18.11.2021
249 Drizzle 10 1023 96 6000 8.23 250 20:57 18.11.2021
250 Drizzle 10 1023 95 6000 8.23 250 20:39 18.11.2021
251 Drizzle 10 1023 95 5000 8.23 250 20:19 18.11.2021
252 Drizzle 9 1023 98 7000 7.72 240 19:36 18.11.2021
253 Drizzle 9 1023 98 4000 7.2 240 18:37 18.11.2021
254 Clouds 10 1023 92 10000 7.72 240 17:52 18.11.2021
255 Clouds 10 1023 87 10000 7.2 250 16:47 18.11.2021
256 Clouds 10 1022 86 10000 6.69 240 15:56 18.11.2021
257 Clouds 10 1022 84 10000 8.23 240 14:57 18.11.2021
258 Clouds 10 1024 86 10000 6.69 240 12:55 18.11.2021
259 Clouds 10 1024 86 10000 6.17 240 11:44 18.11.2021
260 Clear 9 1024 90 10000 6.17 230 11:25 18.11.2021
261 Clear 9 1024 91 10000 5.66 230 10:24 18.11.2021
262 Clouds 7 1024 95 10000 4.63 230 08:44 18.11.2021
263 Clear 7 1023 95 10000 4.63 230 06:49 18.11.2021
264 Clouds 6 1023 95 10000 4.12 230 05:46 18.11.2021
265 Clouds 5 1022 94 10000 4.12 240 01:27 18.11.2021
266 Clear 5 1022 94 10000 4.12 240 23:46 17.11.2021
267 Clouds 6 1022 91 10000 5.14 240 22:40 17.11.2021
268 Clouds 6 1022 91 10000 5.14 240 22:40 17.11.2021
269 Clouds 6 1021 91 10000 4.63 240 22:19 17.11.2021
270 Clouds 6 1021 91 10000 4.12 240 21:36 17.11.2021
271 Clouds 7 1020 87 10000 5.14 260 20:18 17.11.2021
272 Clouds 8 1019 93 10000 3.78 251 17:36 17.11.2021
273 Clouds 8 1018 92 10000 4.63 240 16:45 17.11.2021
274 Clouds 8 1017 96 6000 6.17 240 13:49 17.11.2021
275 Clouds 7 1017 96 5000 5.66 250 12:39 17.11.2021
276 Clouds 7 1017 93 6000 6.17 230 11:28 17.11.2021
277 Drizzle 6 1017 93 4700 5.14 210 09:58 17.11.2021
278 Drizzle 5 1017 96 4700 4.12 210 09:23 17.11.2021
279 Clouds 5 1017 93 7000 4.63 180 07:41 17.11.2021
280 Drizzle 4 1018 92 5000 3.09 240 03:31 17.11.2021
281 Drizzle 4 1019 92 6000 1.03 210 00:46 17.11.2021
282 Drizzle 4 1020 93 8000 2.06 220 22:41 16.11.2021
283 Drizzle 4 1020 92 6000 3.09 230 20:20 16.11.2021
284 Drizzle 4 1021 92 6000 2.06 210 19:57 16.11.2021
285 Drizzle 4 1021 92 7000 1.54 220 18:53 16.11.2021
286 Drizzle 4 1021 89 9000 1.54 230 18:29 16.11.2021
287 Clouds 4 1021 89 10000 1.54 190 17:31 16.11.2021
288 Clouds 4 1021 89 10000 1.03 0 16:32 16.11.2021
289 Drizzle 5 1021 89 8000 1.54 160 15:49 16.11.2021
290 Drizzle 5 1022 89 8000 1.54 190 14:31 16.11.2021
291 Clouds 5 1024 88 9000 2.06 110 11:22 16.11.2021
292 Clouds 5 1024 87 9000 1.54 100 09:45 16.11.2021
293 Clouds 5 1024 87 10000 1.03 0 08:26 16.11.2021
294 Clouds 5 1025 87 10000 1.03 0 07:31 16.11.2021
295 Clouds 5 1026 84 10000 3.09 110 01:38 16.11.2021
296 Clouds 5 1027 84 10000 2.57 120 23:20 15.11.2021
297 Clouds 5 1027 84 10000 3.09 90 22:30 15.11.2021
298 Clouds 6 1027 84 10000 3.6 80 21:53 15.11.2021
299 Clouds 6 1027 84 10000 3.09 110 21:28 15.11.2021
300 Clouds 6 1027 83 10000 3.6 90 19:42 15.11.2021
301 Clouds 6 1027 83 7000 2.57 100 18:33 15.11.2021
302 Clouds 6 1027 83 7000 3.6 120 16:20 15.11.2021
303 Clouds 6 1027 83 7000 3.6 110 15:41 15.11.2021
304 Clouds 6 1027 83 7000 4.12 120 15:23 15.11.2021
305 Clouds 6 1028 84 6000 3.6 110 13:29 15.11.2021
306 Clouds 5 1029 84 6000 4.12 120 11:21 15.11.2021
307 Clouds 5 1029 86 6000 4.12 120 09:28 15.11.2021
308 Clouds 6 1028 75 8000 4.12 90 07:52 15.11.2021
309 Drizzle 6 1028 92 9000 3.6 110 05:21 15.11.2021
310 Drizzle 7 1029 89 7000 3.09 110 23:57 14.11.2021
311 Clouds 7 1029 88 8000 3.09 100 22:37 14.11.2021
312 Clouds 7 1028 88 9000 2.57 90 19:59 14.11.2021
313 Clouds 8 1028 85 9000 3.6 80 19:18 14.11.2021
314 Clouds 8 1027 85 9000 4.63 70 18:54 14.11.2021
315 Clouds 8 1027 85 9000 4.63 70 18:36 14.11.2021
316 Clouds 8 1027 87 9000 4.12 70 18:18 14.11.2021
317 Drizzle 8 1027 88 8000 4.12 80 17:57 14.11.2021
318 Drizzle 8 1027 89 8000 4.12 80 17:39 14.11.2021
319 Drizzle 8 1027 89 10000 4.63 60 17:21 14.11.2021
320 Clouds 8 1027 89 10000 4.12 80 16:49 14.11.2021
321 Clouds 8 1026 89 10000 2.57 80 16:21 14.11.2021
322 Clouds 8 1026 89 10000 2.57 90 15:46 14.11.2021
323 Clouds 8 1026 90 10000 4.12 70 15:18 14.11.2021
324 Clouds 9 1026 88 10000 4.63 60 14:32 14.11.2021
325 Clouds 9 1025 90 10000 3.09 80 13:59 14.11.2021
326 Clouds 9 1025 90 10000 3.09 80 13:40 14.11.2021
327 Clouds 9 1025 90 7000 2.57 70 12:45 14.11.2021
328 Clouds 9 1025 93 7000 2.57 70 12:18 14.11.2021
329 Clouds 8 1024 94 7000 3.6 70 10:50 14.11.2021
330 Clouds 8 1024 96 6000 3.09 60 10:27 14.11.2021
331 Drizzle 8 1023 94 4200 3.09 60 08:57 14.11.2021
332 Clouds 8 1021 94 6000 2.57 70 07:28 14.11.2021
333 Mist 8 1018 94 5000 2.57 60 02:20 14.11.2021
334 Clouds 8 1017 94 8000 1.54 110 22:27 13.11.2021
335 Clouds 8 1016 93 7000 2.06 110 21:57 13.11.2021
336 Clouds 8 1016 93 6000 2.06 100 21:27 13.11.2021
337 Mist 8 1015 93 4800 2.57 110 20:24 13.11.2021
338 Drizzle 8 1015 96 4500 1.54 100 18:48 13.11.2021
339 Drizzle 8 1014 93 5000 1.54 120 18:26 13.11.2021
340 Drizzle 8 1013 96 5000 1.54 120 16:48 13.11.2021
341 Mist 8 1013 96 5000 2.57 160 15:41 13.11.2021
342 Drizzle 8 1012 96 7000 2.57 150 14:36 13.11.2021
343 Clouds 8 1012 93 10000 2.57 170 13:46 13.11.2021
344 Mist 8 1012 93 5000 2.57 160 12:38 13.11.2021
345 Mist 7 1012 96 4700 3.09 160 11:39 13.11.2021
346 Drizzle 7 1011 93 5000 3.6 150 10:48 13.11.2021
347 Drizzle 7 1011 93 7000 3.09 160 10:29 13.11.2021
348 Clouds 7 1011 93 10000 3.09 160 09:42 13.11.2021
349 Clouds 7 1011 90 10000 3.6 160 09:18 13.11.2021
350 Clouds 7 1010 90 10000 3.6 150 08:40 13.11.2021
351 Clouds 7 1010 92 10000 3.09 140 06:55 13.11.2021
352 Drizzle 7 1009 88 10000 4.12 170 04:34 13.11.2021
353 Clouds 7 1010 81 10000 3.09 140 02:27 13.11.2021
354 Clear 6 1011 84 10000 4.63 140 23:27 12.11.2021
355 Clear 6 1012 87 10000 4.12 140 21:51 12.11.2021
356 Clear 7 1012 84 10000 3.6 140 20:20 12.11.2021
357 Clear 7 1013 84 10000 4.63 150 19:31 12.11.2021
358 Clear 7 1013 82 10000 4.63 140 18:53 12.11.2021
359 Clear 7 1014 86 10000 3.09 150 17:36 12.11.2021
360 Clouds 9 1015 82 10000 4.12 150 15:51 12.11.2021
361 Clouds 9 1017 84 10000 5.66 150 13:26 12.11.2021
362 Clouds 9 1018 90 10000 4.63 150 11:23 12.11.2021
363 Clouds 8 1019 92 6000 4.12 140 09:55 12.11.2021
364 Mist 8 1019 93 5000 4.12 140 08:50 12.11.2021
365 Mist 8 1021 96 4000 2.06 150 06:35 12.11.2021
366 Mist 8 1023 95 4000 2.06 210 23:55 11.11.2021
367 Mist 8 1023 96 4000 2.57 190 22:49 11.11.2021
368 Mist 9 1023 93 4500 2.57 190 21:57 11.11.2021
369 Mist 9 1023 93 5000 2.06 200 20:52 11.11.2021
370 Clouds 9 1023 93 6000 3.09 220 19:48 11.11.2021
371 Clouds 9 1023 93 6000 2.06 220 18:27 11.11.2021
372 Clouds 9 1023 93 6000 2.06 220 18:27 11.11.2021
373 Clouds 9 1023 92 6000 2.06 230 17:41 11.11.2021
374 Clouds 10 1023 88 8000 4.12 240 15:29 11.11.2021
375 Clouds 10 1023 88 9000 5.14 240 14:39 11.11.2021
376 Clouds 10 1023 88 9000 4.63 240 14:21 11.11.2021
377 Clouds 10 1023 89 9000 5.14 240 13:35 11.11.2021
378 Clouds 10 1023 88 8000 4.63 230 12:27 11.11.2021
379 Clouds 9 1023 93 7000 2.57 220 09:59 11.11.2021
380 Drizzle 9 1023 93 6000 2.57 210 09:23 11.11.2021
381 Clouds 8 1023 93 8000 1.54 210 07:33 11.11.2021
382 Clouds 8 1023 93 10000 1.54 200 00:40 11.11.2021
383 Clouds 8 1024 90 10000 1.03 230 22:46 10.11.2021
384 Clouds 8 1024 90 10000 1.03 220 21:54 10.11.2021
385 Clouds 8 1024 90 10000 1.03 220 21:54 10.11.2021
386 Clouds 8 1024 88 10000 2.06 230 20:57 10.11.2021
387 Clouds 8 1024 88 10000 2.06 210 20:25 10.11.2021
388 Clouds 9 1024 88 10000 2.57 210 19:45 10.11.2021
389 Clouds 9 1024 85 10000 2.06 190 17:39 10.11.2021
390 Clouds 9 1023 81 10000 1.03 220 16:21 10.11.2021
391 Clouds 9 1023 80 10000 2.06 250 14:25 10.11.2021
392 Clouds 9 1023 80 10000 1.54 230 13:40 10.11.2021
393 Clouds 8 1024 80 10000 2.06 200 12:39 10.11.2021
394 Clouds 6 1024 87 10000 1.54 180 09:41 10.11.2021
395 Clouds 4 1024 89 10000 1.03 0 08:45 10.11.2021
396 Clear 3 1024 93 10000 2.06 190 07:22 10.11.2021
397 Clear 3 1024 93 10000 1.54 190 05:59 10.11.2021
398 Clear 2 1024 94 10000 2.57 170 04:59 10.11.2021
399 Clear 4 1025 89 10000 0.51 0 22:45 09.11.2021
400 Clear 5 1026 87 10000 1.03 170 21:47 09.11.2021
401 Clear 6 1026 82 10000 1.54 170 20:20 09.11.2021
402 Clear 7 1026 81 10000 1.54 170 19:20 09.11.2021
403 Clear 9 1025 73 10000 3.09 190 17:30 09.11.2021
404 Clear 11 1025 68 10000 4.63 200 15:38 09.11.2021
405 Clear 11 1026 70 10000 5.66 200 13:59 09.11.2021
406 Clear 11 1026 71 10000 5.14 210 12:50 09.11.2021
407 Clear 11 1027 77 10000 5.66 210 11:38 09.11.2021
408 Clear 11 1027 77 10000 5.66 210 11:38 09.11.2021
409 Clear 9 1027 85 10000 3.6 210 10:43 09.11.2021
410 Clear 7 1026 96 10000 2.57 180 09:24 09.11.2021
411 Clouds 6 1026 96 8000 2.57 190 08:19 09.11.2021
412 Clouds 8 1025 95 10000 2.57 180 05:45 09.11.2021
413 Clouds 8 1024 95 10000 1.54 210 02:22 09.11.2021
414 Clouds 8 1024 95 10000 1.03 0 01:43 09.11.2021
415 Clouds 8 1024 95 10000 2.57 230 23:36 08.11.2021
416 Clouds 8 1023 95 10000 3.6 240 22:49 08.11.2021
417 Clouds 8 1023 95 10000 3.09 240 21:55 08.11.2021
418 Clouds 8 1023 93 10000 2.57 230 20:53 08.11.2021
419 Clouds 8 1022 95 10000 2.06 250 19:49 08.11.2021
420 Clouds 8 1022 93 10000 2.57 260 18:25 08.11.2021
421 Drizzle 10 1020 90 10000 5.14 270 16:22 08.11.2021
422 Clouds 10 1020 90 10000 5.14 260 14:58 08.11.2021
423 Clouds 10 1020 89 10000 5.14 260 14:38 08.11.2021
424 Clouds 9 1019 93 10000 7.2 260 13:31 08.11.2021
425 Clouds 9 1019 86 10000 6.69 250 11:56 08.11.2021
426 Clouds 8 1019 89 10000 5.66 240 10:52 08.11.2021
427 Clouds 7 1019 92 10000 5.14 230 09:39 08.11.2021
428 Clouds 6 1018 95 10000 3.09 230 08:54 08.11.2021
429 Clouds 6 1017 97 10000 4.76 258 07:29 08.11.2021
430 Clouds 7 1016 91 10000 5.66 250 03:56 08.11.2021
431 Clouds 7 1016 93 10000 6.17 250 03:28 08.11.2021
432 Clouds 8 1014 91 10000 7.2 260 23:46 07.11.2021
433 Clouds 8 1013 90 10000 8.23 260 21:48 07.11.2021
434 Clouds 8 1012 89 10000 8.23 250 20:54 07.11.2021
435 Clouds 8 1012 87 10000 7.2 260 19:40 07.11.2021
436 Clouds 8 1011 80 10000 7.2 270 18:22 07.11.2021
437 Clouds 9 1010 85 10000 7.14 265 16:54 07.11.2021
438 Clouds 10 1010 75 10000 7.72 270 15:54 07.11.2021
439 Clouds 10 1010 75 10000 9.26 270 14:29 07.11.2021
440 Clouds 11 1010 71 10000 9.77 260 13:35 07.11.2021
441 Clouds 10 1010 79 10000 7.2 260 11:43 07.11.2021
442 Clouds 9 1010 87 10000 7.2 260 09:57 07.11.2021
443 Clouds 9 1010 90 10000 7.2 260 08:31 07.11.2021
444 Clouds 9 1011 93 10000 10.29 230 02:41 07.11.2021
445 Clouds 10 1015 85 10000 8.75 220 23:38 06.11.2021
446 Rain 10 1016 84 10000 8.23 220 22:48 06.11.2021
447 Clouds 10 1017 84 10000 8.75 220 21:34 06.11.2021
448 Clouds 10 1017 83 10000 7.2 220 20:52 06.11.2021
449 Clouds 10 1019 81 10000 7.2 220 18:56 06.11.2021
450 Clouds 10 1021 84 10000 6.17 220 16:47 06.11.2021
451 Clouds 10 1021 84 10000 6.17 220 16:47 06.11.2021
452 Clouds 10 1021 84 10000 6.69 220 15:21 06.11.2021
453 Clouds 9 1023 88 10000 7.2 220 13:38 06.11.2021
454 Clouds 9 1024 89 10000 6.17 230 12:28 06.11.2021
455 Clouds 8 1024 91 10000 6.69 230 09:39 06.11.2021
456 Clouds 8 1024 89 10000 6.17 230 07:57 06.11.2021
457 Clear 7 1024 92 10000 4.63 250 02:40 06.11.2021
458 Clouds 7 1024 89 10000 3.6 250 23:38 05.11.2021
459 Clouds 7 1024 92 10000 4.12 250 22:50 05.11.2021
460 Clouds 8 1024 94 10000 3.6 250 21:54 05.11.2021
461 Clouds 8 1023 92 10000 4.63 240 20:20 05.11.2021
462 Clouds 7 1023 93 10000 4.12 240 19:49 05.11.2021
463 Clouds 8 1022 94 10000 5 253 18:41 05.11.2021
464 Clouds 8 1022 88 10000 3.6 240 17:31 05.11.2021
465 Clouds 11 1021 82 10000 5.14 260 15:48 05.11.2021
466 Clouds 11 1020 74 10000 4.63 250 13:55 05.11.2021
467 Clouds 10 1019 82 10000 4.63 280 11:42 05.11.2021
468 Clouds 7 1016 95 10000 3.09 260 08:41 05.11.2021
469 Clouds 7 1016 95 10000 3.09 270 07:39 05.11.2021
470 Clouds 7 1013 95 10000 2.57 250 05:33 05.11.2021
471 Clear 7 1012 93 10000 3.09 270 02:26 05.11.2021
472 Clouds 7 1011 92 10000 3.09 280 00:53 05.11.2021
473 Clouds 7 1010 89 10000 4.12 290 23:25 04.11.2021
474 Clouds 8 1009 87 10000 4.12 290 22:20 04.11.2021
475 Clouds 8 1008 87 10000 4.12 300 21:43 04.11.2021
476 Clear 8 1008 87 10000 3.6 300 21:19 04.11.2021
477 Clouds 8 1007 88 10000 4.63 290 20:23 04.11.2021
478 Clouds 8 1007 88 10000 5.14 290 19:48 04.11.2021
479 Clouds 8 1007 87 10000 5.14 300 19:19 04.11.2021
480 Clouds 8 1006 86 10000 5.66 310 18:20 04.11.2021
481 Clouds 8 1005 92 10000 3.69 326 17:26 04.11.2021
482 Clouds 9 1004 85 10000 4.12 320 15:34 04.11.2021
483 Clouds 8 1004 94 10000 3.76 340 13:40 04.11.2021
484 Clouds 8 1003 93 8000 3.6 30 09:50 04.11.2021
485 Clouds 7 1003 93 7000 2.57 30 08:31 04.11.2021
486 Clouds 7 1003 97 10000 2.33 55 07:35 04.11.2021
487 Clouds 7 1002 95 8000 2.57 30 06:22 04.11.2021
488 Clouds 7 1003 92 10000 1.54 60 22:54 03.11.2021
489 Rain 7 1003 92 10000 2.06 110 21:51 03.11.2021
490 Rain 7 1003 91 10000 2.06 110 21:33 03.11.2021
491 Rain 7 1003 91 10000 2.57 120 20:38 03.11.2021
492 Rain 7 1003 91 10000 2.06 100 20:19 03.11.2021
493 Rain 7 1002 88 10000 1.54 90 19:19 03.11.2021
494 Rain 8 1002 88 10000 1.03 60 18:25 03.11.2021
495 Rain 8 1002 87 10000 1.03 80 17:41 03.11.2021
496 Clear 8 1002 86 10000 1.03 0 16:31 03.11.2021
497 Clear 9 1002 85 10000 1.54 100 15:47 03.11.2021
498 Clear 9 1002 82 10000 2.06 140 15:28 03.11.2021
499 Clear 9 1002 80 10000 2.06 140 15:28 03.11.2021
500 Clear 9 1002 83 10000 2.06 140 12:42 03.11.2021
501 Clouds 8 1002 93 10000 2.34 202 11:28 03.11.2021
502 Clear 8 1002 86 10000 1.54 190 10:49 03.11.2021
503 Clouds 7 1002 92 6000 3.09 180 09:34 03.11.2021
504 Mist 7 1001 93 5000 1.54 180 08:37 03.11.2021
505 Mist 6 1001 95 5000 2.06 180 07:39 03.11.2021
506 Clouds 7 1002 95 10000 2.95 204 05:45 03.11.2021
507 Clouds 7 1000 92 10000 2.57 170 04:21 03.11.2021
508 Clouds 7 1000 92 10000 2.06 150 00:55 03.11.2021
509 Clouds 6 1000 92 10000 2.57 130 22:52 02.11.2021
510 Clouds 6 1000 92 10000 2.57 130 22:52 02.11.2021
511 Clouds 5 1000 94 10000 1.03 0 21:47 02.11.2021
512 Clear 5 1000 94 10000 1.54 100 20:35 02.11.2021
513 Clear 6 1000 91 10000 1.54 160 19:56 02.11.2021
514 Clear 7 1000 88 10000 1.54 140 19:20 02.11.2021
515 Clouds 8 999 86 10000 1.54 150 18:27 02.11.2021
516 Clouds 9 999 85 10000 1.54 150 17:43 02.11.2021
517 Clouds 10 999 83 10000 1.54 190 16:34 02.11.2021
518 Clouds 11 999 75 10000 1.54 210 15:48 02.11.2021
519 Clouds 11 999 77 10000 3.6 230 14:51 02.11.2021
520 Clouds 11 999 77 10000 3.6 190 13:29 02.11.2021
521 Clouds 11 999 77 10000 3.09 170 12:46 02.11.2021
522 Clouds 10 999 81 10000 2.57 220 11:38 02.11.2021
523 Clear 9 1000 85 10000 2.57 170 10:54 02.11.2021
524 Clear 8 1000 87 10000 2.57 160 10:32 02.11.2021
525 Clear 7 1000 90 10000 2.57 150 09:40 02.11.2021
526 Clear 4 999 94 10000 2.57 120 07:45 02.11.2021
527 Clear 5 999 94 10000 2.06 150 04:39 02.11.2021
528 Clear 5 999 90 10000 1.03 0 03:20 02.11.2021
529 Clear 7 1000 82 10000 3.09 170 23:39 01.11.2021
530 Clear 7 1000 82 10000 3.09 140 21:46 01.11.2021
531 Clear 7 1000 83 10000 3.09 140 20:44 01.11.2021
532 Clear 8 1000 84 10000 2.57 170 19:58 01.11.2021
533 Clear 8 1000 83 10000 2.57 170 19:38 01.11.2021
534 Clear 9 999 80 10000 4.12 160 18:23 01.11.2021
535 Clouds 10 999 76 10000 3.09 170 17:36 01.11.2021
536 Clouds 12 999 71 10000 4.12 200 16:52 01.11.2021
537 Clouds 12 999 70 10000 4.63 200 16:20 01.11.2021
538 Clouds 13 999 67 10000 5.14 210 15:29 01.11.2021
539 Clouds 12 999 69 10000 7.2 220 14:45 01.11.2021
540 Clouds 12 999 70 10000 7.2 220 14:25 01.11.2021
541 Clouds 13 998 64 10000 8.23 210 13:50 01.11.2021
542 Clouds 12 998 74 10000 7.2 200 12:36 01.11.2021
543 Clouds 12 998 73 10000 8.23 200 11:30 01.11.2021
544 Clouds 11 998 84 10000 5.14 200 10:19 01.11.2021
545 Clouds 9 998 89 10000 4.63 190 08:18 01.11.2021
546 Clear 9 997 89 10000 4.12 180 07:45 01.11.2021
547 Clear 11 997 90 10000 4.12 210 03:49 01.11.2021
548 Clouds 12 998 89 10000 5.14 200 01:43 01.11.2021
549 Rain 15 994 81 10000 5.66 150 22:48 31.10.2021
550 Rain 15 996 80 10000 7.2 140 20:50 31.10.2021
551 Clouds 15 998 83 10000 6.17 120 19:22 31.10.2021
552 Clear 15 998 86 10000 5.66 140 18:41 31.10.2021
553 Clouds 14 999 84 10000 5.66 130 17:52 31.10.2021
554 Clouds 15 1002 82 10000 4.63 140 15:51 31.10.2021
555 Clouds 15 1003 79 10000 6.17 140 14:39 31.10.2021
556 Clouds 14 1005 84 10000 4.63 130 12:50 31.10.2021
557 Clouds 13 1006 91 8000 3.6 140 11:42 31.10.2021
558 Clouds 12 1006 96 10000 4.81 166 10:47 31.10.2021
559 Mist 10 1007 96 4000 2.57 130 09:22 31.10.2021
560 Fog 9 1007 95 3800 1.54 130 08:37 31.10.2021
561 Clouds 12 1005 92 10000 4.12 210 02:19 31.10.2021
562 Clouds 11 1003 94 10000 3.6 180 23:41 30.10.2021
563 Clouds 12 1002 79 10000 3.6 170 21:36 30.10.2021
564 Clouds 11 1002 80 10000 3.6 160 20:52 30.10.2021
565 Clouds 12 1002 78 10000 4.63 150 19:23 30.10.2021
566 Clouds 12 1002 80 10000 4.63 130 17:42 30.10.2021
567 Rain 12 1003 74 10000 4.12 120 15:26 30.10.2021
568 Clear 11 1004 77 10000 4.12 130 13:56 30.10.2021
569 Clear 11 1004 80 10000 5.14 110 13:21 30.10.2021
570 Rain 10 1005 79 10000 4.63 120 12:57 30.10.2021
571 Rain 10 1005 84 10000 3.09 130 11:49 30.10.2021
572 Rain 10 1005 83 10000 4.12 130 10:32 30.10.2021
573 Clear 9 1006 87 10000 3.09 120 08:54 30.10.2021
574 Clear 9 1006 90 10000 2.57 120 07:42 30.10.2021
575 Clear 9 1006 87 10000 2.57 140 05:44 30.10.2021
576 Clear 11 1007 81 10000 3.6 160 01:57 30.10.2021
577 Clear 11 1007 81 10000 3.6 140 22:54 29.10.2021
578 Clear 11 1007 80 10000 3.6 140 22:32 29.10.2021
579 Clear 11 1007 82 10000 2.57 150 20:47 29.10.2021
580 Clear 12 1006 80 10000 5.14 130 20:26 29.10.2021
581 Clear 13 1006 78 10000 4.63 150 18:49 29.10.2021
582 Clear 16 1007 70 10000 6.17 150 17:24 29.10.2021
583 Clear 17 1008 65 10000 7.2 160 15:22 29.10.2021
584 Clear 13 1009 73 10000 4.12 150 12:29 29.10.2021
585 Clear 10 1010 81 10000 3.09 130 10:46 29.10.2021
586 Clear 6 1010 90 10000 2.06 140 08:47 29.10.2021
587 Clear 9 1012 85 10000 2.57 140 00:46 29.10.2021
588 Clear 9 1013 87 10000 2.06 170 23:46 28.10.2021
589 Clear 10 1013 81 10000 3.09 150 22:20 28.10.2021
590 Clear 11 1013 77 10000 4.12 150 20:57 28.10.2021
591 Clear 12 1013 77 10000 3.6 140 19:52 28.10.2021
592 Clear 14 1014 75 10000 3.6 140 18:30 28.10.2021
593 Clear 15 1014 73 10000 4.12 150 17:27 28.10.2021
594 Clear 16 1015 69 10000 5.14 160 16:37 28.10.2021
595 Clear 16 1016 71 10000 4.12 170 14:40 28.10.2021
596 Clear 15 1017 77 10000 3.6 170 13:32 28.10.2021
597 Clear 14 1018 81 10000 3.6 160 12:49 28.10.2021
598 Clear 12 1018 87 10000 3.09 140 11:37 28.10.2021
599 Clear 9 1019 95 10000 3.09 150 10:23 28.10.2021
600 Clear 8 1019 95 10000 3.6 140 09:37 28.10.2021
601 Clouds 8 1019 95 9000 3.09 140 08:36 28.10.2021
602 Clear 8 1019 95 10000 3.09 140 07:41 28.10.2021
603 Clouds 10 1020 93 6000 1.03 0 01:37 28.10.2021
604 Clear 12 1020 86 10000 3.09 200 22:49 27.10.2021
605 Clouds 13 1020 85 10000 2.57 200 21:53 27.10.2021
606 Clouds 14 1020 83 10000 3.6 200 21:20 27.10.2021
607 Clouds 14 1020 84 10000 2.57 200 20:43 27.10.2021
608 Clouds 14 1020 83 10000 2.06 200 19:46 27.10.2021
609 Clouds 14 1020 81 10000 3.6 220 18:56 27.10.2021
610 Clouds 15 1020 80 10000 4.12 230 17:49 27.10.2021
611 Clouds 15 1020 80 10000 7.72 240 16:25 27.10.2021
612 Clouds 15 1020 84 10000 5.14 230 15:25 27.10.2021
613 Clouds 14 1021 89 8000 6.17 220 14:24 27.10.2021
614 Drizzle 14 1021 92 7000 6.17 220 11:18 27.10.2021
615 Clouds 14 1020 93 7000 5.66 230 10:37 27.10.2021
616 Drizzle 13 1020 95 6000 4.12 210 09:28 27.10.2021
617 Mist 13 1019 95 5000 3.6 210 07:46 27.10.2021
618 Clouds 13 1019 91 10000 5.14 220 05:49 27.10.2021
619 Clouds 13 1019 88 10000 6.17 230 01:26 27.10.2021
620 Clouds 13 1019 82 10000 6.69 220 00:54 27.10.2021
621 Clouds 13 1019 85 10000 6.17 220 23:55 26.10.2021
622 Clouds 13 1019 86 10000 4.63 220 22:47 26.10.2021
623 Clouds 12 1019 86 10000 5.14 220 22:27 26.10.2021
624 Clouds 12 1018 86 10000 5.66 220 21:51 26.10.2021
625 Clouds 12 1019 91 10000 3.6 210 19:59 26.10.2021
626 Clouds 12 1019 92 10000 2.06 200 19:22 26.10.2021
627 Clouds 11 1018 94 4500 5.14 230 18:25 26.10.2021
628 Clouds 14 1018 78 10000 6.17 230 15:51 26.10.2021
629 Clouds 13 1018 80 10000 6.17 240 14:18 26.10.2021
630 Clouds 12 1018 91 10000 4.12 220 11:23 26.10.2021
631 Clouds 11 1017 95 10000 4.63 230 09:27 26.10.2021
632 Clouds 10 1016 95 10000 3.6 230 07:23 26.10.2021
633 Clouds 11 1016 89 10000 2.57 200 00:31 26.10.2021
634 Clouds 11 1016 87 10000 2.57 200 23:48 25.10.2021
635 Clouds 11 1016 87 10000 2.06 210 22:35 25.10.2021
636 Clouds 11 1016 87 10000 2.57 190 21:47 25.10.2021
637 Clouds 11 1016 87 10000 2.57 210 21:23 25.10.2021
638 Clouds 12 1016 83 10000 2.06 180 19:44 25.10.2021
639 Clouds 12 1016 84 10000 3.09 200 19:24 25.10.2021
640 Clouds 12 1016 85 10000 2.57 200 18:42 25.10.2021
641 Clouds 12 1016 81 10000 2.57 170 17:42 25.10.2021
642 Clouds 12 1017 85 10000 3.6 190 15:31 25.10.2021
643 Clouds 10 1018 84 10000 3.6 190 13:29 25.10.2021
644 Clouds 8 1017 87 10000 1.54 0 11:25 25.10.2021
645 Clear 3 1018 94 10000 2.06 160 09:23 25.10.2021
646 Clear 2 1018 94 10000 2.57 170 07:26 25.10.2021
647 Clear 3 1018 93 10000 1.03 160 05:24 25.10.2021
648 Clear 5 1019 86 10000 3.09 140 00:52 25.10.2021
649 Clear 4 1019 88 10000 3.09 140 00:34 25.10.2021
650 Clear 4 1020 87 10000 3.09 140 00:34 25.10.2021
651 Clear 4 1020 87 10000 3.09 140 00:34 25.10.2021
652 Clear 5 1020 87 10000 2.06 130 23:44 24.10.2021
653 Clear 6 1020 85 10000 3.09 160 22:39 24.10.2021
654 Clear 6 1019 82 10000 4.63 150 22:20 24.10.2021
655 Clear 6 1019 81 10000 4.12 140 21:33 24.10.2021
656 Clear 7 1020 82 10000 0.51 0 20:42 24.10.2021
657 Clear 8 1021 80 10000 3.09 120 19:49 24.10.2021
658 Clear 10 1022 73 10000 3.6 140 18:30 24.10.2021
659 Clear 11 1022 71 10000 3.6 140 17:48 24.10.2021
660 Clear 12 1023 65 10000 5.66 150 15:57 24.10.2021
661 Clear 12 1024 66 10000 6.17 170 15:20 24.10.2021
662 Clear 11 1025 71 10000 3.09 140 13:23 24.10.2021
663 Clear 9 1026 79 10000 3.09 140 12:26 24.10.2021
664 Clear 8 1026 83 10000 3.6 140 11:36 24.10.2021
665 Clear 6 1026 83 10000 4.12 140 10:40 24.10.2021
666 Clear 3 1027 95 10000 2.06 120 08:43 24.10.2021
667 Clear 5 1028 89 10000 1.54 150 02:58 24.10.2021
668 Clear 4 1028 91 10000 1.03 0 23:55 23.10.2021
669 Clear 4 1028 91 10000 2.06 160 22:54 23.10.2021
670 Clear 6 1028 87 10000 2.06 200 20:59 23.10.2021
671 Clear 7 1028 84 10000 2.06 210 19:36 23.10.2021
672 Clear 8 1027 81 10000 2.57 220 18:44 23.10.2021
673 Clouds 11 1027 71 10000 1.54 260 17:46 23.10.2021
674 Clouds 11 1027 70 10000 3.09 290 17:18 23.10.2021
675 Clouds 12 1027 68 10000 4.63 250 15:57 23.10.2021
676 Clouds 11 1026 78 10000 5.14 270 13:35 23.10.2021
677 Clouds 6 1019 92 10000 5.66 260 00:45 23.10.2021
678 Clouds 6 1018 89 10000 5.14 260 23:41 22.10.2021
679 Clouds 6 1016 86 10000 5.66 260 21:37 22.10.2021
680 Clouds 6 1014 85 10000 4.63 270 19:33 22.10.2021
681 Clouds 8 1012 83 10000 6.69 290 18:25 22.10.2021
682 Clouds 9 1010 84 10000 7.2 280 16:44 22.10.2021
683 Rain 9 1008 91 10000 9.26 270 14:45 22.10.2021
684 Rain 9 1007 90 6000 12.35 250 12:41 22.10.2021
685 Clouds 9 1006 83 10000 11.32 240 10:57 22.10.2021
686 Clouds 9 1006 84 10000 11.32 240 10:33 22.10.2021
687 Clouds 8 1006 84 10000 10.8 240 09:34 22.10.2021
688 Clouds 7 1007 86 10000 9.26 230 07:40 22.10.2021
689 Clouds 7 1007 86 10000 9.26 230 07:21 22.10.2021
690 Clouds 7 1007 86 10000 9.26 230 07:21 22.10.2021
691 Clear 6 1008 89 10000 7.2 250 01:41 22.10.2021
692 Clouds 6 1008 88 10000 7.2 250 23:50 21.10.2021
693 Clouds 6 1007 88 10000 6.17 250 22:44 21.10.2021
694 Clouds 6 1006 87 10000 5.66 240 21:38 21.10.2021
695 Clouds 6 1004 87 10000 6.17 260 20:24 21.10.2021
696 Clouds 7 1004 85 10000 7.72 280 19:55 21.10.2021
697 Clouds 7 1003 85 10000 6.69 260 19:25 21.10.2021
698 Clouds 7 1002 88 10000 6.69 250 18:34 21.10.2021
699 Clouds 7 1001 92 10000 4.63 270 17:53 21.10.2021
700 Clouds 8 1000 94 10000 8.29 292 16:50 21.10.2021
701 Rain 9 998 90 10000 6.69 260 15:33 21.10.2021
702 Rain 8 997 93 4800 8.75 280 14:57 21.10.2021
703 Rain 9 997 97 10000 7.61 275 14:37 21.10.2021
704 Rain 10 991 93 10000 10.8 260 11:59 21.10.2021
705 Rain 10 985 92 10000 14.4 280 09:55 21.10.2021
706 Rain 11 983 91 9000 8.23 210 08:20 21.10.2021
707 Clouds 12 984 88 10000 14.4 230 06:54 21.10.2021
708 Clouds 13 994 91 10000 3.6 210 00:51 21.10.2021
709 Clouds 13 996 89 10000 5.66 230 22:41 20.10.2021
710 Clouds 14 997 91 10000 8.47 225 21:50 20.10.2021
711 Rain 15 997 88 10000 7.2 220 21:18 20.10.2021
712 Rain 15 997 86 10000 7.2 220 20:39 20.10.2021
713 Clouds 15 997 86 10000 7.72 220 20:21 20.10.2021
714 Clouds 16 998 81 10000 8.75 210 19:26 20.10.2021
715 Clouds 17 998 81 10000 8.23 210 18:45 20.10.2021
716 Clouds 17 998 81 10000 8.23 210 18:45 20.10.2021
717 Clouds 17 999 81 10000 9.26 220 17:39 20.10.2021
718 Clouds 17 999 80 10000 10.8 230 15:26 20.10.2021
719 Clear 16 1003 79 10000 6.17 210 10:21 20.10.2021
720 Clear 14 1005 83 10000 4.63 210 07:43 20.10.2021
721 Clear 15 1009 90 10000 4.12 210 02:41 20.10.2021
722 Clouds 16 1010 89 10000 7.2 220 00:34 20.10.2021
723 Clouds 17 1011 92 10000 6.69 220 23:32 19.10.2021
724 Clouds 16 1012 95 10000 5.14 220 21:40 19.10.2021
725 Clouds 16 1012 95 10000 5.14 210 20:36 19.10.2021
726 Clouds 16 1012 96 10000 5.14 210 20:18 19.10.2021
727 Drizzle 16 1012 96 9000 5.14 210 19:37 19.10.2021
728 Clouds 16 1012 96 10000 5.14 210 18:47 19.10.2021
729 Drizzle 16 1013 96 4200 5.14 210 17:56 19.10.2021
730 Drizzle 15 1014 95 3800 4.63 200 15:31 19.10.2021
731 Drizzle 14 1015 95 4500 3.6 190 14:46 19.10.2021
732 Drizzle 14 1015 95 4500 3.6 190 14:46 19.10.2021
733 Mist 14 1015 95 4500 4.12 190 13:57 19.10.2021
734 Clouds 14 1016 88 10000 5.14 200 12:24 19.10.2021
735 Clouds 14 1016 88 10000 4.63 190 11:31 19.10.2021
736 Clouds 12 1016 88 10000 4.12 190 09:55 19.10.2021
737 Clouds 11 1017 88 10000 3.09 190 08:57 19.10.2021
738 Clear 11 1019 87 10000 2.06 150 04:25 19.10.2021
739 Clear 10 1020 89 10000 2.57 170 00:23 19.10.2021
740 Clear 9 1020 89 10000 2.57 170 23:49 18.10.2021
741 Clear 10 1020 86 10000 3.09 160 23:18 18.10.2021
742 Clear 10 1020 88 10000 4.12 140 22:31 18.10.2021
743 Clear 10 1020 88 10000 4.12 140 22:31 18.10.2021
744 Clear 11 1021 84 10000 2.57 140 20:57 18.10.2021
745 Clear 11 1021 85 10000 2.57 140 20:33 18.10.2021
746 Clear 11 1021 83 10000 1.54 130 19:50 18.10.2021
747 Clear 11 1021 83 10000 1.54 150 19:28 18.10.2021
748 Clear 12 1021 80 10000 1.54 180 18:52 18.10.2021
749 Clear 14 1022 71 10000 3.09 200 15:25 18.10.2021
750 Clear 13 1023 76 10000 3.09 180 12:55 18.10.2021
751 Clear 11 1023 81 10000 2.57 220 10:36 18.10.2021
752 Clear 10 1022 80 10000 3.09 200 09:28 18.10.2021
753 Clear 10 1021 82 10000 3.09 230 02:30 18.10.2021
754 Clear 10 1021 82 10000 2.57 220 23:30 17.10.2021
755 Clouds 11 1020 79 10000 3.09 220 21:52 17.10.2021
756 Clouds 11 1020 78 10000 3.09 220 21:00 17.10.2021
757 Clouds 11 1020 78 10000 3.09 220 20:38 17.10.2021
758 Clouds 11 1020 77 10000 3.09 210 19:39 17.10.2021
759 Clouds 11 1019 78 10000 3.71 222 18:58 17.10.2021
760 Clear 12 1019 73 10000 3.09 210 17:34 17.10.2021
761 Clear 12 1019 74 10000 3.09 230 15:42 17.10.2021
762 Clear 12 1019 74 10000 4.12 220 14:24 17.10.2021
763 Clear 12 1019 73 10000 4.12 230 13:42 17.10.2021
764 Clouds 11 1019 76 10000 3.6 220 11:58 17.10.2021
765 Clouds 10 1019 81 10000 3.6 220 10:43 17.10.2021
766 Clouds 9 1019 83 10000 2.57 230 09:41 17.10.2021
767 Clouds 9 1018 84 10000 2.57 240 07:19 17.10.2021
768 Clear 9 1019 77 10000 3.6 210 00:55 17.10.2021
769 Clear 9 1019 78 10000 3.6 210 00:23 17.10.2021
770 Clear 8 1020 83 10000 2.57 210 21:52 16.10.2021
771 Clear 9 1020 79 10000 2.57 210 20:32 16.10.2021
772 Clear 10 1020 78 10000 3.09 200 19:55 16.10.2021
773 Clear 10 1020 78 10000 3.09 200 19:37 16.10.2021
774 Clouds 10 1020 78 10000 3.09 200 19:18 16.10.2021
775 Clouds 10 1020 77 10000 3.6 210 18:42 16.10.2021
776 Clouds 10 1020 78 10000 3.6 220 18:19 16.10.2021
777 Clouds 11 1020 75 10000 3.6 210 17:28 16.10.2021
778 Clouds 11 1021 75 10000 4.63 230 15:38 16.10.2021
779 Clouds 10 1021 91 10000 3.68 266 12:30 16.10.2021
780 Clouds 9 1021 92 10000 2.06 230 10:49 16.10.2021
781 Clouds 7 1021 98 10000 1.03 0 08:54 16.10.2021
782 Clouds 6 1020 94 10000 1.54 250 01:27 16.10.2021
783 Clouds 7 1020 98 10000 2.06 230 23:59 15.10.2021
784 Clouds 7 1019 96 10000 1.54 230 23:25 15.10.2021
785 Clouds 8 1019 94 10000 2.57 270 22:20 15.10.2021
786 Clouds 8 1019 92 10000 2.06 260 21:32 15.10.2021
787 Clear 9 1019 92 10000 3.31 277 20:52 15.10.2021
788 Clear 9 1018 92 10000 3.26 280 20:18 15.10.2021
789 Clouds 11 1017 83 10000 4.12 300 18:45 15.10.2021
790 Clouds 11 1016 79 10000 5.14 290 17:59 15.10.2021
791 Clouds 14 1015 66 10000 7.72 300 15:45 15.10.2021
792 Clouds 13 1014 72 10000 7.2 300 13:39 15.10.2021
793 Clouds 11 1013 93 10000 5.14 290 11:46 15.10.2021
794 Rain 10 1012 95 9000 4.63 300 10:58 15.10.2021
795 Rain 11 1011 92 6000 6.69 310 10:19 15.10.2021
796 Clouds 12 1010 89 10000 7.2 220 06:57 15.10.2021
797 Clouds 13 1013 85 10000 7.2 230 02:31 15.10.2021
798 Clouds 13 1015 86 10000 6.17 240 00:22 15.10.2021
799 Clouds 12 1016 88 10000 3.6 220 22:54 14.10.2021
800 Clouds 12 1017 84 10000 4.63 230 21:46 14.10.2021
801 Clouds 13 1017 81 10000 4.63 240 21:19 14.10.2021
802 Clouds 13 1018 83 10000 4.63 230 20:20 14.10.2021
803 Clouds 13 1018 84 10000 3.6 250 19:42 14.10.2021
804 Clouds 13 1018 81 10000 4.63 240 18:26 14.10.2021
805 Clouds 14 1019 77 10000 5.66 260 16:57 14.10.2021
806 Clouds 14 1019 75 10000 6.17 260 16:21 14.10.2021
807 Clouds 14 1019 83 10000 7.2 270 14:44 14.10.2021
808 Clouds 14 1020 83 10000 6.17 260 14:26 14.10.2021
809 Clouds 13 1020 89 10000 6.69 260 12:35 14.10.2021
810 Drizzle 13 1020 94 10000 7.2 260 11:26 14.10.2021
811 Clouds 11 1021 97 10000 4.77 273 08:26 14.10.2021
812 Clouds 11 1021 99 10000 4.51 270 05:52 14.10.2021
813 Clouds 10 1022 96 10000 6.11 244 00:41 14.10.2021
814 Clouds 10 1023 91 10000 5.66 260 22:40 13.10.2021
815 Clear 10 1023 91 10000 2.57 230 21:36 13.10.2021
816 Clouds 10 1023 91 10000 2.57 260 20:45 13.10.2021
817 Rain 11 1023 87 10000 3.6 260 19:24 13.10.2021
818 Rain 11 1023 89 10000 3.6 270 18:38 13.10.2021
819 Clouds 11 1023 88 10000 3.09 250 16:37 13.10.2021
820 Clouds 12 1023 90 10000 2.06 280 14:47 13.10.2021
821 Clouds 11 1023 92 10000 4.63 290 14:25 13.10.2021
822 Rain 10 1023 91 10000 4.63 290 12:48 13.10.2021
823 Clouds 10 1022 94 10000 2.57 250 11:37 13.10.2021
824 Clouds 7 1022 96 10000 1.54 250 10:18 13.10.2021
825 Fog 3 1021 98 500 0.51 0 07:53 13.10.2021
826 Fog 4 1020 98 600 1.54 240 04:50 13.10.2021
827 Clouds 5 1020 96 10000 1.43 342 02:22 13.10.2021
828 Fog 5 1019 98 10000 1.54 250 23:38 12.10.2021
829 Clear 6 1019 98 10000 2.06 300 22:53 12.10.2021
830 Clear 6 1019 98 10000 2.06 300 22:34 12.10.2021
831 Clouds 7 1018 97 10000 2.57 290 20:54 12.10.2021
832 Clouds 7 1017 94 10000 3.09 290 20:31 12.10.2021
833 Clouds 8 1017 94 10000 2.57 290 19:45 12.10.2021
834 Clouds 10 1017 80 10000 4.12 300 18:26 12.10.2021
835 Clouds 11 1016 80 10000 5.14 310 17:29 12.10.2021
836 Clouds 11 1016 76 10000 5.66 320 16:24 12.10.2021
837 Clouds 11 1016 81 10000 5.66 300 15:35 12.10.2021
838 Clouds 12 1016 79 10000 3.6 290 14:20 12.10.2021
839 Clouds 10 1016 86 10000 5.66 300 13:41 12.10.2021
840 Clouds 11 1016 92 8000 3.6 340 11:31 12.10.2021
841 Clouds 11 1016 92 8000 3.6 340 11:30 12.10.2021
842 Clouds 10 1017 96 10000 3.09 290 09:41 12.10.2021
843 Clouds 9 1016 98 8000 3.6 290 08:31 12.10.2021
844 Rain 9 1017 96 8000 4.12 300 06:46 12.10.2021
845 Rain 9 1018 93 10000 5.66 260 04:52 12.10.2021
846 Clouds 9 1018 95 10000 5.14 250 04:28 12.10.2021
847 Clouds 9 1021 93 10000 3.6 270 23:59 11.10.2021
848 Rain 9 1021 92 10000 3.6 270 23:37 11.10.2021
849 Clear 8 1022 94 10000 3.6 260 22:52 11.10.2021
850 Clouds 9 1022 92 10000 3.09 270 21:32 11.10.2021
851 Clouds 9 1022 91 10000 3.09 270 20:31 11.10.2021
852 Clouds 11 1022 88 10000 4.12 300 19:36 11.10.2021
853 Clouds 11 1022 87 10000 5.14 290 18:23 11.10.2021
854 Clouds 14 1022 73 10000 6.69 300 16:41 11.10.2021
855 Clouds 14 1022 75 10000 7.2 300 16:21 11.10.2021
856 Clouds 14 1022 78 10000 6.17 290 15:45 11.10.2021
857 Clouds 14 1023 74 10000 6.17 280 14:54 11.10.2021
858 Clouds 15 1023 77 10000 6.69 270 14:22 11.10.2021
859 Clouds 14 1023 75 10000 5.66 270 13:35 11.10.2021
860 Clouds 13 1023 84 10000 4.63 280 11:25 11.10.2021
861 Clouds 10 1023 95 10000 3.09 260 09:47 11.10.2021
862 Clouds 10 1023 95 10000 2.57 280 08:40 11.10.2021
863 Clouds 8 1023 94 8000 1.03 0 01:47 11.10.2021
864 Clouds 7 1023 94 8000 0.51 0 01:20 11.10.2021
865 Clouds 7 1024 97 8000 0.51 260 00:42 11.10.2021
866 Fog 6 1024 96 700 0.51 0 23:35 10.10.2021
867 Mist 7 1025 95 3000 1.03 200 21:51 10.10.2021
868 Mist 7 1025 92 3500 1.03 0 21:26 10.10.2021
869 Clouds 8 1025 91 7000 1.03 280 20:41 10.10.2021
870 Clear 9 1025 90 10000 1.54 300 20:20 10.10.2021
871 Clear 9 1024 86 10000 1.03 260 19:49 10.10.2021
872 Clear 10 1024 83 10000 1.54 260 19:31 10.10.2021
873 Clear 12 1024 74 10000 2.06 240 18:23 10.10.2021
874 Clear 14 1026 64 10000 3.09 210 15:54 10.10.2021
875 Clear 14 1026 64 10000 3.09 210 15:36 10.10.2021
876 Clear 12 1026 69 10000 2.57 150 13:42 10.10.2021
877 Clear 10 1027 73 10000 2.06 180 12:44 10.10.2021
878 Clear 10 1027 72 10000 2.57 140 12:22 10.10.2021
879 Clear 7 1027 76 10000 2.57 160 10:33 10.10.2021
880 Clear 4 1027 89 10000 1.03 0 09:27 10.10.2021
881 Clear 4 1027 87 10000 2.57 120 08:52 10.10.2021
882 Clear 3 1028 89 10000 1.54 90 06:36 10.10.2021
883 Clear 6 1029 82 10000 2.57 130 02:28 10.10.2021
884 Clear 7 1030 82 10000 2.57 110 00:54 10.10.2021
885 Clear 8 1030 79 10000 3.09 110 23:52 09.10.2021
886 Clear 10 1030 74 10000 4.12 110 22:26 09.10.2021
887 Clear 10 1030 70 10000 3.09 100 21:30 09.10.2021
888 Clear 10 1030 69 10000 3.09 100 20:43 09.10.2021
889 Clear 11 1030 67 10000 2.57 100 19:42 09.10.2021
890 Clear 13 1030 59 10000 3.09 110 18:57 09.10.2021
891 Clear 14 1030 55 10000 3.09 110 18:27 09.10.2021
892 Clear 15 1031 51 10000 4.12 110 16:28 09.10.2021
893 Clear 15 1031 58 10000 4.63 120 14:57 09.10.2021
894 Clear 14 1032 65 10000 4.63 120 13:40 09.10.2021
895 Clear 13 1032 68 10000 4.63 100 12:37 09.10.2021
896 Clear 11 1032 76 10000 4.63 120 11:33 09.10.2021
897 Clear 9 1032 86 10000 3.09 90 10:38 09.10.2021
898 Clear 7 1032 92 10000 2.06 80 09:35 09.10.2021
899 Clear 5 1031 100 10000 3.09 80 08:28 09.10.2021
900 Clear 6 1031 96 10000 2.57 90 07:37 09.10.2021
901 Mist 7 1031 100 5000 2.06 60 05:28 09.10.2021
902 Mist 10 1032 98 3500 3.09 60 02:49 09.10.2021
903 Clouds 10 1032 98 6000 3.6 80 00:58 09.10.2021
904 Clear 10 1032 97 10000 3.09 70 23:36 08.10.2021
905 Clear 11 1032 94 10000 3.6 70 22:53 08.10.2021
906 Clear 12 1032 93 10000 3.6 80 21:50 08.10.2021
907 Clouds 13 1032 84 10000 3.09 80 20:36 08.10.2021
908 Clouds 15 1031 75 10000 3.09 60 18:50 08.10.2021
909 Clouds 17 1031 65 10000 3.09 110 17:28 08.10.2021
910 Clouds 17 1031 65 10000 2.57 110 16:48 08.10.2021
911 Clouds 18 1032 64 10000 3.09 110 16:22 08.10.2021
912 Clouds 17 1033 66 10000 3.09 80 13:56 08.10.2021
913 Clear 16 1033 69 10000 2.57 80 12:48 08.10.2021
914 Clear 13 1033 85 10000 1.03 0 11:31 08.10.2021
915 Clear 10 1033 93 10000 1.03 0 10:32 08.10.2021
916 Fog 5 1032 98 450 1.03 150 07:34 08.10.2021
917 Clear 9 1031 94 10000 1.54 60 23:33 07.10.2021
918 Clear 9 1030 94 10000 2.06 80 22:58 07.10.2021
919 Clouds 11 1030 91 10000 0.51 0 21:34 07.10.2021
920 Clouds 12 1030 90 10000 0.51 280 20:58 07.10.2021
921 Clouds 14 1030 85 10000 1.54 240 19:46 07.10.2021
922 Clouds 14 1029 85 10000 1.03 0 19:27 07.10.2021
923 Clouds 14 1029 81 10000 1.54 170 17:49 07.10.2021
924 Clouds 15 1029 80 10000 2.06 170 17:18 07.10.2021
925 Clouds 15 1028 72 10000 2.06 150 15:24 07.10.2021
926 Clouds 15 1028 76 10000 2.57 160 13:45 07.10.2021
927 Clouds 15 1028 76 10000 2.57 160 13:27 07.10.2021
928 Clouds 14 1028 79 10000 1.54 0 12:39 07.10.2021
929 Clouds 12 1027 91 10000 2.06 110 10:49 07.10.2021
930 Clouds 10 1027 93 10000 2.06 100 10:19 07.10.2021
931 Clouds 9 1026 95 10000 0 0 08:56 07.10.2021
932 Clouds 9 1026 95 10000 0 0 08:35 07.10.2021
933 Clouds 9 1025 98 10000 0.51 0 07:42 07.10.2021
934 Clouds 9 1025 95 10000 1.54 80 06:59 07.10.2021
935 Clouds 11 1022 92 10000 2.06 100 02:24 07.10.2021
936 Clouds 11 1020 95 10000 2.06 120 23:40 06.10.2021
937 Clouds 11 1019 96 10000 2.78 128 22:46 06.10.2021
938 Clouds 11 1019 95 10000 2.57 130 21:53 06.10.2021
939 Clouds 11 1018 96 10000 3.09 140 20:35 06.10.2021
940 Clouds 12 1017 92 10000 3.6 150 19:48 06.10.2021
941 Clouds 12 1016 90 10000 3.6 140 18:39 06.10.2021
942 Clouds 13 1015 85 10000 4.63 150 16:55 06.10.2021
943 Clouds 13 1014 80 10000 6.17 190 15:26 06.10.2021
944 Clouds 13 1013 73 10000 7.2 190 13:54 06.10.2021
945 Clouds 13 1012 76 10000 5.14 180 12:59 06.10.2021
946 Clouds 13 1012 76 10000 5.14 180 12:40 06.10.2021
947 Clouds 13 1012 76 10000 5.66 180 12:21 06.10.2021
948 Clouds 12 1010 85 10000 5.66 200 09:59 06.10.2021
949 Clouds 12 1010 84 10000 5.66 200 09:39 06.10.2021
950 Clouds 11 1009 87 10000 5.66 190 08:42 06.10.2021
951 Clouds 11 1009 90 10000 5.66 200 07:44 06.10.2021
952 Clear 11 1007 90 10000 5.14 200 05:26 06.10.2021
953 Rain 13 1005 90 10000 2.57 210 00:26 06.10.2021
954 Clouds 13 1005 90 10000 4.12 200 23:57 05.10.2021
955 Rain 13 1005 90 10000 4.12 200 23:38 05.10.2021
956 Rain 13 1005 90 10000 4.63 200 23:20 05.10.2021
957 Rain 13 1004 89 10000 4.12 160 22:27 05.10.2021
958 Rain 13 1004 89 10000 4.12 160 22:27 05.10.2021
959 Rain 13 1004 86 10000 4.63 150 21:47 05.10.2021
960 Rain 13 1004 86 10000 4.63 130 20:41 05.10.2021
961 Clear 13 1004 86 10000 4.63 120 20:23 05.10.2021
962 Clear 13 1004 83 10000 4.12 120 19:43 05.10.2021
963 Clouds 14 1004 80 10000 4.63 130 18:54 05.10.2021
964 Clouds 16 1005 73 10000 5.14 140 16:38 05.10.2021
965 Clouds 14 1007 79 10000 5.14 150 14:36 05.10.2021
966 Clouds 14 1007 80 10000 4.63 140 13:35 05.10.2021
967 Clear 13 1008 86 10000 4.12 130 12:47 05.10.2021
968 Clear 13 1009 87 10000 4.12 130 12:18 05.10.2021
969 Clear 11 1009 91 10000 3.09 130 11:19 05.10.2021
970 Clear 9 1011 95 10000 2.06 100 09:26 05.10.2021
971 Clear 9 1013 94 10000 1.54 130 04:47 05.10.2021
972 Clear 10 1015 88 10000 3.6 140 23:53 04.10.2021
973 Clear 11 1015 86 10000 3.6 150 22:38 04.10.2021
974 Clear 12 1016 83 10000 3.09 170 20:29 04.10.2021
975 Clouds 15 1015 66 10000 3.6 190 18:34 04.10.2021
976 Clouds 15 1015 66 10000 3.6 190 18:34 04.10.2021
977 Clouds 17 1015 63 10000 6.17 200 16:34 04.10.2021
978 Clouds 17 1015 68 10000 6.69 190 15:31 04.10.2021
979 Clouds 17 1015 68 10000 6.69 190 15:31 04.10.2021
980 Clouds 16 1016 72 10000 5.14 190 14:43 04.10.2021
981 Clear 15 1016 76 10000 4.63 190 13:57 04.10.2021
982 Clear 15 1016 78 10000 4.63 190 13:25 04.10.2021
983 Clouds 14 1015 84 10000 3.6 190 12:28 04.10.2021
984 Clouds 13 1015 88 10000 3.6 200 11:31 04.10.2021
985 Clear 12 1015 88 10000 3.09 190 10:23 04.10.2021
986 Clear 10 1014 94 10000 2.57 190 08:42 04.10.2021
987 Clear 10 1013 92 10000 3.6 190 07:37 04.10.2021
988 Clear 11 1011 94 10000 4.12 200 01:56 04.10.2021
989 Clouds 12 1009 92 10000 3.6 230 22:41 03.10.2021
990 Clouds 12 1007 95 10000 3.6 250 21:42 03.10.2021
991 Clouds 12 1005 97 10000 3.09 270 21:23 03.10.2021
992 Clouds 14 1003 91 10000 7.2 270 20:21 03.10.2021
993 Rain 17 1001 82 10000 6.69 210 19:30 03.10.2021
994 Clouds 20 999 73 10000 4.63 190 18:28 03.10.2021
995 Rain 20 999 71 10000 5.66 180 17:28 03.10.2021
996 Rain 20 998 74 10000 8.75 170 14:48 03.10.2021
997 Rain 19 998 74 10000 10.29 170 14:27 03.10.2021
998 Rain 19 998 77 10000 8.23 180 13:34 03.10.2021
999 Rain 19 998 78 10000 7.72 170 12:41 03.10.2021
1000 Rain 19 998 77 10000 8.23 170 10:52 03.10.2021
1001 Clouds 19 997 72 10000 10.8 180 09:34 03.10.2021
1002 Clouds 17 997 77 10000 8.75 170 03:36 03.10.2021
1003 Clouds 16 1002 77 10000 7.2 150 22:46 02.10.2021
1004 Clouds 15 1004 82 10000 5.66 140 21:30 02.10.2021
1005 Clouds 15 1005 86 10000 4.09 143 19:54 02.10.2021
1006 Clouds 15 1006 81 10000 4.12 140 18:56 02.10.2021
1007 Clouds 16 1007 81 10000 5.14 150 18:18 02.10.2021
1008 Clouds 16 1007 80 10000 6.17 150 17:36 02.10.2021
1009 Clouds 16 1009 73 10000 5.66 180 15:53 02.10.2021
1010 Clear 11 1017 75 10000 6.17 180 06:59 01.10.2021
1011 Clouds 16 1022 58 10000 7.72 240 15:37 30.09.2021
1012 Clouds 15 1022 65 10000 9.26 250 13:51 30.09.2021
1013 Clouds 13 1022 76 10000 9.77 250 11:38 30.09.2021
1014 Clouds 12 1022 84 10000 7.72 240 10:46 30.09.2021
1015 Clear 10 1021 86 10000 7.72 240 09:44 30.09.2021
1016 Clouds 9 1020 90 10000 6.69 230 08:30 30.09.2021
1017 Clouds 9 1020 91 10000 7.72 230 07:34 30.09.2021
1018 Clouds 9 1019 91 10000 7.72 240 05:18 30.09.2021
1019 Clouds 10 1016 93 10000 8.75 230 01:20 30.09.2021
1020 Rain 10 1016 93 10000 8.23 230 00:23 30.09.2021
1021 Clouds 10 1016 92 10000 9.26 230 22:37 29.09.2021
1022 Clouds 10 1015 91 10000 7.72 230 21:25 29.09.2021
1023 Clouds 10 1015 92 10000 7.72 220 20:27 29.09.2021
1024 Clouds 11 1014 92 10000 6.69 230 19:51 29.09.2021
1025 Clouds 11 1014 92 10000 7.2 240 18:50 29.09.2021
1026 Clouds 11 1013 89 10000 7.72 240 17:41 29.09.2021
1027 Clouds 13 1012 90 10000 5.66 230 16:48 29.09.2021
1028 Rain 13 1012 87 10000 5.66 200 15:58 29.09.2021
1029 Rain 14 1012 82 10000 4.12 190 14:39 29.09.2021
1030 Clouds 15 1013 79 10000 3.6 200 13:58 29.09.2021
1031 Rain 16 1013 77 10000 6.17 190 13:22 29.09.2021
1032 Clouds 16 1013 74 10000 4.63 180 12:35 29.09.2021
1033 Clear 13 1014 93 10000 4.12 140 10:50 29.09.2021
1034 Clear 11 1014 95 10000 3.6 120 09:53 29.09.2021
1035 Clear 11 1014 94 10000 3.6 120 09:34 29.09.2021
1036 Clear 10 1015 93 10000 2.06 140 07:39 29.09.2021
1037 Clear 10 1017 92 10000 3.6 130 04:39 29.09.2021
1038 Clear 11 1020 92 10000 2.06 130 23:29 28.09.2021
1039 Clouds 11 1021 93 10000 2.34 156 22:24 28.09.2021
1040 Clear 12 1021 91 10000 2.57 120 21:45 28.09.2021
1041 Clear 13 1021 87 10000 2.57 140 20:44 28.09.2021
1042 Clouds 14 1021 83 10000 1.54 140 19:47 28.09.2021
1043 Clouds 16 1021 76 10000 2.57 160 18:51 28.09.2021
1044 Clouds 17 1021 72 10000 3.09 170 18:18 28.09.2021
1045 Clouds 18 1021 66 10000 3.09 170 16:41 28.09.2021
1046 Clouds 18 1022 71 10000 3.6 210 14:37 28.09.2021
1047 Clouds 17 1023 77 10000 3.6 180 13:22 28.09.2021
1048 Clouds 16 1023 81 10000 3.09 200 12:22 28.09.2021
1049 Clouds 15 1023 87 10000 3.09 190 11:47 28.09.2021
1050 Clouds 14 1023 90 10000 2.57 210 11:23 28.09.2021
1051 Clouds 13 1023 93 10000 3.09 220 10:26 28.09.2021
1052 Clear 11 1022 96 10000 1.54 220 09:25 28.09.2021
1053 Clear 10 1022 98 10000 0.51 200 08:43 28.09.2021
1054 Fog 9 1022 98 10000 1.54 210 07:49 28.09.2021
1055 Fog 10 1021 98 10000 1.54 210 06:23 28.09.2021
1056 Clouds 12 1019 100 10000 2.57 250 01:29 28.09.2021
1057 Clouds 14 1018 93 10000 4.12 260 00:28 28.09.2021
1058 Clouds 15 1017 94 10000 3.6 260 23:48 27.09.2021
1059 Rain 15 1017 93 10000 3.6 260 23:23 27.09.2021
1060 Rain 15 1016 90 10000 6.69 260 22:20 27.09.2021
1061 Rain 18 1014 83 10000 3.09 200 20:54 27.09.2021
1062 Rain 19 1013 82 10000 4.12 170 20:24 27.09.2021
1063 Rain 19 1013 79 10000 3.6 170 19:36 27.09.2021
1064 Clouds 20 1013 73 10000 3.6 170 18:52 27.09.2021
1065 Clouds 20 1013 73 10000 3.6 170 18:52 27.09.2021
1066 Clouds 21 1013 73 10000 4.12 170 17:37 27.09.2021
1067 Clouds 21 1013 71 10000 4.63 190 16:56 27.09.2021
1068 Clouds 21 1013 72 10000 4.63 190 16:33 27.09.2021
1069 Clouds 21 1013 71 10000 5.66 180 15:36 27.09.2021
1070 Clouds 21 1013 73 10000 6.17 180 13:49 27.09.2021
1071 Clouds 20 1014 79 10000 4.63 200 12:22 27.09.2021
1072 Clouds 19 1014 88 10000 3.6 200 10:48 27.09.2021
1073 Clouds 17 1014 93 8000 2.57 170 09:40 27.09.2021
1074 Clouds 15 1014 100 8000 2.57 160 07:54 27.09.2021
1075 Clear 17 1015 96 10000 2.06 210 03:34 27.09.2021
1076 Clouds 17 1015 95 10000 2.06 190 23:49 26.09.2021
1077 Clear 18 1015 94 10000 0 0 21:57 26.09.2021
1078 Clear 18 1015 92 10000 0 0 21:27 26.09.2021
1079 Clear 18 1014 91 10000 0 0 20:30 26.09.2021
1080 Clouds 19 1014 87 10000 0 0 19:54 26.09.2021
1081 Clouds 21 1014 82 10000 0 0 19:26 26.09.2021
1082 Clouds 21 1014 80 10000 0 0 19:26 26.09.2021
1083 Clouds 21 1014 82 10000 0 0 19:26 26.09.2021
1084 Clouds 21 1014 80 10000 0 0 19:26 26.09.2021
1085 Clouds 21 1014 77 10000 1.03 210 18:41 26.09.2021
1086 Clouds 22 1014 75 10000 2.57 210 17:48 26.09.2021
1087 Clear 22 1014 75 10000 2.57 190 17:20 26.09.2021
1088 Clear 22 1014 73 10000 3.09 170 16:23 26.09.2021
1089 Clear 22 1014 75 10000 3.09 140 15:47 26.09.2021
1090 Clear 21 1014 71 10000 1.54 180 14:23 26.09.2021
1091 Clear 21 1015 71 10000 2.57 150 13:43 26.09.2021
1092 Clear 20 1015 75 10000 3.09 130 12:31 26.09.2021
1093 Clear 19 1015 75 10000 2.57 130 11:56 26.09.2021
1094 Clear 19 1015 77 10000 2.57 130 11:32 26.09.2021
1095 Clear 16 1015 87 10000 3.09 120 09:52 26.09.2021
1096 Clear 15 1015 91 10000 2.57 110 08:54 26.09.2021
1097 Clear 15 1016 93 10000 2.57 80 01:28 26.09.2021
1098 Clear 16 1016 90 10000 2.06 70 00:20 26.09.2021
1099 Clear 16 1016 87 10000 2.57 60 22:42 25.09.2021
1100 Clear 17 1016 88 10000 2.57 50 22:23 25.09.2021
1101 Clear 17 1016 87 10000 2.57 40 21:49 25.09.2021
1102 Clouds 17 1016 89 10000 3.09 20 20:53 25.09.2021
1103 Clouds 18 1016 86 10000 0 0 19:54 25.09.2021
1104 Clouds 19 1015 83 10000 0 0 18:39 25.09.2021
1105 Clouds 20 1015 82 10000 2.57 220 17:46 25.09.2021
1106 Clouds 20 1015 82 10000 3.6 240 14:49 25.09.2021
1107 Clouds 20 1015 81 10000 4.12 250 13:56 25.09.2021
1108 Clouds 20 1015 80 10000 4.12 250 12:48 25.09.2021
1109 Clouds 19 1015 84 10000 5.14 250 11:40 25.09.2021
1110 Clouds 17 1014 92 10000 5.14 240 10:24 25.09.2021
1111 Clouds 16 1014 93 10000 3.6 230 09:25 25.09.2021
1112 Clouds 16 1013 95 10000 4.12 240 07:52 25.09.2021
1113 Clouds 17 1013 84 10000 5.14 250 01:34 25.09.2021
1114 Clouds 17 1013 86 10000 4.12 240 23:33 24.09.2021
1115 Clouds 18 1013 86 10000 5.14 240 21:41 24.09.2021
1116 Clear 18 1012 86 10000 5.14 240 20:33 24.09.2021
1117 Clouds 18 1012 86 10000 5.14 220 19:44 24.09.2021
1118 Clouds 18 1012 85 10000 5.66 230 18:32 24.09.2021
1119 Clouds 19 1012 82 10000 5.14 230 17:53 24.09.2021
1120 Clouds 19 1012 81 10000 5.14 230 17:35 24.09.2021
1121 Clouds 19 1012 81 10000 6.69 230 16:45 24.09.2021
1122 Clouds 18 1013 82 10000 6.69 260 13:55 24.09.2021
1123 Clouds 17 1013 85 10000 6.69 250 12:45 24.09.2021
1124 Clouds 17 1013 87 10000 6.17 250 12:27 24.09.2021
1125 Clouds 16 1013 91 10000 6.17 250 11:50 24.09.2021
1126 Clouds 15 1014 93 10000 4.12 250 10:24 24.09.2021
1127 Clouds 13 1014 94 10000 3.09 250 08:29 24.09.2021
1128 Clouds 12 1014 94 10000 4.12 260 07:32 24.09.2021
1129 Clouds 12 1014 94 10000 3.09 240 06:44 24.09.2021
1130 Clouds 11 1014 93 10000 3.6 250 04:53 24.09.2021
1131 Clouds 14 1013 88 10000 7.2 270 22:46 23.09.2021
1132 Clouds 13 1013 92 10000 7.2 270 22:19 23.09.2021
1133 Clouds 14 1012 91 10000 7.72 280 21:44 23.09.2021
1134 Clouds 14 1012 95 10000 7.2 280 20:33 23.09.2021
1135 Clouds 15 1012 92 10000 10.29 290 19:18 23.09.2021
1136 Clouds 17 1011 83 9000 9.26 260 17:45 23.09.2021
1137 Clouds 17 1012 83 10000 7.72 250 15:21 23.09.2021
1138 Clouds 17 1012 83 10000 7.72 250 14:59 23.09.2021
1139 Clouds 17 1012 81 10000 9.26 240 13:45 23.09.2021
1140 Clouds 17 1013 78 10000 9.26 250 13:19 23.09.2021
1141 Clouds 17 1013 78 10000 9.26 260 12:48 23.09.2021
1142 Clouds 16 1014 81 10000 9.26 260 12:22 23.09.2021
1143 Clouds 15 1014 86 10000 8.23 250 11:23 23.09.2021
1144 Clear 15 1015 86 10000 5.14 230 10:20 23.09.2021
1145 Clear 14 1015 86 10000 5.66 230 09:51 23.09.2021
1146 Clouds 12 1016 85 10000 5.14 220 07:44 23.09.2021
1147 Clear 12 1021 94 10000 2.57 220 01:43 23.09.2021
1148 Clear 14 1022 89 10000 3.6 210 22:58 22.09.2021
1149 Clear 14 1023 89 10000 3.09 220 22:28 22.09.2021
1150 Clear 14 1023 88 10000 2.57 220 21:52 22.09.2021
1151 Clear 14 1023 88 10000 2.57 220 21:32 22.09.2021
1152 Clear 14 1023 89 10000 2.06 210 20:39 22.09.2021
1153 Clear 16 1024 79 10000 2.57 240 19:29 22.09.2021
1154 Clear 18 1024 72 10000 3.6 250 18:37 22.09.2021
1155 Clear 19 1024 72 10000 3.55 253 17:43 22.09.2021
1156 Clear 20 1025 69 10000 4.6 270 16:37 22.09.2021
1157 Clouds 19 1026 69 10000 4.12 240 15:18 22.09.2021
1158 Clouds 18 1027 73 10000 5.66 260 13:48 22.09.2021
1159 Clouds 16 1028 84 10000 4.63 250 11:46 22.09.2021
1160 Clouds 15 1028 92 10000 3.6 240 10:44 22.09.2021
1161 Clouds 12 1028 96 6000 2.06 240 09:21 22.09.2021
1162 Fog 11 1028 98 200 1.03 0 08:22 22.09.2021
1163 Fog 11 1027 98 500 1.54 220 06:57 22.09.2021
1164 Fog 11 1028 98 600 1.03 190 05:53 22.09.2021
1165 Fog 11 1028 98 800 1.03 250 05:32 22.09.2021
1166 Mist 12 1028 95 3500 1.54 270 03:48 22.09.2021
1167 Clouds 12 1028 96 9000 1.03 250 00:21 22.09.2021
1168 Clouds 13 1028 94 10000 2.57 260 22:52 21.09.2021
1169 Clouds 14 1028 90 10000 4.12 260 21:33 21.09.2021
1170 Clouds 14 1027 89 10000 4.12 293 20:24 21.09.2021
1171 Clouds 15 1027 89 10000 5.11 300 19:20 21.09.2021
1172 Clouds 15 1027 92 10000 5.41 283 17:35 21.09.2021
1173 Clouds 16 1028 74 10000 5.66 260 16:34 21.09.2021
1174 Clear 16 1028 71 10000 5.14 250 15:38 21.09.2021
1175 Clear 16 1028 69 10000 5.66 260 14:57 21.09.2021
1176 Clear 15 1028 72 10000 4.63 250 13:56 21.09.2021
1177 Clear 15 1028 72 10000 4.63 250 13:36 21.09.2021
1178 Clouds 13 1028 78 10000 3.09 250 11:45 21.09.2021
1179 Clouds 11 1028 87 10000 2.57 240 09:58 21.09.2021
1180 Clear 10 1027 93 10000 1.03 220 08:27 21.09.2021
1181 Clear 9 1027 93 10000 1.03 240 06:41 21.09.2021
1182 Clear 8 1026 93 10000 0.51 0 23:59 20.09.2021
1183 Clear 12 1026 76 10000 1.54 30 22:25 20.09.2021
1184 Clear 13 1026 67 10000 1.54 20 21:38 20.09.2021
1185 Clear 13 1025 67 10000 3.09 30 20:31 20.09.2021
1186 Clear 13 1024 72 10000 3.09 50 19:30 20.09.2021
1187 Clouds 14 1024 69 10000 4.12 30 17:47 20.09.2021
1188 Clouds 14 1023 64 10000 4.63 20 16:43 20.09.2021
1189 Clouds 14 1023 67 10000 2.36 54 15:50 20.09.2021
1190 Clouds 15 1023 58 10000 2.06 0 15:32 20.09.2021
1191 Clouds 15 1023 57 10000 4.12 70 14:24 20.09.2021
1192 Clouds 14 1023 61 10000 3.6 90 12:35 20.09.2021
1193 Clear 14 1023 67 10000 4.12 70 11:44 20.09.2021
1194 Clear 12 1022 83 10000 3.09 70 10:24 20.09.2021
1195 Clear 12 1022 86 10000 2.57 60 09:43 20.09.2021
1196 Clear 11 1022 87 10000 2.06 70 09:20 20.09.2021
1197 Clear 11 1021 90 10000 2.06 50 08:27 20.09.2021
1198 Clouds 12 1020 89 10000 2.75 77 01:43 20.09.2021
1199 Clear 12 1019 85 10000 2.06 70 22:46 19.09.2021
1200 Clouds 13 1019 81 10000 1.54 90 21:45 19.09.2021
1201 Clouds 13 1018 81 10000 2.06 80 20:53 19.09.2021
1202 Clouds 13 1018 77 10000 2.06 90 19:41 19.09.2021
1203 Clouds 14 1018 71 10000 3.09 80 18:32 19.09.2021
1204 Clouds 15 1018 68 10000 3.6 120 17:23 19.09.2021
1205 Clouds 15 1018 63 10000 3.09 110 16:32 19.09.2021
1206 Clouds 15 1018 65 10000 4.63 110 15:31 19.09.2021
1207 Clouds 15 1018 65 10000 4.63 100 14:48 19.09.2021
1208 Clouds 15 1019 67 10000 5.66 100 13:46 19.09.2021
1209 Clouds 14 1019 75 10000 4.12 110 12:52 19.09.2021
1210 Clouds 14 1019 81 10000 4.12 90 11:39 19.09.2021
1211 Clouds 14 1019 82 10000 4.12 90 11:20 19.09.2021
1212 Clouds 12 1018 88 10000 4.63 80 09:50 19.09.2021
1213 Clouds 11 1018 90 10000 4.63 80 08:49 19.09.2021
1214 Clouds 11 1018 90 10000 4.12 70 06:43 19.09.2021
1215 Clouds 15 1018 82 10000 5.14 80 00:20 19.09.2021
1216 Clouds 15 1018 89 10000 3.09 60 22:54 18.09.2021
1217 Clouds 15 1018 90 10000 2.06 90 21:26 18.09.2021
1218 Clouds 15 1018 89 10000 3.6 80 20:45 18.09.2021
1219 Clouds 16 1018 86 10000 3.6 70 19:41 18.09.2021
1220 Clouds 16 1017 85 10000 5.14 70 19:21 18.09.2021
1221 Clouds 16 1017 85 10000 4.63 70 18:38 18.09.2021
1222 Clouds 17 1017 83 10000 2.57 60 17:59 18.09.2021
1223 Clouds 18 1017 76 10000 3.09 20 16:34 18.09.2021
1224 Clouds 18 1018 79 10000 1.54 0 13:51 18.09.2021
1225 Clouds 17 1018 80 10000 1.03 0 13:31 18.09.2021
1226 Clouds 17 1018 83 10000 1.54 0 12:51 18.09.2021
1227 Clouds 16 1018 88 10000 1.03 0 11:42 18.09.2021
1228 Clouds 14 1017 93 10000 1.03 0 10:37 18.09.2021
1229 Clouds 13 1017 93 10000 1.54 280 09:52 18.09.2021
1230 Clouds 12 1017 96 10000 1.54 250 09:21 18.09.2021
1231 Clouds 10 1016 95 10000 1.54 270 07:36 18.09.2021
1232 Clear 10 1017 95 10000 2.38 316 00:42 18.09.2021
1233 Clear 10 1016 94 10000 2.44 322 23:53 17.09.2021
1234 Clear 11 1016 94 10000 2.54 327 22:42 17.09.2021
1235 Clear 11 1016 93 10000 2.71 326 22:21 17.09.2021
1236 Clear 13 1015 86 10000 3.09 340 21:27 17.09.2021
1237 Clouds 15 1015 78 10000 3.6 360 19:29 17.09.2021
1238 Clouds 17 1014 72 10000 4.63 340 17:55 17.09.2021
1239 Clouds 17 1015 71 10000 4.63 290 16:33 17.09.2021
1240 Clouds 17 1015 75 10000 5.14 300 14:32 17.09.2021
1241 Clouds 16 1015 90 10000 4.12 300 11:30 17.09.2021
1242 Clouds 14 1015 96 10000 2.57 260 09:24 17.09.2021
1243 Clouds 13 1015 97 10000 3.54 300 07:36 17.09.2021
1244 Clouds 13 1015 98 10000 3.6 270 04:25 17.09.2021
1245 Clouds 16 1015 86 10000 4.63 260 23:41 16.09.2021
1246 Clouds 15 1015 88 10000 4.12 280 22:41 16.09.2021
1247 Clouds 15 1015 88 10000 5.14 280 22:23 16.09.2021
1248 Clouds 16 1014 85 10000 5.66 280 21:27 16.09.2021
1249 Clouds 16 1014 87 10000 3.6 290 20:28 16.09.2021
1250 Clouds 17 1014 81 10000 7.2 290 18:38 16.09.2021
1251 Clouds 17 1013 85 10000 7.72 270 17:59 16.09.2021
1252 Clouds 18 1013 77 10000 7.2 270 15:31 16.09.2021
1253 Clouds 19 1013 76 10000 9.77 290 14:35 16.09.2021
1254 Clouds 18 1013 83 10000 7.72 280 13:23 16.09.2021
1255 Clouds 17 1013 86 10000 6.69 290 12:40 16.09.2021
1256 Clouds 17 1013 86 10000 5.66 270 11:46 16.09.2021
1257 Clouds 16 1013 91 10000 5.66 250 10:50 16.09.2021
1258 Clouds 16 1013 92 10000 4.63 250 10:21 16.09.2021
1259 Clouds 14 1012 96 10000 5.14 240 08:45 16.09.2021
1260 Drizzle 14 1012 96 6000 4.63 240 07:47 16.09.2021
1261 Clouds 14 1012 93 10000 4.12 230 06:56 16.09.2021
1262 Clouds 14 1012 93 10000 4.12 230 06:32 16.09.2021
1263 Clouds 15 1012 88 10000 4.12 250 03:22 16.09.2021
1264 Clouds 16 1011 96 10000 5.14 250 00:46 16.09.2021
1265 Clouds 16 1011 96 10000 2.57 270 23:24 15.09.2021
1266 Clouds 16 1010 94 10000 4.63 270 22:26 15.09.2021
1267 Clouds 17 1010 94 10000 5.14 270 21:31 15.09.2021
1268 Clouds 18 1009 98 10000 1.54 250 20:34 15.09.2021
1269 Clouds 19 1009 96 10000 1.54 260 19:33 15.09.2021
1270 Clouds 19 1008 94 10000 1.54 180 18:41 15.09.2021
1271 Clouds 20 1009 94 10000 1.03 0 17:39 15.09.2021
1272 Clouds 19 1009 96 8000 0.51 0 16:29 15.09.2021
1273 Mist 18 1009 98 3300 1.03 0 15:22 15.09.2021
1274 Rain 18 1009 96 3500 1.54 100 14:41 15.09.2021
1275 Rain 18 1010 96 4500 1.03 0 13:45 15.09.2021
1276 Rain 18 1010 96 4800 1.03 0 13:27 15.09.2021
1277 Rain 18 1010 96 5000 1.54 120 12:33 15.09.2021
1278 Rain 18 1010 96 6000 1.03 0 11:50 15.09.2021
1279 Rain 17 1010 98 7000 1.03 0 10:57 15.09.2021
1280 Rain 17 1010 96 7000 2.06 140 10:30 15.09.2021
1281 Rain 17 1010 93 10000 1.54 140 08:47 15.09.2021
1282 Rain 17 1010 92 10000 1.54 120 07:26 15.09.2021
1283 Clear 18 1012 83 10000 3.6 110 00:55 15.09.2021
1284 Clouds 18 1013 82 10000 3.6 80 22:24 14.09.2021
1285 Clouds 19 1013 81 10000 3.09 80 21:21 14.09.2021
1286 Clouds 19 1014 79 10000 2.06 90 20:18 14.09.2021
1287 Clear 22 1014 69 10000 3.09 120 18:57 14.09.2021
1288 Clear 23 1014 63 10000 3.6 110 17:33 14.09.2021
1289 Clouds 23 1014 60 10000 3.6 100 16:37 14.09.2021
1290 Clouds 22 1015 64 10000 4.12 90 14:52 14.09.2021
1291 Clouds 22 1015 64 10000 4.12 90 14:52 14.09.2021
1292 Clouds 22 1016 65 10000 4.12 100 14:19 14.09.2021
1293 Clear 18 1017 79 10000 3.6 110 11:46 14.09.2021
1294 Clear 16 1017 87 10000 3.09 100 10:25 14.09.2021
1295 Clear 14 1017 91 10000 2.57 70 09:48 14.09.2021
1296 Clear 11 1017 95 10000 2.57 50 07:51 14.09.2021
1297 Clear 11 1018 94 10000 1.03 40 02:20 14.09.2021
1298 Clouds 13 1019 89 10000 1.03 60 23:27 13.09.2021
1299 Clouds 14 1019 87 10000 3.09 30 22:27 13.09.2021
1300 Clouds 14 1019 84 10000 2.06 60 21:55 13.09.2021
1301 Clouds 13 1019 88 10000 2.06 60 21:32 13.09.2021
1302 Clouds 16 1018 79 10000 2.57 40 19:35 13.09.2021
1303 Clouds 17 1018 77 10000 2.57 20 18:44 13.09.2021
1304 Clouds 18 1018 72 10000 3.09 310 17:27 13.09.2021
1305 Clouds 19 1018 71 10000 2.57 290 16:49 13.09.2021
1306 Clouds 19 1019 69 10000 1.54 290 14:43 13.09.2021
1307 Clouds 17 1019 78 10000 2.06 280 11:44 13.09.2021
1308 Clouds 16 1019 87 10000 2.06 300 10:40 13.09.2021
1309 Clouds 14 1017 96 10000 1.03 0 07:58 13.09.2021
1310 Clear 13 1017 95 10000 2.57 240 00:34 13.09.2021
1311 Clear 14 1017 91 10000 2.57 270 22:51 12.09.2021
1312 Clear 15 1017 89 10000 3.09 280 22:22 12.09.2021
1313 Clouds 17 1016 87 10000 3.09 290 20:53 12.09.2021
1314 Clouds 17 1016 88 10000 1.54 300 20:19 12.09.2021
1315 Clouds 18 1015 84 10000 3.6 310 19:30 12.09.2021
1316 Clouds 18 1016 81 10000 4.12 310 18:55 12.09.2021
1317 Clouds 19 1016 76 10000 4.12 260 17:50 12.09.2021
1318 Clouds 20 1016 75 10000 3.6 250 15:55 12.09.2021
1319 Clouds 21 1016 75 10000 6.69 260 14:47 12.09.2021
1320 Clouds 20 1016 82 10000 5.66 240 12:42 12.09.2021
1321 Clouds 18 1016 93 10000 3.6 240 10:30 12.09.2021
1322 Clouds 17 1016 96 6000 2.57 250 08:39 12.09.2021
1323 Mist 16 1015 96 4500 2.06 220 07:26 12.09.2021
1324 Clouds 17 1016 98 10000 2.57 240 00:47 12.09.2021
1325 Clouds 17 1015 95 10000 5.14 240 22:39 11.09.2021
1326 Clouds 18 1015 89 10000 5.14 230 21:39 11.09.2021
1327 Clouds 19 1015 85 10000 3.09 220 19:39 11.09.2021
1328 Clouds 20 1015 84 10000 4.12 230 18:28 11.09.2021
1329 Clouds 20 1015 81 10000 5.14 240 17:28 11.09.2021
1330 Clouds 20 1015 82 10000 5.14 240 15:36 11.09.2021
1331 Clouds 20 1015 81 10000 6.17 230 13:23 11.09.2021
1332 Clouds 19 1015 81 10000 5.14 230 11:44 11.09.2021
1333 Clouds 19 1015 90 10000 4.63 230 10:35 11.09.2021
1334 Mist 17 1014 98 3500 4.63 240 08:54 11.09.2021
1335 Mist 17 1014 96 3800 2.06 180 07:44 11.09.2021
1336 Mist 18 1014 96 5000 2.57 240 04:23 11.09.2021
1337 Clouds 18 1013 94 10000 0.51 0 22:43 10.09.2021
1338 Clouds 17 1013 95 10000 2.06 250 22:18 10.09.2021
1339 Clouds 19 1013 93 10000 4.12 260 21:40 10.09.2021
1340 Thunderstorm 20 1012 88 10000 1.03 0 19:32 10.09.2021
1341 Clouds 23 1011 80 10000 2.57 170 17:58 10.09.2021
1342 Clouds 25 1012 76 10000 2.06 170 16:28 10.09.2021
1343 Clouds 21 1013 83 10000 2.06 220 13:32 10.09.2021
1344 Mist 18 1012 94 5000 1.54 170 10:54 10.09.2021
1345 Mist 18 1011 98 2000 1.03 240 08:26 10.09.2021
1346 Thunderstorm 18 1011 98 2800 1.03 210 07:43 10.09.2021
1347 Clear 18 1010 87 10000 1.54 170 00:40 10.09.2021
1348 Clear 20 1010 79 10000 0 0 21:56 09.09.2021
1349 Clear 21 1009 73 10000 0 0 20:48 09.09.2021
1350 Clear 21 1009 73 10000 0 0 20:28 09.09.2021
1351 Clear 25 1009 57 10000 1.54 250 18:46 09.09.2021
1352 Clear 26 1009 52 10000 1.54 220 17:51 09.09.2021
1353 Clear 27 1009 45 10000 3.09 180 16:39 09.09.2021
1354 Clear 27 1010 46 10000 3.6 160 15:26 09.09.2021
1355 Clear 24 1011 58 10000 3.09 90 12:33 09.09.2021
1356 Clear 21 1011 68 10000 3.09 130 11:23 09.09.2021
1357 Clear 17 1011 77 10000 1.54 110 09:39 09.09.2021
1358 Clear 13 1011 92 10000 2.06 80 07:56 09.09.2021
1359 Clear 13 1012 92 10000 1.54 80 06:20 09.09.2021
1360 Clear 16 1014 77 10000 3.09 80 00:43 09.09.2021
1361 Clear 18 1015 69 10000 2.57 100 21:49 08.09.2021
1362 Clear 21 1015 60 10000 2.57 90 20:57 08.09.2021
1363 Clear 24 1015 43 10000 2.57 120 19:47 08.09.2021
1364 Clear 24 1016 47 10000 3.09 120 18:49 08.09.2021
1365 Clear 25 1016 49 10000 4.12 100 18:27 08.09.2021
1366 Clear 25 1016 48 10000 3.6 110 17:52 08.09.2021
1367 Clear 26 1017 47 10000 3.6 110 16:24 08.09.2021
1368 Clear 25 1019 50 10000 3.6 100 13:53 08.09.2021
1369 Clear 24 1019 57 10000 4.12 140 12:42 08.09.2021
1370 Clouds 24 1019 61 10000 3.18 131 12:24 08.09.2021
1371 Clear 21 1020 69 10000 3.09 120 11:26 08.09.2021
1372 Clear 19 1020 77 10000 3.09 130 10:32 08.09.2021
1373 Clear 18 1020 77 10000 3.09 130 09:57 08.09.2021
1374 Clear 12 1020 94 10000 1.54 90 07:47 08.09.2021
1375 Clear 12 1021 97 10000 1.03 100 07:29 08.09.2021
1376 Clear 15 1022 90 10000 1.54 60 23:41 07.09.2021
1377 Clear 17 1022 86 10000 1.03 90 22:30 07.09.2021
1378 Clear 18 1022 81 10000 1.54 100 20:50 07.09.2021
1379 Clear 21 1022 72 10000 2.06 70 19:40 07.09.2021
1380 Clear 22 1023 64 10000 1.54 70 18:39 07.09.2021
1381 Clear 23 1023 61 10000 0.51 0 17:41 07.09.2021
1382 Clear 24 1024 59 10000 1.03 0 15:57 07.09.2021
1383 Clear 23 1024 59 10000 1.03 0 15:33 07.09.2021
1384 Clouds 22 1024 69 10000 0.49 116 13:54 07.09.2021
1385 Clear 21 1025 70 10000 1.54 130 12:28 07.09.2021
1386 Clear 18 1025 75 10000 1.03 0 11:26 07.09.2021
1387 Clear 17 1025 82 10000 1.03 0 10:37 07.09.2021
1388 Clouds 13 1025 95 8000 0 0 08:18 07.09.2021
1389 Clouds 12 1024 97 7000 0.51 0 06:43 07.09.2021
1390 Clouds 12 1024 97 6000 1.03 230 02:43 07.09.2021
1391 Clouds 12 1024 96 6000 0 0 02:25 07.09.2021
1392 Clear 13 1025 94 10000 0 0 00:23 07.09.2021
1393 Clear 14 1025 88 10000 0.51 0 23:31 06.09.2021
1394 Clear 15 1025 85 10000 1.03 0 22:53 06.09.2021
1395 Clear 15 1024 82 10000 2.57 10 22:28 06.09.2021
1396 Clear 18 1024 76 10000 3.6 10 20:37 06.09.2021
1397 Clear 19 1024 69 10000 2.57 300 19:22 06.09.2021
1398 Clear 19 1024 69 10000 2.57 300 19:22 06.09.2021
1399 Clear 19 1024 69 10000 2.57 300 19:22 06.09.2021
1400 Clear 20 1024 67 10000 2.57 300 18:46 06.09.2021
1401 Rain 20 1024 67 10000 3.09 300 18:18 06.09.2021
1402 Clear 21 1024 62 10000 3.09 290 17:35 06.09.2021
1403 Clouds 22 1024 55 10000 3.6 300 15:37 06.09.2021
1404 Clouds 21 1024 60 10000 2.57 310 13:47 06.09.2021
1405 Clouds 20 1024 68 10000 1.54 0 12:46 06.09.2021
1406 Clouds 16 1025 85 10000 1.03 0 10:44 06.09.2021
1407 Fog 8 1024 97 50 0 0 07:58 06.09.2021
1408 Fog 9 1023 97 200 0 0 04:44 06.09.2021
1409 Clear 13 1023 89 10000 3.09 140 23:27 05.09.2021
1410 Clear 14 1023 87 10000 3.09 150 22:46 05.09.2021
1411 Clouds 14 1023 85 10000 0 0 21:57 05.09.2021
1412 Clouds 15 1023 81 10000 0 0 21:29 05.09.2021
1413 Clouds 18 1022 65 10000 1.03 0 19:50 05.09.2021
1414 Clouds 21 1022 57 10000 1.03 0 18:38 05.09.2021
1415 Clouds 21 1022 54 10000 1.54 0 17:29 05.09.2021
1416 Clouds 20 1023 55 10000 1.54 50 15:27 05.09.2021
1417 Clouds 19 1023 65 10000 1.54 70 13:54 05.09.2021
1418 Mist 15 1024 86 5000 2.06 70 11:57 05.09.2021
1419 Mist 12 1023 100 1300 2.06 50 10:48 05.09.2021
1420 Mist 12 1023 98 1500 2.06 100 10:23 05.09.2021
1421 Mist 12 1023 100 1500 2.06 100 10:23 05.09.2021
1422 Mist 12 1023 98 1500 3.09 100 09:21 05.09.2021
1423 Mist 12 1022 98 2200 3.6 90 07:43 05.09.2021
1424 Clear 12 1021 86 10000 2.06 60 00:48 05.09.2021
1425 Clear 12 1021 86 10000 2.06 40 00:22 05.09.2021
1426 Clear 13 1021 87 10000 1.54 60 23:32 04.09.2021
1427 Clear 13 1021 85 10000 2.06 60 22:35 04.09.2021
1428 Clear 14 1020 82 10000 1.54 70 21:55 04.09.2021
1429 Clouds 17 1019 71 10000 3.6 70 19:41 04.09.2021
1430 Clouds 18 1019 68 10000 4.63 70 18:39 04.09.2021
1431 Clouds 19 1019 63 10000 3.6 40 15:54 04.09.2021
1432 Clouds 18 1020 66 10000 2.57 360 12:48 04.09.2021
1433 Clouds 17 1020 68 10000 3.09 340 11:19 04.09.2021
1434 Clouds 15 1019 80 10000 2.57 340 08:58 04.09.2021
1435 Clouds 14 1019 77 10000 3.09 350 04:50 04.09.2021
1436 Clouds 15 1020 77 10000 4.63 360 00:24 04.09.2021
1437 Clouds 15 1020 82 10000 4.12 350 23:31 03.09.2021
1438 Clouds 15 1020 84 10000 3.6 340 21:53 03.09.2021
1439 Clouds 15 1020 81 10000 4.12 330 21:33 03.09.2021
1440 Clouds 16 1019 81 10000 4.12 340 20:42 03.09.2021
1441 Clouds 17 1020 79 10000 4.12 350 19:49 03.09.2021
1442 Clouds 17 1020 78 10000 4.63 340 18:55 03.09.2021
1443 Clouds 19 1020 74 10000 5.14 340 17:42 03.09.2021
1444 Clouds 20 1020 70 10000 5.14 300 16:25 03.09.2021
1445 Clouds 20 1021 73 10000 4.63 280 14:47 03.09.2021
1446 Clouds 16 1022 82 10000 4.63 290 11:57 03.09.2021
1447 Clouds 15 1022 90 10000 2.57 300 10:27 03.09.2021
1448 Clouds 11 1023 100 8000 1.03 0 08:44 03.09.2021
1449 Mist 8 1023 100 3600 1.54 290 07:39 03.09.2021
1450 Fog 11 1025 97 10000 0.51 60 01:39 03.09.2021
1451 Clear 13 1025 91 10000 2.06 50 22:55 02.09.2021
1452 Clear 15 1025 85 10000 2.57 40 21:31 02.09.2021
1453 Clouds 17 1026 78 10000 3.09 30 19:55 02.09.2021
1454 Clouds 19 1026 67 10000 1.03 0 17:32 02.09.2021
1455 Clouds 20 1027 66 10000 1.54 0 15:50 02.09.2021
1456 Clouds 19 1028 71 10000 2.06 240 13:57 02.09.2021
1457 Clouds 18 1028 73 10000 1.03 260 12:42 02.09.2021
1458 Clouds 17 1028 78 10000 1.54 240 11:34 02.09.2021
1459 Clouds 14 1028 93 10000 2.06 270 09:40 02.09.2021
1460 Fog 10 1027 98 700 0.51 0 07:48 02.09.2021
1461 Fog 10 1027 98 200 0.51 210 07:18 02.09.2021
1462 Fog 10 1027 98 200 0.51 210 07:18 02.09.2021
1463 Mist 11 1027 97 5000 1.03 240 02:54 02.09.2021
1464 Clear 12 1027 97 10000 1.54 280 01:56 02.09.2021
1465 Clear 13 1027 97 10000 2.06 300 01:25 02.09.2021
1466 Clear 13 1027 94 10000 2.57 290 23:39 01.09.2021
1467 Clear 15 1027 88 10000 3.09 330 22:39 01.09.2021
1468 Clear 16 1027 84 10000 3.09 330 21:39 01.09.2021
1469 Clouds 18 1026 77 10000 2.57 300 20:29 01.09.2021
1470 Clouds 20 1026 68 10000 3.6 290 18:43 01.09.2021
1471 Clouds 21 1026 68 10000 3.09 270 17:38 01.09.2021
1472 Clouds 21 1027 64 10000 2.57 260 16:47 01.09.2021
1473 Clouds 20 1027 67 10000 3.09 300 15:29 01.09.2021
1474 Clouds 18 1028 76 10000 3.09 280 12:19 01.09.2021
1475 Clouds 18 1028 77 10000 3.09 300 11:44 01.09.2021
1476 Clouds 13 1027 96 10000 1.03 0 08:47 01.09.2021
1477 Clouds 12 1026 98 10000 0 0 07:51 01.09.2021
1478 Clouds 12 1026 95 10000 1.03 280 03:27 01.09.2021
1479 Clouds 14 1025 93 10000 2.57 290 22:39 31.08.2021
1480 Clouds 16 1025 84 10000 5.66 330 21:27 31.08.2021
1481 Clouds 17 1024 78 10000 6.17 340 19:46 31.08.2021
1482 Clouds 19 1023 74 10000 5.66 330 18:29 31.08.2021
1483 Clouds 20 1023 72 10000 6.69 330 17:37 31.08.2021
1484 Clouds 21 1023 68 10000 5.66 320 16:53 31.08.2021
1485 Clouds 21 1023 68 10000 5.14 320 16:24 31.08.2021
1486 Clouds 21 1023 68 10000 5.14 320 16:24 31.08.2021
1487 Clouds 21 1023 65 10000 4.63 330 13:20 31.08.2021
1488 Clouds 19 1023 75 10000 3.6 310 11:28 31.08.2021
1489 Clear 18 1023 82 10000 3.09 330 10:52 31.08.2021
1490 Clear 15 1023 92 10000 2.57 290 09:44 31.08.2021
1491 Clear 13 1022 96 10000 1.54 270 08:38 31.08.2021
1492 Fog 13 1022 98 300 2.57 310 05:59 31.08.2021
1493 Fog 12 1021 97 500 2.06 280 03:40 31.08.2021
1494 Clear 14 1021 92 10000 1.54 300 23:35 30.08.2021
1495 Clear 16 1021 86 10000 2.57 350 21:45 30.08.2021
1496 Clear 16 1020 85 10000 2.57 10 21:27 30.08.2021
1497 Clear 17 1020 80 10000 4.63 10 20:20 30.08.2021
1498 Clouds 19 1020 74 10000 5.66 30 19:29 30.08.2021
1499 Clouds 19 1020 73 10000 5.14 40 18:30 30.08.2021
1500 Clouds 19 1019 72 10000 5.14 30 17:45 30.08.2021
1501 Clouds 19 1019 73 10000 6.17 30 16:22 30.08.2021
1502 Clouds 20 1019 70 10000 7.2 40 15:38 30.08.2021
1503 Clouds 19 1019 75 10000 6.17 20 13:43 30.08.2021
1504 Clouds 19 1019 81 10000 4.12 10 12:24 30.08.2021
1505 Clouds 16 1019 94 10000 4.63 10 09:30 30.08.2021
1506 Clouds 16 1018 89 10000 4.63 350 22:30 29.08.2021
1507 Clouds 17 1018 90 10000 4.12 10 21:33 29.08.2021
1508 Clouds 17 1017 87 10000 5.66 20 20:22 29.08.2021
1509 Clouds 18 1017 85 10000 5.66 20 19:19 29.08.2021
1510 Clouds 19 1017 82 10000 6.69 20 17:50 29.08.2021
1511 Clouds 18 1017 94 6000 6.69 20 15:48 29.08.2021
1512 Drizzle 17 1017 96 2700 3.6 340 14:20 29.08.2021
1513 Clouds 17 1017 96 10000 4.63 350 13:44 29.08.2021
1514 Drizzle 16 1017 96 6000 3.6 350 12:32 29.08.2021
1515 Drizzle 16 1017 92 6000 3.6 350 11:50 29.08.2021
1516 Clouds 16 1016 94 10000 4.12 360 11:23 29.08.2021
1517 Clouds 15 1016 96 10000 4.12 360 10:43 29.08.2021
1518 Drizzle 15 1016 96 10000 4.12 360 10:24 29.08.2021
1519 Clouds 14 1017 96 9000 4.12 340 08:24 29.08.2021
1520 Clouds 15 1018 92 10000 3.09 330 00:25 29.08.2021
1521 Clouds 15 1019 89 10000 4.63 350 21:53 28.08.2021
1522 Clouds 16 1018 91 10000 4.63 360 20:28 28.08.2021
1523 Clouds 16 1018 92 10000 5.14 350 18:43 28.08.2021
1524 Clouds 16 1018 95 10000 5.14 350 18:19 28.08.2021
1525 Clouds 16 1018 95 10000 5.66 340 17:18 28.08.2021
1526 Rain 16 1018 95 6000 5.66 340 15:39 28.08.2021
1527 Rain 16 1018 95 7000 4.63 340 14:26 28.08.2021
1528 Clouds 16 1018 95 7000 3.6 340 13:45 28.08.2021
1529 Drizzle 16 1018 96 6000 4.12 360 12:44 28.08.2021
1530 Rain 16 1018 93 10000 4.12 350 11:54 28.08.2021
1531 Clouds 16 1018 93 10000 4.63 10 10:41 28.08.2021
1532 Clouds 15 1017 96 10000 4.63 10 08:41 28.08.2021
1533 Clouds 15 1016 96 10000 4.63 10 07:24 28.08.2021
1534 Clear 14 1016 92 10000 2.57 360 22:30 27.08.2021
1535 Clouds 16 1015 84 10000 4.12 30 20:59 27.08.2021
1536 Clouds 16 1015 84 10000 2.06 40 20:30 27.08.2021
1537 Rain 18 1014 78 10000 5.66 10 18:58 27.08.2021
1538 Clouds 18 1014 77 10000 5.66 350 18:37 27.08.2021
1539 Clouds 18 1014 76 10000 6.69 350 17:18 27.08.2021
1540 Clouds 17 1014 82 10000 6.17 350 15:46 27.08.2021
1541 Clouds 17 1014 81 10000 6.69 340 14:43 27.08.2021
1542 Clouds 16 1014 88 8000 7.2 340 12:33 27.08.2021
1543 Rain 15 1013 92 8000 6.17 340 11:26 27.08.2021
1544 Rain 15 1013 93 10000 5.66 340 10:43 27.08.2021
1545 Clouds 15 1013 81 10000 5.66 330 09:37 27.08.2021
1546 Clouds 14 1013 88 10000 4.12 300 08:46 27.08.2021
1547 Clouds 13 1013 91 10000 3.09 300 06:47 27.08.2021
1548 Clouds 12 1014 91 10000 3.09 300 04:56 27.08.2021
1549 Clouds 14 1014 84 10000 2.73 311 00:35 27.08.2021
1550 Clouds 15 1013 72 10000 4.12 330 22:49 26.08.2021
1551 Clouds 15 1013 77 10000 4.12 320 22:19 26.08.2021
1552 Clouds 16 1013 76 10000 4.63 320 20:37 26.08.2021
1553 Clouds 17 1013 65 10000 6.69 360 18:51 26.08.2021
1554 Clouds 17 1012 67 10000 6.69 340 17:45 26.08.2021
1555 Clouds 17 1012 66 10000 7.72 340 16:35 26.08.2021
1556 Clouds 17 1012 65 10000 8.75 330 15:55 26.08.2021
1557 Clouds 18 1012 61 10000 6.17 360 13:48 26.08.2021
1558 Clouds 17 1012 65 10000 5.66 360 12:54 26.08.2021
1559 Clouds 18 1012 68 10000 6.17 350 12:30 26.08.2021
1560 Clouds 16 1012 94 10000 4.63 300 10:21 26.08.2021
1561 Clouds 13 1011 96 10000 2.06 270 08:34 26.08.2021
1562 Clouds 12 1011 95 10000 2.06 280 06:34 26.08.2021
1563 Drizzle 16 1014 96 10000 5.14 290 22:54 25.08.2021
1564 Drizzle 16 1014 96 10000 5.14 290 22:35 25.08.2021
1565 Clouds 15 1014 98 4000 5.66 270 21:42 25.08.2021
1566 Clouds 15 1015 98 2700 6.69 270 20:48 25.08.2021
1567 Drizzle 16 1015 95 5000 5.66 270 20:28 25.08.2021
1568 Clouds 16 1016 90 10000 6.17 270 18:45 25.08.2021
1569 Clouds 17 1017 85 10000 7.2 280 17:43 25.08.2021
1570 Clouds 19 1019 73 10000 7.2 290 15:45 25.08.2021
1571 Clouds 20 1019 69 10000 6.69 290 14:48 25.08.2021
1572 Clouds 19 1020 71 10000 6.69 300 14:30 25.08.2021
1573 Clouds 19 1020 67 10000 6.69 290 13:30 25.08.2021
1574 Clouds 18 1022 74 10000 5.14 290 11:28 25.08.2021
1575 Clouds 17 1022 82 10000 4.12 280 10:43 25.08.2021
1576 Clouds 16 1023 94 10000 2.57 280 09:58 25.08.2021
1577 Mist 15 1024 95 3500 2.57 290 09:24 25.08.2021
1578 Fog 14 1024 98 500 2.06 270 08:32 25.08.2021
1579 Fog 10 1025 96 1500 1.54 260 04:51 25.08.2021
1580 Clear 13 1027 88 10000 1.54 40 00:53 25.08.2021
1581 Clear 14 1027 85 10000 1.54 10 22:51 24.08.2021
1582 Clouds 17 1028 67 10000 1.03 100 20:48 24.08.2021
1583 Clouds 18 1027 61 10000 2.57 60 19:53 24.08.2021
1584 Clear 20 1028 52 10000 3.6 80 18:51 24.08.2021
1585 Clear 21 1028 49 10000 4.12 70 17:50 24.08.2021
1586 Clear 21 1028 50 10000 4.12 80 17:20 24.08.2021
1587 Clear 21 1029 49 10000 4.63 60 14:38 24.08.2021
1588 Clouds 20 1029 52 10000 3.6 70 13:29 24.08.2021
1589 Clouds 20 1029 52 10000 4.63 70 12:36 24.08.2021
1590 Clouds 19 1029 66 10000 3.6 100 11:19 24.08.2021
1591 Clear 18 1029 69 10000 3.09 70 10:35 24.08.2021
1592 Clear 15 1029 81 10000 2.06 70 09:19 24.08.2021
1593 Clear 11 1028 96 10000 0 0 07:28 24.08.2021
1594 Clear 12 1027 93 10000 1.54 50 05:30 24.08.2021
1595 Clear 15 1027 80 10000 3.6 10 00:59 24.08.2021
1596 Clear 16 1026 77 10000 4.12 360 23:26 23.08.2021
1597 Clear 16 1026 77 10000 3.6 360 22:41 23.08.2021
1598 Clear 17 1025 69 10000 3.6 30 20:50 23.08.2021
1599 Clear 20 1025 56 10000 5.66 30 19:30 23.08.2021
1600 Clear 20 1025 56 10000 5.66 30 19:30 23.08.2021
1601 Clear 22 1024 50 10000 6.17 30 16:45 23.08.2021
1602 Clouds 22 1024 52 10000 5.66 50 15:24 23.08.2021
1603 Clouds 21 1024 62 10000 5.66 50 13:47 23.08.2021
1604 Clouds 19 1023 69 10000 5.14 50 12:30 23.08.2021
1605 Clouds 17 1023 87 10000 4.63 50 10:46 23.08.2021
1606 Clouds 16 1022 90 10000 4.63 30 09:52 23.08.2021
1607 Clouds 15 1022 92 10000 4.63 20 08:34 23.08.2021
1608 Clouds 15 1021 96 10000 4.12 20 06:57 23.08.2021
1609 Clouds 15 1021 96 10000 4.12 20 06:38 23.08.2021
1610 Clouds 15 1019 98 10000 3.09 50 00:59 23.08.2021
1611 Clouds 16 1018 92 10000 4.12 50 23:38 22.08.2021
1612 Clouds 16 1018 95 10000 3.6 50 22:40 22.08.2021
1613 Clouds 17 1016 94 10000 4.12 50 20:46 22.08.2021
1614 Clouds 17 1016 94 10000 4.63 50 20:18 22.08.2021
1615 Rain 19 1015 94 10000 4.12 70 18:29 22.08.2021
1616 Clouds 19 1014 94 10000 3.6 50 15:48 22.08.2021
1617 Clouds 18 1014 96 10000 2.06 0 14:53 22.08.2021
1618 Clouds 17 1014 96 5000 2.06 0 13:40 22.08.2021
1619 Clouds 17 1014 96 5000 4.12 90 13:19 22.08.2021
1620 Clouds 17 1014 98 10000 3.09 100 12:40 22.08.2021
1621 Clouds 16 1014 95 10000 3.09 120 11:44 22.08.2021
1622 Clouds 16 1014 95 10000 3.6 120 11:19 22.08.2021
1623 Rain 16 1014 95 10000 3.09 110 08:41 22.08.2021
1624 Rain 16 1014 91 10000 3.09 120 07:51 22.08.2021
1625 Clear 17 1015 87 10000 3.6 90 02:30 22.08.2021
1626 Clear 18 1017 88 10000 2.06 90 22:36 21.08.2021
1627 Clouds 19 1017 84 10000 1.54 100 21:35 21.08.2021
1628 Clouds 23 1017 68 10000 0.51 0 18:47 21.08.2021
1629 Clouds 22 1017 68 10000 1.54 0 18:25 21.08.2021
1630 Clouds 23 1017 66 10000 1.54 120 16:58 21.08.2021
1631 Clouds 24 1018 64 10000 1.03 0 16:32 21.08.2021
1632 Clouds 23 1018 67 10000 2.57 160 15:39 21.08.2021
1633 Clouds 23 1018 70 10000 2.06 0 15:20 21.08.2021
1634 Clouds 21 1019 76 10000 2.06 110 13:36 21.08.2021
1635 Clouds 20 1019 79 10000 2.06 140 12:39 21.08.2021
1636 Clouds 17 1019 88 10000 2.06 110 10:43 21.08.2021
1637 Clouds 14 1018 95 10000 1.54 110 07:53 21.08.2021
1638 Clear 14 1018 95 10000 1.54 50 00:44 21.08.2021
1639 Clouds 16 1017 94 10000 1.54 180 22:28 20.08.2021
1640 Clouds 18 1016 87 10000 1.03 180 19:31 20.08.2021
1641 Clouds 19 1015 81 10000 5.14 280 16:57 20.08.2021
1642 Clouds 20 1015 74 10000 4.63 260 14:34 20.08.2021
1643 Clouds 19 1015 82 10000 5.14 260 11:59 20.08.2021
1644 Clouds 18 1015 88 10000 4.63 270 11:29 20.08.2021
1645 Clouds 16 1014 96 10000 4.63 250 10:21 20.08.2021
1646 Clouds 16 1014 96 10000 3.6 240 09:27 20.08.2021
1647 Clouds 15 1014 98 8000 2.57 240 08:36 20.08.2021
1648 Drizzle 15 1013 95 4000 3.6 220 04:42 20.08.2021
1649 Drizzle 14 1013 98 3800 2.06 200 04:20 20.08.2021
1650 Clouds 15 1013 94 10000 1.54 230 23:27 19.08.2021
1651 Clouds 15 1013 91 10000 1.03 240 22:38 19.08.2021
1652 Clouds 15 1013 89 10000 3.09 300 21:55 19.08.2021
1653 Clouds 16 1012 90 10000 3.09 260 20:20 19.08.2021
1654 Drizzle 17 1012 94 10000 4.63 280 17:59 19.08.2021
1655 Drizzle 17 1012 94 10000 4.12 260 16:51 19.08.2021
1656 Drizzle 17 1011 95 3500 4.63 250 14:37 19.08.2021
1657 Clouds 18 1011 89 10000 4.12 230 12:50 19.08.2021
1658 Clouds 17 1011 91 9000 3.6 230 12:28 19.08.2021
1659 Clouds 17 1011 85 10000 5.14 240 10:49 19.08.2021
1660 Clouds 17 1011 87 10000 5.14 250 09:49 19.08.2021
1661 Clouds 16 1011 90 10000 4.63 240 09:28 19.08.2021
1662 Clouds 16 1011 91 10000 4.63 250 08:33 19.08.2021
1663 Clouds 15 1010 87 10000 5.14 240 03:53 19.08.2021
1664 Clouds 16 1010 81 10000 5.14 260 02:20 19.08.2021
1665 Clouds 17 1010 80 10000 5.66 260 23:29 18.08.2021
1666 Clouds 16 1010 83 10000 5.66 250 22:38 18.08.2021
1667 Clouds 17 1010 78 10000 3.6 240 21:34 18.08.2021
1668 Clouds 18 1010 76 10000 5.66 250 20:20 18.08.2021
1669 Clouds 18 1010 76 10000 5.66 250 20:20 18.08.2021
1670 Clouds 18 1011 77 10000 4.63 250 19:26 18.08.2021
1671 Clouds 19 1011 77 10000 5.14 250 18:34 18.08.2021
1672 Clouds 19 1011 79 10000 5.66 250 16:56 18.08.2021
1673 Clouds 19 1012 80 10000 7.72 250 15:41 18.08.2021
1674 Clouds 18 1012 80 10000 6.17 260 15:21 18.08.2021
1675 Clouds 18 1012 82 10000 9.26 260 13:25 18.08.2021
1676 Clouds 17 1012 87 10000 6.69 260 12:39 18.08.2021
1677 Clouds 16 1012 92 10000 6.17 260 12:21 18.08.2021
1678 Clouds 14 1012 96 10000 6.17 260 08:51 18.08.2021
1679 Clouds 13 1012 95 10000 3.6 240 03:21 18.08.2021
1680 Clouds 14 1013 94 10000 4.12 260 22:40 17.08.2021
1681 Clouds 15 1013 91 10000 4.63 260 21:59 17.08.2021
1682 Clouds 15 1013 87 10000 5.66 250 21:22 17.08.2021
1683 Clouds 16 1013 86 10000 3.09 270 20:42 17.08.2021
1684 Clouds 17 1013 75 10000 7.72 260 18:49 17.08.2021
1685 Clouds 17 1013 74 10000 7.2 250 17:26 17.08.2021
1686 Clouds 17 1013 77 10000 6.69 260 16:28 17.08.2021
1687 Clouds 17 1013 82 10000 5.66 260 15:35 17.08.2021
1688 Clouds 16 1012 81 10000 8.23 270 13:23 17.08.2021
1689 Clouds 16 1012 78 10000 10.29 270 11:25 17.08.2021
1690 Clouds 14 1012 88 10000 8.75 270 09:20 17.08.2021
1691 Clouds 13 1011 91 10000 8.75 260 07:37 17.08.2021
1692 Clouds 13 1008 93 10000 9.26 250 23:28 16.08.2021
1693 Rain 13 1008 92 10000 8.75 260 22:54 16.08.2021
1694 Rain 13 1008 92 10000 8.75 260 22:35 16.08.2021
1695 Drizzle 13 1008 85 10000 10.8 250 21:52 16.08.2021
1696 Rain 14 1008 77 10000 6.69 250 20:53 16.08.2021
1697 Clouds 14 1008 71 10000 9.26 270 19:43 16.08.2021
1698 Clouds 15 1008 73 10000 9.26 270 19:22 16.08.2021
1699 Clouds 15 1008 69 10000 10.8 280 18:21 16.08.2021
1700 Clouds 16 1008 73 10000 7.2 260 17:51 16.08.2021
1701 Clouds 15 1007 89 10000 8.23 280 15:29 16.08.2021
1702 Clouds 15 1006 90 10000 8.75 270 14:28 16.08.2021
1703 Clouds 16 1006 92 10000 6.17 230 13:24 16.08.2021
1704 Rain 16 1006 93 10000 6.17 240 12:29 16.08.2021
1705 Rain 16 1006 93 10000 6.17 240 12:29 16.08.2021
1706 Rain 17 1005 92 10000 8.23 220 10:37 16.08.2021
1707 Clouds 17 1005 90 10000 6.17 230 08:44 16.08.2021
1708 Clouds 16 1005 90 10000 5.66 230 07:32 16.08.2021
1709 Clouds 16 1006 92 10000 5.14 230 06:22 16.08.2021
1710 Clouds 17 1007 86 10000 1.54 220 01:44 16.08.2021
1711 Clouds 20 1008 68 10000 3.09 230 21:51 15.08.2021
1712 Clouds 23 1008 57 10000 4.63 230 20:28 15.08.2021
1713 Clouds 24 1009 60 10000 6.17 240 18:45 15.08.2021
1714 Clouds 25 1009 55 10000 6.69 240 17:54 15.08.2021
1715 Clouds 25 1010 55 10000 5.14 240 17:23 15.08.2021
1716 Clouds 25 1011 53 10000 5.14 210 15:59 15.08.2021
1717 Clouds 24 1011 59 10000 4.63 240 14:42 15.08.2021
1718 Clouds 24 1012 61 10000 3.6 230 13:38 15.08.2021
1719 Clouds 21 1014 72 10000 3.6 250 10:54 15.08.2021
1720 Clouds 17 1014 84 10000 2.57 220 08:50 15.08.2021
1721 Clear 14 1017 88 10000 2.06 210 01:24 15.08.2021
1722 Clear 15 1017 90 10000 1.54 210 00:36 15.08.2021
1723 Clouds 18 1017 77 10000 2.57 300 21:41 14.08.2021
1724 Clouds 20 1017 68 10000 3.6 300 20:58 14.08.2021
1725 Clouds 21 1017 65 10000 6.17 270 19:43 14.08.2021
1726 Clouds 22 1017 62 10000 7.2 280 18:39 14.08.2021
1727 Clouds 23 1017 61 10000 7.72 240 16:59 14.08.2021
1728 Clouds 23 1018 58 10000 6.17 240 15:47 14.08.2021
1729 Clouds 23 1018 61 10000 6.69 240 14:24 14.08.2021
1730 Clouds 22 1019 69 10000 7.2 220 11:59 14.08.2021
1731 Clouds 20 1019 74 10000 6.69 220 10:45 14.08.2021
1732 Clear 15 1019 88 10000 3.09 200 07:40 14.08.2021
1733 Clear 15 1021 84 10000 2.57 240 23:53 13.08.2021
1734 Clear 17 1021 77 10000 4.12 260 22:26 13.08.2021
1735 Clouds 20 1020 66 10000 4.12 280 20:31 13.08.2021
1736 Clouds 22 1020 59 10000 6.17 260 18:47 13.08.2021
1737 Clouds 22 1020 62 10000 6.69 280 17:43 13.08.2021
1738 Clouds 24 1019 63 10000 7.72 270 16:24 13.08.2021
1739 Clouds 25 1019 66 10000 4.63 230 12:51 13.08.2021
1740 Clear 23 1019 71 10000 2.57 220 11:20 13.08.2021
1741 Clear 21 1019 80 10000 1.03 0 09:41 13.08.2021
1742 Clear 19 1019 87 10000 1.03 0 08:36 13.08.2021
1743 Clear 15 1019 97 10000 1.03 0 07:19 13.08.2021
1744 Clear 15 1019 96 10000 1.03 0 04:59 13.08.2021
1745 Clear 17 1019 88 10000 0.51 210 23:37 12.08.2021
1746 Clear 20 1018 72 10000 1.54 300 21:20 12.08.2021
1747 Clear 22 1018 68 10000 2.57 270 20:22 12.08.2021
1748 Clear 23 1018 64 10000 2.57 260 19:45 12.08.2021
1749 Clouds 25 1018 54 10000 3.09 230 17:51 12.08.2021
1750 Clouds 26 1018 52 10000 3.6 240 16:29 12.08.2021
1751 Clouds 26 1019 56 10000 3.09 240 14:53 12.08.2021
1752 Clear 24 1019 60 10000 1.54 0 12:59 12.08.2021
1753 Clear 22 1019 70 10000 1.54 140 11:20 12.08.2021
1754 Clear 14 1019 92 10000 1.54 150 07:57 12.08.2021
1755 Clear 15 1020 91 10000 1.03 0 01:52 12.08.2021
1756 Clear 16 1019 86 10000 1.03 0 22:54 11.08.2021
1757 Clouds 19 1019 71 10000 1.03 210 21:23 11.08.2021
1758 Clouds 23 1019 56 10000 3.09 270 18:29 11.08.2021
1759 Clouds 23 1019 60 10000 3.09 240 16:30 11.08.2021
1760 Clouds 23 1019 61 10000 2.57 250 15:20 11.08.2021
1761 Clouds 22 1019 65 10000 2.57 260 14:22 11.08.2021
1762 Clouds 22 1019 65 10000 2.57 260 14:22 11.08.2021
1763 Clouds 21 1019 68 10000 3.09 240 12:35 11.08.2021
1764 Clouds 20 1019 71 10000 3.09 230 11:47 11.08.2021
1765 Clouds 19 1019 74 10000 3.6 250 11:22 11.08.2021
1766 Clouds 18 1019 84 10000 3.6 240 10:20 11.08.2021
1767 Clouds 14 1018 98 10000 1.03 0 08:31 11.08.2021
1768 Fog 13 1017 97 5000 1.03 0 00:33 11.08.2021
1769 Clear 14 1016 96 10000 1.54 240 22:32 10.08.2021
1770 Clear 15 1016 93 10000 1.03 270 21:33 10.08.2021
1771 Clouds 16 1015 92 10000 2.06 260 20:36 10.08.2021
1772 Clouds 17 1015 90 10000 2.06 230 18:57 10.08.2021
1773 Thunderstorm 17 1015 91 10000 2.57 270 16:49 10.08.2021
1774 Rain 19 1014 79 10000 4.63 320 15:22 10.08.2021
1775 Clouds 19 1015 78 10000 4.63 260 13:29 10.08.2021
1776 Clouds 17 1015 87 10000 6.17 220 10:47 10.08.2021
1777 Clear 13 1015 96 10000 1.54 160 07:23 10.08.2021
1778 Clear 13 1015 95 10000 1.54 180 04:59 10.08.2021
1779 Clouds 14 1015 95 10000 3.09 170 23:59 09.08.2021
1780 Thunderstorm 15 1015 95 10000 3.09 140 22:33 09.08.2021
1781 Clouds 15 1015 95 10000 1.54 120 21:37 09.08.2021
1782 Clouds 15 1015 92 10000 2.06 100 20:19 09.08.2021
1783 Rain 19 1014 64 10000 6.69 200 17:57 09.08.2021
1784 Clouds 21 1015 65 10000 5.66 190 15:35 09.08.2021
1785 Clouds 20 1015 66 10000 6.17 200 14:26 09.08.2021
1786 Clouds 20 1015 65 10000 5.66 210 13:28 09.08.2021
1787 Clouds 19 1015 70 10000 6.69 220 11:47 09.08.2021
1788 Clear 15 1014 84 10000 4.63 200 09:21 09.08.2021
1789 Clear 14 1014 88 10000 3.09 190 07:52 09.08.2021
1790 Thunderstorm 17 1010 72 10000 3.09 200 21:31 08.08.2021
1791 Clouds 18 1010 63 10000 4.12 210 20:36 08.08.2021
1792 Clouds 20 1009 59 10000 7.72 230 17:35 08.08.2021
1793 Clouds 20 1008 61 10000 9.26 230 15:44 08.08.2021
1794 Clouds 20 1007 66 10000 8.23 230 14:34 08.08.2021
1795 Clouds 19 1006 77 10000 7.72 220 12:46 08.08.2021
1796 Clouds 16 1004 92 10000 7.2 230 10:35 08.08.2021
1797 Clouds 15 1002 95 8000 4.12 180 06:41 08.08.2021
1798 Rain 16 1001 83 10000 3.09 200 00:53 08.08.2021
1799 Clear 16 1001 89 10000 3.09 170 00:24 08.08.2021
1800 Clear 17 1001 83 10000 2.57 150 21:47 07.08.2021
1801 Clear 18 1001 77 10000 2.57 160 21:19 07.08.2021
1802 Clouds 22 1001 63 10000 4.63 200 18:21 07.08.2021
1803 Clouds 22 1001 57 10000 5.14 180 16:52 07.08.2021
1804 Clouds 22 1001 64 10000 4.12 150 15:36 07.08.2021
1805 Clouds 20 1003 71 10000 3.09 170 13:35 07.08.2021
1806 Clouds 18 1004 81 10000 3.09 210 10:37 07.08.2021
1807 Clouds 15 1004 94 10000 1.54 200 07:44 07.08.2021
1808 Clear 15 1004 95 10000 2.57 200 02:38 07.08.2021
1809 Clouds 16 1004 95 10000 2.57 160 22:51 06.08.2021
1810 Clouds 18 1003 90 10000 2.57 250 20:36 06.08.2021
1811 Clouds 19 1003 89 10000 2.57 200 19:59 06.08.2021
1812 Clouds 19 1003 89 10000 2.57 200 19:37 06.08.2021
1813 Clouds 19 1003 89 10000 2.57 200 19:37 06.08.2021
1814 Clouds 19 1002 95 10000 2.06 150 17:44 06.08.2021
1815 Clouds 21 1002 73 10000 4.12 200 12:25 06.08.2021
1816 Clouds 19 1003 82 10000 4.85 165 09:57 06.08.2021
1817 Clear 15 1003 90 10000 4.63 130 08:29 06.08.2021
1818 Clear 15 1006 93 10000 2.57 100 00:33 06.08.2021
1819 Clear 17 1007 84 10000 2.06 120 22:33 05.08.2021
1820 Clouds 18 1007 77 10000 4.12 110 20:48 05.08.2021
1821 Clouds 19 1007 74 10000 5.14 130 19:49 05.08.2021
1822 Clouds 20 1007 72 10000 5.14 100 18:25 05.08.2021
1823 Clouds 23 1008 66 10000 5.14 150 15:35 05.08.2021
1824 Clouds 22 1010 69 10000 3.09 120 12:48 05.08.2021
1825 Clear 16 1010 91 10000 1.03 0 08:52 05.08.2021
1826 Clear 14 1010 95 10000 2.57 70 07:38 05.08.2021
1827 Clear 14 1012 91 10000 1.03 0 02:19 05.08.2021
1828 Clear 16 1013 86 10000 4.12 80 22:21 04.08.2021
1829 Clouds 17 1013 84 10000 3.6 50 21:26 04.08.2021
1830 Clouds 20 1012 69 10000 4.12 20 19:24 04.08.2021
1831 Rain 22 1013 61 10000 4.12 20 17:22 04.08.2021
1832 Clouds 20 1014 67 10000 4.12 20 14:45 04.08.2021
1833 Clouds 16 1014 83 10000 3.6 30 12:21 04.08.2021
1834 Rain 14 1014 88 10000 2.06 360 06:49 04.08.2021
1835 Clouds 19 1012 63 10000 4.12 30 20:55 03.08.2021
1836 Clouds 18 1012 70 10000 3.09 40 20:26 03.08.2021
1837 Clouds 19 1012 65 10000 3.6 30 18:37 03.08.2021
1838 Clouds 20 1012 58 10000 1.54 300 16:58 03.08.2021
1839 Clouds 19 1013 62 10000 2.06 260 13:57 03.08.2021
1840 Clouds 17 1014 76 10000 2.06 250 10:57 03.08.2021
1841 Clouds 16 1014 84 10000 1.03 0 09:42 03.08.2021
1842 Clouds 15 1013 87 10000 2.57 290 21:55 02.08.2021
1843 Clouds 18 1012 70 10000 5.14 280 16:40 02.08.2021
1844 Clouds 18 1012 77 10000 4.12 310 15:31 02.08.2021
1845 Clouds 18 1012 69 10000 5.14 280 12:29 02.08.2021
1846 Rain 17 1012 70 10000 6.17 260 11:57 02.08.2021
1847 Rain 17 1012 70 10000 6.17 260 11:57 02.08.2021
1848 Clouds 16 1011 83 10000 4.63 250 09:51 02.08.2021
1849 Clear 12 1010 95 10000 2.57 240 05:30 02.08.2021
1850 Clouds 17 1008 93 10000 3.6 270 18:27 01.08.2021
1851 Rain 16 1008 93 10000 3.09 300 15:44 01.08.2021
1852 Rain 18 1007 85 10000 4.63 220 11:38 01.08.2021
1853 Clouds 16 1007 92 10000 2.57 230 09:47 01.08.2021
1854 Clouds 15 1007 95 10000 2.57 240 03:49 01.08.2021
1855 Clouds 16 1007 92 10000 4.63 260 22:53 31.07.2021
1856 Clouds 16 1006 91 10000 4.12 250 21:45 31.07.2021
1857 Rain 18 1005 86 10000 7.2 240 17:53 31.07.2021
1858 Clouds 18 1005 88 10000 7.2 240 16:37 31.07.2021
1859 Clouds 18 1003 81 10000 10.8 230 13:31 31.07.2021
1860 Clouds 16 1002 86 10000 6.69 210 09:19 31.07.2021
1861 Clear 15 1004 93 10000 3.6 200 02:48 31.07.2021
1862 Clear 22 1004 53 10000 2.06 140 20:38 30.07.2021
1863 Clear 22 1004 61 10000 3.09 170 20:19 30.07.2021
1864 Clear 22 1007 46 10000 7.72 240 14:18 30.07.2021
1865 Clouds 20 1009 51 10000 7.2 250 18:52 29.07.2021
1866 Clouds 16 1007 80 10000 5.14 220 07:25 29.07.2021
1867 Clear 15 1007 83 10000 4.63 210 04:51 29.07.2021
1868 Clouds 16 1009 90 10000 2.57 250 22:21 28.07.2021
1869 Clouds 22 1008 60 10000 6.35 248 17:47 28.07.2021
1870 Clouds 23 1008 56 10000 7.72 220 16:54 28.07.2021
1871 Clouds 19 1009 79 10000 5.66 210 09:39 28.07.2021
1872 Rain 17 1010 79 10000 2.06 230 23:45 27.07.2021
1873 Rain 19 1010 75 10000 3.09 190 21:31 27.07.2021
1874 Clouds 24 1011 56 10000 6.69 230 14:53 27.07.2021
1875 Clouds 24 1011 61 10000 5.14 220 13:44 27.07.2021
1876 Clouds 19 1011 86 7000 3.6 220 10:20 27.07.2021
1877 Clouds 19 1009 90 10000 1.03 240 22:23 26.07.2021
1878 Clouds 27 1009 52 10000 3.09 220 15:33 26.07.2021
1879 Clouds 19 1010 85 10000 2.09 208 08:28 26.07.2021
1880 Clouds 23 1008 65 10000 1.54 160 20:57 25.07.2021
1881 Clouds 25 1008 63 10000 2.06 150 19:23 25.07.2021
1882 Clouds 27 1008 55 10000 3.6 160 16:22 25.07.2021
1883 Clouds 22 1009 76 10000 4.63 170 11:44 25.07.2021
1884 Mist 18 1008 95 5000 4.12 170 08:20 25.07.2021
1885 Clouds 18 1006 95 10000 2.06 100 02:34 25.07.2021
1886 Clouds 26 1006 60 10000 4.12 50 20:20 24.07.2021
1887 Clear 27 1009 52 10000 5.66 70 15:51 24.07.2021
1888 Clear 13 1014 95 10000 2.57 60 04:21 24.07.2021
1889 Clouds 19 1017 73 10000 2.06 20 17:34 23.07.2021
1890 Clouds 17 1019 85 10000 3.6 310 12:43 23.07.2021
1891 Clouds 14 1019 93 10000 1.03 0 07:47 23.07.2021
1892 Clear 15 1020 79 10000 4.63 340 22:44 22.07.2021
1893 Clouds 20 1022 59 10000 4.12 310 14:36 22.07.2021
1894 Clouds 18 1022 70 10000 3.09 330 10:27 22.07.2021
1895 Clear 16 1023 87 10000 2.12 301 08:23 22.07.2021
1896 Clouds 17 1023 82 10000 3.09 350 22:33 21.07.2021
1897 Clouds 19 1022 79 10000 3.6 10 21:31 21.07.2021
1898 Clouds 21 1023 71 10000 5.14 320 15:24 21.07.2021
1899 Clear 17 1023 87 10000 3.6 270 09:54 21.07.2021
1900 Clear 17 1023 89 10000 2.57 280 09:19 21.07.2021
1901 Clouds 16 1022 93 10000 3.09 310 23:56 20.07.2021
1902 Clouds 18 1021 76 10000 5.14 310 20:28 20.07.2021
1903 Clouds 20 1020 67 10000 4.12 300 16:33 20.07.2021
1904 Clouds 20 1021 65 10000 3.6 290 15:26 20.07.2021
1905 Clouds 17 1021 68 10000 3.6 290 11:19 20.07.2021
1906 Clouds 15 1020 84 10000 2.06 300 07:23 20.07.2021
1907 Clouds 14 1020 87 10000 2.06 280 02:55 20.07.2021
1908 Clouds 18 1020 68 10000 3.6 280 17:44 19.07.2021
1909 Clouds 18 1021 67 10000 4.63 310 12:45 19.07.2021
1910 Clouds 19 1021 76 10000 6.17 330 20:59 18.07.2021
1911 Clouds 25 1021 56 10000 4.63 290 15:21 18.07.2021
1912 Clouds 20 1022 84 10000 3.6 300 10:19 18.07.2021
1913 Clear 18 1023 85 10000 3.6 330 22:30 17.07.2021
1914 Clear 19 1023 80 10000 4.12 330 21:58 17.07.2021
1915 Clear 19 1023 75 10000 4.12 330 21:40 17.07.2021
1916 Clear 19 1023 75 10000 4.12 330 21:40 17.07.2021
1917 Clouds 23 1023 69 10000 6.69 310 12:35 17.07.2021
1918 Clouds 22 1023 73 10000 5.14 320 11:30 17.07.2021
1919 Clear 16 1022 95 10000 3.09 290 04:47 17.07.2021
1920 Clouds 22 1020 71 10000 5.66 320 15:34 16.07.2021
1921 Clouds 20 1019 77 10000 5.14 290 11:43 16.07.2021
1922 Clouds 17 1018 92 10000 3.09 290 07:24 16.07.2021
1923 Clouds 20 1013 92 10000 7.72 300 18:33 15.07.2021
1924 Clouds 23 1012 77 10000 4.63 290 13:49 15.07.2021
1925 Clouds 21 1012 86 10000 2.06 180 09:51 15.07.2021
1926 Clouds 19 1009 92 10000 2.06 190 00:31 15.07.2021
1927 Clouds 23 1007 90 8000 2.06 20 16:54 14.07.2021
1928 Rain 21 1007 96 5000 3.6 330 11:59 14.07.2021
1929 Clouds 19 1008 97 10000 2.8 2 04:44 14.07.2021
1930 Clouds 21 1009 88 10000 2.57 330 20:23 13.07.2021
1931 Rain 22 1009 87 10000 4.12 310 19:50 13.07.2021
1932 Rain 23 1008 84 10000 6.69 300 19:23 13.07.2021
1933 Rain 24 1008 78 10000 5.14 300 18:44 13.07.2021
1934 Clouds 24 1008 73 10000 4.12 290 18:24 13.07.2021
1935 Rain 24 1008 77 10000 2.57 70 15:31 13.07.2021
1936 Clear 23 1009 78 10000 1.54 40 09:48 13.07.2021
1937 Clear 20 1010 89 10000 0.51 0 00:19 13.07.2021
1938 Clouds 25 1010 64 10000 3.6 110 17:29 12.07.2021
1939 Rain 25 1011 63 10000 2.06 180 15:21 12.07.2021
1940 Clouds 18 1013 96 6000 0.51 90 07:58 12.07.2021
1941 Rain 20 1015 93 10000 1.54 90 21:58 11.07.2021
1942 Rain 22 1016 75 3000 6.17 110 15:50 11.07.2021
1943 Clear 15 1016 87 10000 2.57 50 04:42 11.07.2021
1944 Clouds 22 1015 60 10000 3.09 210 17:38 10.07.2021
1945 Clear 14 1017 91 10000 1.54 270 07:58 10.07.2021
1946 Clear 13 1017 94 10000 2.06 260 07:22 10.07.2021
1947 Clear 19 1018 72 10000 4.63 310 20:55 09.07.2021
1948 Clouds 20 1019 75 10000 6.17 310 14:53 09.07.2021
1949 Clouds 20 1020 78 10000 5.14 310 13:27 09.07.2021
1950 Clear 17 1020 95 10000 1.54 240 01:35 09.07.2021
1951 Clouds 18 1021 83 10000 3.09 10 22:52 08.07.2021
1952 Clouds 20 1019 80 10000 6.69 350 20:52 08.07.2021
1953 Clouds 23 1018 59 10000 2.06 270 18:41 08.07.2021
1954 Clear 25 1019 49 10000 1.03 0 13:54 08.07.2021
1955 Clear 25 1020 50 10000 1.54 0 13:30 08.07.2021
1956 Clear 24 1020 48 10000 1.03 0 12:35 08.07.2021
1957 Clouds 24 1020 59 10000 1.03 0 11:25 08.07.2021
1958 Clear 16 1019 97 10000 1.03 0 06:53 08.07.2021
1959 Clouds 16 1019 92 10000 3.09 260 04:41 08.07.2021
1960 Clear 17 1018 82 10000 0.51 0 23:45 07.07.2021
1961 Clear 18 1017 78 10000 2.57 180 22:20 07.07.2021
1962 Clear 20 1017 68 10000 2.06 180 21:46 07.07.2021
1963 Clear 21 1017 63 10000 2.06 200 21:25 07.07.2021
1964 Clear 23 1016 52 10000 3.6 210 19:59 07.07.2021
1965 Clear 23 1016 55 10000 4.63 180 19:30 07.07.2021
1966 Clear 24 1016 50 10000 5.66 230 18:56 07.07.2021
1967 Clear 23 1015 51 10000 6.69 190 15:58 07.07.2021
1968 Clear 23 1015 49 10000 5.66 200 15:24 07.07.2021
1969 Clouds 23 1015 56 10000 5.14 190 11:52 07.07.2021
1970 Clear 13 1013 88 10000 1.03 0 07:27 07.07.2021
1971 Clear 12 1013 88 10000 2.57 160 05:52 07.07.2021
1972 Clear 14 1012 85 10000 3.09 150 02:58 07.07.2021
1973 Clouds 22 1007 56 10000 7.2 240 20:54 06.07.2021
1974 Clear 23 1006 53 10000 6.17 220 19:18 06.07.2021
1975 Clouds 24 1006 49 10000 6.69 220 18:44 06.07.2021
1976 Clouds 23 1006 49 10000 6.69 220 18:19 06.07.2021
1977 Clear 20 1004 77 10000 4.12 170 13:37 06.07.2021
1978 Rain 21 1004 78 10000 4.63 150 09:45 06.07.2021
1979 Rain 21 1004 78 10000 4.63 150 09:45 06.07.2021
1980 Rain 20 1005 84 10000 5.14 150 08:50 06.07.2021
1981 Clear 19 1004 85 10000 4.63 140 08:24 06.07.2021
1982 Clear 17 1006 90 10000 4.12 130 04:49 06.07.2021
1983 Clouds 17 1008 84 10000 2.06 110 23:58 05.07.2021
1984 Clouds 18 1008 78 10000 1.03 0 21:59 05.07.2021
1985 Clouds 20 1008 68 10000 4.63 250 17:22 05.07.2021
1986 Clouds 18 1008 88 10000 3.09 210 14:29 05.07.2021
1987 Clouds 16 1008 96 8000 2.57 200 06:21 05.07.2021
1988 Clouds 16 1008 96 10000 2.57 210 05:42 05.07.2021
1989 Clouds 17 1009 95 10000 2.06 190 01:28 05.07.2021
1990 Clouds 17 1008 94 9000 2.06 310 21:52 04.07.2021
1991 Clouds 23 1007 74 10000 2.57 60 18:51 04.07.2021
1992 Clouds 24 1009 60 10000 3.09 50 15:38 04.07.2021
1993 Clouds 21 1011 81 10000 0.51 0 11:43 04.07.2021
1994 Clouds 17 1011 86 10000 1.54 190 08:38 04.07.2021
1995 Clouds 15 1013 88 10000 2.01 56 23:31 03.07.2021
1996 Clear 18 1013 72 10000 2.57 50 22:19 03.07.2021
1997 Clouds 23 1015 58 10000 2.06 0 14:19 03.07.2021
1998 Clouds 22 1016 61 10000 3.09 320 12:38 03.07.2021
1999 Clouds 18 1016 82 10000 1.54 290 09:29 03.07.2021
2000 Clouds 16 1016 85 10000 1.03 0 08:46 03.07.2021
2001 Clouds 13 1017 100 10000 1.03 0 02:46 03.07.2021
2002 Clouds 18 1016 77 10000 4.12 270 12:51 02.07.2021
2003 Clouds 16 1015 92 10000 2.57 240 07:40 02.07.2021
2004 Clouds 14 1014 94 10000 3.18 249 04:38 02.07.2021
2005 Clouds 16 1013 93 10000 2.06 270 22:33 01.07.2021
2006 Clouds 18 1013 81 10000 3.09 310 21:51 01.07.2021
2007 Clouds 19 1012 79 10000 4.12 330 20:45 01.07.2021
2008 Clouds 20 1012 75 10000 5.66 340 19:21 01.07.2021
2009 Clouds 21 1011 72 10000 5.14 310 18:49 01.07.2021
2010 Clouds 21 1011 76 10000 4.63 290 17:48 01.07.2021
2011 Clouds 21 1011 79 10000 5.66 310 17:18 01.07.2021
2012 Rain 20 1011 84 10000 2.06 360 15:25 01.07.2021
2013 Clouds 20 1010 83 10000 3.09 310 14:23 01.07.2021
2014 Clouds 16 1009 99 8000 2.57 270 10:55 01.07.2021
2015 Mist 14 1009 96 3500 5.14 250 06:56 01.07.2021
2016 Rain 15 1011 91 10000 4.12 270 23:23 30.06.2021
2017 Clouds 15 1011 94 10000 3.6 280 22:20 30.06.2021
2018 Clouds 15 1010 93 10000 3.09 280 21:22 30.06.2021
2019 Rain 16 1010 89 10000 4.63 300 20:28 30.06.2021
2020 Rain 17 1010 87 10000 5.14 290 19:19 30.06.2021
2021 Clouds 18 1009 90 10000 3.6 260 14:26 30.06.2021
2022 Clouds 18 1009 91 10000 3.09 260 13:24 30.06.2021
2023 Mist 16 1009 96 2000 3.09 290 08:19 30.06.2021
2024 Clouds 17 1009 95 10000 1.03 0 21:40 29.06.2021
2025 Rain 19 1009 85 10000 3.09 50 18:45 29.06.2021
2026 Rain 19 1009 81 6000 8.23 290 17:43 29.06.2021
2027 Rain 22 1009 79 10000 1.47 101 17:43 29.06.2021
2028 Clouds 22 1010 83 10000 1.86 120 16:59 29.06.2021
2029 Clouds 22 1009 85 10000 3.6 90 15:50 29.06.2021
2030 Clouds 21 1010 86 10000 4.12 90 14:54 29.06.2021
2031 Clouds 22 1011 78 10000 2.57 140 13:19 29.06.2021
2032 Clear 20 1012 86 10000 2.57 170 00:41 29.06.2021
2033 Clear 25 1011 65 10000 1.03 160 21:47 28.06.2021
2034 Clear 26 1012 61 10000 2.57 140 19:53 28.06.2021
2035 Clear 28 1013 53 10000 3.09 170 17:32 28.06.2021
2036 Clear 29 1013 43 10000 3.6 130 15:22 28.06.2021
2037 Clear 28 1014 47 10000 4.63 120 14:20 28.06.2021
2038 Clear 20 1015 82 10000 2.06 60 09:36 28.06.2021
2039 Clear 20 1016 73 10000 3.09 40 23:47 27.06.2021
2040 Clear 23 1015 60 10000 3.09 50 21:54 27.06.2021
2041 Clear 25 1015 53 10000 4.12 50 19:42 27.06.2021
2042 Clear 26 1016 51 10000 2.57 40 16:54 27.06.2021
2043 Clouds 25 1017 55 10000 3.09 80 14:30 27.06.2021
2044 Clear 20 1018 78 10000 2.06 70 09:33 27.06.2021
2045 Clear 17 1019 85 10000 1.54 30 23:57 26.06.2021
2046 Clear 20 1018 76 10000 3.09 360 21:24 26.06.2021
2047 Clear 21 1018 73 10000 3.09 10 20:44 26.06.2021
2048 Clouds 22 1018 69 10000 2.57 290 19:26 26.06.2021
2049 Clouds 23 1019 62 10000 1.03 0 15:39 26.06.2021
2050 Clouds 24 1019 61 10000 1.03 0 13:52 26.06.2021
2051 Clouds 21 1020 71 10000 1.54 250 09:58 26.06.2021
2052 Clear 16 1019 88 10000 1.03 230 06:23 26.06.2021
2053 Clear 18 1017 68 10000 2.57 240 21:24 25.06.2021
2054 Clear 20 1017 59 10000 2.57 230 20:34 25.06.2021
2055 Clouds 22 1017 51 10000 2.31 273 17:58 25.06.2021
2056 Clear 22 1016 43 10000 2.57 0 17:30 25.06.2021
2057 Clear 22 1017 42 10000 3.6 220 15:59 25.06.2021
2058 Clouds 21 1017 51 10000 2.06 0 13:42 25.06.2021
2059 Clouds 17 1018 74 10000 2.57 0 09:56 25.06.2021
2060 Clouds 12 1017 95 10000 1.03 0 07:23 25.06.2021
2061 Mist 11 1017 94 10000 1.03 0 05:55 25.06.2021
2062 Clear 13 1019 91 10000 2.57 290 00:23 25.06.2021
2063 Clouds 16 1018 77 10000 4.12 300 21:48 24.06.2021
2064 Clouds 16 1018 72 10000 4.12 300 20:42 24.06.2021
2065 Clouds 17 1018 73 10000 3.6 310 19:58 24.06.2021
2066 Clouds 18 1019 73 10000 4.12 310 18:20 24.06.2021
2067 Clouds 19 1019 69 10000 3.6 300 15:23 24.06.2021
2068 Clouds 18 1019 70 10000 4.12 300 14:52 24.06.2021
2069 Clouds 18 1020 70 10000 3.6 310 13:23 24.06.2021
2070 Clouds 16 1020 72 10000 1.03 0 09:58 24.06.2021
2071 Clouds 14 1020 82 10000 2.06 290 08:29 24.06.2021
2072 Clouds 12 1021 88 10000 3.09 300 06:52 24.06.2021
2073 Clouds 14 1021 83 10000 4.12 350 23:58 23.06.2021
2074 Clouds 15 1021 79 10000 3.6 350 22:25 23.06.2021
2075 Clouds 16 1021 78 10000 3.6 340 21:22 23.06.2021
2076 Clouds 17 1021 74 10000 3.09 20 20:19 23.06.2021
2077 Clouds 18 1021 70 10000 3.09 310 18:30 23.06.2021
2078 Clouds 18 1021 69 10000 2.57 330 16:52 23.06.2021
2079 Clouds 18 1021 65 10000 2.57 340 14:31 23.06.2021
2080 Clouds 17 1021 75 10000 3.09 310 12:47 23.06.2021
2081 Clouds 16 1021 77 10000 4.12 310 11:33 23.06.2021
2082 Clouds 15 1020 84 10000 2.57 310 09:31 23.06.2021
2083 Clouds 14 1020 82 10000 2.06 300 08:38 23.06.2021
2084 Clear 13 1020 90 10000 3.09 290 07:49 23.06.2021
2085 Clouds 11 1020 93 10000 2.57 230 05:34 23.06.2021
2086 Clear 11 1019 90 10000 2.57 300 01:57 23.06.2021
2087 Clear 12 1019 77 10000 2.57 320 00:19 23.06.2021
2088 Clear 12 1019 81 10000 2.57 340 23:44 22.06.2021
2089 Clear 13 1019 75 10000 4.12 350 22:39 22.06.2021
2090 Clouds 15 1018 65 10000 3.6 360 21:46 22.06.2021
2091 Clouds 15 1018 63 10000 5.14 340 20:55 22.06.2021
2092 Clouds 17 1017 65 10000 4.63 320 19:19 22.06.2021
2093 Clouds 17 1017 62 10000 5.14 330 18:33 22.06.2021
2094 Clouds 17 1016 60 10000 5.14 340 17:29 22.06.2021
2095 Clouds 18 1016 60 10000 5.14 310 16:56 22.06.2021
2096 Clouds 17 1017 62 10000 4.63 330 15:40 22.06.2021
2097 Clouds 17 1016 64 10000 5.14 320 14:28 22.06.2021
2098 Clouds 17 1016 62 10000 5.14 310 13:40 22.06.2021
2099 Clouds 17 1016 65 10000 4.12 320 12:31 22.06.2021
2100 Clouds 16 1016 74 10000 4.63 320 10:55 22.06.2021
2101 Clouds 14 1015 83 10000 4.63 330 08:52 22.06.2021
2102 Clouds 12 1013 91 10000 3.6 310 00:57 22.06.2021
2103 Clouds 12 1013 91 10000 3.6 310 00:37 22.06.2021
2104 Clouds 13 1012 96 10000 5.66 330 22:52 21.06.2021
2105 Drizzle 13 1011 96 10000 6.17 320 21:37 21.06.2021
2106 Drizzle 13 1011 98 4000 7.72 320 20:52 21.06.2021
2107 Clouds 14 1010 96 4500 6.17 330 19:56 21.06.2021
2108 Clouds 14 1009 96 4500 5.66 320 19:29 21.06.2021
2109 Drizzle 14 1009 96 3300 4.63 330 18:20 21.06.2021
2110 Drizzle 15 1007 94 10000 5.14 10 16:53 21.06.2021
2111 Rain 15 1007 93 10000 6.17 20 16:29 21.06.2021
2112 Clouds 15 1007 93 10000 6.69 20 15:56 21.06.2021
2113 Clouds 15 1007 93 10000 4.63 20 15:19 21.06.2021
2114 Clouds 15 1007 96 5000 4.63 20 13:40 21.06.2021
2115 Rain 15 1006 93 10000 6.17 20 12:55 21.06.2021
2116 Rain 15 1006 93 10000 6.69 20 12:31 21.06.2021
2117 Rain 14 1006 96 10000 5.66 20 10:43 21.06.2021
2118 Rain 14 1006 94 10000 6.17 10 10:22 21.06.2021
2119 Rain 13 1007 100 7000 5.66 350 08:47 21.06.2021
2120 Rain 13 1007 98 8000 4.12 10 07:57 21.06.2021
2121 Clouds 16 1009 85 10000 4.63 30 01:53 21.06.2021
2122 Clear 16 1009 84 10000 4.63 10 23:54 20.06.2021
2123 Clear 17 1009 85 10000 3.6 20 23:34 20.06.2021
2124 Clear 18 1009 82 10000 3.6 10 22:50 20.06.2021
2125 Clear 18 1008 81 10000 5.66 30 21:48 20.06.2021
2126 Clouds 21 1008 76 10000 4.12 310 20:27 20.06.2021
2127 Clouds 21 1008 73 10000 5.14 310 19:38 20.06.2021
2128 Clouds 23 1008 65 10000 4.63 320 18:49 20.06.2021
2129 Clouds 24 1008 63 10000 4.12 270 17:45 20.06.2021
2130 Clouds 24 1008 59 10000 4.63 270 16:45 20.06.2021
2131 Clouds 25 1008 57 10000 5.66 260 15:38 20.06.2021
2132 Clouds 25 1008 57 10000 5.66 270 15:19 20.06.2021
2133 Clouds 25 1007 57 10000 7.72 250 14:38 20.06.2021
2134 Clouds 24 1008 67 10000 8.23 240 13:29 20.06.2021
2135 Clouds 24 1007 68 10000 5.66 220 12:34 20.06.2021
2136 Clouds 22 1007 78 10000 8.23 230 11:45 20.06.2021
2137 Clouds 21 1006 89 10000 5.14 200 09:50 20.06.2021
2138 Clouds 20 1006 93 10000 3.6 150 08:59 20.06.2021
2139 Rain 18 1007 91 10000 2.57 60 04:32 20.06.2021
2140 Clear 18 1012 86 10000 3.6 30 23:36 19.06.2021
2141 Clear 18 1012 85 10000 5.14 20 22:52 19.06.2021
2142 Clear 20 1013 78 10000 5.66 10 21:51 19.06.2021
2143 Clear 24 1012 64 10000 5.66 10 20:50 19.06.2021
2144 Clear 27 1012 55 10000 2.06 240 18:50 19.06.2021
2145 Clear 27 1012 50 10000 4.12 250 18:21 19.06.2021
2146 Clear 29 1013 45 10000 3.09 260 17:22 19.06.2021
2147 Clouds 28 1013 47 10000 4.12 220 15:56 19.06.2021
2148 Clouds 27 1013 51 10000 3.09 210 14:28 19.06.2021
2149 Clouds 26 1014 53 10000 5.14 220 12:51 19.06.2021
2150 Clouds 25 1014 61 10000 5.14 240 11:53 19.06.2021
2151 Clouds 24 1014 66 10000 6.17 250 10:46 19.06.2021
2152 Clouds 25 1013 66 10000 7.2 240 10:23 19.06.2021
2153 Clouds 24 1013 69 10000 7.2 250 09:24 19.06.2021
2154 Clear 23 1012 78 10000 3.6 230 07:48 19.06.2021
2155 Clear 19 1011 93 10000 1.54 230 06:29 19.06.2021
2156 Clear 19 1011 93 10000 1.54 230 06:29 19.06.2021
2157 Clear 19 1011 93 10000 1.54 230 06:29 19.06.2021
2158 Clouds 20 1012 88 10000 2.65 164 02:22 19.06.2021
2159 Clear 26 1011 73 10000 2.06 140 00:19 19.06.2021
2160 Clear 27 1010 65 10000 3.09 110 23:32 18.06.2021
2161 Clear 27 1010 65 10000 2.57 110 22:50 18.06.2021
2162 Clear 27 1010 65 10000 2.06 100 22:25 18.06.2021
2163 Clear 28 1010 61 10000 2.06 130 21:43 18.06.2021
2164 Clear 28 1010 61 10000 2.06 120 21:21 18.06.2021
2165 Clouds 27 1011 66 10000 2.06 150 20:18 18.06.2021
2166 Clouds 29 1011 64 10000 1.03 0 18:29 18.06.2021
2167 Clear 30 1011 55 10000 0.51 0 17:39 18.06.2021
2168 Clear 30 1012 54 10000 2.06 260 16:30 18.06.2021
2169 Clouds 29 1012 54 10000 2.06 0 15:46 18.06.2021
2170 Clouds 28 1012 61 10000 3.09 0 14:34 18.06.2021
2171 Clear 28 1013 61 10000 2.06 0 13:41 18.06.2021
2172 Clear 26 1013 67 10000 4.63 310 12:52 18.06.2021
2173 Clear 26 1013 67 10000 4.12 330 12:30 18.06.2021
2174 Clear 26 1013 70 10000 4.12 320 11:36 18.06.2021
2175 Clear 25 1013 70 10000 3.09 320 10:57 18.06.2021
2176 Clear 24 1013 71 10000 2.06 20 10:23 18.06.2021
2177 Clear 24 1013 75 10000 2.06 350 09:51 18.06.2021
2178 Clear 22 1013 80 10000 3.09 320 08:56 18.06.2021
2179 Clear 21 1013 83 10000 2.57 30 08:30 18.06.2021
2180 Clear 20 1013 86 10000 2.06 50 07:33 18.06.2021
2181 Clear 20 1014 85 10000 2.57 350 03:24 18.06.2021
2182 Clear 21 1014 77 10000 4.12 350 00:34 18.06.2021
2183 Clear 23 1013 71 10000 6.69 340 23:27 17.06.2021
2184 Clear 25 1011 62 10000 3.09 120 22:26 17.06.2021
2185 Clear 26 1011 57 10000 2.57 120 21:51 17.06.2021
2186 Clear 30 1011 45 10000 1.54 130 21:18 17.06.2021
2187 Clear 31 1011 40 10000 3.6 140 20:32 17.06.2021
2188 Clear 32 1010 37 10000 4.12 140 19:54 17.06.2021
2189 Clear 32 1010 37 10000 5.14 150 19:22 17.06.2021
2190 Clear 33 1010 33 10000 6.69 160 17:50 17.06.2021
2191 Clear 33 1010 34 10000 7.72 160 17:22 17.06.2021
2192 Clear 33 1010 33 10000 6.69 150 16:30 17.06.2021
2193 Clear 33 1010 33 10000 6.69 150 16:30 17.06.2021
2194 Clear 33 1010 34 10000 6.69 170 15:53 17.06.2021
2195 Clear 32 1011 38 10000 6.69 140 14:29 17.06.2021
2196 Clear 32 1011 38 10000 5.66 140 13:46 17.06.2021
2197 Clear 30 1011 47 10000 4.63 150 12:31 17.06.2021
2198 Clear 30 1011 52 10000 5.14 130 11:41 17.06.2021
2199 Clear 28 1012 56 10000 4.63 130 10:44 17.06.2021
2200 Clear 27 1012 59 10000 4.12 130 10:23 17.06.2021
2201 Clear 26 1012 65 10000 3.6 130 09:40 17.06.2021
2202 Clear 24 1012 70 10000 3.6 150 08:48 17.06.2021
2203 Clear 21 1012 77 10000 3.09 140 07:51 17.06.2021
2204 Clear 20 1011 81 10000 4.12 130 06:23 17.06.2021
2205 Clear 21 1012 73 10000 4.63 120 01:54 17.06.2021
2206 Clear 23 1012 68 10000 3.09 110 23:40 16.06.2021
2207 Clear 24 1012 64 10000 3.09 110 23:21 16.06.2021
2208 Clear 25 1012 61 10000 3.09 110 22:24 16.06.2021
2209 Clear 26 1012 57 10000 3.09 110 21:43 16.06.2021
2210 Clear 27 1012 54 10000 2.57 110 21:19 16.06.2021
2211 Clear 27 1012 54 10000 1.54 110 20:41 16.06.2021
2212 Clear 28 1012 47 10000 2.57 130 19:52 16.06.2021
2213 Clear 28 1013 52 10000 3.6 140 19:33 16.06.2021
2214 Clear 28 1012 51 10000 2.57 130 19:33 16.06.2021
2215 Clear 28 1013 50 10000 3.6 140 18:52 16.06.2021
2216 Clear 28 1013 48 10000 4.12 150 18:24 16.06.2021
2217 Clear 28 1013 47 10000 3.09 140 17:43 16.06.2021
2218 Clear 28 1013 46 10000 3.09 0 17:24 16.06.2021
2219 Clear 27 1014 46 10000 3.6 110 16:43 16.06.2021
2220 Clear 27 1014 46 10000 3.6 110 15:57 16.06.2021
2221 Clear 26 1014 46 10000 3.09 120 15:31 16.06.2021
2222 Clear 26 1015 47 10000 3.6 130 14:48 16.06.2021
2223 Clear 25 1015 44 10000 4.12 130 14:30 16.06.2021
2224 Clear 25 1015 44 10000 3.6 130 13:55 16.06.2021
2225 Clear 24 1016 43 10000 3.6 120 13:22 16.06.2021
2226 Clear 24 1016 44 10000 3.6 130 12:50 16.06.2021
2227 Clear 23 1016 46 10000 4.12 140 12:28 16.06.2021
2228 Clear 23 1016 51 10000 4.12 120 11:45 16.06.2021
2229 Clear 22 1017 55 10000 3.09 140 10:46 16.06.2021
2230 Clear 20 1017 58 10000 3.6 130 10:21 16.06.2021
2231 Clear 19 1017 65 10000 3.09 140 09:34 16.06.2021
2232 Clear 16 1018 74 10000 3.6 110 08:32 16.06.2021
2233 Clear 14 1018 80 10000 1.54 100 07:44 16.06.2021
2234 Clear 13 1018 83 10000 1.54 80 07:23 16.06.2021
2235 Clear 11 1019 84 10000 2.57 80 02:48 16.06.2021
2236 Clear 14 1020 74 10000 3.09 40 23:46 15.06.2021
2237 Clear 15 1020 73 10000 3.09 30 23:22 15.06.2021
2238 Clear 16 1020 63 10000 3.09 30 22:44 15.06.2021
2239 Clear 16 1020 66 10000 3.6 20 22:25 15.06.2021
2240 Clouds 16 1020 70 10000 2.69 18 21:24 15.06.2021
2241 Clouds 18 1020 57 10000 3.6 10 20:18 15.06.2021
2242 Clouds 19 1020 51 10000 3.09 340 19:31 15.06.2021
2243 Clear 20 1020 54 10000 4.63 310 17:55 15.06.2021
2244 Clear 20 1021 51 10000 2.57 0 16:50 15.06.2021
2245 Clouds 20 1021 49 10000 4.12 340 15:43 15.06.2021
2246 Clouds 20 1021 51 10000 4.63 330 15:18 15.06.2021
2247 Clouds 20 1021 52 10000 4.63 300 14:43 15.06.2021
2248 Clouds 20 1021 53 10000 3.09 330 13:39 15.06.2021
2249 Clouds 20 1021 57 10000 4.12 0 12:53 15.06.2021
2250 Clouds 19 1021 59 10000 3.6 300 12:32 15.06.2021
2251 Clouds 18 1021 63 10000 3.09 310 11:43 15.06.2021
2252 Clouds 18 1021 63 10000 2.57 310 11:18 15.06.2021
2253 Clouds 17 1021 68 10000 2.57 0 10:43 15.06.2021
2254 Clouds 17 1021 72 10000 3.6 350 10:21 15.06.2021
2255 Clouds 15 1021 79 10000 2.57 10 08:57 15.06.2021
2256 Clouds 15 1021 80 10000 3.09 350 08:22 15.06.2021
2257 Clouds 14 1020 85 10000 3.6 350 07:28 15.06.2021
2258 Clouds 14 1020 87 10000 3.6 350 05:59 15.06.2021
2259 Clouds 14 1019 90 10000 2.57 300 04:30 15.06.2021
2260 Clouds 16 1019 87 10000 4.63 330 00:44 15.06.2021
2261 Clear 17 1018 82 10000 4.63 330 23:40 14.06.2021
2262 Clear 19 1018 76 10000 3.6 340 22:59 14.06.2021
2263 Clear 19 1018 76 10000 3.6 340 22:41 14.06.2021
2264 Clear 19 1018 75 10000 4.12 340 22:18 14.06.2021
2265 Clear 21 1018 64 10000 6.17 350 21:38 14.06.2021
2266 Clear 21 1017 67 10000 7.2 350 21:19 14.06.2021
2267 Clear 24 1017 56 10000 3.6 310 20:46 14.06.2021
2268 Clear 25 1017 49 10000 3.6 300 19:49 14.06.2021
2269 Clear 25 1017 44 10000 3.6 260 19:31 14.06.2021
2270 Clear 26 1017 43 10000 4.12 240 18:54 14.06.2021
2271 Clear 26 1017 38 10000 4.12 240 18:22 14.06.2021
2272 Clear 27 1018 36 10000 3.6 250 17:48 14.06.2021
2273 Clear 26 1018 39 10000 3.6 260 17:27 14.06.2021
2274 Clear 26 1019 39 10000 4.12 240 16:20 14.06.2021
2275 Clear 26 1019 41 10000 3.09 220 15:47 14.06.2021
2276 Clear 25 1019 42 10000 4.12 220 14:56 14.06.2021
2277 Clear 25 1019 41 10000 4.12 220 14:37 14.06.2021
2278 Clear 24 1020 44 10000 5.14 220 13:31 14.06.2021
2279 Clear 24 1020 45 10000 5.14 200 12:53 14.06.2021
2280 Clear 23 1020 46 10000 5.14 180 12:22 14.06.2021
2281 Clear 23 1020 47 10000 5.66 180 11:39 14.06.2021
2282 Clear 22 1021 51 10000 4.63 190 10:47 14.06.2021
2283 Clear 19 1022 63 10000 2.57 180 09:28 14.06.2021
2284 Clear 17 1023 70 10000 2.06 160 08:59 14.06.2021
2285 Clear 16 1023 73 10000 2.57 160 08:23 14.06.2021
2286 Clear 14 1023 79 10000 1.54 150 07:43 14.06.2021
2287 Clear 10 1023 91 10000 1.03 0 05:58 14.06.2021
2288 Clear 10 1023 93 10000 1.54 140 04:51 14.06.2021
2289 Clear 12 1025 90 10000 0 0 00:43 14.06.2021
2290 Clear 13 1025 84 10000 1.03 100 23:40 13.06.2021
2291 Clear 14 1025 74 10000 1.03 40 23:19 13.06.2021
2292 Clear 16 1025 63 10000 2.06 20 22:40 13.06.2021
2293 Clear 16 1025 67 10000 3.6 30 22:18 13.06.2021
2294 Clear 17 1025 59 10000 4.12 30 21:39 13.06.2021
2295 Clear 17 1026 61 10000 4.12 30 21:20 13.06.2021
2296 Clear 19 1026 55 10000 4.63 10 20:33 13.06.2021
2297 Clear 20 1025 51 10000 3.09 310 19:59 13.06.2021
2298 Clear 20 1025 51 10000 3.09 310 19:41 13.06.2021
2299 Clear 20 1026 50 10000 3.6 300 19:21 13.06.2021
2300 Clear 21 1026 50 10000 3.6 320 18:30 13.06.2021
2301 Clouds 21 1026 49 10000 4.63 300 17:49 13.06.2021
2302 Clouds 21 1026 48 10000 5.14 300 16:47 13.06.2021
2303 Clouds 20 1027 50 10000 5.14 300 15:50 13.06.2021
2304 Clouds 20 1027 51 10000 6.17 290 14:59 13.06.2021
2305 Clouds 20 1027 51 10000 5.14 300 14:27 13.06.2021
2306 Clouds 19 1027 51 10000 6.69 300 13:42 13.06.2021
2307 Clouds 19 1027 52 10000 5.66 280 13:23 13.06.2021
2308 Clouds 19 1027 52 10000 5.66 280 13:23 13.06.2021
2309 Clouds 18 1027 55 10000 5.14 280 12:45 13.06.2021
2310 Clouds 18 1027 54 10000 6.17 300 12:24 13.06.2021
2311 Clouds 17 1027 54 10000 5.14 290 11:27 13.06.2021
2312 Clouds 17 1027 57 10000 5.66 300 10:47 13.06.2021
2313 Clouds 17 1027 60 10000 5.14 280 10:19 13.06.2021
2314 Clouds 16 1026 62 10000 5.14 310 09:43 13.06.2021
2315 Clouds 15 1026 69 10000 5.14 290 09:23 13.06.2021
2316 Clear 14 1026 76 10000 3.6 300 08:46 13.06.2021
2317 Clear 13 1026 79 10000 4.12 290 08:25 13.06.2021
2318 Clouds 9 1025 92 10000 2.06 250 06:51 13.06.2021
2319 Clouds 11 1023 85 10000 3.6 300 01:21 13.06.2021
2320 Clouds 13 1023 77 10000 5.14 300 23:22 12.06.2021
2321 Clouds 13 1022 76 10000 7.2 310 22:39 12.06.2021
2322 Clouds 15 1021 71 10000 7.72 320 21:56 12.06.2021
2323 Clouds 15 1021 70 10000 7.72 320 21:35 12.06.2021
2324 Clouds 16 1021 68 10000 7.72 330 20:43 12.06.2021
2325 Clouds 16 1020 70 10000 8.23 300 20:19 12.06.2021
2326 Clouds 17 1020 63 10000 10.8 300 19:28 12.06.2021
2327 Clouds 18 1019 59 10000 8.23 300 18:39 12.06.2021
2328 Clouds 18 1019 59 10000 9.77 300 17:58 12.06.2021
2329 Clouds 19 1019 56 10000 10.29 290 17:19 12.06.2021
2330 Clouds 19 1018 53 10000 10.8 290 16:37 12.06.2021
2331 Clouds 19 1018 56 10000 9.77 300 15:37 12.06.2021
2332 Clouds 20 1017 59 10000 7.72 310 14:42 12.06.2021
2333 Clouds 19 1017 57 10000 8.75 300 14:23 12.06.2021
2334 Clouds 19 1017 64 10000 7.72 300 12:58 12.06.2021
2335 Clouds 19 1017 63 10000 7.72 300 12:39 12.06.2021
2336 Clouds 18 1016 69 10000 8.23 310 12:20 12.06.2021
2337 Clouds 19 1016 75 10000 8.75 310 11:21 12.06.2021
2338 Clouds 18 1015 82 10000 6.17 290 10:30 12.06.2021
2339 Clouds 18 1015 85 10000 5.14 270 09:51 12.06.2021
2340 Clouds 18 1015 86 10000 5.14 270 09:33 12.06.2021
2341 Clouds 18 1016 90 9000 3.6 270 08:23 12.06.2021
2342 Clouds 17 1015 96 9000 2.57 250 06:20 12.06.2021
2343 Clouds 16 1017 96 10000 2.8 229 01:46 12.06.2021
2344 Clear 17 1017 92 10000 1.54 30 23:21 11.06.2021
2345 Clouds 18 1017 91 10000 5.14 350 22:22 11.06.2021
2346 Clouds 19 1017 88 10000 6.17 360 21:48 11.06.2021
2347 Clouds 20 1016 83 10000 3.09 290 21:28 11.06.2021
2348 Clouds 22 1016 72 10000 4.12 350 20:37 11.06.2021
2349 Clouds 23 1016 65 10000 4.63 310 19:52 11.06.2021
2350 Clouds 23 1016 64 10000 4.63 270 18:48 11.06.2021
2351 Clouds 24 1016 59 10000 2.57 290 18:18 11.06.2021
2352 Clouds 24 1017 56 10000 2.57 280 16:47 11.06.2021
2353 Clouds 25 1017 53 10000 4.63 280 15:57 11.06.2021
2354 Clouds 25 1017 55 10000 4.12 260 15:23 11.06.2021
2355 Clouds 25 1018 52 10000 3.6 280 14:32 11.06.2021
2356 Clouds 24 1018 53 10000 3.6 240 13:24 11.06.2021
2357 Clouds 24 1018 53 10000 3.09 280 12:27 11.06.2021
2358 Clear 23 1018 53 10000 2.57 310 11:32 11.06.2021
2359 Clear 23 1018 58 10000 2.57 330 10:34 11.06.2021
2360 Clear 21 1018 59 10000 0.51 0 09:30 11.06.2021
2361 Clear 18 1018 79 10000 0 0 08:32 11.06.2021
2362 Clear 16 1018 84 10000 0 0 07:35 11.06.2021
2363 Clear 14 1019 86 10000 1.03 230 02:54 11.06.2021
2364 Clear 19 1019 63 10000 2.57 20 23:31 10.06.2021
2365 Clear 21 1019 52 10000 3.6 20 22:42 10.06.2021
2366 Clear 22 1018 49 10000 2.57 350 21:52 10.06.2021
2367 Clear 23 1018 40 10000 2.57 310 21:19 10.06.2021
2368 Clear 24 1018 35 10000 3.6 310 20:44 10.06.2021
2369 Clear 25 1018 33 10000 3.6 320 19:31 10.06.2021
2370 Clear 24 1019 43 10000 3.09 300 18:54 10.06.2021
2371 Clear 25 1019 38 10000 3.09 320 18:28 10.06.2021
2372 Clear 25 1019 35 10000 3.09 310 17:34 10.06.2021
2373 Clear 25 1019 34 10000 4.12 290 16:47 10.06.2021
2374 Clear 25 1019 35 10000 4.12 0 15:58 10.06.2021
2375 Clear 25 1020 40 10000 3.6 280 15:19 10.06.2021
2376 Clouds 24 1020 56 10000 3.6 250 12:54 10.06.2021
2377 Clouds 24 1020 54 10000 2.06 270 12:24 10.06.2021
2378 Clouds 22 1020 60 10000 2.57 290 11:24 10.06.2021
2379 Clear 21 1020 70 10000 1.03 0 09:43 10.06.2021
2380 Clear 14 1020 90 10000 0.51 320 05:53 10.06.2021
2381 Clear 16 1021 78 10000 1.03 0 00:25 10.06.2021
2382 Clear 19 1020 63 10000 2.06 40 23:36 09.06.2021
2383 Clear 21 1020 60 10000 3.6 20 22:27 09.06.2021
2384 Clear 22 1020 53 10000 3.6 30 21:43 09.06.2021
2385 Clear 22 1020 56 10000 4.12 20 21:21 09.06.2021
2386 Clear 23 1019 53 10000 4.12 20 20:34 09.06.2021
2387 Clear 24 1019 50 10000 3.6 30 19:48 09.06.2021
2388 Clear 25 1019 51 10000 4.12 30 18:42 09.06.2021
2389 Clear 25 1020 48 10000 2.06 10 15:57 09.06.2021
2390 Clear 25 1020 47 10000 1.03 0 15:32 09.06.2021
2391 Clear 25 1021 44 10000 3.09 170 14:29 09.06.2021
2392 Clear 25 1021 44 10000 3.09 130 13:33 09.06.2021
2393 Clouds 24 1021 44 10000 1.03 0 12:49 09.06.2021
2394 Clouds 24 1021 46 10000 1.03 0 12:31 09.06.2021
2395 Clouds 22 1021 54 10000 1.54 130 10:49 09.06.2021
2396 Clouds 19 1021 65 10000 2.06 130 08:55 09.06.2021
2397 Clouds 18 1021 75 10000 0.51 0 08:31 09.06.2021
2398 Clouds 14 1021 95 10000 0.51 120 06:38 09.06.2021
2399 Clear 17 1022 73 10000 2.57 360 00:19 09.06.2021
2400 Clear 18 1022 74 10000 3.09 360 22:54 08.06.2021
2401 Clear 18 1022 73 10000 3.09 360 22:29 08.06.2021
2402 Clouds 20 1021 68 10000 3.6 300 20:54 08.06.2021
2403 Clouds 22 1021 57 10000 4.12 350 19:27 08.06.2021
2404 Clouds 22 1022 61 10000 4.12 310 17:51 08.06.2021
2405 Clouds 23 1022 61 10000 1.54 0 16:39 08.06.2021
2406 Clouds 23 1022 61 10000 2.57 0 15:27 08.06.2021
2407 Clouds 22 1023 64 10000 2.57 50 13:32 08.06.2021
2408 Clear 19 1024 75 10000 2.06 360 10:59 08.06.2021
2409 Clouds 14 1023 92 10000 2.57 340 07:33 08.06.2021
2410 Clouds 13 1023 95 10000 2.57 290 04:25 08.06.2021
2411 Clouds 14 1023 88 10000 3.6 330 23:51 07.06.2021
2412 Clouds 17 1022 72 10000 3.6 330 20:40 07.06.2021
2413 Clouds 18 1022 77 10000 3.09 290 18:46 07.06.2021
2414 Clouds 18 1023 79 10000 4.12 310 15:53 07.06.2021
2415 Clouds 18 1023 78 10000 3.09 320 13:48 07.06.2021
2416 Clouds 16 1023 86 10000 4.12 290 11:38 07.06.2021
2417 Clouds 15 1023 91 10000 3.6 300 10:23 07.06.2021
2418 Clouds 15 1023 91 9000 3.6 290 09:52 07.06.2021
2419 Drizzle 14 1023 92 5000 3.09 290 08:59 07.06.2021
2420 Drizzle 13 1022 95 4200 3.09 280 07:23 07.06.2021
2421 Clouds 15 1022 85 10000 3.6 310 21:50 06.06.2021
2422 Clouds 17 1022 81 10000 4.63 300 20:40 06.06.2021
2423 Clouds 18 1022 80 10000 4.12 300 18:21 06.06.2021
2424 Clouds 18 1022 82 10000 3.6 280 17:19 06.06.2021
2425 Clouds 17 1022 88 10000 4.12 280 14:31 06.06.2021
2426 Clouds 16 1021 92 9000 4.12 270 12:28 06.06.2021
2427 Clouds 16 1021 95 8000 4.12 270 11:50 06.06.2021
2428 Clouds 16 1021 96 9000 4.12 280 10:24 06.06.2021
2429 Mist 15 1021 98 4000 3.6 270 09:29 06.06.2021
2430 Mist 15 1021 98 4000 3.6 270 08:57 06.06.2021
2431 Drizzle 15 1021 96 1700 2.06 290 07:53 06.06.2021
2432 Mist 16 1020 96 4500 3.6 290 04:24 06.06.2021
2433 Clouds 17 1019 95 6000 3.09 290 23:19 05.06.2021
2434 Clouds 18 1019 94 8000 3.09 290 22:21 05.06.2021
2435 Clouds 19 1019 96 10000 1.54 290 20:41 05.06.2021
2436 Clouds 20 1018 89 10000 1.54 200 19:37 05.06.2021
2437 Rain 20 1018 88 10000 1.03 0 17:19 05.06.2021
2438 Clouds 21 1018 85 10000 2.06 130 15:57 05.06.2021
2439 Clouds 21 1019 85 10000 2.06 90 13:41 05.06.2021
2440 Rain 18 1019 95 7000 2.57 60 11:44 05.06.2021
2441 Rain 17 1019 94 6000 1.54 320 10:35 05.06.2021
2442 Rain 18 1018 92 10000 2.06 130 09:22 05.06.2021
2443 Rain 17 1018 90 8000 1.03 0 07:20 05.06.2021
2444 Clouds 22 1019 78 10000 3.09 50 23:30 04.06.2021
2445 Clouds 23 1019 73 10000 3.09 360 22:21 04.06.2021
2446 Clouds 23 1019 76 10000 3.09 20 21:25 04.06.2021
2447 Clouds 25 1019 61 10000 2.57 40 19:47 04.06.2021
2448 Clouds 25 1019 59 10000 1.54 60 18:27 04.06.2021
2449 Clouds 26 1019 60 10000 2.57 260 16:57 04.06.2021
2450 Clouds 25 1020 64 10000 2.57 290 15:35 04.06.2021
2451 Clouds 22 1021 79 10000 1.54 240 11:53 04.06.2021
2452 Clouds 20 1021 84 10000 1.54 220 10:47 04.06.2021
2453 Clear 16 1020 96 10000 2.06 150 07:48 04.06.2021
2454 Fog 14 1020 95 500 0.51 100 05:53 04.06.2021
2455 Clear 16 1020 95 10000 1.54 100 23:49 03.06.2021
2456 Rain 17 1020 92 10000 1.03 0 21:22 03.06.2021
2457 Rain 17 1020 91 10000 2.06 120 20:27 03.06.2021
2458 Rain 17 1021 91 10000 2.06 0 19:48 03.06.2021
2459 Rain 19 1020 79 10000 9.26 170 17:58 03.06.2021
2460 Clouds 23 1019 60 10000 4.12 90 15:38 03.06.2021
2461 Clear 24 1019 57 10000 4.12 110 14:43 03.06.2021
2462 Clouds 22 1019 64 10000 3.6 120 12:48 03.06.2021
2463 Clouds 20 1019 70 10000 3.09 140 09:53 03.06.2021
2464 Clouds 20 1019 69 10000 3.09 140 09:25 03.06.2021
2465 Clear 17 1018 74 10000 4.63 140 07:53 03.06.2021
2466 Clear 20 1017 56 10000 3.6 110 00:21 03.06.2021
2467 Clear 22 1016 53 10000 3.09 100 22:30 02.06.2021
2468 Clear 23 1016 53 10000 3.09 100 21:27 02.06.2021
2469 Clear 24 1016 50 10000 3.09 110 20:40 02.06.2021
2470 Clear 24 1016 50 10000 2.57 100 19:44 02.06.2021
2471 Clouds 24 1016 47 10000 2.57 120 16:54 02.06.2021
2472 Clouds 24 1016 48 10000 3.09 130 16:31 02.06.2021
2473 Clouds 22 1016 50 10000 3.6 130 13:51 02.06.2021
2474 Clouds 20 1017 53 10000 4.63 120 12:23 02.06.2021
2475 Clear 18 1017 59 10000 4.63 90 10:42 02.06.2021
2476 Clear 16 1017 62 10000 5.66 80 09:59 02.06.2021
2477 Clear 16 1017 63 10000 5.66 80 09:40 02.06.2021
2478 Clear 15 1017 67 10000 5.66 80 08:44 02.06.2021
2479 Clear 12 1017 75 10000 4.63 70 07:21 02.06.2021
2480 Clear 11 1017 76 10000 3.09 60 03:52 02.06.2021
2481 Clear 16 1017 48 10000 2.57 80 00:34 02.06.2021
2482 Clear 20 1016 60 10000 5.66 20 21:43 01.06.2021
2483 Clear 21 1016 56 10000 5.14 20 20:49 01.06.2021
2484 Clear 22 1017 46 10000 5.66 40 19:44 01.06.2021
2485 Clear 24 1017 42 10000 3.09 70 17:25 01.06.2021
2486 Clear 24 1018 39 10000 2.57 90 15:35 01.06.2021
2487 Clear 23 1019 42 10000 1.03 0 13:20 01.06.2021
2488 Clear 22 1020 44 10000 2.06 240 12:33 01.06.2021
2489 Clear 22 1020 50 10000 1.54 210 11:36 01.06.2021
2490 Clear 21 1020 52 10000 1.03 0 11:18 01.06.2021
2491 Clouds 20 1021 63 10000 1.55 86 10:19 01.06.2021
2492 Clear 18 1021 65 10000 1.54 0 09:19 01.06.2021
2493 Clear 13 1021 84 10000 1.54 80 07:46 01.06.2021
2494 Clear 13 1021 80 10000 1.54 10 01:28 01.06.2021
2495 Clear 15 1021 67 10000 2.57 40 23:41 31.05.2021
2496 Clear 16 1021 55 10000 2.06 70 23:20 31.05.2021
2497 Clear 17 1021 55 10000 2.57 60 22:25 31.05.2021
2498 Clear 20 1021 45 10000 3.6 60 21:21 31.05.2021
2499 Clear 21 1021 43 10000 4.12 70 20:23 31.05.2021
2500 Clear 22 1021 38 10000 5.66 60 19:23 31.05.2021
2501 Clear 23 1022 35 10000 4.12 70 17:56 31.05.2021
2502 Clear 23 1022 37 10000 3.6 80 16:52 31.05.2021
2503 Clear 22 1023 37 10000 5.14 80 15:58 31.05.2021
2504 Clear 21 1024 43 10000 2.57 0 13:53 31.05.2021
2505 Clear 21 1024 46 10000 4.12 90 13:22 31.05.2021
2506 Clear 20 1024 45 10000 4.63 90 12:35 31.05.2021
2507 Clear 19 1024 47 10000 4.12 80 11:48 31.05.2021
2508 Clear 18 1025 46 10000 3.6 80 10:41 31.05.2021
2509 Clear 16 1025 67 10000 2.06 110 09:40 31.05.2021
2510 Clear 13 1025 80 10000 2.57 130 08:25 31.05.2021
2511 Clear 11 1025 91 8000 1.54 70 07:43 31.05.2021
2512 Clear 10 1025 94 6000 0.51 0 07:19 31.05.2021
2513 Clear 11 1026 92 10000 3.09 360 00:51 31.05.2021
2514 Clear 11 1026 91 10000 2.57 330 23:23 30.05.2021
2515 Clear 12 1026 89 10000 3.09 300 22:35 30.05.2021
2516 Clear 13 1026 85 10000 3.6 300 21:48 30.05.2021
2517 Clear 13 1026 84 10000 3.6 300 21:30 30.05.2021
2518 Clear 15 1026 73 10000 2.57 350 20:56 30.05.2021
2519 Clear 15 1026 71 10000 2.57 350 20:36 30.05.2021
2520 Clear 17 1026 68 10000 3.6 330 19:51 30.05.2021
2521 Clouds 19 1026 54 10000 4.63 310 18:57 30.05.2021
2522 Clouds 20 1026 54 10000 4.63 330 18:19 30.05.2021
2523 Clouds 19 1027 61 10000 3.6 350 17:18 30.05.2021
2524 Clouds 20 1027 58 10000 4.12 330 16:34 30.05.2021
2525 Clear 20 1027 60 10000 3.09 0 15:52 30.05.2021
2526 Clear 19 1028 60 10000 3.6 290 14:59 30.05.2021
2527 Clear 17 1028 64 10000 3.09 290 13:41 30.05.2021
2528 Clouds 15 1029 74 10000 3.6 290 12:22 30.05.2021
2529 Clouds 15 1029 74 10000 3.6 290 12:22 30.05.2021
2530 Clouds 13 1029 80 10000 3.6 300 11:19 30.05.2021
2531 Clouds 12 1029 82 10000 3.09 310 10:39 30.05.2021
2532 Clouds 12 1029 82 10000 3.09 310 10:39 30.05.2021
2533 Clouds 11 1029 82 10000 3.09 310 10:18 30.05.2021
2534 Clouds 11 1029 82 10000 2.57 290 09:43 30.05.2021
2535 Clouds 11 1029 82 10000 2.06 300 09:24 30.05.2021
2536 Clouds 7 1029 100 10000 1.54 280 07:54 30.05.2021
2537 Clear 3 1029 100 500 1.03 260 05:43 30.05.2021
2538 Clear 8 1028 88 10000 2.06 360 00:55 30.05.2021
2539 Clear 8 1028 87 10000 3.6 360 23:49 29.05.2021
2540 Clear 10 1028 80 10000 3.09 360 22:25 29.05.2021
2541 Clear 11 1027 74 10000 3.09 360 21:54 29.05.2021
2542 Clear 11 1027 76 10000 2.57 40 21:21 29.05.2021
2543 Clouds 12 1027 72 10000 2.06 360 20:48 29.05.2021
2544 Clouds 13 1027 69 10000 2.06 360 20:29 29.05.2021
2545 Clouds 14 1027 64 10000 3.09 20 19:45 29.05.2021
2546 Clouds 14 1027 65 10000 3.6 350 18:39 29.05.2021
2547 Clouds 15 1027 64 10000 4.12 340 17:27 29.05.2021
2548 Clouds 14 1027 66 10000 3.6 300 16:23 29.05.2021
2549 Clouds 14 1027 69 10000 3.6 290 14:59 29.05.2021
2550 Clouds 12 1027 71 10000 3.09 310 13:53 29.05.2021
2551 Clouds 13 1027 74 10000 3.09 320 13:21 29.05.2021
2552 Clouds 13 1026 80 10000 3.08 350 12:43 29.05.2021
2553 Clouds 12 1027 77 10000 3.09 350 12:25 29.05.2021
2554 Clouds 11 1026 79 10000 4.12 360 11:25 29.05.2021
2555 Clouds 11 1026 81 10000 3.09 350 10:51 29.05.2021
2556 Clouds 10 1026 81 10000 3.6 360 10:26 29.05.2021
2557 Clouds 10 1026 82 10000 3.09 330 09:42 29.05.2021
2558 Clouds 10 1026 82 10000 3.6 350 09:18 29.05.2021
2559 Clouds 9 1025 85 10000 3.6 360 07:58 29.05.2021
2560 Clouds 9 1025 84 10000 4.12 330 06:50 29.05.2021
2561 Clouds 10 1024 85 10000 4.12 340 00:54 29.05.2021
2562 Clouds 10 1024 84 10000 5.14 340 23:50 28.05.2021
2563 Clouds 11 1024 84 10000 4.12 350 22:24 28.05.2021
2564 Clouds 11 1024 84 10000 5.14 360 21:36 28.05.2021
2565 Clouds 12 1023 81 10000 4.63 360 20:48 28.05.2021
2566 Clouds 14 1023 72 10000 4.63 340 19:59 28.05.2021
2567 Clouds 14 1023 71 10000 4.63 340 19:38 28.05.2021
2568 Clouds 15 1023 67 10000 6.69 330 18:50 28.05.2021
2569 Clouds 15 1023 70 10000 6.69 340 18:28 28.05.2021
2570 Clouds 15 1023 67 10000 6.17 330 17:37 28.05.2021
2571 Clouds 16 1023 67 10000 6.69 340 16:49 28.05.2021
2572 Clouds 16 1023 66 10000 8.23 360 16:20 28.05.2021
2573 Clouds 16 1023 60 10000 6.69 350 15:35 28.05.2021
2574 Clouds 16 1023 62 10000 6.17 320 14:38 28.05.2021
2575 Clouds 16 1023 65 10000 5.66 320 13:47 28.05.2021
2576 Clouds 16 1024 67 10000 5.66 320 13:22 28.05.2021
2577 Clouds 15 1024 71 10000 4.63 300 12:39 28.05.2021
2578 Clouds 14 1024 74 10000 4.12 300 11:45 28.05.2021
2579 Clouds 12 1024 83 10000 4.12 310 10:59 28.05.2021
2580 Clouds 11 1024 85 10000 4.12 310 10:33 28.05.2021
2581 Clouds 10 1024 90 10000 4.12 290 09:36 28.05.2021
2582 Clouds 10 1024 90 10000 4.12 290 09:18 28.05.2021
2583 Clouds 9 1023 90 10000 4.12 290 08:44 28.05.2021
2584 Clouds 9 1023 91 10000 4.63 290 07:52 28.05.2021
2585 Clouds 9 1023 91 10000 4.63 290 07:52 28.05.2021
2586 Clouds 9 1022 91 10000 4.63 280 07:33 28.05.2021
2587 Clouds 8 1022 95 8000 3.6 280 06:45 28.05.2021
2588 Clouds 7 1022 98 10000 2.06 290 04:57 28.05.2021
2589 Clouds 10 1019 89 10000 3.6 300 23:59 27.05.2021
2590 Clouds 10 1019 89 10000 3.6 300 23:38 27.05.2021
2591 Clouds 11 1018 84 10000 4.63 300 22:23 27.05.2021
2592 Clouds 11 1019 89 10000 4.51 308 21:51 27.05.2021
2593 Clouds 12 1018 81 10000 6.69 310 21:32 27.05.2021
2594 Clouds 12 1017 78 10000 5.66 310 20:52 27.05.2021
2595 Clouds 13 1017 77 10000 6.69 310 20:29 27.05.2021
2596 Clouds 13 1017 79 10000 5.63 313 19:32 27.05.2021
2597 Clouds 14 1016 72 10000 6.17 320 18:50 27.05.2021
2598 Clouds 14 1015 75 10000 6.38 319 18:29 27.05.2021
2599 Clouds 14 1015 72 10000 7.2 310 17:35 27.05.2021
2600 Clouds 14 1014 67 10000 6.69 320 16:59 27.05.2021
2601 Clouds 14 1014 72 10000 6.69 320 16:35 27.05.2021
2602 Clouds 14 1014 75 10000 6.69 320 15:52 27.05.2021
2603 Clouds 13 1013 76 10000 7.72 310 15:20 27.05.2021
2604 Clouds 13 1013 75 10000 8.23 310 14:46 27.05.2021
2605 Clouds 13 1013 78 10000 7.72 320 14:24 27.05.2021
2606 Clouds 13 1012 78 10000 7.72 290 13:51 27.05.2021
2607 Clouds 12 1012 80 10000 6.69 290 13:19 27.05.2021
2608 Clouds 12 1012 82 10000 7.2 290 12:56 27.05.2021
2609 Clouds 12 1012 82 10000 7.2 290 12:37 27.05.2021
2610 Clouds 12 1012 83 10000 5.14 300 12:19 27.05.2021
2611 Clouds 11 1011 84 10000 5.66 290 11:23 27.05.2021
2612 Clouds 11 1010 82 10000 6.69 280 10:51 27.05.2021
2613 Clouds 11 1010 81 10000 6.17 300 10:20 27.05.2021
2614 Clouds 11 1010 83 10000 6.17 260 09:50 27.05.2021
2615 Clouds 10 1009 87 10000 6.69 270 08:42 27.05.2021
2616 Clouds 10 1009 91 10000 5.66 260 07:54 27.05.2021
2617 Clouds 9 1008 89 10000 6.69 260 05:38 27.05.2021
2618 Clouds 9 1008 95 10000 4.63 250 01:27 27.05.2021
2619 Clouds 9 1008 95 10000 4.63 250 01:27 27.05.2021
2620 Clouds 9 1007 95 10000 6.17 250 23:47 26.05.2021
2621 Clouds 10 1007 92 10000 5.66 240 23:27 26.05.2021
2622 Rain 10 1007 92 10000 5.66 240 22:46 26.05.2021
2623 Rain 10 1007 92 10000 5.66 230 22:23 26.05.2021
2624 Rain 10 1007 91 10000 7.2 240 21:41 26.05.2021
2625 Rain 10 1007 86 10000 8.23 240 21:23 26.05.2021
2626 Rain 11 1007 84 10000 7.2 240 20:45 26.05.2021
2627 Rain 11 1007 82 10000 7.72 250 20:26 26.05.2021
2628 Rain 12 1007 74 10000 7.2 270 19:59 26.05.2021
2629 Rain 13 1007 62 10000 7.2 270 19:41 26.05.2021
2630 Clouds 14 1007 63 10000 7.2 260 18:57 26.05.2021
2631 Clouds 14 1006 66 10000 7.72 250 18:21 26.05.2021
2632 Clouds 14 1006 66 10000 7.72 250 18:21 26.05.2021
2633 Clouds 14 1007 67 10000 7.2 240 17:33 26.05.2021
2634 Clouds 13 1007 76 10000 6.69 240 16:49 26.05.2021
2635 Clouds 12 1007 80 5000 8.23 230 16:21 26.05.2021
2636 Rain 13 1007 73 10000 8.23 240 15:51 26.05.2021
2637 Clouds 12 1007 76 10000 6.69 240 15:26 26.05.2021
2638 Clouds 11 1007 87 10000 6.17 240 14:49 26.05.2021
2639 Rain 12 1007 82 10000 5.14 240 14:23 26.05.2021
2640 Rain 12 1007 76 10000 5.14 240 14:23 26.05.2021
2641 Clouds 11 1007 84 10000 6.69 280 13:58 26.05.2021
2642 Clouds 11 1007 84 10000 6.69 280 13:38 26.05.2021
2643 Clouds 11 1007 78 10000 8.23 230 12:33 26.05.2021
2644 Clouds 12 1008 75 10000 7.2 230 11:55 26.05.2021
2645 Clouds 11 1008 76 10000 7.2 240 11:30 26.05.2021
2646 Clouds 11 1008 83 10000 5.66 230 10:57 26.05.2021
2647 Clouds 11 1008 84 10000 5.66 230 10:36 26.05.2021
2648 Clouds 10 1008 91 10000 5.66 220 09:57 26.05.2021
2649 Clouds 10 1008 90 10000 5.66 220 09:38 26.05.2021
2650 Clouds 10 1008 91 10000 6.17 220 08:57 26.05.2021
2651 Clouds 9 1009 94 10000 4.63 220 07:57 26.05.2021
2652 Clouds 9 1009 94 10000 4.12 220 07:33 26.05.2021
2653 Clouds 9 1009 94 10000 4.12 220 05:48 26.05.2021
2654 Clouds 9 1010 93 10000 3.6 220 01:40 26.05.2021
2655 Clouds 9 1011 93 10000 3.09 200 23:48 25.05.2021
2656 Rain 9 1011 93 10000 5.14 220 22:54 25.05.2021
2657 Rain 9 1011 92 8000 5.66 220 22:21 25.05.2021
2658 Rain 9 1011 89 10000 4.12 220 21:43 25.05.2021
2659 Clouds 9 1011 88 10000 2.57 230 21:24 25.05.2021
2660 Clouds 9 1011 88 10000 4.12 230 20:37 25.05.2021
2661 Rain 10 1010 89 10000 2.97 205 19:54 25.05.2021
2662 Clouds 10 1010 89 10000 2.97 205 19:34 25.05.2021
2663 Rain 11 1010 79 10000 5.14 260 18:56 25.05.2021
2664 Clouds 11 1010 79 10000 5.14 260 18:37 25.05.2021
2665 Clouds 11 1010 76 10000 5.66 260 18:18 25.05.2021
2666 Rain 11 1010 71 10000 7.72 260 16:52 25.05.2021
2667 Rain 11 1010 78 10000 7.72 260 16:32 25.05.2021
2668 Rain 13 1009 67 10000 8.75 270 15:58 25.05.2021
2669 Clouds 12 1009 67 10000 7.72 240 15:30 25.05.2021
2670 Clouds 10 1009 81 10000 8.23 260 14:57 25.05.2021
2671 Clouds 10 1009 81 10000 8.23 260 14:39 25.05.2021
2672 Clouds 12 1009 67 10000 5.14 250 13:54 25.05.2021
2673 Clouds 12 1009 67 10000 5.14 250 13:35 25.05.2021
2674 Clouds 12 1009 62 10000 7.2 230 12:49 25.05.2021
2675 Clouds 13 1009 62 10000 6.17 220 12:29 25.05.2021
2676 Clouds 11 1009 66 10000 6.17 230 11:44 25.05.2021
2677 Clouds 11 1009 71 10000 5.66 230 11:26 25.05.2021
2678 Clouds 11 1009 83 10000 5.66 240 10:45 25.05.2021
2679 Clouds 10 1009 83 10000 5.66 230 10:20 25.05.2021
2680 Clouds 10 1008 90 10000 4.12 230 09:32 25.05.2021
2681 Clouds 9 1008 90 10000 5.66 230 08:20 25.05.2021
2682 Clouds 9 1008 93 10000 3.6 220 06:52 25.05.2021
2683 Rain 10 1007 87 10000 5.66 230 04:22 25.05.2021
2684 Clear 10 1007 93 10000 2.06 140 02:30 25.05.2021
2685 Clouds 11 1008 87 10000 2.06 110 23:55 24.05.2021
2686 Clouds 11 1008 87 10000 1.54 90 23:28 24.05.2021
2687 Rain 12 1008 87 10000 2.06 130 22:42 24.05.2021
2688 Rain 12 1008 87 10000 2.06 200 22:21 24.05.2021
2689 Rain 12 1008 87 10000 1.54 100 21:24 24.05.2021
2690 Rain 12 1008 87 10000 2.06 130 20:59 24.05.2021
2691 Rain 12 1008 87 10000 2.06 130 20:32 24.05.2021
2692 Rain 13 1008 82 10000 4.12 200 19:52 24.05.2021
2693 Rain 13 1008 82 10000 3.09 210 19:31 24.05.2021
2694 Rain 13 1008 82 10000 3.09 210 19:31 24.05.2021
2695 Rain 14 1008 77 10000 4.63 210 18:59 24.05.2021
2696 Rain 14 1008 77 10000 4.63 210 18:35 24.05.2021
2697 Rain 15 1008 72 10000 3.09 260 17:58 24.05.2021
2698 Rain 16 1007 63 10000 4.63 260 17:26 24.05.2021
2699 Rain 17 1007 51 10000 4.12 170 16:48 24.05.2021
2700 Clear 19 1007 39 10000 8.23 170 15:59 24.05.2021
2701 Clear 19 1007 39 10000 8.23 170 15:40 24.05.2021
2702 Clear 19 1007 39 10000 8.75 160 14:54 24.05.2021
2703 Clear 19 1007 39 10000 8.75 160 14:33 24.05.2021
2704 Clear 19 1008 42 10000 7.72 150 13:46 24.05.2021
2705 Clear 20 1008 40 10000 7.72 170 13:25 24.05.2021
2706 Clear 20 1008 42 10000 9.26 170 12:41 24.05.2021
2707 Clear 18 1009 48 10000 8.23 170 12:21 24.05.2021
2708 Clear 17 1009 55 10000 7.72 170 11:28 24.05.2021
2709 Clear 17 1010 55 10000 6.69 170 10:58 24.05.2021
2710 Clear 17 1010 55 10000 6.69 170 10:34 24.05.2021
2711 Clear 15 1010 58 10000 6.69 160 09:45 24.05.2021
2712 Clear 14 1010 67 10000 6.17 150 09:22 24.05.2021
2713 Clear 12 1011 71 10000 6.17 140 08:40 24.05.2021
2714 Clear 11 1011 76 10000 4.63 140 07:55 24.05.2021
2715 Clear 9 1012 76 10000 3.09 130 05:51 24.05.2021
2716 Rain 8 1012 81 10000 3.6 130 03:59 24.05.2021
2717 Clear 8 1014 81 10000 3.09 130 01:36 24.05.2021
2718 Clear 9 1014 87 10000 2.57 140 00:21 24.05.2021
2719 Clear 9 1014 87 10000 3.09 140 23:30 23.05.2021
2720 Clear 9 1014 87 10000 2.57 150 22:43 23.05.2021
2721 Clear 10 1014 81 10000 2.57 140 22:23 23.05.2021
2722 Clouds 11 1014 76 10000 2.57 160 21:37 23.05.2021
2723 Clouds 11 1013 76 10000 2.06 180 21:19 23.05.2021
2724 Clouds 13 1013 67 10000 2.06 240 20:42 23.05.2021
2725 Clouds 13 1013 67 10000 2.06 240 20:21 23.05.2021
2726 Clouds 13 1013 71 10000 2.57 250 19:42 23.05.2021
2727 Clouds 13 1013 67 10000 4.63 260 19:21 23.05.2021
2728 Clouds 12 1013 76 10000 2.57 260 18:29 23.05.2021
2729 Clouds 12 1013 82 10000 3.6 250 17:45 23.05.2021
2730 Clouds 11 1013 82 10000 5.14 260 17:27 23.05.2021
2731 Clouds 13 1013 67 10000 6.69 230 16:48 23.05.2021
2732 Rain 13 1013 76 10000 5.14 220 16:25 23.05.2021
2733 Clouds 12 1013 82 10000 5.66 220 15:58 23.05.2021
2734 Clouds 13 1012 76 10000 7.72 210 15:32 23.05.2021
2735 Clouds 14 1012 67 10000 6.17 220 14:52 23.05.2021
2736 Clouds 13 1012 67 10000 6.17 220 14:33 23.05.2021
2737 Clouds 13 1012 67 10000 5.66 210 13:42 23.05.2021
2738 Clouds 13 1012 62 10000 5.14 240 12:48 23.05.2021
2739 Clouds 13 1011 62 10000 4.12 230 12:24 23.05.2021
2740 Clouds 13 1011 58 10000 4.63 240 11:38 23.05.2021
2741 Clouds 12 1011 58 10000 4.12 280 11:18 23.05.2021
2742 Clouds 12 1010 62 10000 3.6 270 10:31 23.05.2021
2743 Clouds 11 1010 66 10000 4.63 270 09:55 23.05.2021
2744 Clouds 10 1010 71 10000 4.63 250 09:19 23.05.2021
2745 Clouds 9 1009 81 10000 4.63 240 08:19 23.05.2021
2746 Clear 8 1009 87 10000 3.09 260 07:43 23.05.2021
2747 Clear 7 1009 93 10000 2.06 240 07:23 23.05.2021
2748 Clouds 7 1007 87 10000 3.6 240 02:45 23.05.2021
2749 Clouds 10 1006 66 10000 8.75 260 00:40 23.05.2021
2750 Clouds 10 1006 71 10000 6.69 260 23:41 22.05.2021
2751 Clouds 10 1006 71 10000 7.2 260 23:19 22.05.2021
2752 Clouds 10 1005 76 10000 7.72 250 22:41 22.05.2021
2753 Clouds 11 1005 71 10000 5.66 260 22:22 22.05.2021
2754 Clouds 11 1005 71 10000 8.75 250 21:42 22.05.2021
2755 Clouds 11 1004 71 10000 7.72 250 20:59 22.05.2021
2756 Clouds 11 1004 71 10000 7.72 250 20:39 22.05.2021
2757 Clouds 12 1003 71 10000 7.72 260 19:48 22.05.2021
2758 Clouds 12 1002 76 10000 9.26 260 19:28 22.05.2021
2759 Clouds 12 1002 87 10000 6.69 240 18:52 22.05.2021
2760 Clouds 13 1001 76 10000 7.2 230 18:26 22.05.2021
2761 Clouds 13 1001 82 10000 7.72 230 17:54 22.05.2021
2762 Clouds 13 1001 82 10000 8.75 220 17:28 22.05.2021
2763 Clouds 12 1000 82 10000 8.75 230 16:45 22.05.2021
2764 Clouds 12 1000 87 10000 7.72 220 15:48 22.05.2021
2765 Rain 11 1000 87 10000 8.23 220 15:27 22.05.2021
2766 Clouds 11 1000 82 10000 8.75 220 14:32 22.05.2021
2767 Clouds 11 999 76 10000 9.26 210 13:53 22.05.2021
2768 Clouds 11 999 76 10000 9.26 210 13:32 22.05.2021
2769 Clouds 11 999 82 10000 9.77 210 12:51 22.05.2021
2770 Clouds 11 999 82 10000 7.72 200 12:22 22.05.2021
2771 Clouds 10 998 87 10000 7.2 200 11:43 22.05.2021
2772 Rain 10 998 81 10000 6.69 190 10:43 22.05.2021
2773 Rain 10 998 81 10000 6.69 190 10:24 22.05.2021
2774 Rain 11 998 71 10000 8.75 200 08:59 22.05.2021
2775 Clouds 11 998 71 10000 7.72 190 08:33 22.05.2021
2776 Clouds 10 998 76 10000 7.72 190 07:46 22.05.2021
2777 Clear 9 998 76 10000 6.17 180 05:59 22.05.2021
2778 Clear 9 999 76 10000 4.12 190 02:43 22.05.2021
2779 Clear 8 1000 87 10000 3.6 170 23:48 21.05.2021
2780 Clouds 10 1000 81 10000 6.69 200 22:57 21.05.2021
2781 Rain 10 1000 76 10000 2.57 170 22:28 21.05.2021
2782 Clouds 11 1000 62 10000 5.66 230 21:50 21.05.2021
2783 Clouds 11 1001 76 10000 3.6 210 21:26 21.05.2021
2784 Clouds 11 1001 82 10000 3.09 200 20:51 21.05.2021
2785 Clouds 11 1001 87 10000 2.57 170 20:29 21.05.2021
2786 Clouds 11 1002 87 10000 6.69 250 19:54 21.05.2021
2787 Clouds 11 1001 76 10000 3.6 210 19:29 21.05.2021
2788 Clouds 11 1002 76 10000 8.75 260 18:48 21.05.2021
2789 Rain 12 1002 76 10000 4.12 240 18:28 21.05.2021
2790 Clouds 13 1002 67 10000 4.12 200 17:47 21.05.2021
2791 Clouds 12 1003 71 10000 15.43 270 17:29 21.05.2021
2792 Rain 14 1002 62 10000 6.69 230 16:40 21.05.2021
2793 Clouds 14 1002 72 10000 6.69 220 16:21 21.05.2021
2794 Clouds 14 1002 72 10000 6.69 220 16:21 21.05.2021
2795 Clouds 14 1002 76 10000 4.63 200 15:44 21.05.2021
2796 Clouds 16 1002 73 10000 8.22 235 15:26 21.05.2021
2797 Rain 15 1002 58 10000 9.26 230 14:42 21.05.2021
2798 Clouds 14 1002 58 10000 10.29 230 14:24 21.05.2021
2799 Clouds 13 1002 76 10000 6.17 200 13:26 21.05.2021
2800 Rain 14 1002 67 10000 6.17 200 12:25 21.05.2021
2801 Clouds 14 1002 67 10000 8.75 230 11:44 21.05.2021
2802 Clouds 14 1002 71 10000 6.17 220 11:25 21.05.2021
2803 Clear 13 1003 74 10000 7.9 227 10:51 21.05.2021
2804 Clouds 12 1003 82 10000 3.6 210 10:22 21.05.2021
2805 Rain 11 1003 76 10000 4.12 230 09:33 21.05.2021
2806 Rain 12 1003 67 10000 6.17 230 08:47 21.05.2021
2807 Clouds 13 1003 62 10000 4.12 210 08:19 21.05.2021
2808 Clear 12 1004 71 10000 4.12 200 07:27 21.05.2021
2809 Clear 10 1004 76 10000 4.12 180 05:53 21.05.2021
2810 Clear 12 1010 71 10000 3.6 160 00:51 21.05.2021
2811 Clear 12 1011 71 10000 3.6 160 00:19 21.05.2021
2812 Clear 12 1012 66 10000 3.09 150 23:39 20.05.2021
2813 Clear 12 1012 66 10000 3.09 150 23:19 20.05.2021
2814 Clear 12 1012 71 10000 2.57 150 22:40 20.05.2021
2815 Clear 12 1013 71 10000 2.57 160 22:20 20.05.2021
2816 Rain 13 1013 67 10000 2.57 180 21:48 20.05.2021
2817 Clear 13 1013 67 10000 2.57 190 21:20 20.05.2021
2818 Clear 13 1013 67 10000 2.57 190 21:20 20.05.2021
2819 Clear 14 1014 58 10000 2.57 210 20:37 20.05.2021
2820 Clouds 15 1014 55 10000 3.09 210 20:18 20.05.2021
2821 Clouds 15 1015 51 10000 4.12 220 19:42 20.05.2021
2822 Clouds 15 1015 51 10000 5.14 230 19:22 20.05.2021
2823 Clouds 15 1015 51 10000 5.14 230 18:37 20.05.2021
2824 Clouds 16 1016 48 10000 5.66 230 18:18 20.05.2021
2825 Clouds 16 1016 44 10000 5.14 240 17:41 20.05.2021
2826 Clouds 17 1016 45 10000 6.17 240 17:20 20.05.2021
2827 Clouds 16 1017 48 10000 6.17 250 16:31 20.05.2021
2828 Clouds 17 1017 51 10000 6.69 250 15:44 20.05.2021
2829 Clouds 17 1017 48 10000 6.69 240 15:26 20.05.2021
2830 Clouds 17 1017 48 10000 6.17 230 14:46 20.05.2021
2831 Clouds 16 1018 51 10000 5.66 250 14:21 20.05.2021
2832 Clouds 15 1018 58 10000 5.66 260 13:42 20.05.2021
2833 Clouds 15 1018 58 10000 5.66 230 12:57 20.05.2021
2834 Clouds 15 1018 58 10000 5.66 230 12:37 20.05.2021
2835 Clouds 15 1019 62 10000 5.66 250 12:18 20.05.2021
2836 Clouds 13 1019 67 10000 4.12 250 11:22 20.05.2021
2837 Clouds 13 1019 71 10000 4.63 240 10:58 20.05.2021
2838 Clouds 12 1019 71 10000 4.63 240 10:37 20.05.2021
2839 Clouds 12 1019 71 10000 3.6 260 10:19 20.05.2021
2840 Clouds 12 1019 76 10000 3.6 240 09:42 20.05.2021
2841 Clouds 11 1019 82 10000 3.6 250 09:24 20.05.2021
2842 Clouds 9 1019 93 10000 1.54 240 08:54 20.05.2021
2843 Clouds 9 1019 93 10000 1.54 240 08:34 20.05.2021
2844 Clear 7 1019 93 3000 1.03 0 07:52 20.05.2021
2845 Clear 6 1020 95 10000 2.24 258 07:29 20.05.2021
2846 Clear 4 1019 100 250 1.03 130 06:48 20.05.2021
2847 Clear 3 1019 100 150 1.03 250 05:49 20.05.2021
2848 Clear 4 1019 100 300 1.03 280 04:35 20.05.2021
2849 Clouds 6 1018 93 10000 2.06 300 01:36 20.05.2021
2850 Clouds 7 1017 93 10000 2.06 300 00:20 20.05.2021
2851 Clouds 7 1017 93 10000 1.03 0 23:49 19.05.2021
2852 Clear 8 1017 93 10000 1.03 240 23:21 19.05.2021
2853 Clear 8 1017 93 10000 2.06 230 22:43 19.05.2021
2854 Clear 9 1017 87 10000 1.03 240 22:22 19.05.2021
2855 Clear 10 1016 81 10000 2.06 300 21:54 19.05.2021
2856 Clear 10 1016 71 10000 3.6 290 21:36 19.05.2021
2857 Clear 10 1016 71 10000 3.6 290 21:18 19.05.2021
2858 Clear 12 1016 62 10000 3.09 300 20:27 19.05.2021
2859 Clear 12 1015 62 10000 4.12 300 19:57 19.05.2021
2860 Clear 12 1015 62 10000 4.12 300 19:39 19.05.2021
2861 Clouds 12 1015 90 10000 2.04 302 19:18 19.05.2021
2862 Clouds 12 1015 58 10000 3.09 310 18:39 19.05.2021
2863 Clouds 12 1016 62 10000 3.6 340 18:18 19.05.2021
2864 Clouds 11 1016 81 10000 6.17 300 17:24 19.05.2021
2865 Rain 11 1016 76 10000 7.2 260 16:54 19.05.2021
2866 Rain 12 1016 76 10000 7.2 260 16:35 19.05.2021
2867 Rain 13 1015 76 10000 2.57 160 15:55 19.05.2021
2868 Clouds 12 1015 76 10000 2.57 160 15:34 19.05.2021
2869 Clouds 14 1015 67 10000 1.54 130 14:56 19.05.2021
2870 Clouds 14 1015 71 10000 2.82 244 14:25 19.05.2021
2871 Rain 14 1015 67 10000 3.6 240 13:45 19.05.2021
2872 Clouds 15 1015 58 10000 3.6 210 13:26 19.05.2021
2873 Clouds 14 1015 63 10000 1.54 250 12:43 19.05.2021
2874 Clouds 14 1015 71 10000 1.54 0 12:21 19.05.2021
2875 Clouds 13 1015 67 10000 2.06 230 11:56 19.05.2021
2876 Clouds 13 1015 82 10000 1.54 190 11:38 19.05.2021
2877 Clouds 13 1015 82 10000 1.54 190 11:18 19.05.2021
2878 Clouds 12 1015 68 10000 2.9 246 10:44 19.05.2021
2879 Clouds 11 1015 82 10000 4.63 250 10:21 19.05.2021
2880 Clouds 11 1015 82 10000 2.06 230 09:31 19.05.2021
2881 Clouds 10 1015 93 10000 2.06 240 08:59 19.05.2021
2882 Clouds 9 1015 93 10000 2.06 240 08:36 19.05.2021
2883 Clouds 7 1015 93 8000 0.51 0 07:57 19.05.2021
2884 Clouds 6 1015 100 900 1.03 0 07:22 19.05.2021
2885 Clouds 5 1014 100 300 0.51 220 06:36 19.05.2021
2886 Clouds 5 1014 94 10000 2.18 266 05:27 19.05.2021
2887 Clouds 7 1014 93 10000 2.06 310 02:44 19.05.2021
2888 Clouds 8 1014 93 10000 1.54 280 00:34 19.05.2021
2889 Clouds 9 1014 93 10000 1.03 190 23:50 18.05.2021
2890 Clouds 10 1013 81 10000 0.51 0 23:18 18.05.2021
2891 Clouds 10 1013 87 10000 0.51 0 22:39 18.05.2021
2892 Clouds 10 1013 93 10000 1.54 180 22:20 18.05.2021
2893 Clouds 11 1013 82 10000 2.06 240 21:40 18.05.2021
2894 Clouds 11 1013 82 10000 2.06 240 21:40 18.05.2021
2895 Clouds 12 1013 67 10000 2.06 340 21:18 18.05.2021
2896 Clouds 13 1012 76 10000 1.54 150 20:47 18.05.2021
2897 Clouds 13 1012 71 10000 1.54 90 20:19 18.05.2021
2898 Clouds 14 1012 62 10000 1.03 0 19:48 18.05.2021
2899 Clouds 14 1012 67 10000 1.03 0 19:27 18.05.2021
2900 Clouds 14 1011 62 10000 3.09 310 18:48 18.05.2021
2901 Clouds 14 1011 62 10000 3.09 340 18:25 18.05.2021
2902 Clouds 14 1011 67 10000 3.6 330 17:50 18.05.2021
2903 Clouds 14 1011 67 10000 4.12 340 17:29 18.05.2021
2904 Clouds 14 1011 67 10000 5.14 350 16:37 18.05.2021
2905 Clouds 14 1011 62 10000 6.69 340 16:19 18.05.2021
2906 Clouds 14 1011 55 10000 3.6 300 15:38 18.05.2021
2907 Clouds 15 1011 58 10000 3.09 240 15:19 18.05.2021
2908 Clouds 15 1011 58 10000 3.09 240 15:19 18.05.2021
2909 Clouds 15 1011 62 10000 4.63 250 14:29 18.05.2021
2910 Clouds 15 1011 58 10000 3.6 240 13:41 18.05.2021
2911 Clouds 14 1011 62 10000 4.12 260 12:45 18.05.2021
2912 Clouds 14 1011 62 10000 4.12 220 12:19 18.05.2021
2913 Clouds 13 1011 67 10000 4.12 260 11:38 18.05.2021
2914 Clouds 12 1011 71 10000 4.63 270 10:57 18.05.2021
2915 Clouds 12 1011 71 10000 4.12 270 10:31 18.05.2021
2916 Clouds 12 1011 76 10000 4.63 250 09:58 18.05.2021
2917 Clouds 12 1010 82 10000 3.6 260 09:35 18.05.2021
2918 Clouds 11 1010 82 10000 4.12 250 08:51 18.05.2021
2919 Clouds 10 1010 87 10000 2.57 250 08:19 18.05.2021
2920 Clouds 9 1010 93 10000 2.06 230 07:41 18.05.2021
2921 Clouds 9 1009 93 10000 2.06 210 06:49 18.05.2021
2922 Clouds 9 1008 87 10000 4.63 300 02:31 18.05.2021
2923 Clouds 10 1007 87 10000 4.63 310 01:54 18.05.2021
2924 Clouds 10 1007 93 10000 4.12 300 00:49 18.05.2021
2925 Clouds 10 1006 93 10000 6.17 320 00:26 18.05.2021
2926 Rain 11 1006 87 10000 4.63 330 23:40 17.05.2021
2927 Rain 11 1006 93 10000 4.12 300 23:21 17.05.2021
2928 Clouds 10 1005 93 10000 2.06 250 22:46 17.05.2021
2929 Clouds 11 1005 87 10000 2.57 230 22:25 17.05.2021
2930 Clouds 12 1005 87 10000 1.03 0 21:59 17.05.2021
2931 Clouds 12 1004 87 10000 0.51 0 21:22 17.05.2021
2932 Clouds 12 1004 87 10000 1.54 280 20:45 17.05.2021
2933 Clouds 13 1004 76 10000 1.54 30 20:22 17.05.2021
2934 Clouds 13 1004 76 10000 1.03 0 19:48 17.05.2021
2935 Rain 13 1003 71 10000 4.63 310 19:27 17.05.2021
2936 Clouds 13 1003 72 10000 3.6 210 18:52 17.05.2021
2937 Clouds 13 1003 72 10000 3.6 210 18:32 17.05.2021
2938 Clouds 14 1002 72 10000 5.14 190 17:57 17.05.2021
2939 Clouds 15 1002 72 10000 5.14 190 17:36 17.05.2021
2940 Clouds 16 1002 67 10000 3.09 200 16:58 17.05.2021
2941 Clouds 15 1002 63 10000 2.57 190 16:25 17.05.2021
2942 Clouds 14 1002 71 10000 3.09 200 15:54 17.05.2021
2943 Clouds 14 1002 76 10000 3.6 220 15:24 17.05.2021
2944 Clouds 14 1002 76 10000 2.57 230 14:47 17.05.2021
2945 Clouds 13 1002 87 10000 5.14 240 14:29 17.05.2021
2946 Rain 15 1002 72 10000 3.6 220 13:56 17.05.2021
2947 Clouds 14 1002 72 10000 4.12 190 12:47 17.05.2021
2948 Clouds 13 1002 76 10000 3.09 230 12:27 17.05.2021
2949 Clouds 14 1002 76 10000 2.57 180 11:50 17.05.2021
2950 Clouds 12 1002 82 10000 3.09 200 11:27 17.05.2021
2951 Clouds 13 1002 82 10000 3.09 220 10:57 17.05.2021
2952 Clouds 12 1002 82 10000 3.09 220 10:34 17.05.2021
2953 Clouds 11 1002 82 10000 3.09 230 09:59 17.05.2021
2954 Clouds 11 1001 76 10000 3.6 230 08:55 17.05.2021
2955 Clouds 11 1001 82 10000 2.57 200 08:24 17.05.2021
2956 Clouds 9 1001 93 10000 2.06 180 07:34 17.05.2021
2957 Clear 7 1000 100 10000 0.51 0 06:47 17.05.2021
2958 Fog 7 1000 93 10000 1.54 200 06:20 17.05.2021
2959 Clear 8 1000 93 10000 1.54 160 03:34 17.05.2021
2960 Clear 9 1000 81 10000 1.03 250 01:34 17.05.2021
2961 Clear 10 1000 81 10000 1.03 260 00:39 17.05.2021
2962 Clear 10 1000 87 10000 1.54 220 23:42 16.05.2021
2963 Clear 10 1000 81 10000 1.03 230 23:19 16.05.2021
2964 Clear 10 1000 76 10000 1.03 310 22:33 16.05.2021
2965 Clouds 10 999 81 10000 1.03 0 21:59 16.05.2021
2966 Clouds 10 999 81 10000 1.03 0 21:40 16.05.2021
2967 Clouds 10 999 76 10000 2.57 190 21:22 16.05.2021
2968 Clouds 11 999 71 10000 6.69 190 20:39 16.05.2021
2969 Clouds 13 999 67 10000 3.09 220 20:19 16.05.2021
2970 Clouds 13 999 63 10000 2.57 230 19:43 16.05.2021
2971 Clouds 15 999 58 10000 3.6 260 19:20 16.05.2021
2972 Clouds 16 999 58 10000 3.09 260 18:45 16.05.2021
2973 Clouds 15 999 63 10000 3.6 310 18:24 16.05.2021
2974 Clouds 16 1000 58 10000 3.6 270 17:58 16.05.2021
2975 Clouds 16 1000 58 10000 3.6 270 17:38 16.05.2021
2976 Clouds 16 1000 58 10000 4.63 290 17:20 16.05.2021
2977 Clouds 15 1000 63 10000 4.63 290 16:42 16.05.2021
2978 Clouds 15 1000 63 10000 4.63 300 16:24 16.05.2021
2979 Clouds 14 1000 67 10000 5.66 280 15:48 16.05.2021
2980 Clouds 14 1000 63 10000 6.17 240 15:23 16.05.2021
2981 Clouds 15 1000 72 10000 5.14 240 14:48 16.05.2021
2982 Clouds 13 1000 67 10000 6.17 230 14:20 16.05.2021
2983 Clouds 14 1000 67 10000 6.17 230 13:56 16.05.2021
2984 Clouds 13 1000 82 10000 3.09 270 13:26 16.05.2021
2985 Clouds 13 1001 87 6000 4.63 240 12:58 16.05.2021
2986 Clouds 13 1001 87 6000 4.63 240 12:58 16.05.2021
2987 Clouds 13 1001 87 6000 4.63 240 12:40 16.05.2021
2988 Rain 13 1000 76 10000 4.12 230 12:21 16.05.2021
2989 Clouds 12 1000 82 10000 4.63 200 11:44 16.05.2021
2990 Clouds 12 1000 82 10000 4.63 210 10:57 16.05.2021
2991 Clouds 12 1000 82 10000 4.63 210 10:33 16.05.2021
2992 Clouds 11 1000 82 10000 4.12 220 09:59 16.05.2021
2993 Clouds 11 1000 82 10000 3.09 200 09:39 16.05.2021
2994 Clouds 11 1000 87 10000 3.6 220 09:20 16.05.2021
2995 Clouds 10 1000 93 10000 3.09 200 08:27 16.05.2021
2996 Clouds 10 1000 93 10000 2.57 180 07:48 16.05.2021
2997 Clouds 10 1000 93 10000 1.54 190 07:21 16.05.2021
2998 Clouds 9 1000 93 10000 2.06 170 05:37 16.05.2021
2999 Clouds 10 1001 93 10000 1.54 200 00:52 16.05.2021
3000 Clouds 10 1001 93 10000 1.54 180 00:18 16.05.2021
3001 Clear 10 1001 93 10000 1.54 110 23:23 15.05.2021
3002 Clear 10 1001 93 10000 2.06 100 22:57 15.05.2021
3003 Clouds 10 1001 87 10000 2.06 120 22:27 15.05.2021
3004 Clouds 10 1001 87 10000 1.54 140 21:42 15.05.2021
3005 Clouds 11 1001 82 10000 2.06 140 21:21 15.05.2021
3006 Clouds 12 1001 82 10000 3.09 150 20:45 15.05.2021
3007 Clouds 12 1001 71 10000 1.03 0 20:21 15.05.2021
3008 Clouds 12 1001 71 10000 1.03 40 19:42 15.05.2021
3009 Clouds 13 1002 72 10000 1.54 320 18:48 15.05.2021
3010 Clouds 12 1002 71 10000 2.06 350 18:21 15.05.2021
3011 Clouds 11 1002 76 10000 2.57 310 17:40 15.05.2021
3012 Clouds 12 1002 82 10000 5.14 240 16:50 15.05.2021
3013 Rain 12 1002 71 10000 6.17 210 16:27 15.05.2021
3014 Rain 14 1002 63 10000 3.6 150 15:59 15.05.2021
3015 Clouds 15 1002 63 10000 3.6 160 15:22 15.05.2021
3016 Clouds 15 1003 63 10000 1.54 0 14:45 15.05.2021
3017 Clouds 15 1003 72 10000 1.54 160 14:26 15.05.2021
3018 Clouds 13 1004 76 10000 1.54 90 13:37 15.05.2021
3019 Clouds 13 1004 82 10000 2.57 150 12:49 15.05.2021
3020 Clouds 11 1005 82 10000 3.09 160 11:53 15.05.2021
3021 Clouds 11 1005 87 10000 2.57 100 10:59 15.05.2021
3022 Clouds 10 1005 87 9000 2.57 90 10:31 15.05.2021
3023 Clouds 10 1005 81 10000 2.57 140 09:44 15.05.2021
3024 Clouds 9 1006 81 9000 1.54 120 08:35 15.05.2021
3025 Clouds 8 1006 93 8000 1.03 0 07:53 15.05.2021
3026 Clouds 8 1006 93 6000 0.51 0 07:22 15.05.2021
3027 Clouds 7 1006 93 6000 1.03 190 06:51 15.05.2021
3028 Clouds 6 1006 100 8000 1.03 0 05:44 15.05.2021
3029 Fog 5 1007 93 800 0.51 0 04:18 15.05.2021
3030 Clouds 7 1007 93 10000 1.03 260 00:20 15.05.2021
3031 Clouds 8 1007 87 10000 1.54 290 23:29 14.05.2021
3032 Clear 9 1007 87 10000 2.57 360 22:28 14.05.2021
3033 Clear 10 1007 82 10000 3.09 30 21:59 14.05.2021
3034 Clouds 11 1007 76 10000 3.09 350 21:30 14.05.2021
3035 Clouds 12 1006 71 10000 2.57 340 20:55 14.05.2021
3036 Clouds 13 1006 62 10000 3.6 310 20:27 14.05.2021
3037 Clouds 14 1007 67 10000 3.6 310 19:48 14.05.2021
3038 Clouds 14 1006 62 10000 4.12 310 19:26 14.05.2021
3039 Clouds 15 1007 58 10000 4.12 320 18:46 14.05.2021
3040 Clouds 14 1007 62 10000 4.12 310 18:25 14.05.2021
3041 Clouds 15 1007 63 10000 3.6 320 17:43 14.05.2021
3042 Clouds 15 1007 63 10000 4.12 310 17:24 14.05.2021
3043 Clouds 14 1007 67 10000 3.09 300 16:44 14.05.2021
3044 Clouds 14 1007 62 10000 3.09 310 16:26 14.05.2021
3045 Rain 14 1007 62 10000 3.09 280 15:31 14.05.2021
3046 Rain 14 1007 62 10000 3.09 280 15:31 14.05.2021
3047 Rain 14 1007 62 10000 4.12 290 14:41 14.05.2021
3048 Rain 13 1007 67 10000 3.6 280 13:55 14.05.2021
3049 Rain 12 1007 66 10000 3.6 270 13:31 14.05.2021
3050 Rain 12 1007 66 10000 2.57 270 12:51 14.05.2021
3051 Rain 12 1007 71 10000 3.09 270 12:29 14.05.2021
3052 Rain 11 1007 71 10000 3.09 270 11:49 14.05.2021
3053 Rain 11 1007 76 10000 4.12 270 11:22 14.05.2021
3054 Rain 10 1007 76 10000 3.6 290 10:38 14.05.2021
3055 Rain 10 1006 81 10000 3.09 270 09:53 14.05.2021
3056 Rain 10 1006 81 10000 3.09 270 09:53 14.05.2021
3057 Rain 9 1006 81 10000 3.09 270 09:31 14.05.2021
3058 Rain 9 1006 87 10000 3.6 280 08:53 14.05.2021
3059 Rain 8 1006 87 10000 3.6 290 07:54 14.05.2021
3060 Rain 8 1006 87 10000 3.09 310 06:47 14.05.2021
3061 Rain 8 1006 93 5000 3.6 300 03:57 14.05.2021
3062 Rain 9 1006 93 8000 3.09 330 02:32 14.05.2021
3063 Clouds 10 1006 81 10000 3.6 310 00:38 14.05.2021
3064 Rain 10 1007 87 10000 2.57 320 23:50 13.05.2021
3065 Rain 10 1007 87 10000 3.6 340 23:21 13.05.2021
3066 Rain 10 1007 87 10000 3.6 320 22:49 13.05.2021
3067 Clouds 10 1006 87 10000 3.6 300 22:30 13.05.2021
3068 Clouds 11 1006 82 10000 4.12 300 21:50 13.05.2021
3069 Clouds 11 1006 82 10000 4.12 300 21:50 13.05.2021
3070 Clouds 11 1006 76 10000 3.09 330 21:29 13.05.2021
3071 Clouds 13 1006 71 10000 3.09 330 20:55 13.05.2021
3072 Clouds 13 1006 71 10000 3.09 330 20:35 13.05.2021
3073 Clouds 14 1006 67 10000 3.09 10 19:46 13.05.2021
3074 Clouds 14 1006 72 10000 3.6 20 19:23 13.05.2021
3075 Clouds 14 1006 67 10000 4.12 20 18:56 13.05.2021
3076 Clouds 14 1006 67 10000 4.12 20 18:37 13.05.2021
3077 Clouds 15 1006 63 10000 3.6 350 18:18 13.05.2021
3078 Clouds 15 1006 63 10000 4.12 340 17:40 13.05.2021
3079 Clouds 15 1006 63 10000 4.63 350 17:21 13.05.2021
3080 Clouds 15 1007 63 10000 4.12 330 16:37 13.05.2021
3081 Clouds 15 1007 63 10000 4.12 330 16:19 13.05.2021
3082 Clouds 15 1007 63 10000 4.63 310 15:46 13.05.2021
3083 Clouds 16 1007 58 10000 4.12 320 15:23 13.05.2021
3084 Clouds 16 1007 58 10000 4.12 330 14:56 13.05.2021
3085 Clouds 16 1007 58 10000 4.12 320 14:36 13.05.2021
3086 Clouds 16 1007 58 10000 4.12 320 14:18 13.05.2021
3087 Clouds 15 1007 63 10000 5.14 290 13:40 13.05.2021
3088 Clouds 15 1007 58 10000 3.6 300 13:20 13.05.2021
3089 Clouds 15 1007 63 10000 4.12 320 12:40 13.05.2021
3090 Clouds 14 1008 67 10000 5.14 290 11:57 13.05.2021
3091 Clouds 14 1008 67 10000 5.14 290 11:35 13.05.2021
3092 Clouds 14 1008 67 10000 2.78 329 10:55 13.05.2021
3093 Clouds 13 1008 67 10000 3.09 320 10:33 13.05.2021
3094 Clouds 12 1008 82 10000 2.57 290 09:47 13.05.2021
3095 Clouds 11 1008 82 10000 2.06 320 09:27 13.05.2021
3096 Clouds 10 1008 87 10000 2.57 300 08:36 13.05.2021
3097 Clouds 9 1008 93 10000 2.06 300 07:58 13.05.2021
3098 Clear 9 1009 93 10000 1.54 280 07:20 13.05.2021
3099 Clear 8 1009 93 10000 2.06 290 05:50 13.05.2021
3100 Clear 8 1010 93 10000 2.06 290 02:39 13.05.2021
3101 Clear 11 1010 71 10000 1.54 340 00:51 13.05.2021
3102 Clear 12 1011 66 10000 2.06 350 23:42 12.05.2021
3103 Clear 12 1011 66 10000 4.12 10 22:56 12.05.2021
3104 Clear 12 1011 66 10000 4.12 10 22:56 12.05.2021
3105 Clear 12 1011 66 10000 4.12 350 22:21 12.05.2021
3106 Clouds 12 1011 66 10000 4.63 10 21:52 12.05.2021
3107 Clouds 13 1011 71 10000 6.17 10 20:58 12.05.2021
3108 Clouds 14 1010 67 10000 5.14 10 20:38 12.05.2021
3109 Clouds 15 1010 63 10000 5.14 10 19:52 12.05.2021
3110 Clouds 16 1010 55 10000 3.09 340 18:52 12.05.2021
3111 Rain 16 1010 55 10000 3.09 330 18:27 12.05.2021
3112 Clouds 17 1010 52 10000 4.63 320 17:55 12.05.2021
3113 Clouds 17 1010 52 10000 4.63 320 17:34 12.05.2021
3114 Clouds 17 1010 51 10000 5.66 310 16:50 12.05.2021
3115 Clouds 17 1010 55 10000 5.14 290 16:26 12.05.2021
3116 Clouds 17 1010 55 10000 4.12 300 15:42 12.05.2021
3117 Clouds 17 1010 59 10000 5.66 300 15:19 12.05.2021
3118 Clouds 17 1010 55 10000 5.66 320 14:36 12.05.2021
3119 Clouds 17 1010 67 10000 5.14 290 13:53 12.05.2021
3120 Clouds 16 1010 67 10000 5.14 290 13:33 12.05.2021
3121 Clouds 15 1010 77 10000 6.17 290 12:37 12.05.2021
3122 Clouds 14 1010 77 10000 5.66 300 11:52 12.05.2021
3123 Clouds 14 1010 82 10000 5.66 300 11:33 12.05.2021
3124 Clouds 13 1010 82 10000 5.66 310 10:59 12.05.2021
3125 Clouds 13 1010 82 10000 5.66 310 10:59 12.05.2021
3126 Rain 12 1009 87 10000 5.66 290 10:29 12.05.2021
3127 Clouds 12 1009 87 10000 5.14 290 09:48 12.05.2021
3128 Clouds 12 1009 87 10000 5.14 290 09:27 12.05.2021
3129 Clouds 12 1009 87 10000 4.12 290 08:52 12.05.2021
3130 Clouds 12 1009 87 9000 4.12 290 08:29 12.05.2021
3131 Clouds 11 1009 93 9000 3.6 280 07:43 12.05.2021
3132 Clouds 11 1008 93 10000 3.09 270 06:24 12.05.2021
3133 Clear 11 1008 87 10000 2.57 360 00:55 12.05.2021
3134 Clear 11 1008 87 10000 2.57 360 00:36 12.05.2021
3135 Clouds 11 1008 87 10000 2.06 330 23:47 11.05.2021
3136 Clouds 12 1008 94 10000 2.57 320 23:28 11.05.2021
3137 Clouds 12 1008 94 10000 3.09 280 22:50 11.05.2021
3138 Clear 12 1008 94 10000 3.09 10 22:21 11.05.2021
3139 Clear 12 1008 94 10000 3.09 10 21:59 11.05.2021
3140 Clear 13 1008 88 10000 2.57 330 21:41 11.05.2021
3141 Clouds 13 1008 88 10000 3.09 320 21:23 11.05.2021
3142 Rain 13 1008 88 10000 2.57 320 20:43 11.05.2021
3143 Rain 13 1008 88 10000 2.57 320 20:24 11.05.2021
3144 Rain 13 1007 88 10000 3.6 350 19:43 11.05.2021
3145 Clouds 14 1008 82 10000 2.57 330 19:22 11.05.2021
3146 Rain 14 1008 82 10000 3.09 360 18:46 11.05.2021
3147 Clouds 14 1008 82 10000 3.09 360 18:27 11.05.2021
3148 Clouds 14 1008 82 10000 2.57 340 17:44 11.05.2021
3149 Rain 14 1008 82 10000 3.6 10 17:23 11.05.2021
3150 Clouds 14 1008 82 10000 3.09 350 16:45 11.05.2021
3151 Rain 14 1008 77 10000 3.09 20 16:22 11.05.2021
3152 Rain 14 1008 82 10000 3.6 360 15:44 11.05.2021
3153 Rain 14 1008 82 10000 3.6 10 15:20 11.05.2021
3154 Rain 14 1008 82 10000 3.6 10 15:20 11.05.2021
3155 Rain 14 1008 82 10000 3.6 10 14:44 11.05.2021
3156 Clouds 13 1008 82 10000 6.69 40 14:24 11.05.2021
3157 Rain 13 1008 82 10000 6.69 40 13:57 11.05.2021
3158 Rain 13 1009 88 10000 4.12 20 13:24 11.05.2021
3159 Clouds 13 1009 88 10000 2.57 40 12:58 11.05.2021
3160 Clouds 13 1009 88 10000 2.57 40 12:39 11.05.2021
3161 Clouds 13 1009 88 10000 2.57 40 11:50 11.05.2021
3162 Clouds 13 1009 88 10000 2.57 40 11:32 11.05.2021
3163 Clouds 13 1009 94 10000 3.09 40 10:58 11.05.2021
3164 Clouds 13 1009 94 10000 3.09 40 10:39 11.05.2021
3165 Clouds 13 1009 94 10000 3.09 30 09:59 11.05.2021
3166 Clouds 13 1009 94 4500 3.09 50 09:41 11.05.2021
3167 Clouds 13 1009 94 6000 3.09 70 09:23 11.05.2021
3168 Clouds 13 1009 94 9000 1.54 0 08:50 11.05.2021
3169 Clouds 13 1009 94 9000 1.54 0 08:50 11.05.2021
3170 Clouds 13 1009 94 10000 3.09 70 08:31 11.05.2021
3171 Clouds 13 1009 94 10000 3.09 70 07:54 11.05.2021
3172 Clouds 12 1009 94 10000 0.51 0 07:28 11.05.2021
3173 Rain 12 1010 94 6000 2.06 130 06:18 11.05.2021
3174 Rain 12 1010 94 6000 2.06 130 06:18 11.05.2021
3175 Rain 14 1010 94 10000 2.57 140 01:19 11.05.2021
3176 Rain 14 1009 94 10000 2.06 120 00:38 11.05.2021
3177 Rain 15 1009 77 10000 1.03 130 23:49 10.05.2021
3178 Rain 15 1009 77 10000 1.54 100 23:22 10.05.2021
3179 Clouds 16 1009 67 10000 1.03 130 22:50 10.05.2021
3180 Rain 16 1009 67 10000 1.54 140 22:21 10.05.2021
3181 Rain 16 1009 63 10000 0.51 0 21:50 10.05.2021
3182 Clouds 17 1009 67 10000 1.54 220 21:27 10.05.2021
3183 Clouds 18 1009 63 10000 2.06 220 20:45 10.05.2021
3184 Clouds 18 1009 59 10000 3.09 220 20:23 10.05.2021
3185 Clouds 18 1008 63 10000 2.57 250 19:56 10.05.2021
3186 Clouds 19 1008 63 10000 2.57 250 19:38 10.05.2021
3187 Clouds 19 1008 59 10000 4.12 250 19:19 10.05.2021
3188 Clouds 19 1008 59 10000 4.12 260 18:45 10.05.2021
3189 Clouds 19 1008 59 10000 4.63 270 18:20 10.05.2021
3190 Clouds 20 1007 56 10000 5.66 260 17:41 10.05.2021
3191 Clouds 20 1007 56 10000 6.69 270 16:59 10.05.2021
3192 Clouds 20 1006 52 10000 8.23 240 16:28 10.05.2021
3193 Clouds 20 1006 56 10000 8.75 240 15:58 10.05.2021
3194 Clouds 21 1005 56 10000 7.2 240 15:31 10.05.2021
3195 Clouds 20 1005 56 10000 7.2 250 14:55 10.05.2021
3196 Clear 21 1005 56 10000 8.75 260 14:31 10.05.2021
3197 Clear 22 1004 49 10000 8.75 230 13:57 10.05.2021
3198 Clouds 23 1002 46 10000 7.2 200 12:59 10.05.2021
3199 Clouds 23 1002 46 10000 7.2 200 12:36 10.05.2021
3200 Clouds 22 1002 49 10000 5.66 190 12:18 10.05.2021
3201 Clear 22 1002 53 10000 7.2 190 11:38 10.05.2021
3202 Clear 22 1002 53 10000 7.2 190 11:38 10.05.2021
3203 Clear 22 1002 53 10000 6.17 180 11:19 10.05.2021
3204 Clear 22 1002 49 10000 7.72 190 10:46 10.05.2021
3205 Clear 22 1002 46 10000 6.69 190 10:21 10.05.2021
3206 Clear 21 1002 52 10000 5.14 170 09:39 10.05.2021
3207 Clear 18 1001 52 10000 4.12 140 08:50 10.05.2021
3208 Clear 18 1001 55 10000 4.63 150 08:29 10.05.2021
3209 Clear 18 1001 59 10000 3.09 160 07:53 10.05.2021
3210 Clear 18 1001 59 10000 3.09 140 07:31 10.05.2021
3211 Clear 17 1001 55 10000 3.6 140 06:48 10.05.2021
3212 Clear 19 1001 48 10000 4.12 190 03:55 10.05.2021
3213 Clear 18 1000 59 10000 4.12 150 00:52 10.05.2021
3214 Clear 20 1000 52 10000 3.09 130 23:33 09.05.2021
3215 Clear 20 1000 56 10000 3.6 150 22:39 09.05.2021
3216 Clouds 20 1000 56 10000 3.6 150 22:20 09.05.2021
3217 Clear 21 1000 56 10000 3.09 150 21:48 09.05.2021
3218 Clear 24 1000 46 10000 4.63 150 20:57 09.05.2021
3219 Clear 24 1000 46 10000 4.63 150 20:37 09.05.2021
3220 Clear 25 1000 41 10000 5.14 160 19:56 09.05.2021
3221 Clear 25 1000 38 10000 6.17 150 19:31 09.05.2021
3222 Clear 26 1000 39 10000 6.17 150 18:54 09.05.2021
3223 Clear 26 1000 39 10000 6.17 150 18:33 09.05.2021
3224 Clear 25 1001 47 10000 6.69 160 17:58 09.05.2021
3225 Clear 26 1001 50 10000 4.63 150 17:23 09.05.2021
3226 Clear 25 1002 44 10000 5.14 140 16:37 09.05.2021
3227 Clear 25 1002 44 10000 5.66 140 16:19 09.05.2021
3228 Clear 24 1003 35 10000 3.09 150 15:21 09.05.2021
3229 Clear 24 1003 36 10000 7.72 140 14:49 09.05.2021
3230 Clear 22 1004 46 10000 6.69 150 13:48 09.05.2021
3231 Clear 22 1004 46 10000 6.69 150 13:48 09.05.2021
3232 Clouds 23 1004 49 10000 6.69 170 13:30 09.05.2021
3233 Clouds 22 1004 49 10000 7.72 160 12:45 09.05.2021
3234 Clear 22 1005 56 10000 6.17 170 11:59 09.05.2021
3235 Clear 21 1005 56 10000 7.2 170 11:23 09.05.2021
3236 Clear 21 1005 56 10000 7.2 170 11:23 09.05.2021
3237 Clear 19 1006 59 10000 5.66 170 10:44 09.05.2021
3238 Clear 20 1006 59 10000 5.66 170 10:44 09.05.2021
3239 Clear 20 1006 59 10000 5.66 170 10:44 09.05.2021
3240 Clear 19 1006 63 10000 5.14 170 10:26 09.05.2021
3241 Clear 17 1006 63 10000 5.66 190 09:37 09.05.2021
3242 Clear 16 1006 67 10000 5.66 180 09:18 09.05.2021
3243 Clear 15 1006 63 10000 5.14 180 08:43 09.05.2021
3244 Clear 14 1006 67 10000 5.14 180 08:21 09.05.2021
3245 Clear 11 1006 76 10000 2.57 160 07:29 09.05.2021
3246 Clear 10 1006 76 10000 4.12 180 06:39 09.05.2021
3247 Clear 10 1007 81 10000 4.12 150 01:31 09.05.2021
3248 Clouds 9 1008 87 10000 5.14 140 23:55 08.05.2021
3249 Clouds 9 1008 87 10000 5.66 140 23:31 08.05.2021
3250 Clouds 9 1008 87 10000 6.69 130 22:55 08.05.2021
3251 Clouds 9 1009 87 10000 6.17 120 22:22 08.05.2021
3252 Rain 9 1009 87 8000 4.63 130 21:52 08.05.2021
3253 Rain 9 1010 87 9000 5.14 130 21:19 08.05.2021
3254 Rain 9 1011 87 10000 3.6 130 20:57 08.05.2021
3255 Rain 9 1011 87 10000 3.6 130 20:32 08.05.2021
3256 Rain 10 1011 66 10000 5.66 150 19:27 08.05.2021
3257 Rain 11 1012 66 10000 6.69 180 18:55 08.05.2021
3258 Rain 11 1012 66 10000 6.69 180 18:37 08.05.2021
3259 Rain 12 1012 54 10000 7.2 190 17:58 08.05.2021
3260 Rain 12 1012 54 10000 7.2 190 17:38 08.05.2021
3261 Rain 14 1012 41 10000 7.2 190 16:41 08.05.2021
3262 Rain 14 1013 41 10000 5.66 190 16:23 08.05.2021
3263 Rain 14 1013 41 10000 6.69 190 15:42 08.05.2021
3264 Rain 15 1013 44 10000 5.66 170 15:22 08.05.2021
3265 Clouds 15 1014 41 10000 5.66 170 14:27 08.05.2021
3266 Clouds 14 1015 47 10000 5.66 170 13:57 08.05.2021
3267 Clouds 14 1015 44 10000 3.6 180 13:25 08.05.2021
3268 Clear 13 1016 44 10000 4.12 180 12:38 08.05.2021
3269 Clear 12 1016 50 10000 4.12 180 12:38 08.05.2021
3270 Clear 13 1016 54 10000 4.12 190 11:54 08.05.2021
3271 Clear 12 1016 54 10000 4.12 190 11:35 08.05.2021
3272 Clear 11 1017 62 10000 4.63 180 10:48 08.05.2021
3273 Clear 10 1017 66 10000 4.63 180 10:30 08.05.2021
3274 Clear 9 1017 71 10000 4.63 180 09:55 08.05.2021
3275 Clear 9 1017 71 10000 4.63 180 09:37 08.05.2021
3276 Clear 7 1017 76 10000 3.09 190 08:49 08.05.2021
3277 Clear 5 1017 87 10000 2.06 190 08:22 08.05.2021
3278 Clear 4 1017 87 10000 2.06 210 07:39 08.05.2021
3279 Clear 3 1017 93 10000 1.54 190 07:39 08.05.2021
3280 Clear 1 1017 93 10000 1.54 190 06:41 08.05.2021
3281 Clear 3 1017 87 10000 3.09 220 02:40 08.05.2021
3282 Clear 5 1017 87 10000 2.57 270 00:55 08.05.2021
3283 Clear 4 1017 87 10000 2.57 270 00:35 08.05.2021
3284 Clouds 5 1017 75 10000 3.6 280 23:48 07.05.2021
3285 Clouds 6 1016 76 10000 3.09 290 23:18 07.05.2021
3286 Clouds 7 1016 71 10000 3.6 310 22:42 07.05.2021
3287 Clouds 8 1016 66 10000 4.12 300 21:53 07.05.2021
3288 Clouds 8 1016 66 10000 4.63 300 21:31 07.05.2021
3289 Clouds 9 1015 66 10000 5.66 300 20:53 07.05.2021
3290 Clouds 9 1015 66 10000 5.66 300 20:33 07.05.2021
3291 Clouds 10 1015 53 10000 6.17 300 19:53 07.05.2021
3292 Clouds 10 1015 53 10000 6.17 300 19:34 07.05.2021
3293 Clouds 10 1014 50 10000 7.72 290 18:55 07.05.2021
3294 Clouds 10 1014 50 10000 7.72 290 18:36 07.05.2021
3295 Clouds 11 1014 46 10000 8.75 300 17:47 07.05.2021
3296 Clouds 12 1013 47 10000 8.75 280 17:22 07.05.2021
3297 Clouds 12 1013 54 10000 6.69 280 16:44 07.05.2021
3298 Clouds 11 1013 66 10000 4.63 250 16:24 07.05.2021
3299 Clouds 11 1013 61 10000 6.69 270 15:50 07.05.2021
3300 Rain 11 1012 58 10000 6.17 260 15:31 07.05.2021
3301 Clouds 11 1012 57 10000 5.14 300 14:50 07.05.2021
3302 Clouds 9 1012 66 10000 7.72 310 14:27 07.05.2021
3303 Clouds 10 1012 61 10000 4.12 270 13:44 07.05.2021
3304 Clouds 9 1012 76 10000 4.63 330 13:20 07.05.2021
3305 Rain 9 1011 57 10000 5.14 270 12:38 07.05.2021
3306 Clouds 9 1011 61 10000 4.12 280 12:20 07.05.2021
3307 Clouds 8 1011 66 10000 4.63 280 11:45 07.05.2021
3308 Clouds 8 1010 76 10000 5.14 290 11:20 07.05.2021
3309 Clouds 7 1010 81 10000 5.14 290 10:40 07.05.2021
3310 Clouds 6 1009 87 10000 4.12 290 10:19 07.05.2021
3311 Clouds 5 1009 87 10000 4.63 290 09:33 07.05.2021
3312 Clouds 5 1008 81 10000 5.66 300 08:50 07.05.2021
3313 Clouds 5 1008 81 10000 4.63 300 08:29 07.05.2021
3314 Clouds 4 1007 93 10000 3.6 300 06:50 07.05.2021
3315 Clouds 4 1006 87 10000 3.09 300 05:52 07.05.2021
3316 Clouds 4 1005 93 10000 1.54 270 03:33 07.05.2021
3317 Clear 6 1005 75 10000 1.03 0 23:45 06.05.2021
3318 Clouds 6 1005 70 10000 1.03 60 22:42 06.05.2021
3319 Clouds 7 1005 70 10000 2.06 20 21:58 06.05.2021
3320 Rain 7 1005 70 10000 2.06 20 21:38 06.05.2021
3321 Clouds 8 1004 61 10000 3.09 290 20:37 06.05.2021
3322 Clouds 8 1004 61 10000 3.09 290 20:19 06.05.2021
3323 Clouds 8 1004 61 10000 3.09 290 19:43 06.05.2021
3324 Clouds 9 1004 53 10000 2.06 290 19:20 06.05.2021
3325 Clouds 9 1004 57 10000 1.54 260 18:48 06.05.2021
3326 Clouds 10 1004 50 10000 1.03 0 18:26 06.05.2021
3327 Clouds 9 1005 66 10000 1.03 0 17:43 06.05.2021
3328 Clouds 8 1005 76 10000 4.12 240 17:23 06.05.2021
3329 Rain 8 1005 76 10000 4.12 290 16:51 06.05.2021
3330 Rain 8 1006 81 10000 6.17 250 16:30 06.05.2021
3331 Rain 8 1006 76 10000 6.69 220 15:53 06.05.2021
3332 Rain 9 1006 76 10000 6.69 220 15:35 06.05.2021
3333 Clouds 10 1005 46 10000 5.14 290 14:59 06.05.2021
3334 Clouds 11 1005 40 10000 5.14 260 14:22 06.05.2021
3335 Clouds 11 1005 46 10000 6.17 270 13:43 06.05.2021
3336 Clouds 11 1006 50 10000 5.66 270 13:19 06.05.2021
3337 Clouds 11 1006 50 10000 5.66 270 12:37 06.05.2021
3338 Clouds 10 1006 49 10000 7.2 250 12:18 06.05.2021
3339 Clouds 10 1006 57 10000 6.17 250 11:40 06.05.2021
3340 Clouds 9 1006 61 10000 6.69 260 11:19 06.05.2021
3341 Clouds 9 1006 61 10000 5.66 260 10:43 06.05.2021
3342 Clouds 8 1005 70 10000 6.17 240 10:22 06.05.2021
3343 Clouds 7 1005 70 10000 6.17 260 09:41 06.05.2021
3344 Clouds 7 1005 75 10000 6.69 250 09:22 06.05.2021
3345 Clouds 5 1005 75 10000 5.66 240 08:30 06.05.2021
3346 Clouds 4 1005 81 10000 4.63 230 07:57 06.05.2021
3347 Clouds 4 1005 81 10000 4.63 230 07:38 06.05.2021
3348 Clouds 3 1005 87 10000 3.6 230 06:39 06.05.2021
3349 Clouds 3 1005 87 10000 4.12 240 06:21 06.05.2021
3350 Clear 3 1005 87 10000 3.6 250 05:42 06.05.2021
3351 Clear 3 1005 81 10000 4.63 250 04:29 06.05.2021
3352 Clear 4 1006 75 10000 5.66 250 00:59 06.05.2021
3353 Clouds 6 1005 65 10000 7.72 260 23:25 05.05.2021
3354 Clouds 6 1005 65 10000 8.23 260 22:30 05.05.2021
3355 Clouds 7 1005 65 10000 7.72 270 21:57 05.05.2021
3356 Clouds 7 1005 65 10000 7.72 270 21:35 05.05.2021
3357 Clouds 7 1005 65 10000 7.72 270 21:35 05.05.2021
3358 Clouds 7 1004 65 10000 9.26 280 20:57 05.05.2021
3359 Clouds 7 1004 65 10000 9.26 280 20:57 05.05.2021
3360 Clouds 8 1004 61 10000 11.83 280 20:26 05.05.2021
3361 Clouds 8 1003 66 10000 11.32 280 19:42 05.05.2021
3362 Clouds 8 1003 66 10000 11.32 280 19:23 05.05.2021
3363 Clouds 8 1003 66 10000 12.35 280 18:38 05.05.2021
3364 Clouds 9 1002 66 10000 12.86 280 18:18 05.05.2021
3365 Clouds 9 1002 71 10000 14.4 280 17:43 05.05.2021
3366 Clouds 8 1002 81 10000 10.8 280 17:24 05.05.2021
3367 Clouds 8 1001 81 10000 10.8 270 16:47 05.05.2021
3368 Rain 9 1000 71 10000 12.35 270 16:28 05.05.2021
3369 Clouds 9 999 76 10000 11.83 270 15:46 05.05.2021
3370 Clouds 8 999 81 10000 11.32 270 15:20 05.05.2021
3371 Rain 7 998 87 10000 10.29 270 14:42 05.05.2021
3372 Clouds 7 998 87 10000 10.8 270 14:23 05.05.2021
3373 Rain 7 998 87 10000 9.26 270 13:32 05.05.2021
3374 Rain 8 997 76 10000 12.35 260 12:58 05.05.2021
3375 Clouds 8 996 71 10000 11.32 250 12:27 05.05.2021
3376 Clouds 8 996 71 10000 10.29 250 11:49 05.05.2021
3377 Clouds 8 996 66 10000 11.83 240 11:28 05.05.2021
3378 Clouds 8 996 71 10000 10.8 250 10:51 05.05.2021
3379 Clouds 7 996 76 10000 10.29 240 10:26 05.05.2021
3380 Clouds 7 995 76 10000 11.32 250 09:47 05.05.2021
3381 Clouds 7 995 76 10000 10.8 250 08:57 05.05.2021
3382 Clouds 7 995 76 10000 10.8 250 08:37 05.05.2021
3383 Clouds 6 995 81 10000 10.29 240 08:19 05.05.2021
3384 Clouds 6 995 81 10000 10.29 240 07:41 05.05.2021
3385 Clouds 6 994 81 10000 8.75 240 06:55 05.05.2021
3386 Clouds 6 994 81 10000 9.26 240 05:30 05.05.2021
3387 Clouds 7 994 81 10000 8.75 250 01:42 05.05.2021
3388 Clouds 7 994 76 10000 10.29 240 23:46 04.05.2021
3389 Clouds 7 994 76 10000 10.8 240 23:23 04.05.2021
3390 Clouds 7 994 81 10000 10.8 250 22:42 04.05.2021
3391 Clouds 8 994 76 10000 10.8 240 22:21 04.05.2021
3392 Clouds 7 994 81 10000 11.83 250 21:52 04.05.2021
3393 Clouds 8 994 76 10000 10.29 240 21:31 04.05.2021
3394 Clouds 8 993 71 10000 11.83 240 20:50 04.05.2021
3395 Clouds 8 993 81 10000 9.77 240 20:28 04.05.2021
3396 Clouds 9 993 76 10000 10.29 240 19:59 04.05.2021
3397 Clouds 9 993 76 10000 10.29 240 19:40 04.05.2021
3398 Clouds 9 993 76 10000 10.29 240 19:20 04.05.2021
3399 Clouds 9 993 81 10000 9.77 240 18:47 04.05.2021
3400 Clouds 9 993 71 10000 12.35 230 18:20 04.05.2021
3401 Clouds 9 993 81 10000 9.77 230 17:44 04.05.2021
3402 Clouds 9 993 81 10000 11.32 250 17:20 04.05.2021
3403 Clouds 8 993 87 3500 14.92 270 16:40 04.05.2021
3404 Rain 10 992 62 10000 13.89 240 16:21 04.05.2021
3405 Clouds 11 992 71 10000 13.89 240 15:26 04.05.2021
3406 Clouds 10 992 76 4000 17.49 240 14:47 04.05.2021
3407 Rain 11 992 71 10000 11.32 220 13:47 04.05.2021
3408 Clouds 11 992 71 10000 9.77 210 13:26 04.05.2021
3409 Clouds 10 992 71 10000 9.77 210 12:57 04.05.2021
3410 Clouds 10 992 71 10000 9.77 210 12:37 04.05.2021
3411 Clouds 10 993 81 10000 6.69 230 12:19 04.05.2021
3412 Clouds 9 993 81 10000 9.26 220 11:41 04.05.2021
3413 Rain 9 993 76 10000 10.29 200 11:21 04.05.2021
3414 Clouds 9 993 81 10000 6.69 200 10:40 04.05.2021
3415 Clouds 8 994 87 10000 8.75 200 10:20 04.05.2021
3416 Clouds 9 994 76 10000 9.26 200 09:27 04.05.2021
3417 Clouds 9 995 76 10000 8.75 200 08:54 04.05.2021
3418 Clouds 9 995 76 10000 8.75 200 08:35 04.05.2021
3419 Clouds 8 996 81 10000 8.23 200 07:55 04.05.2021
3420 Clouds 8 996 81 10000 8.23 200 07:34 04.05.2021
3421 Rain 8 998 76 10000 7.72 220 06:28 04.05.2021
3422 Rain 8 998 76 10000 7.72 220 06:28 04.05.2021
3423 Rain 9 998 57 10000 5.66 180 05:35 04.05.2021
3424 Rain 9 1001 61 10000 6.69 140 03:51 04.05.2021
3425 Clear 7 1008 81 10000 6.17 150 00:51 04.05.2021
3426 Rain 7 1009 87 10000 5.14 140 23:43 03.05.2021
3427 Clear 7 1011 87 10000 4.63 140 22:55 03.05.2021
3428 Clear 7 1011 87 10000 4.63 140 22:32 03.05.2021
3429 Clear 7 1012 87 10000 3.6 140 21:54 03.05.2021
3430 Clear 8 1012 81 10000 1.54 120 21:32 03.05.2021
3431 Clear 8 1012 87 10000 2.06 120 20:59 03.05.2021
3432 Clear 8 1012 87 10000 2.06 120 20:40 03.05.2021
3433 Clear 9 1013 81 10000 2.57 150 20:22 03.05.2021
3434 Clouds 9 1013 81 10000 3.09 170 19:40 03.05.2021
3435 Clouds 9 1014 76 10000 2.06 170 19:19 03.05.2021
3436 Rain 9 1015 76 10000 2.57 230 18:28 03.05.2021
3437 Rain 9 1015 81 10000 3.09 250 17:50 03.05.2021
3438 Clouds 8 1016 87 8000 8.75 270 17:24 03.05.2021
3439 Rain 10 1016 76 10000 4.63 270 16:51 03.05.2021
3440 Rain 9 1016 76 10000 1.54 280 16:19 03.05.2021
3441 Rain 9 1016 76 10000 1.54 280 16:19 03.05.2021
3442 Clouds 8 1016 87 10000 4.63 290 15:47 03.05.2021
3443 Clouds 8 1016 87 10000 4.63 290 15:47 03.05.2021
3444 Rain 7 1017 87 3500 8.23 320 14:56 03.05.2021
3445 Rain 8 1017 81 10000 1.54 350 14:20 03.05.2021
3446 Rain 9 1017 76 10000 3.09 240 13:51 03.05.2021
3447 Clouds 9 1017 81 10000 3.09 220 13:29 03.05.2021
3448 Clouds 7 1018 87 10000 3.09 230 12:54 03.05.2021
3449 Clouds 7 1018 87 10000 3.6 230 12:27 03.05.2021
3450 Rain 6 1018 93 10000 2.06 200 11:49 03.05.2021
3451 Rain 6 1019 87 10000 1.03 0 11:30 03.05.2021
3452 Rain 5 1019 87 10000 1.03 0 10:49 03.05.2021
3453 Rain 5 1019 93 10000 1.54 270 10:31 03.05.2021
3454 Rain 5 1019 93 10000 1.54 270 10:31 03.05.2021
3455 Rain 4 1019 93 10000 3.6 240 09:53 03.05.2021
3456 Rain 5 1019 87 10000 5.14 240 09:25 03.05.2021
3457 Rain 5 1019 87 10000 5.14 230 08:42 03.05.2021
3458 Clouds 5 1019 87 10000 3.09 230 08:23 03.05.2021
3459 Clouds 4 1019 87 10000 3.6 230 07:36 03.05.2021
3460 Clouds 2 1018 93 10000 2.06 250 06:32 03.05.2021
3461 Clouds 2 1018 93 10000 3.6 250 05:54 03.05.2021
3462 Clouds 4 1018 87 10000 4.63 270 01:53 03.05.2021
3463 Clouds 4 1018 81 10000 4.63 280 00:19 03.05.2021
3464 Clouds 4 1018 81 10000 4.12 270 23:26 02.05.2021
3465 Clouds 5 1017 81 10000 4.12 270 22:49 02.05.2021
3466 Clouds 5 1017 75 10000 4.12 280 22:31 02.05.2021
3467 Clouds 5 1017 75 10000 4.12 280 22:31 02.05.2021
3468 Clouds 6 1017 75 10000 4.12 290 21:57 02.05.2021
3469 Clouds 6 1017 75 10000 4.12 290 21:33 02.05.2021
3470 Clouds 7 1016 76 10000 5.14 280 20:48 02.05.2021
3471 Clouds 7 1016 76 10000 5.66 290 20:23 02.05.2021
3472 Clouds 7 1016 76 10000 6.17 290 19:41 02.05.2021
3473 Clouds 7 1016 76 10000 7.2 290 19:22 02.05.2021
3474 Clouds 7 1016 81 10000 7.2 300 18:45 02.05.2021
3475 Clouds 7 1016 87 8000 7.2 300 18:27 02.05.2021
3476 Rain 8 1016 81 10000 7.72 270 17:49 02.05.2021
3477 Clouds 8 1015 76 10000 8.75 290 17:29 02.05.2021
3478 Rain 8 1015 81 10000 8.23 290 16:58 02.05.2021
3479 Rain 8 1015 81 10000 8.23 290 16:39 02.05.2021
3480 Clouds 8 1015 87 10000 5.66 270 16:19 02.05.2021
3481 Rain 7 1015 87 8000 8.23 280 15:43 02.05.2021
3482 Rain 8 1015 81 10000 8.75 270 15:23 02.05.2021
3483 Clouds 9 1014 76 10000 7.72 260 14:41 02.05.2021
3484 Clouds 9 1014 66 10000 7.2 310 14:21 02.05.2021
3485 Clouds 9 1014 66 10000 6.69 280 13:45 02.05.2021
3486 Clouds 9 1014 71 10000 4.63 300 13:21 02.05.2021
3487 Clouds 8 1014 71 10000 6.69 310 12:43 02.05.2021
3488 Clouds 9 1014 71 10000 6.69 300 12:23 02.05.2021
3489 Clouds 8 1014 71 10000 6.69 300 11:49 02.05.2021
3490 Clouds 8 1014 81 10000 7.2 310 11:31 02.05.2021
3491 Clouds 9 1013 76 10000 4.12 300 10:53 02.05.2021
3492 Clouds 9 1013 76 10000 4.63 290 10:21 02.05.2021
3493 Clouds 8 1013 81 10000 4.12 270 09:47 02.05.2021
3494 Clouds 8 1013 81 10000 4.12 270 09:28 02.05.2021
3495 Clouds 8 1013 81 10000 4.12 270 09:28 02.05.2021
3496 Clouds 7 1013 87 10000 3.6 270 08:54 02.05.2021
3497 Clouds 7 1013 93 10000 2.06 250 08:31 02.05.2021
3498 Clouds 6 1013 93 9000 1.54 250 07:53 02.05.2021
3499 Clouds 4 1013 100 7000 1.03 220 07:21 02.05.2021
3500 Clouds 4 1012 100 10000 1.03 200 05:28 02.05.2021
3501 Clear 5 1012 93 10000 1.54 280 01:46 02.05.2021
3502 Clear 6 1013 87 10000 2.06 290 23:49 01.05.2021
3503 Clear 7 1013 81 10000 1.03 0 23:29 01.05.2021
3504 Clear 8 1013 76 10000 2.06 340 22:59 01.05.2021
3505 Clear 8 1013 76 10000 2.06 340 22:35 01.05.2021
3506 Clouds 8 1012 71 10000 4.12 340 21:57 01.05.2021
3507 Clouds 8 1012 71 10000 4.12 340 21:39 01.05.2021
3508 Clouds 8 1012 71 10000 4.12 340 21:39 01.05.2021
3509 Clouds 10 1012 71 10000 3.6 360 21:21 01.05.2021
3510 Clouds 10 1012 58 10000 3.6 310 20:45 01.05.2021
3511 Clouds 11 1012 58 10000 3.6 280 20:26 01.05.2021
3512 Clouds 11 1011 54 10000 2.57 250 19:52 01.05.2021
3513 Clouds 12 1011 58 10000 2.06 250 19:30 01.05.2021
3514 Clouds 12 1011 54 10000 3.09 250 18:51 01.05.2021
3515 Clouds 13 1011 50 10000 3.6 230 18:30 01.05.2021
3516 Clouds 13 1011 54 10000 2.57 240 17:49 01.05.2021
3517 Clouds 13 1011 58 10000 3.09 250 17:27 01.05.2021
3518 Clouds 13 1011 54 10000 3.6 230 16:45 01.05.2021
3519 Clouds 14 1012 54 10000 4.63 230 16:25 01.05.2021
3520 Clouds 12 1012 62 10000 5.66 260 15:29 01.05.2021
3521 Clouds 12 1012 62 10000 2.57 220 14:33 01.05.2021
3522 Clouds 11 1012 71 10000 3.09 240 13:37 01.05.2021
3523 Clouds 10 1013 76 8000 3.09 250 13:19 01.05.2021
3524 Mist 11 1013 76 4800 3.6 250 12:37 01.05.2021
3525 Clouds 10 1013 93 4000 4.12 240 12:18 01.05.2021
3526 Rain 11 1012 71 7000 3.09 220 11:41 01.05.2021
3527 Clouds 11 1012 71 7000 3.09 150 11:22 01.05.2021
3528 Clouds 11 1012 71 7000 3.09 150 11:22 01.05.2021
3529 Clouds 11 1012 71 7000 3.09 150 11:22 01.05.2021
3530 Clouds 10 1013 71 9000 2.57 140 10:43 01.05.2021
3531 Clouds 9 1013 87 10000 2.57 120 09:56 01.05.2021
3532 Clouds 8 1013 81 10000 2.57 140 09:27 01.05.2021
3533 Clouds 8 1013 87 10000 2.57 130 08:59 01.05.2021
3534 Clouds 7 1013 93 10000 2.06 110 07:46 01.05.2021
3535 Clouds 6 1012 93 9000 1.54 140 06:48 01.05.2021
3536 Clouds 7 1012 87 10000 3.09 110 05:32 01.05.2021
3537 Clouds 7 1014 87 10000 2.57 140 01:21 01.05.2021
3538 Clouds 8 1013 81 10000 2.06 100 00:21 01.05.2021
3539 Clouds 8 1013 76 10000 3.09 110 23:38 30.04.2021
3540 Clouds 9 1013 81 10000 1.03 0 22:46 30.04.2021
3541 Clouds 10 1013 76 10000 1.03 0 22:19 30.04.2021
3542 Clouds 9 1013 76 10000 1.03 0 21:46 30.04.2021
3543 Clouds 10 1013 76 10000 1.54 270 21:24 30.04.2021
3544 Clouds 10 1013 66 10000 1.54 120 20:47 30.04.2021
3545 Clouds 11 1012 66 10000 2.57 110 20:26 30.04.2021
3546 Clouds 11 1012 66 10000 3.6 120 19:39 30.04.2021
3547 Clouds 12 1012 62 10000 3.6 120 18:48 30.04.2021
3548 Clouds 12 1012 58 10000 3.09 120 18:28 30.04.2021
3549 Clouds 12 1012 54 10000 4.63 110 17:54 30.04.2021
3550 Clouds 13 1012 54 10000 3.09 110 17:30 30.04.2021
3551 Clouds 13 1012 54 10000 3.09 110 16:53 30.04.2021
3552 Clouds 13 1012 54 10000 3.09 110 16:32 30.04.2021
3553 Clouds 13 1012 54 10000 4.12 60 15:43 30.04.2021
3554 Clouds 13 1012 54 10000 3.09 110 15:23 30.04.2021
3555 Clouds 13 1013 54 10000 2.57 60 14:58 30.04.2021
3556 Clouds 13 1013 54 10000 2.57 60 14:39 30.04.2021
3557 Clouds 12 1013 58 10000 2.57 70 14:18 30.04.2021
3558 Clouds 13 1012 58 10000 3.09 60 13:39 30.04.2021
3559 Clouds 13 1012 62 10000 3.09 60 13:19 30.04.2021
3560 Clouds 12 1012 62 10000 2.06 10 12:38 30.04.2021
3561 Clouds 12 1012 66 10000 2.06 70 11:52 30.04.2021
3562 Clouds 12 1012 66 10000 1.54 0 11:23 30.04.2021
3563 Clouds 10 1012 71 10000 2.57 70 10:48 30.04.2021
3564 Clouds 10 1012 71 10000 1.54 60 10:30 30.04.2021
3565 Clouds 9 1012 81 10000 1.03 0 09:48 30.04.2021
3566 Clouds 8 1012 87 9000 0.51 0 09:21 30.04.2021
3567 Clouds 8 1011 87 6000 1.03 0 08:39 30.04.2021
3568 Fog 6 1011 100 3500 1.54 260 07:38 30.04.2021
3569 Fog 6 1011 93 3500 2.57 310 07:20 30.04.2021
3570 Fog 5 1010 100 700 1.54 290 06:45 30.04.2021
3571 Mist 5 1010 100 2200 2.57 300 06:22 30.04.2021
3572 Clouds 7 1008 93 10000 3.6 290 03:26 30.04.2021
3573 Clouds 7 1008 93 10000 3.09 340 01:53 30.04.2021
3574 Clouds 7 1007 87 10000 3.6 330 01:31 30.04.2021
3575 Clouds 8 1006 93 9000 2.06 350 23:32 29.04.2021
3576 Rain 8 1005 87 10000 3.6 250 22:48 29.04.2021
3577 Clouds 8 1005 87 10000 3.6 260 22:26 29.04.2021
3578 Clouds 8 1005 81 10000 4.63 260 21:58 29.04.2021
3579 Rain 8 1005 81 10000 4.63 260 21:39 29.04.2021
3580 Rain 9 1004 87 9000 4.12 300 21:20 29.04.2021
3581 Rain 9 1003 87 9000 4.63 310 20:45 29.04.2021
3582 Clouds 9 1003 93 10000 4.63 310 20:26 29.04.2021
3583 Clouds 10 1002 81 10000 4.63 310 19:57 29.04.2021
3584 Clouds 10 1002 81 10000 4.63 310 19:37 29.04.2021
3585 Clouds 10 1002 87 10000 3.6 310 19:19 29.04.2021
3586 Clouds 11 1002 82 10000 4.12 320 18:40 29.04.2021
3587 Rain 11 1001 76 10000 5.14 310 17:48 29.04.2021
3588 Clouds 12 1001 76 10000 3.6 320 17:26 29.04.2021
3589 Clouds 12 1001 76 10000 3.09 310 16:53 29.04.2021
3590 Clouds 12 1001 76 10000 2.06 280 16:27 29.04.2021
3591 Clouds 11 1002 87 10000 2.06 90 15:57 29.04.2021
3592 Clouds 10 1002 87 10000 2.57 30 15:28 29.04.2021
3593 Rain 11 1001 82 10000 4.12 70 14:53 29.04.2021
3594 Clouds 10 1001 93 10000 4.63 100 14:28 29.04.2021
3595 Rain 10 1001 93 10000 4.12 100 13:56 29.04.2021
3596 Clouds 10 1001 93 10000 4.12 100 13:35 29.04.2021
3597 Rain 9 1002 100 4500 2.06 110 12:52 29.04.2021
3598 Rain 9 1002 100 4500 3.09 150 12:31 29.04.2021
3599 Rain 9 1002 93 4500 3.09 140 11:57 29.04.2021
3600 Rain 9 1002 93 4500 3.09 140 11:37 29.04.2021
3601 Rain 10 1002 87 9000 3.6 120 11:18 29.04.2021
3602 Rain 10 1001 87 9000 4.63 120 10:40 29.04.2021
3603 Rain 10 1001 87 10000 5.14 110 09:59 29.04.2021
3604 Rain 10 1001 87 10000 5.14 110 09:37 29.04.2021
3605 Rain 11 1001 82 10000 4.12 110 09:18 29.04.2021
3606 Rain 10 1001 87 10000 3.6 110 08:35 29.04.2021
3607 Rain 10 1001 81 10000 4.63 140 07:56 29.04.2021
3608 Clear 9 1001 76 10000 4.12 120 07:29 29.04.2021
3609 Clouds 9 1001 76 10000 3.09 90 06:36 29.04.2021
3610 Rain 9 1001 76 10000 3.6 70 05:21 29.04.2021
3611 Rain 12 1003 47 10000 4.63 360 00:27 29.04.2021
3612 Clouds 12 1004 50 10000 2.57 120 23:22 28.04.2021
3613 Rain 13 1004 41 10000 5.66 340 22:53 28.04.2021
3614 Rain 13 1003 41 10000 5.66 350 22:26 28.04.2021
3615 Rain 14 1003 41 10000 4.63 40 21:51 28.04.2021
3616 Rain 14 1003 33 10000 3.6 360 21:24 28.04.2021
3617 Rain 15 1003 29 10000 3.6 20 20:58 28.04.2021
3618 Rain 16 1003 29 10000 3.6 20 20:38 28.04.2021
3619 Rain 15 1003 31 10000 3.09 30 20:20 28.04.2021
3620 Rain 16 1003 36 10000 1.03 0 19:37 28.04.2021
3621 Rain 17 1003 27 10000 1.54 80 19:18 28.04.2021
3622 Clear 17 1003 31 10000 0.51 0 18:40 28.04.2021
3623 Clear 17 1004 29 10000 1.03 0 18:21 28.04.2021
3624 Clear 17 1004 29 10000 1.54 0 17:46 28.04.2021
3625 Clear 18 1004 27 10000 1.03 0 17:24 28.04.2021
3626 Clear 17 1005 29 10000 2.57 120 16:22 28.04.2021
3627 Clear 17 1005 31 10000 2.57 90 15:49 28.04.2021
3628 Clear 17 1005 33 10000 3.09 90 15:31 28.04.2021
3629 Clear 17 1005 33 10000 4.12 120 14:44 28.04.2021
3630 Clear 17 1006 36 10000 3.09 110 14:22 28.04.2021
3631 Clear 16 1006 33 10000 3.6 110 13:57 28.04.2021
3632 Clear 15 1006 35 10000 4.12 110 13:27 28.04.2021
3633 Clear 15 1006 35 10000 4.63 100 12:55 28.04.2021
3634 Clear 14 1007 35 10000 4.63 90 12:30 28.04.2021
3635 Clear 13 1007 40 10000 3.6 80 11:49 28.04.2021
3636 Clear 12 1007 43 10000 4.63 80 11:26 28.04.2021
3637 Clear 11 1007 43 10000 4.63 80 10:43 28.04.2021
3638 Clear 10 1008 46 10000 4.12 80 10:21 28.04.2021
3639 Clear 9 1008 46 10000 4.12 80 09:57 28.04.2021
3640 Clear 9 1008 46 10000 4.12 80 09:34 28.04.2021
3641 Clear 7 1008 52 10000 4.63 80 08:55 28.04.2021
3642 Clear 4 1008 60 10000 3.6 70 07:54 28.04.2021
3643 Clear 3 1008 65 10000 3.6 60 07:28 28.04.2021
3644 Clear 3 1008 65 10000 3.6 60 05:38 28.04.2021
3645 Clear 3 1009 56 10000 4.12 60 03:47 28.04.2021
3646 Clear 4 1010 48 10000 4.12 60 02:34 28.04.2021
3647 Clear 5 1010 49 10000 4.12 70 00:49 28.04.2021
3648 Clear 6 1010 45 10000 4.12 80 23:52 27.04.2021
3649 Clear 6 1010 45 10000 4.12 80 23:34 27.04.2021
3650 Clear 7 1010 45 10000 3.6 80 22:50 27.04.2021
3651 Clear 7 1010 45 10000 4.12 80 22:30 27.04.2021
3652 Clear 8 1010 42 10000 3.09 80 21:49 27.04.2021
3653 Clear 9 1010 37 10000 2.06 90 21:29 27.04.2021
3654 Clear 11 1010 32 10000 3.09 120 20:58 27.04.2021
3655 Clear 11 1010 32 10000 3.09 120 20:39 27.04.2021
3656 Clear 12 1010 30 10000 4.63 140 19:51 27.04.2021
3657 Clear 13 1010 28 10000 4.12 130 19:26 27.04.2021
3658 Clear 13 1010 28 10000 4.63 110 18:59 27.04.2021
3659 Clear 13 1010 28 10000 4.63 110 18:41 27.04.2021
3660 Clear 14 1011 28 10000 5.66 140 18:21 27.04.2021
3661 Clear 13 1011 28 10000 4.12 120 17:31 27.04.2021
3662 Clear 14 1012 28 10000 5.14 100 16:54 27.04.2021
3663 Clear 14 1012 33 10000 4.63 120 16:31 27.04.2021
3664 Clear 13 1012 32 10000 5.14 120 15:57 27.04.2021
3665 Clear 13 1012 32 10000 5.14 120 15:37 27.04.2021
3666 Clear 13 1013 30 10000 5.66 120 15:19 27.04.2021
3667 Clear 13 1013 35 10000 5.66 110 14:41 27.04.2021
3668 Clear 12 1013 35 10000 5.14 110 14:21 27.04.2021
3669 Clear 12 1014 35 10000 5.14 100 13:49 27.04.2021
3670 Clear 12 1014 35 10000 5.66 120 13:25 27.04.2021
3671 Clear 11 1014 34 10000 6.17 110 12:34 27.04.2021
3672 Clear 10 1015 37 10000 6.17 130 11:57 27.04.2021
3673 Clear 10 1015 40 10000 5.66 120 11:28 27.04.2021
3674 Clouds 10 1015 43 10000 4.12 140 10:49 27.04.2021
3675 Clear 9 1015 49 10000 4.63 110 10:23 27.04.2021
3676 Clear 8 1016 53 10000 4.12 120 09:47 27.04.2021
3677 Clear 6 1016 56 10000 3.09 100 08:55 27.04.2021
3678 Clear 4 1016 60 10000 3.6 120 08:28 27.04.2021
3679 Clear 4 1016 56 10000 4.12 100 07:48 27.04.2021
3680 Clear 1 1015 64 10000 3.09 80 06:58 27.04.2021
3681 Clear 1 1015 64 10000 3.09 80 06:29 27.04.2021
3682 Clear 1 1016 69 10000 3.09 80 05:32 27.04.2021
3683 Clear 3 1017 48 10000 4.12 100 01:57 27.04.2021
3684 Clear 4 1017 65 10000 3.09 60 00:28 27.04.2021
3685 Clear 4 1017 60 10000 2.57 50 23:46 26.04.2021
3686 Clear 4 1017 60 10000 2.57 40 23:20 26.04.2021
3687 Clear 5 1017 56 10000 4.63 30 22:50 26.04.2021
3688 Clear 6 1017 53 10000 4.63 20 22:23 26.04.2021
3689 Clear 7 1017 46 10000 4.12 20 21:42 26.04.2021
3690 Clear 8 1017 46 10000 4.63 20 21:23 26.04.2021
3691 Clear 9 1017 46 10000 5.14 20 20:46 26.04.2021
3692 Clear 9 1017 43 10000 4.63 10 20:28 26.04.2021
3693 Clear 10 1017 43 10000 4.63 20 19:47 26.04.2021
3694 Clear 10 1017 43 10000 4.63 30 19:26 26.04.2021
3695 Clear 11 1017 43 10000 4.63 360 18:46 26.04.2021
3696 Clear 12 1018 40 10000 4.12 350 18:28 26.04.2021
3697 Clear 11 1018 40 10000 4.63 20 17:50 26.04.2021
3698 Clear 12 1018 35 10000 3.6 340 17:30 26.04.2021
3699 Clear 12 1018 35 10000 2.06 0 16:48 26.04.2021
3700 Clear 12 1019 35 10000 1.54 0 16:26 26.04.2021
3701 Clear 12 1019 35 10000 2.06 330 15:57 26.04.2021
3702 Clear 12 1019 35 10000 2.06 330 15:37 26.04.2021
3703 Clear 12 1019 32 10000 1.54 0 15:19 26.04.2021
3704 Clear 12 1020 35 10000 1.54 0 14:35 26.04.2021
3705 Clear 13 1021 37 10000 1.54 0 13:56 26.04.2021
3706 Clear 12 1021 37 10000 1.54 0 13:37 26.04.2021
3707 Clear 11 1021 37 10000 1.54 0 13:19 26.04.2021
3708 Clouds 10 1022 43 10000 1.54 0 11:57 26.04.2021
3709 Clouds 10 1022 43 10000 1.54 0 11:39 26.04.2021
3710 Clouds 10 1022 46 10000 2.06 0 10:53 26.04.2021
3711 Clouds 10 1022 46 10000 2.06 0 10:33 26.04.2021
3712 Clear 8 1022 49 10000 2.57 30 09:59 26.04.2021
3713 Clear 8 1022 49 10000 2.57 30 09:40 26.04.2021
3714 Clear 7 1023 57 10000 2.57 20 09:21 26.04.2021
3715 Clear 3 1023 81 10000 1.06 357 08:22 26.04.2021
3716 Clear 1 1023 93 10000 0.51 0 07:57 26.04.2021
3717 Clear 1 1023 93 10000 0.51 0 07:38 26.04.2021
3718 Clear 0 1023 86 10000 1.54 270 06:45 26.04.2021
3719 Clear 0 1023 86 10000 2.06 290 05:58 26.04.2021
3720 Clear 0 1024 86 10000 2.06 280 04:40 26.04.2021
3721 Clear 0 1024 86 10000 1.54 280 03:25 26.04.2021
3722 Clear 1 1025 75 10000 0.51 0 01:44 26.04.2021
3723 Clear 3 1025 60 10000 2.06 40 00:47 26.04.2021
3724 Clear 4 1025 52 10000 3.6 30 23:49 25.04.2021
3725 Clear 5 1025 52 10000 4.12 20 23:29 25.04.2021
3726 Clear 6 1025 49 10000 4.63 20 22:59 25.04.2021
3727 Clear 6 1025 49 10000 4.63 20 22:40 25.04.2021
3728 Clear 6 1025 53 10000 4.12 30 22:19 25.04.2021
3729 Clear 6 1025 53 10000 5.66 30 21:42 25.04.2021
3730 Clear 8 1025 49 10000 5.66 20 21:24 25.04.2021
3731 Clear 9 1025 43 10000 6.17 340 20:48 25.04.2021
3732 Clear 9 1025 49 10000 5.14 300 20:27 25.04.2021
3733 Clear 10 1025 43 10000 5.66 320 19:49 25.04.2021
3734 Clear 11 1025 30 10000 2.57 20 19:28 25.04.2021
3735 Clear 11 1025 32 10000 2.57 40 18:58 25.04.2021
3736 Clear 11 1025 32 10000 2.57 40 18:39 25.04.2021
3737 Clear 11 1025 30 10000 4.12 20 18:21 25.04.2021
3738 Clear 11 1025 32 10000 4.12 20 17:41 25.04.2021
3739 Clear 12 1025 32 10000 4.63 10 17:21 25.04.2021
3740 Clear 12 1026 32 10000 4.12 10 16:43 25.04.2021
3741 Clear 12 1026 35 10000 3.09 0 16:24 25.04.2021
3742 Clear 12 1026 32 10000 5.14 10 15:39 25.04.2021
3743 Clear 12 1026 37 10000 4.12 360 15:18 25.04.2021
3744 Clear 11 1026 37 10000 4.63 40 14:22 25.04.2021
3745 Clear 11 1026 37 10000 4.63 40 14:22 25.04.2021
3746 Clear 11 1026 40 10000 3.6 10 13:52 25.04.2021
3747 Clear 11 1026 43 10000 3.6 0 13:23 25.04.2021
3748 Clouds 10 1027 43 10000 4.12 350 12:51 25.04.2021
3749 Clouds 10 1027 43 10000 4.12 350 12:33 25.04.2021
3750 Clouds 10 1026 49 10000 4.63 40 11:59 25.04.2021
3751 Clouds 10 1026 49 10000 4.63 40 11:32 25.04.2021
3752 Clouds 9 1026 49 10000 5.14 40 10:52 25.04.2021
3753 Clouds 9 1026 49 10000 5.14 40 10:52 25.04.2021
3754 Clouds 8 1026 53 10000 5.66 350 10:22 25.04.2021
3755 Clouds 8 1026 57 10000 6.17 20 09:48 25.04.2021
3756 Clouds 7 1026 57 10000 5.14 320 09:26 25.04.2021
3757 Clouds 7 1026 57 10000 5.14 320 09:26 25.04.2021
3758 Clouds 6 1026 61 10000 5.14 330 08:30 25.04.2021
3759 Clouds 6 1026 61 10000 4.63 340 07:48 25.04.2021
3760 Clouds 6 1026 61 10000 4.63 340 07:48 25.04.2021
3761 Clouds 4 1025 65 10000 5.66 320 07:21 25.04.2021
3762 Clouds 4 1025 65 10000 4.63 320 06:51 25.04.2021
3763 Clouds 4 1026 65 10000 3.09 340 05:29 25.04.2021
3764 Clouds 4 1026 65 10000 4.12 350 04:42 25.04.2021
3765 Clouds 3 1026 81 10000 2.06 290 01:47 25.04.2021
3766 Clouds 4 1026 70 10000 3.09 330 01:25 25.04.2021
3767 Clouds 4 1026 70 10000 4.12 340 00:27 25.04.2021
3768 Clouds 4 1026 70 10000 3.6 330 23:49 24.04.2021
3769 Clouds 4 1026 70 10000 3.6 340 23:26 24.04.2021
3770 Clear 5 1026 65 10000 5.14 340 22:46 24.04.2021
3771 Clear 5 1026 70 10000 6.69 330 21:58 24.04.2021
3772 Clear 5 1026 65 10000 5.66 330 21:29 24.04.2021
3773 Clear 7 1026 61 10000 6.17 330 20:58 24.04.2021
3774 Clear 7 1026 61 10000 6.17 330 20:36 24.04.2021
3775 Clear 8 1026 53 10000 6.17 330 20:18 24.04.2021
3776 Clear 9 1026 49 10000 7.72 320 19:39 24.04.2021
3777 Clear 9 1026 49 10000 6.69 310 19:19 24.04.2021
3778 Clear 10 1026 46 10000 6.69 330 18:41 24.04.2021
3779 Clear 11 1026 43 10000 6.69 310 18:20 24.04.2021
3780 Clear 12 1026 40 10000 6.69 320 17:31 24.04.2021
3781 Clear 12 1026 40 10000 5.66 310 16:57 24.04.2021
3782 Clear 11 1026 40 10000 5.66 310 16:37 24.04.2021
3783 Clear 12 1026 40 10000 5.14 310 15:56 24.04.2021
3784 Clear 12 1026 43 10000 6.69 350 15:30 24.04.2021
3785 Clear 12 1027 40 10000 4.12 340 14:37 24.04.2021
3786 Clear 12 1027 43 10000 5.14 330 13:56 24.04.2021
3787 Clear 12 1027 43 10000 5.14 330 13:37 24.04.2021
3788 Clouds 11 1027 46 10000 4.63 340 12:47 24.04.2021
3789 Clouds 10 1027 53 10000 4.63 310 12:18 24.04.2021
3790 Clouds 10 1027 57 10000 5.14 310 11:48 24.04.2021
3791 Clouds 9 1027 61 10000 4.63 330 11:20 24.04.2021
3792 Clouds 10 1027 61 10000 5.14 310 10:44 24.04.2021
3793 Clouds 9 1027 71 10000 5.66 300 10:19 24.04.2021
3794 Clouds 8 1027 76 10000 4.63 300 09:42 24.04.2021
3795 Clouds 5 1027 87 10000 3.6 300 08:26 24.04.2021
3796 Clouds 4 1027 93 10000 1.54 260 07:28 24.04.2021
3797 Clouds 4 1027 87 10000 2.06 300 05:39 24.04.2021
3798 Clouds 3 1027 87 10000 3.09 290 01:34 24.04.2021
3799 Clear 3 1028 87 10000 3.09 300 00:27 24.04.2021
3800 Clear 5 1028 70 10000 4.12 330 22:53 23.04.2021
3801 Clear 6 1028 65 10000 5.14 340 22:22 23.04.2021
3802 Clear 6 1028 61 10000 5.14 350 21:49 23.04.2021
3803 Clear 7 1028 61 10000 6.17 350 21:28 23.04.2021
3804 Clear 8 1027 46 10000 6.69 350 20:46 23.04.2021
3805 Clear 9 1027 43 10000 5.66 330 20:26 23.04.2021
3806 Clouds 9 1027 46 10000 5.66 350 19:58 23.04.2021
3807 Clouds 9 1027 46 10000 5.66 350 19:39 23.04.2021
3808 Clouds 10 1027 53 10000 5.66 350 19:21 23.04.2021
3809 Clouds 11 1027 50 10000 5.66 340 18:38 23.04.2021
3810 Clouds 12 1027 50 10000 5.66 330 18:18 23.04.2021
3811 Clear 12 1028 47 10000 5.14 340 17:41 23.04.2021
3812 Clear 12 1028 43 10000 5.66 320 17:21 23.04.2021
3813 Clouds 12 1028 40 10000 6.17 310 16:46 23.04.2021
3814 Clouds 12 1028 43 10000 6.69 320 16:26 23.04.2021
3815 Clouds 13 1028 47 10000 7.2 290 15:42 23.04.2021
3816 Clouds 13 1028 50 10000 6.69 300 14:51 23.04.2021
3817 Clouds 12 1028 50 10000 6.69 320 13:43 23.04.2021
3818 Clouds 11 1028 57 10000 6.69 300 13:25 23.04.2021
3819 Clouds 11 1028 53 10000 5.66 320 12:36 23.04.2021
3820 Clouds 11 1028 57 10000 6.69 310 11:58 23.04.2021
3821 Clouds 10 1028 57 10000 6.69 310 11:39 23.04.2021
3822 Clouds 10 1028 61 10000 6.69 310 11:18 23.04.2021
3823 Clouds 9 1028 61 10000 6.17 320 10:38 23.04.2021
3824 Clouds 8 1027 70 10000 6.17 300 10:19 23.04.2021
3825 Clouds 8 1027 70 10000 6.17 300 09:28 23.04.2021
3826 Clouds 7 1027 75 10000 5.14 280 08:45 23.04.2021
3827 Clouds 5 1027 81 10000 5.66 280 07:51 23.04.2021
3828 Clouds 5 1026 81 10000 4.63 280 07:29 23.04.2021
3829 Clouds 4 1026 87 10000 5.14 280 06:27 23.04.2021
3830 Clouds 5 1026 81 10000 4.63 290 04:23 23.04.2021
3831 Clouds 5 1025 81 10000 4.63 290 02:51 23.04.2021
3832 Clouds 5 1025 75 10000 5.14 300 00:35 23.04.2021
3833 Clouds 5 1026 75 10000 3.6 300 23:26 22.04.2021
3834 Clouds 5 1026 75 10000 4.12 300 22:42 22.04.2021
3835 Clouds 5 1025 75 10000 4.12 300 22:20 22.04.2021
3836 Clouds 6 1025 70 10000 5.66 300 21:46 22.04.2021
3837 Clouds 6 1025 65 10000 6.69 310 21:28 22.04.2021
3838 Clouds 7 1025 65 10000 6.69 310 20:55 22.04.2021
3839 Clouds 8 1025 57 10000 7.2 310 20:30 22.04.2021
3840 Clouds 9 1025 53 10000 8.75 310 19:55 22.04.2021
3841 Clouds 9 1025 53 10000 8.75 310 19:35 22.04.2021
3842 Clouds 9 1024 53 10000 8.23 310 18:53 22.04.2021
3843 Clouds 10 1024 50 10000 9.26 310 18:22 22.04.2021
3844 Clouds 11 1024 50 10000 8.23 320 17:56 22.04.2021
3845 Clouds 11 1024 46 10000 9.26 320 17:22 22.04.2021
3846 Clouds 11 1024 53 10000 8.75 310 16:56 22.04.2021
3847 Clouds 11 1024 53 10000 8.75 310 16:37 22.04.2021
3848 Clouds 11 1024 53 10000 8.75 310 16:18 22.04.2021
3849 Clouds 10 1024 57 10000 9.26 310 15:40 22.04.2021
3850 Clouds 10 1024 53 10000 7.72 320 15:19 22.04.2021
3851 Clouds 11 1024 53 10000 9.26 300 14:41 22.04.2021
3852 Clouds 10 1024 53 10000 7.72 320 14:20 22.04.2021
3853 Clouds 10 1023 53 10000 9.26 330 13:40 22.04.2021
3854 Clouds 10 1023 53 10000 9.26 330 13:20 22.04.2021
3855 Clouds 10 1023 53 10000 8.75 330 12:45 22.04.2021
3856 Clouds 10 1023 53 10000 8.23 310 12:22 22.04.2021
3857 Clouds 10 1023 53 10000 8.23 310 11:47 22.04.2021
3858 Clouds 9 1023 57 10000 8.75 320 11:23 22.04.2021
3859 Clouds 9 1023 57 10000 9.26 310 10:46 22.04.2021
3860 Clouds 8 1023 61 10000 8.23 310 10:24 22.04.2021
3861 Clouds 7 1022 65 10000 7.2 290 09:49 22.04.2021
3862 Clouds 7 1022 65 10000 7.2 300 09:30 22.04.2021
3863 Clouds 6 1022 65 10000 6.17 290 08:41 22.04.2021
3864 Clouds 6 1021 65 10000 6.69 290 08:22 22.04.2021
3865 Clouds 6 1021 70 10000 4.63 280 07:46 22.04.2021
3866 Clouds 5 1021 70 10000 4.12 300 07:24 22.04.2021
3867 Clouds 5 1021 70 10000 5.66 300 06:32 22.04.2021
3868 Clouds 5 1021 65 10000 5.14 290 05:27 22.04.2021
3869 Clouds 5 1021 65 10000 4.63 290 04:56 22.04.2021
3870 Clouds 4 1020 70 10000 3.09 280 01:39 22.04.2021
3871 Clouds 4 1020 65 10000 4.63 300 23:54 21.04.2021
3872 Clouds 4 1020 65 10000 4.63 300 23:34 21.04.2021
3873 Clouds 4 1020 56 10000 5.66 310 22:44 21.04.2021
3874 Clear 6 1020 56 10000 6.69 320 22:24 21.04.2021
3875 Clouds 6 1020 61 10000 5.66 330 21:50 21.04.2021
3876 Clouds 6 1019 57 10000 7.2 320 21:25 21.04.2021
3877 Clouds 6 1019 53 10000 7.2 320 20:59 21.04.2021
3878 Clouds 7 1019 49 10000 8.75 330 20:23 21.04.2021
3879 Clouds 7 1019 61 10000 8.23 340 19:45 21.04.2021
3880 Clouds 8 1018 53 10000 7.72 330 19:26 21.04.2021
3881 Clouds 9 1018 49 10000 8.75 330 18:50 21.04.2021
3882 Clouds 10 1018 50 10000 8.23 330 18:31 21.04.2021
3883 Clouds 10 1018 50 10000 8.23 330 18:31 21.04.2021
3884 Clouds 10 1018 50 10000 7.72 330 17:57 21.04.2021
3885 Clouds 10 1018 50 10000 7.72 330 17:39 21.04.2021
3886 Clouds 11 1018 43 10000 8.23 330 17:19 21.04.2021
3887 Clouds 11 1017 50 10000 7.2 310 16:32 21.04.2021
3888 Clouds 12 1017 50 10000 7.72 340 15:43 21.04.2021
3889 Clouds 11 1017 62 10000 7.2 330 15:20 21.04.2021
3890 Clouds 12 1017 58 10000 5.66 330 14:44 21.04.2021
3891 Clouds 11 1017 57 10000 7.2 330 14:23 21.04.2021
3892 Clouds 11 1017 62 10000 7.2 320 13:48 21.04.2021
3893 Clouds 10 1017 71 10000 6.69 320 13:21 21.04.2021
3894 Clouds 12 1017 71 10000 7.2 330 12:40 21.04.2021
3895 Clouds 13 1017 62 10000 5.14 340 11:59 21.04.2021
3896 Clouds 13 1017 62 10000 5.14 340 11:41 21.04.2021
3897 Clouds 13 1017 62 10000 5.14 340 11:41 21.04.2021
3898 Clouds 12 1016 71 10000 6.69 340 11:22 21.04.2021
3899 Clouds 12 1016 62 10000 3.6 290 10:39 21.04.2021
3900 Clear 11 1016 62 10000 4.12 310 09:56 21.04.2021
3901 Clear 9 1016 66 10000 2.57 290 09:21 21.04.2021
3902 Clear 8 1016 76 10000 3.6 300 08:44 21.04.2021
3903 Clear 6 1016 87 10000 1.54 240 08:23 21.04.2021
3904 Clear 5 1016 87 10000 1.54 240 07:52 21.04.2021
3905 Clear 3 1015 87 10000 1.54 240 07:28 21.04.2021
3906 Clear 3 1015 93 10000 1.54 230 05:57 21.04.2021
3907 Clear 5 1016 75 10000 2.57 280 02:28 21.04.2021
3908 Clear 8 1016 46 10000 4.12 20 00:20 21.04.2021
3909 Clear 9 1016 46 10000 4.12 10 23:39 20.04.2021
3910 Clear 10 1016 50 10000 5.66 10 22:49 20.04.2021
3911 Clear 11 1016 50 10000 4.12 360 22:24 20.04.2021
3912 Clear 12 1016 44 10000 4.63 360 21:57 20.04.2021
3913 Clear 13 1016 44 10000 4.63 360 21:39 20.04.2021
3914 Clear 12 1016 35 10000 4.12 20 21:21 20.04.2021
3915 Clear 14 1015 35 10000 4.63 20 20:38 20.04.2021
3916 Clear 15 1015 33 10000 5.14 30 20:20 20.04.2021
3917 Clear 16 1015 31 10000 4.63 20 19:47 20.04.2021
3918 Clear 16 1015 31 10000 3.6 360 19:28 20.04.2021
3919 Clear 17 1015 29 10000 3.09 350 18:46 20.04.2021
3920 Clear 17 1015 29 10000 4.12 340 18:28 20.04.2021
3921 Clear 18 1015 32 10000 2.57 360 17:41 20.04.2021
3922 Clear 18 1016 31 10000 3.09 350 16:53 20.04.2021
3923 Clear 18 1016 31 10000 3.09 350 16:34 20.04.2021
3924 Clear 18 1016 31 10000 3.6 330 15:40 20.04.2021
3925 Clear 18 1016 31 10000 3.09 0 15:19 20.04.2021
3926 Clear 18 1016 36 10000 2.06 0 14:45 20.04.2021
3927 Clear 17 1017 36 10000 2.57 0 14:22 20.04.2021
3928 Clear 16 1017 38 10000 3.09 20 13:29 20.04.2021
3929 Clear 16 1017 41 10000 2.57 0 12:55 20.04.2021
3930 Clear 15 1018 44 10000 2.06 20 12:27 20.04.2021
3931 Clear 15 1018 44 10000 2.57 30 11:47 20.04.2021
3932 Clear 15 1018 44 10000 2.57 30 11:47 20.04.2021
3933 Clear 13 1018 50 10000 3.09 30 11:28 20.04.2021
3934 Clear 12 1018 54 10000 2.06 40 10:48 20.04.2021
3935 Clear 11 1018 54 10000 2.06 70 10:26 20.04.2021
3936 Clear 10 1018 62 10000 2.06 80 09:50 20.04.2021
3937 Clear 8 1018 71 10000 2.57 50 09:18 20.04.2021
3938 Clear 7 1018 76 10000 2.06 50 08:42 20.04.2021
3939 Clear 5 1018 75 10000 1.54 50 07:59 20.04.2021
3940 Clear 4 1018 75 10000 1.54 50 07:32 20.04.2021
3941 Clear 5 1018 75 10000 2.06 20 05:42 20.04.2021
3942 Clear 5 1018 75 10000 2.57 20 04:57 20.04.2021
3943 Clear 6 1018 81 10000 1.54 40 04:24 20.04.2021
3944 Clear 8 1019 81 10000 2.06 30 00:51 20.04.2021
3945 Clear 8 1019 76 10000 3.09 50 00:20 20.04.2021
3946 Clear 10 1019 71 10000 4.63 20 23:31 19.04.2021
3947 Clear 10 1019 76 10000 2.06 320 22:45 19.04.2021
3948 Clear 10 1020 81 10000 1.54 300 22:26 19.04.2021
3949 Clear 10 1020 76 10000 1.54 270 21:43 19.04.2021
3950 Clouds 12 1020 71 10000 2.06 240 21:20 19.04.2021
3951 Clouds 12 1019 76 10000 2.06 240 20:41 19.04.2021
3952 Clouds 12 1020 71 10000 2.06 240 20:20 19.04.2021
3953 Clouds 13 1020 71 10000 2.06 240 19:50 19.04.2021
3954 Clouds 15 1020 58 10000 1.54 230 19:27 19.04.2021
3955 Clouds 15 1020 58 10000 1.54 210 18:59 19.04.2021
3956 Clouds 15 1020 58 10000 1.54 210 18:39 19.04.2021
3957 Clouds 15 1020 58 10000 1.54 0 18:19 19.04.2021
3958 Clouds 15 1020 58 10000 1.54 0 17:43 19.04.2021
3959 Clouds 16 1020 58 10000 1.54 0 17:23 19.04.2021
3960 Clouds 16 1020 58 10000 2.57 170 16:43 19.04.2021
3961 Clouds 16 1020 55 10000 2.57 0 16:24 19.04.2021
3962 Clouds 15 1021 58 10000 2.57 0 15:42 19.04.2021
3963 Clouds 15 1021 58 10000 1.54 0 15:23 19.04.2021
3964 Clouds 14 1021 67 10000 2.57 130 14:51 19.04.2021
3965 Clouds 14 1021 62 10000 2.57 90 14:30 19.04.2021
3966 Clouds 13 1021 71 10000 2.57 100 13:50 19.04.2021
3967 Clouds 13 1022 71 10000 2.57 90 13:27 19.04.2021
3968 Clouds 12 1022 76 10000 2.06 100 12:48 19.04.2021
3969 Clouds 11 1022 76 10000 2.57 70 12:27 19.04.2021
3970 Clouds 11 1022 76 10000 2.57 100 11:58 19.04.2021
3971 Clouds 9 1022 81 10000 2.57 100 11:27 19.04.2021
3972 Clouds 9 1022 81 10000 2.57 90 10:55 19.04.2021
3973 Clouds 9 1022 81 10000 2.57 90 10:36 19.04.2021
3974 Clouds 8 1022 87 10000 2.57 90 10:18 19.04.2021
3975 Clouds 8 1022 87 10000 2.57 90 10:18 19.04.2021
3976 Clouds 8 1022 87 10000 2.57 80 09:38 19.04.2021
3977 Clouds 8 1022 87 10000 4.12 70 09:20 19.04.2021
3978 Clouds 8 1021 87 9000 3.09 90 08:32 19.04.2021
3979 Clouds 7 1021 93 6000 3.09 100 07:49 19.04.2021
3980 Mist 7 1021 93 5000 4.12 80 07:21 19.04.2021
3981 Mist 7 1021 93 3500 4.12 80 06:44 19.04.2021
3982 Clear 8 1021 81 10000 2.06 40 02:41 19.04.2021
3983 Clouds 9 1021 81 10000 3.09 60 01:40 19.04.2021
3984 Clouds 10 1021 81 10000 3.09 70 00:33 19.04.2021
3985 Rain 10 1021 76 10000 5.14 70 23:19 18.04.2021
3986 Rain 11 1021 71 10000 3.6 60 22:53 18.04.2021
3987 Rain 11 1021 62 10000 4.12 70 22:31 18.04.2021
3988 Clouds 11 1021 62 10000 3.09 50 21:49 18.04.2021
3989 Clouds 12 1021 62 10000 2.06 80 21:27 18.04.2021
3990 Clouds 13 1021 58 10000 4.12 50 20:43 18.04.2021
3991 Clouds 13 1020 55 10000 4.12 50 20:24 18.04.2021
3992 Clouds 13 1020 55 10000 4.12 50 20:24 18.04.2021
3993 Clouds 15 1020 55 10000 3.6 40 19:56 18.04.2021
3994 Clouds 15 1020 55 10000 3.6 40 19:37 18.04.2021
3995 Clouds 15 1020 55 10000 4.12 40 19:18 18.04.2021
3996 Clouds 15 1020 55 10000 4.12 20 18:39 18.04.2021
3997 Clouds 16 1020 55 10000 4.12 30 18:21 18.04.2021
3998 Clouds 16 1020 51 10000 3.09 30 17:45 18.04.2021
3999 Clouds 16 1020 51 10000 1.54 70 17:26 18.04.2021
4000 Clouds 16 1020 55 10000 3.6 50 16:45 18.04.2021
4001 Clouds 17 1020 51 10000 4.63 60 16:24 18.04.2021
4002 Clouds 16 1020 51 10000 3.6 60 15:43 18.04.2021
4003 Clouds 17 1021 51 10000 3.09 30 15:25 18.04.2021
4004 Clear 16 1021 51 10000 4.63 30 14:46 18.04.2021
4005 Clear 16 1021 51 10000 4.12 20 14:21 18.04.2021
4006 Clear 15 1021 54 10000 4.12 10 13:55 18.04.2021
4007 Clear 15 1021 54 10000 4.12 10 13:33 18.04.2021
4008 Clear 14 1022 58 10000 2.57 20 12:50 18.04.2021
4009 Clear 13 1022 58 10000 2.57 10 12:26 18.04.2021
4010 Clear 13 1022 58 10000 2.06 20 11:42 18.04.2021
4011 Clear 12 1022 66 10000 2.06 30 11:21 18.04.2021
4012 Clear 11 1022 62 10000 2.06 50 10:47 18.04.2021
4013 Clear 10 1022 66 10000 2.57 60 10:22 18.04.2021
4014 Clear 9 1022 66 10000 3.09 50 09:53 18.04.2021
4015 Clear 9 1022 66 10000 3.09 50 09:34 18.04.2021
4016 Clear 8 1022 71 10000 3.09 30 08:57 18.04.2021
4017 Clear 8 1022 71 10000 3.09 30 08:35 18.04.2021
4018 Clouds 7 1022 76 10000 3.09 20 07:58 18.04.2021
4019 Clouds 6 1022 76 10000 3.09 20 07:37 18.04.2021
4020 Clouds 6 1022 75 10000 2.57 20 05:42 18.04.2021
4021 Clouds 7 1022 70 10000 4.12 20 05:24 18.04.2021
4022 Clear 6 1022 65 10000 2.06 350 02:39 18.04.2021
4023 Clear 6 1022 65 10000 2.06 350 02:39 18.04.2021
4024 Clear 6 1023 65 10000 2.06 360 02:20 18.04.2021
4025 Clear 7 1023 70 10000 2.57 30 00:37 18.04.2021
4026 Clear 7 1023 71 10000 3.09 20 23:38 17.04.2021
4027 Clear 7 1023 71 10000 2.57 330 22:51 17.04.2021
4028 Clear 7 1023 71 10000 2.57 320 22:31 17.04.2021
4029 Clear 8 1023 71 10000 3.09 310 21:50 17.04.2021
4030 Clear 8 1023 71 10000 3.09 310 21:50 17.04.2021
4031 Clear 8 1023 66 10000 4.12 320 21:30 17.04.2021
4032 Clear 10 1022 62 10000 5.14 310 20:51 17.04.2021
4033 Clear 11 1022 54 10000 3.6 320 20:28 17.04.2021
4034 Clear 12 1022 47 10000 3.6 360 19:46 17.04.2021
4035 Clouds 13 1022 47 10000 3.09 340 19:21 17.04.2021
4036 Clouds 13 1022 47 10000 3.6 350 18:56 17.04.2021
4037 Clouds 13 1022 47 10000 3.6 350 18:36 17.04.2021
4038 Clouds 13 1022 47 10000 3.6 350 18:36 17.04.2021
4039 Clouds 14 1022 44 10000 2.06 30 17:58 17.04.2021
4040 Clouds 14 1022 44 10000 2.06 30 17:39 17.04.2021
4041 Clouds 13 1023 47 10000 4.12 10 16:54 17.04.2021
4042 Clouds 13 1023 43 10000 4.12 30 16:28 17.04.2021
4043 Clear 13 1023 43 10000 4.12 10 15:50 17.04.2021
4044 Clear 13 1023 43 10000 5.14 350 14:50 17.04.2021
4045 Clear 13 1023 43 10000 5.14 350 14:50 17.04.2021
4046 Clouds 13 1023 46 10000 5.14 350 14:31 17.04.2021
4047 Clouds 13 1023 43 10000 5.14 350 13:48 17.04.2021
4048 Clear 12 1024 46 10000 5.14 350 13:25 17.04.2021
4049 Clear 12 1024 54 10000 5.14 340 12:42 17.04.2021
4050 Clear 11 1024 57 10000 5.14 340 12:18 17.04.2021
4051 Clear 10 1024 62 10000 5.14 330 11:41 17.04.2021
4052 Clear 9 1025 61 10000 5.14 320 11:22 17.04.2021
4053 Clouds 8 1025 76 10000 3.09 300 10:44 17.04.2021
4054 Clear 7 1025 75 10000 3.6 310 10:25 17.04.2021
4055 Clear 5 1025 87 10000 2.06 290 09:27 17.04.2021
4056 Clear 4 1025 93 10000 2.06 290 08:40 17.04.2021
4057 Clear 3 1025 93 10000 2.57 300 08:21 17.04.2021
4058 Clear 1 1025 100 10000 3.09 310 06:44 17.04.2021
4059 Clear 1 1026 93 10000 2.57 300 03:55 17.04.2021
4060 Clear 1 1026 93 10000 2.57 300 03:37 17.04.2021
4061 Clear 4 1027 65 10000 3.09 360 00:48 17.04.2021
4062 Clear 4 1027 65 10000 3.09 360 00:27 17.04.2021
4063 Clear 5 1027 65 10000 3.09 360 23:46 16.04.2021
4064 Clear 5 1027 61 10000 3.6 360 23:24 16.04.2021
4065 Clear 6 1027 53 10000 3.6 360 22:44 16.04.2021
4066 Clear 7 1027 46 10000 3.09 20 22:20 16.04.2021
4067 Clear 7 1027 46 10000 2.57 30 21:50 16.04.2021
4068 Clear 8 1027 43 10000 4.12 20 21:29 16.04.2021
4069 Clear 9 1027 43 10000 5.14 20 20:50 16.04.2021
4070 Clear 9 1026 40 10000 6.17 20 20:24 16.04.2021
4071 Clear 10 1026 40 10000 5.66 20 19:52 16.04.2021
4072 Clear 11 1026 37 10000 6.69 20 19:28 16.04.2021
4073 Clear 11 1026 37 10000 5.66 30 18:36 16.04.2021
4074 Clear 12 1026 35 10000 5.14 10 18:18 16.04.2021
4075 Clear 12 1026 37 10000 5.14 30 17:37 16.04.2021
4076 Clear 12 1026 35 10000 4.12 30 17:18 16.04.2021
4077 Clear 12 1026 32 10000 5.66 40 16:42 16.04.2021
4078 Clear 12 1026 35 10000 4.63 20 16:23 16.04.2021
4079 Clear 12 1027 32 10000 5.14 20 15:44 16.04.2021
4080 Clear 13 1027 35 10000 5.14 40 15:18 16.04.2021
4081 Clear 13 1027 37 10000 4.63 30 14:42 16.04.2021
4082 Clear 13 1027 35 10000 5.14 40 14:19 16.04.2021
4083 Clouds 12 1027 43 10000 5.14 20 13:45 16.04.2021
4084 Clouds 12 1027 50 10000 5.14 20 13:20 16.04.2021
4085 Clouds 11 1027 53 10000 6.69 60 12:47 16.04.2021
4086 Clouds 11 1028 53 10000 5.66 10 12:27 16.04.2021
4087 Clouds 11 1028 53 10000 4.63 40 11:52 16.04.2021
4088 Clear 10 1028 57 10000 5.14 30 11:26 16.04.2021
4089 Clear 10 1028 57 10000 4.12 10 10:53 16.04.2021
4090 Clear 8 1028 57 10000 3.6 350 10:34 16.04.2021
4091 Clear 9 1028 57 10000 4.12 10 10:34 16.04.2021
4092 Clear 8 1028 61 10000 3.09 10 09:53 16.04.2021
4093 Clear 7 1028 61 10000 2.06 20 09:24 16.04.2021
4094 Clear 6 1028 61 10000 3.6 360 08:55 16.04.2021
4095 Clear 5 1028 61 10000 3.6 360 08:36 16.04.2021
4096 Clear 5 1028 60 10000 1.54 320 08:18 16.04.2021
4097 Clear 3 1028 80 10000 2.57 310 07:35 16.04.2021
4098 Clear 3 1028 80 10000 2.57 310 07:35 16.04.2021
4099 Clear 1 1028 86 10000 2.06 310 06:58 16.04.2021
4100 Clear 1 1028 80 10000 2.06 310 05:34 16.04.2021
4101 Clear 2 1028 80 10000 2.06 300 04:21 16.04.2021
4102 Clear 4 1029 52 10000 2.57 10 00:58 16.04.2021
4103 Clear 4 1029 52 10000 2.57 10 00:40 16.04.2021
4104 Clear 4 1029 56 10000 2.57 10 00:19 16.04.2021
4105 Clear 4 1029 56 10000 3.09 10 23:41 15.04.2021
4106 Clear 4 1029 56 10000 4.12 10 23:22 15.04.2021
4107 Clear 4 1029 56 10000 4.12 10 23:22 15.04.2021
4108 Clear 5 1030 56 10000 3.09 10 22:40 15.04.2021
4109 Clear 5 1030 56 10000 3.09 360 22:21 15.04.2021
4110 Clear 5 1030 61 10000 3.6 10 21:42 15.04.2021
4111 Clear 6 1029 53 10000 3.6 360 21:20 15.04.2021
4112 Clear 7 1029 49 10000 5.14 350 20:44 15.04.2021
4113 Clear 7 1029 49 10000 5.14 350 20:44 15.04.2021
4114 Clear 8 1029 46 10000 5.14 360 20:23 15.04.2021
4115 Clear 8 1029 49 10000 4.63 360 19:44 15.04.2021
4116 Clear 9 1029 46 10000 5.66 20 19:26 15.04.2021
4117 Clear 9 1029 46 10000 5.66 20 18:43 15.04.2021
4118 Clear 9 1029 40 10000 5.66 30 18:21 15.04.2021
4119 Clear 10 1029 40 10000 6.69 20 17:55 15.04.2021
4120 Clear 10 1029 40 10000 6.69 20 17:55 15.04.2021
4121 Clear 10 1029 40 10000 6.69 20 17:36 15.04.2021
4122 Clear 10 1029 32 10000 4.63 10 16:59 15.04.2021
4123 Clear 11 1029 32 10000 4.63 10 16:40 15.04.2021
4124 Clear 11 1030 34 10000 5.14 10 16:22 15.04.2021
4125 Clear 10 1030 32 10000 4.63 10 15:45 15.04.2021
4126 Clear 10 1030 34 10000 4.63 360 15:26 15.04.2021
4127 Clear 10 1030 31 10000 4.63 40 14:41 15.04.2021
4128 Clear 10 1030 32 10000 4.12 360 14:23 15.04.2021
4129 Clear 10 1030 31 10000 2.06 30 13:46 15.04.2021
4130 Clear 10 1030 31 10000 2.06 30 13:46 15.04.2021
4131 Clear 10 1031 31 10000 3.09 360 13:19 15.04.2021
4132 Clear 10 1031 40 10000 4.12 50 12:46 15.04.2021
4133 Clouds 10 1031 43 10000 2.57 30 12:24 15.04.2021
4134 Clouds 9 1031 53 10000 3.09 20 11:47 15.04.2021
4135 Clouds 9 1031 53 10000 2.57 10 11:25 15.04.2021
4136 Clear 8 1031 57 10000 2.06 40 10:57 15.04.2021
4137 Clear 7 1031 65 10000 1.54 20 10:28 15.04.2021
4138 Clear 4 1031 81 10000 1.03 0 09:50 15.04.2021
4139 Clear 3 1031 87 10000 1.03 0 09:29 15.04.2021
4140 Clear 1 1031 93 10000 1.93 41 08:52 15.04.2021
4141 Clouds 0 1031 100 8000 1.03 250 08:24 15.04.2021
4142 Fog -2 1030 100 800 1.03 280 07:30 15.04.2021
4143 Fog -2 1030 93 800 0.51 310 06:56 15.04.2021
4144 Fog -2 1030 93 800 0.51 310 06:33 15.04.2021
4145 Fog -1 1030 93 10000 1.03 300 04:54 15.04.2021
4146 Clear 0 1029 93 10000 2.06 290 03:58 15.04.2021
4147 Clear 0 1030 93 10000 2.06 290 23:51 14.04.2021
4148 Clear 2 1029 86 10000 2.06 310 23:30 14.04.2021
4149 Clear 2 1029 80 10000 2.57 290 22:47 14.04.2021
4150 Clear 3 1029 75 10000 2.06 320 22:29 14.04.2021
4151 Clear 3 1029 70 10000 3.6 330 21:56 14.04.2021
4152 Clear 3 1029 70 10000 3.6 330 21:37 14.04.2021
4153 Clouds 4 1029 65 10000 4.63 350 21:18 14.04.2021
4154 Clouds 5 1029 65 10000 5.14 340 20:39 14.04.2021
4155 Clouds 6 1028 61 10000 6.17 340 20:20 14.04.2021
4156 Clouds 6 1028 57 10000 4.63 350 19:44 14.04.2021
4157 Clouds 7 1028 57 10000 5.66 330 19:19 14.04.2021
4158 Clouds 7 1028 53 10000 6.17 330 18:50 14.04.2021
4159 Clouds 8 1028 57 10000 6.17 320 18:19 14.04.2021
4160 Clouds 8 1028 49 10000 6.69 330 17:55 14.04.2021
4161 Clouds 8 1028 53 10000 7.2 330 17:24 14.04.2021
4162 Clouds 7 1029 61 10000 6.17 310 16:46 14.04.2021
4163 Clouds 7 1029 65 10000 8.23 330 16:22 14.04.2021
4164 Clouds 7 1029 57 10000 6.69 350 15:41 14.04.2021
4165 Clouds 8 1029 61 10000 7.72 330 15:22 14.04.2021
4166 Clouds 8 1029 61 10000 5.14 300 14:43 14.04.2021
4167 Clouds 8 1029 61 10000 5.14 300 14:43 14.04.2021
4168 Clouds 7 1029 65 10000 6.69 300 14:22 14.04.2021
4169 Clouds 7 1030 70 10000 5.66 300 13:49 14.04.2021
4170 Rain 7 1030 61 10000 2.06 60 12:58 14.04.2021
4171 Rain 6 1030 61 10000 2.06 60 12:35 14.04.2021
4172 Clouds 6 1030 70 10000 3.6 310 11:43 14.04.2021
4173 Clouds 6 1030 70 10000 3.6 310 11:24 14.04.2021
4174 Clouds 6 1030 75 10000 1.03 0 10:35 14.04.2021
4175 Clouds 5 1031 81 10000 2.57 350 09:59 14.04.2021
4176 Clouds 4 1031 81 10000 2.57 350 09:41 14.04.2021
4177 Clouds 3 1031 93 10000 1.54 280 09:19 14.04.2021
4178 Clouds 2 1030 93 10000 2.06 300 08:34 14.04.2021
4179 Clouds 0 1030 100 10000 1.03 270 07:58 14.04.2021
4180 Clouds 0 1030 93 10000 1.54 250 06:48 14.04.2021
4181 Clouds 0 1030 93 10000 1.54 270 06:23 14.04.2021
4182 Clouds 0 1030 93 10000 1.54 270 03:59 14.04.2021
4183 Clear 1 1030 93 10000 1.54 200 01:42 14.04.2021
4184 Clouds 2 1030 86 10000 0.51 0 00:34 14.04.2021
4185 Clouds 2 1030 87 10000 2.57 310 23:39 13.04.2021
4186 Clouds 3 1030 81 10000 4.12 310 23:21 13.04.2021
4187 Clouds 2 1030 81 10000 3.6 300 22:41 13.04.2021
4188 Clouds 3 1030 81 10000 3.6 290 22:19 13.04.2021
4189 Clouds 3 1030 81 10000 2.06 300 21:45 13.04.2021
4190 Clouds 4 1030 81 10000 3.6 300 21:27 13.04.2021
4191 Clouds 4 1030 81 10000 4.12 300 20:42 13.04.2021
4192 Clouds 5 1030 75 10000 5.66 310 20:21 13.04.2021
4193 Clouds 6 1030 70 10000 6.17 330 19:48 13.04.2021
4194 Clouds 6 1030 70 10000 8.23 310 19:24 13.04.2021
4195 Clouds 7 1029 70 10000 8.75 310 18:40 13.04.2021
4196 Clouds 8 1029 65 10000 6.17 310 17:56 13.04.2021
4197 Clouds 8 1029 65 10000 6.17 310 17:36 13.04.2021
4198 Clouds 8 1029 65 10000 6.69 320 17:18 13.04.2021
4199 Rain 8 1029 65 10000 6.17 340 16:43 13.04.2021
4200 Clouds 8 1029 61 10000 8.23 310 16:20 13.04.2021
4201 Clouds 8 1029 61 10000 6.69 300 15:44 13.04.2021
4202 Clouds 8 1029 61 10000 6.69 300 15:44 13.04.2021
4203 Clouds 8 1029 61 10000 6.69 300 15:44 13.04.2021
4204 Clouds 7 1030 81 10000 8.75 310 15:22 13.04.2021
4205 Rain 7 1029 65 10000 9.77 280 14:46 13.04.2021
4206 Clouds 8 1029 57 10000 7.72 290 14:19 13.04.2021
4207 Clouds 8 1030 61 10000 7.72 290 13:45 13.04.2021
4208 Clouds 8 1030 76 10000 6.17 320 13:24 13.04.2021
4209 Clouds 6 1030 87 10000 4.63 330 12:56 13.04.2021
4210 Clouds 6 1030 81 10000 13.38 300 12:28 13.04.2021
4211 Clouds 7 1030 65 10000 6.69 280 11:56 13.04.2021
4212 Clouds 7 1030 70 10000 5.66 290 11:30 13.04.2021
4213 Clouds 7 1030 70 10000 5.66 290 11:30 13.04.2021
4214 Clouds 6 1030 81 10000 5.66 290 10:53 13.04.2021
4215 Clouds 6 1029 81 10000 6.69 300 10:21 13.04.2021
4216 Clouds 5 1029 81 10000 6.69 260 09:59 13.04.2021
4217 Clouds 5 1029 81 10000 6.69 260 09:39 13.04.2021
4218 Clouds 4 1029 81 10000 5.66 270 09:18 13.04.2021
4219 Clouds 3 1029 87 10000 4.63 260 08:41 13.04.2021
4220 Clouds 3 1029 87 10000 4.63 260 08:41 13.04.2021
4221 Clouds 2 1029 93 10000 3.09 260 08:20 13.04.2021
4222 Clouds 1 1028 93 10000 3.6 260 07:36 13.04.2021
4223 Rain 1 1028 93 10000 5.14 260 06:31 13.04.2021
4224 Clouds 1 1027 93 10000 3.6 250 04:50 13.04.2021
4225 Clear 1 1027 86 10000 3.6 230 02:37 13.04.2021
4226 Clouds 1 1027 93 10000 3.6 230 00:33 13.04.2021
4227 Clouds 2 1027 86 10000 3.6 220 23:49 12.04.2021
4228 Clouds 2 1027 86 10000 2.57 220 23:26 12.04.2021
4229 Clouds 2 1027 86 10000 3.09 220 22:39 12.04.2021
4230 Clouds 2 1027 86 10000 3.09 210 22:18 12.04.2021
4231 Clouds 2 1027 86 10000 2.57 200 21:45 12.04.2021
4232 Clouds 3 1026 80 10000 2.57 240 21:20 12.04.2021
4233 Clouds 3 1026 81 10000 5.66 250 20:41 12.04.2021
4234 Clouds 4 1026 65 10000 7.2 270 20:22 12.04.2021
4235 Clouds 4 1026 65 10000 7.2 270 20:22 12.04.2021
4236 Clouds 5 1026 61 10000 6.17 260 19:55 12.04.2021
4237 Clouds 5 1026 61 10000 6.17 260 19:37 12.04.2021
4238 Clouds 6 1025 53 10000 6.17 280 19:18 12.04.2021
4239 Clouds 7 1025 70 10000 4.12 220 18:44 12.04.2021
4240 Clouds 6 1025 65 10000 4.63 230 18:25 12.04.2021
4241 Clouds 6 1025 70 10000 3.09 240 17:44 12.04.2021
4242 Clouds 6 1025 65 10000 10.29 280 17:23 12.04.2021
4243 Rain 7 1025 53 10000 6.69 240 16:47 12.04.2021
4244 Clouds 8 1025 53 10000 6.17 260 16:27 12.04.2021
4245 Clouds 8 1025 53 10000 8.23 270 15:49 12.04.2021
4246 Clouds 8 1024 53 10000 8.75 230 15:31 12.04.2021
4247 Clouds 8 1024 49 10000 6.69 280 14:53 12.04.2021
4248 Clouds 8 1024 49 10000 6.69 280 14:35 12.04.2021
4249 Clouds 9 1024 46 10000 7.72 250 13:49 12.04.2021
4250 Clouds 9 1024 53 10000 6.17 250 13:30 12.04.2021
4251 Clouds 8 1024 53 10000 6.69 250 12:56 12.04.2021
4252 Clouds 8 1024 53 10000 6.69 250 12:36 12.04.2021
4253 Clouds 8 1024 61 10000 6.17 260 12:18 12.04.2021
4254 Clouds 7 1024 70 10000 4.63 280 11:25 12.04.2021
4255 Clouds 6 1023 75 10000 5.14 270 10:49 12.04.2021
4256 Clouds 5 1023 81 10000 4.12 260 10:27 12.04.2021
4257 Clouds 4 1023 81 10000 3.6 250 09:51 12.04.2021
4258 Clouds 3 1023 87 10000 3.09 250 09:23 12.04.2021
4259 Clouds 1 1022 93 10000 2.06 230 08:40 12.04.2021
4260 Clouds 0 1022 93 10000 2.06 260 07:42 12.04.2021
4261 Clear 0 1021 93 10000 1.03 0 07:22 12.04.2021
4262 Clear 0 1021 93 10000 2.57 260 06:28 12.04.2021
4263 Clear 0 1021 93 10000 1.03 0 05:45 12.04.2021
4264 Clear 1 1019 86 10000 4.12 280 01:42 12.04.2021
4265 Clouds 3 1018 81 10000 5.14 290 00:26 12.04.2021
4266 Clouds 3 1017 81 10000 5.66 290 23:51 11.04.2021
4267 Clouds 3 1017 81 10000 5.66 290 23:31 11.04.2021
4268 Clouds 4 1017 75 10000 6.17 300 22:49 11.04.2021
4269 Clouds 4 1017 75 10000 5.14 300 22:27 11.04.2021
4270 Rain 4 1016 75 10000 5.14 300 21:58 11.04.2021
4271 Clouds 4 1016 75 10000 5.14 300 21:32 11.04.2021
4272 Clouds 4 1015 81 10000 5.14 310 20:59 11.04.2021
4273 Clouds 4 1015 81 10000 5.14 310 20:39 11.04.2021
4274 Clouds 4 1015 81 10000 4.63 300 20:20 11.04.2021
4275 Clouds 5 1014 75 10000 6.17 300 19:41 11.04.2021
4276 Clouds 5 1014 75 10000 7.2 300 19:19 11.04.2021
4277 Clouds 5 1013 75 10000 7.2 310 18:47 11.04.2021
4278 Clouds 6 1013 70 10000 6.69 310 18:27 11.04.2021
4279 Clouds 5 1013 70 10000 7.72 310 17:55 11.04.2021
4280 Clouds 5 1013 70 10000 7.72 310 17:37 11.04.2021
4281 Clouds 5 1013 75 10000 6.17 300 17:18 11.04.2021
4282 Clouds 5 1012 75 10000 7.2 300 16:40 11.04.2021
4283 Rain 5 1012 75 10000 7.2 290 16:20 11.04.2021
4284 Clouds 5 1011 75 10000 6.17 290 15:43 11.04.2021
4285 Clouds 5 1011 81 10000 6.69 290 15:22 11.04.2021
4286 Clouds 5 1010 81 10000 7.2 300 14:51 11.04.2021
4287 Clouds 5 1010 81 10000 6.69 290 14:21 11.04.2021
4288 Clouds 5 1009 87 10000 6.17 280 13:40 11.04.2021
4289 Clouds 5 1009 87 10000 6.69 270 13:22 11.04.2021
4290 Clouds 6 1008 81 10000 6.69 270 12:26 11.04.2021
4291 Clouds 5 1008 87 10000 7.2 260 11:57 11.04.2021
4292 Clouds 6 1008 87 10000 7.2 260 11:38 11.04.2021
4293 Clouds 5 1008 93 10000 7.2 250 11:19 11.04.2021
4294 Clouds 5 1007 93 10000 7.2 250 10:44 11.04.2021
4295 Clouds 6 1006 93 9000 6.69 250 10:22 11.04.2021
4296 Clouds 7 1006 87 10000 5.66 260 09:49 11.04.2021
4297 Drizzle 7 1005 93 6000 3.09 220 09:26 11.04.2021
4298 Rain 7 1005 100 4200 2.57 200 08:40 11.04.2021
4299 Rain 7 1005 93 4200 4.12 150 07:54 11.04.2021
4300 Rain 8 1005 93 4200 4.12 150 07:19 11.04.2021
4301 Rain 8 1005 93 6000 4.12 150 05:48 11.04.2021
4302 Rain 8 1005 93 7000 5.14 140 05:23 11.04.2021
4303 Clouds 7 1006 100 6000 4.12 130 04:51 11.04.2021
4304 Rain 7 1006 100 4500 5.14 130 04:33 11.04.2021
4305 Clouds 6 1009 93 4500 7.2 80 01:27 11.04.2021
4306 Clouds 6 1009 87 8000 7.2 80 00:32 11.04.2021
4307 Rain 6 1010 87 10000 7.2 70 23:46 10.04.2021
4308 Rain 5 1012 93 10000 6.17 80 22:57 10.04.2021
4309 Rain 5 1012 87 10000 6.69 70 22:30 10.04.2021
4310 Rain 6 1012 87 10000 6.69 70 21:54 10.04.2021
4311 Rain 6 1012 87 10000 6.69 70 21:32 10.04.2021
4312 Rain 6 1013 81 10000 4.63 80 20:58 10.04.2021
4313 Rain 6 1013 81 10000 4.63 80 20:40 10.04.2021
4314 Rain 7 1013 76 10000 4.12 70 20:21 10.04.2021
4315 Rain 7 1013 76 10000 4.63 70 19:43 10.04.2021
4316 Rain 7 1014 70 10000 4.63 70 19:25 10.04.2021
4317 Rain 7 1014 70 10000 4.63 80 18:44 10.04.2021
4318 Rain 8 1014 61 10000 5.14 80 18:25 10.04.2021
4319 Rain 8 1014 61 10000 4.12 100 17:36 10.04.2021
4320 Clouds 8 1015 61 10000 4.12 110 16:54 10.04.2021
4321 Rain 9 1015 53 10000 3.6 90 16:26 10.04.2021
4322 Rain 9 1015 53 10000 3.09 120 15:53 10.04.2021
4323 Rain 9 1016 53 10000 3.6 50 14:57 10.04.2021
4324 Clouds 9 1016 53 10000 3.6 50 14:37 10.04.2021
4325 Clouds 9 1016 53 10000 3.09 100 13:59 10.04.2021
4326 Clouds 9 1016 53 10000 3.09 100 13:40 10.04.2021
4327 Clouds 8 1017 65 10000 2.57 90 12:49 10.04.2021
4328 Clouds 7 1016 61 10000 3.09 40 12:26 10.04.2021
4329 Clouds 7 1016 65 10000 3.09 70 11:47 10.04.2021
4330 Clouds 6 1016 70 10000 3.09 70 11:24 10.04.2021
4331 Clouds 6 1016 70 10000 3.6 80 10:52 10.04.2021
4332 Clouds 6 1015 70 10000 4.12 60 10:31 10.04.2021
4333 Clear 5 1015 75 10000 3.6 50 09:45 10.04.2021
4334 Clear 5 1015 70 10000 3.09 30 09:20 10.04.2021
4335 Clear 5 1015 70 10000 2.57 30 08:47 10.04.2021
4336 Clear 5 1015 65 10000 2.57 20 08:28 10.04.2021
4337 Clear 4 1014 75 10000 2.57 30 07:38 10.04.2021
4338 Clouds 4 1014 75 10000 2.57 20 07:19 10.04.2021
4339 Clouds 4 1014 81 10000 2.57 30 06:24 10.04.2021
4340 Clouds 4 1013 87 10000 3.6 340 03:49 10.04.2021
4341 Clouds 4 1013 93 10000 1.54 310 02:51 10.04.2021
4342 Clouds 4 1013 87 10000 2.06 300 02:21 10.04.2021
4343 Clouds 4 1013 93 10000 1.03 230 00:43 10.04.2021
4344 Clouds 4 1013 93 10000 0.51 180 00:21 10.04.2021
4345 Clouds 4 1013 93 10000 0.51 280 23:41 09.04.2021
4346 Clouds 5 1013 87 10000 0.51 290 22:59 09.04.2021
4347 Clouds 5 1013 87 10000 0.51 290 22:38 09.04.2021
4348 Clouds 5 1013 87 10000 0.51 290 22:38 09.04.2021
4349 Clouds 5 1013 87 10000 2.06 310 21:59 09.04.2021
4350 Clouds 5 1013 87 10000 2.06 310 21:38 09.04.2021
4351 Clouds 6 1013 81 10000 2.57 300 21:19 09.04.2021
4352 Clouds 6 1012 81 10000 3.09 300 20:43 09.04.2021
4353 Clouds 6 1012 87 10000 3.09 300 20:23 09.04.2021
4354 Clouds 6 1012 87 10000 3.6 310 19:54 09.04.2021
4355 Clouds 6 1012 87 10000 3.6 310 19:36 09.04.2021
4356 Clouds 7 1012 87 10000 4.63 310 19:18 09.04.2021
4357 Clouds 7 1012 81 10000 6.17 330 18:41 09.04.2021
4358 Rain 8 1012 76 10000 7.2 340 18:19 09.04.2021
4359 Clouds 9 1011 62 10000 6.69 270 17:37 09.04.2021
4360 Clouds 10 1011 57 10000 6.69 270 16:56 09.04.2021
4361 Clouds 11 1011 57 10000 6.69 270 16:35 09.04.2021
4362 Clouds 10 1011 57 10000 6.69 250 15:57 09.04.2021
4363 Clouds 10 1011 57 10000 6.69 250 15:37 09.04.2021
4364 Clouds 11 1011 58 10000 7.2 250 15:18 09.04.2021
4365 Clouds 11 1011 54 10000 8.75 260 14:40 09.04.2021
4366 Clouds 11 1011 58 10000 7.72 240 13:53 09.04.2021
4367 Clouds 11 1011 54 10000 9.26 230 13:26 09.04.2021
4368 Clouds 11 1011 57 10000 7.72 230 12:54 09.04.2021
4369 Clouds 11 1011 57 10000 7.72 230 12:36 09.04.2021
4370 Clear 10 1011 61 10000 7.72 240 11:46 09.04.2021
4371 Clear 9 1011 61 10000 7.72 230 11:23 09.04.2021
4372 Clear 9 1011 61 10000 7.72 230 10:48 09.04.2021
4373 Clear 8 1011 65 10000 7.72 230 10:30 09.04.2021
4374 Clear 7 1011 61 10000 7.72 230 09:50 09.04.2021
4375 Clear 7 1012 65 10000 6.17 230 09:24 09.04.2021
4376 Clear 6 1012 61 10000 6.17 230 08:53 09.04.2021
4377 Clouds 5 1012 65 10000 6.69 230 08:18 09.04.2021
4378 Clouds 5 1012 65 10000 4.63 220 07:18 09.04.2021
4379 Clouds 4 1012 65 10000 4.12 210 06:21 09.04.2021
4380 Clear 4 1014 65 10000 4.12 200 03:54 09.04.2021
4381 Clear 4 1015 60 10000 4.63 200 02:18 09.04.2021
4382 Clear 5 1016 56 10000 5.14 210 00:38 09.04.2021
4383 Clouds 5 1017 56 10000 6.17 210 00:19 09.04.2021
4384 Clouds 6 1017 52 10000 5.66 210 23:30 08.04.2021
4385 Clouds 6 1018 52 10000 5.14 210 22:46 08.04.2021
4386 Clouds 6 1018 52 10000 5.14 220 22:26 08.04.2021
4387 Clouds 6 1018 52 10000 5.14 210 21:57 08.04.2021
4388 Clouds 6 1018 52 10000 5.14 210 21:38 08.04.2021
4389 Clouds 6 1018 52 10000 5.14 210 21:19 08.04.2021
4390 Clouds 6 1018 60 10000 4.12 210 20:53 08.04.2021
4391 Clouds 6 1018 60 10000 4.12 210 20:32 08.04.2021
4392 Clear 6 1019 52 10000 5.66 230 19:55 08.04.2021
4393 Clear 7 1019 56 10000 6.17 230 19:24 08.04.2021
4394 Clouds 7 1019 49 10000 7.72 240 18:52 08.04.2021
4395 Clouds 7 1019 53 10000 6.69 240 18:24 08.04.2021
4396 Clouds 7 1019 53 10000 8.23 230 17:52 08.04.2021
4397 Clouds 7 1020 53 10000 7.2 230 17:26 08.04.2021
4398 Clouds 7 1020 53 10000 7.2 230 16:57 08.04.2021
4399 Clouds 7 1020 53 10000 7.2 230 16:36 08.04.2021
4400 Clouds 6 1021 61 10000 6.17 240 15:55 08.04.2021
4401 Clouds 6 1021 61 10000 6.17 240 15:36 08.04.2021
4402 Clouds 6 1021 61 10000 6.69 240 15:18 08.04.2021
4403 Clouds 6 1021 65 10000 6.69 230 14:39 08.04.2021
4404 Clouds 6 1021 56 10000 7.2 250 14:19 08.04.2021
4405 Clouds 6 1021 61 10000 7.72 260 13:43 08.04.2021
4406 Clouds 6 1021 70 10000 6.17 250 13:23 08.04.2021
4407 Clouds 6 1021 65 10000 7.72 260 12:49 08.04.2021
4408 Clouds 6 1021 70 10000 8.23 260 12:30 08.04.2021
4409 Clouds 5 1021 75 10000 7.2 270 11:56 08.04.2021
4410 Clouds 5 1021 75 10000 6.17 260 11:21 08.04.2021
4411 Clouds 4 1021 81 10000 7.2 270 10:49 08.04.2021
4412 Clouds 4 1021 81 10000 7.2 260 10:25 08.04.2021
4413 Clouds 3 1021 81 10000 6.17 250 09:43 08.04.2021
4414 Clouds 2 1020 80 10000 5.66 250 08:54 08.04.2021
4415 Clouds 2 1020 80 10000 5.66 250 08:36 08.04.2021
4416 Clouds 1 1020 86 10000 5.14 250 08:18 08.04.2021
4417 Clouds 1 1020 93 10000 4.12 250 07:42 08.04.2021
4418 Clouds 1 1019 86 10000 5.14 260 05:45 08.04.2021
4419 Clouds 1 1016 93 10000 6.17 270 01:25 08.04.2021
4420 Clouds 2 1016 87 10000 7.2 270 00:30 08.04.2021
4421 Clouds 1 1016 93 10000 5.66 260 23:47 07.04.2021
4422 Clouds 2 1015 80 10000 5.14 270 23:25 07.04.2021
4423 Clouds 1 1015 86 10000 5.66 280 22:56 07.04.2021
4424 Clouds 1 1015 86 10000 5.66 280 22:38 07.04.2021
4425 Snow 2 1015 80 10000 6.17 280 22:19 07.04.2021
4426 Clouds 1 1014 86 10000 5.66 260 21:34 07.04.2021
4427 Clouds 2 1014 81 9000 6.17 280 20:52 07.04.2021
4428 Clouds 2 1013 81 10000 6.17 290 20:29 07.04.2021
4429 Clouds 3 1013 81 10000 7.72 300 19:52 07.04.2021
4430 Clouds 3 1013 81 10000 7.72 300 19:34 07.04.2021
4431 Clouds 3 1013 87 10000 8.23 300 18:59 07.04.2021
4432 Clouds 3 1013 87 10000 8.23 300 18:41 07.04.2021
4433 Clouds 4 1012 81 10000 10.8 300 18:18 07.04.2021
4434 Clouds 4 1012 87 10000 10.8 310 17:45 07.04.2021
4435 Rain 5 1011 81 10000 6.69 300 17:26 07.04.2021
4436 Clouds 5 1011 81 10000 8.23 300 16:45 07.04.2021
4437 Clouds 5 1011 81 8000 7.2 290 16:21 07.04.2021
4438 Clouds 6 1010 87 10000 5.66 310 15:53 07.04.2021
4439 Rain 6 1010 87 10000 5.66 310 15:34 07.04.2021
4440 Clouds 5 1010 93 10000 7.2 290 14:48 07.04.2021
4441 Rain 5 1010 87 10000 7.2 280 14:25 07.04.2021
4442 Clouds 5 1010 87 8000 6.69 280 13:45 07.04.2021
4443 Rain 5 1010 81 10000 6.69 270 13:20 07.04.2021
4444 Clouds 5 1009 81 10000 6.69 250 12:47 07.04.2021
4445 Clouds 5 1009 81 10000 6.17 250 12:21 07.04.2021
4446 Clouds 5 1009 81 10000 6.17 250 12:21 07.04.2021
4447 Clouds 4 1009 87 10000 6.69 240 11:45 07.04.2021
4448 Clouds 3 1009 81 10000 7.2 250 11:24 07.04.2021
4449 Clouds 2 1009 87 10000 7.2 250 10:50 07.04.2021
4450 Clouds 1 1009 86 10000 6.17 240 09:51 07.04.2021
4451 Clouds 1 1009 86 10000 5.14 240 09:30 07.04.2021
4452 Clouds 1 1009 86 10000 5.14 240 09:30 07.04.2021
4453 Clouds 1 1009 86 10000 5.14 240 08:59 07.04.2021
4454 Clouds 1 1009 86 10000 5.14 240 08:33 07.04.2021
4455 Clouds 0 1008 93 10000 4.63 230 07:57 07.04.2021
4456 Clouds -1 1009 93 10000 5.14 230 07:29 07.04.2021
4457 Clouds -1 1008 86 10000 5.14 240 06:59 07.04.2021
4458 Clear -1 1008 86 10000 4.63 240 06:18 07.04.2021
4459 Clouds 0 1008 86 10000 5.14 250 03:35 07.04.2021
4460 Clouds 0 1007 93 10000 5.66 270 23:52 06.04.2021
4461 Clouds 1 1007 86 10000 5.66 280 23:23 06.04.2021
4462 Clouds 0 1007 93 10000 4.12 270 22:59 06.04.2021
4463 Snow 0 1007 93 10000 4.63 270 22:22 06.04.2021
4464 Snow 1 1007 86 6000 5.66 280 21:59 06.04.2021
4465 Snow 1 1007 86 6000 5.66 280 21:39 06.04.2021
4466 Snow 0 1007 93 10000 5.66 270 21:21 06.04.2021
4467 Snow 1 1006 86 10000 5.14 280 20:52 06.04.2021
4468 Snow 1 1006 93 10000 5.14 280 20:22 06.04.2021
4469 Snow 1 1006 100 2200 8.23 300 19:52 06.04.2021
4470 Snow 1 1006 100 2200 8.23 300 19:33 06.04.2021
4471 Rain 2 1006 81 10000 5.66 300 18:51 06.04.2021
4472 Clouds 2 1006 81 10000 5.66 300 18:32 06.04.2021
4473 Clouds 2 1006 87 10000 10.8 290 17:54 06.04.2021
4474 Rain 3 1006 87 10000 10.8 290 17:36 06.04.2021
4475 Clouds 3 1006 75 10000 7.72 290 17:18 06.04.2021
4476 Clouds 3 1006 87 10000 5.66 270 16:40 06.04.2021
4477 Clouds 2 1006 93 6000 5.14 310 15:49 06.04.2021
4478 Snow 3 1006 86 4500 6.17 290 15:24 06.04.2021
4479 Snow 4 1006 70 10000 6.69 290 14:40 06.04.2021
4480 Snow 3 1006 87 10000 5.66 300 14:21 06.04.2021
4481 Clouds 3 1006 81 8000 5.14 310 13:46 06.04.2021
4482 Snow 3 1007 75 10000 9.26 270 13:25 06.04.2021
4483 Rain 3 1007 81 10000 7.72 260 12:43 06.04.2021
4484 Rain 3 1007 81 10000 7.72 260 12:43 06.04.2021
4485 Clouds 3 1007 87 10000 8.75 270 12:24 06.04.2021
4486 Clouds 3 1007 87 10000 7.72 270 11:55 06.04.2021
4487 Clouds 3 1007 87 10000 7.72 270 11:36 06.04.2021
4488 Clouds 2 1007 86 1800 7.72 270 11:18 06.04.2021
4489 Rain 2 1007 80 10000 6.69 270 10:39 06.04.2021
4490 Clouds 2 1007 80 10000 6.17 270 10:19 06.04.2021
4491 Snow 1 1007 86 5000 6.17 270 09:43 06.04.2021
4492 Snow 1 1007 86 10000 6.17 260 08:50 06.04.2021
4493 Clouds 0 1007 93 10000 5.66 250 08:19 06.04.2021
4494 Clouds 0 1007 86 10000 5.14 270 06:57 06.04.2021
4495 Clouds 0 1007 93 10000 6.69 270 06:24 06.04.2021
4496 Snow -2 1007 93 10000 3.09 260 03:54 06.04.2021
4497 Snow -1 1007 100 10000 3.6 240 00:49 06.04.2021
4498 Snow 0 1007 93 10000 3.09 250 00:22 06.04.2021
4499 Snow 0 1007 93 10000 4.12 270 23:50 05.04.2021
4500 Clear 0 1006 86 10000 5.14 250 23:28 05.04.2021
4501 Clear 0 1007 86 10000 6.17 260 22:54 05.04.2021
4502 Clear 0 1007 86 10000 6.17 260 22:35 05.04.2021
4503 Clear 0 1007 86 10000 5.14 250 21:48 05.04.2021
4504 Clear 0 1007 93 10000 3.09 230 21:27 05.04.2021
4505 Snow 0 1007 93 2500 4.63 300 20:49 05.04.2021
4506 Snow 1 1007 93 2500 8.75 320 20:31 05.04.2021
4507 Snow 2 1006 69 10000 7.2 260 19:55 05.04.2021
4508 Rain 2 1006 69 10000 7.2 260 19:36 05.04.2021
4509 Clouds 3 1006 60 10000 10.29 290 19:18 05.04.2021
4510 Clouds 3 1006 60 10000 7.72 270 18:40 05.04.2021
4511 Clouds 3 1006 60 10000 7.72 270 18:40 05.04.2021
4512 Clouds 3 1006 65 10000 10.29 290 18:19 05.04.2021
4513 Clouds 3 1005 60 10000 7.2 290 17:47 05.04.2021
4514 Rain 3 1005 65 10000 8.75 300 17:23 05.04.2021
4515 Snow 3 1006 75 5000 12.35 310 16:45 05.04.2021
4516 Snow 3 1006 75 5000 12.35 310 16:45 05.04.2021
4517 Rain 4 1005 48 10000 11.32 290 16:22 05.04.2021
4518 Clouds 4 1005 56 10000 9.77 290 15:57 05.04.2021
4519 Clouds 4 1005 56 10000 9.77 290 15:32 05.04.2021
4520 Clouds 5 1004 60 10000 11.32 300 14:59 05.04.2021
4521 Rain 3 1004 60 10000 11.32 300 14:36 05.04.2021
4522 Clouds 3 1004 69 10000 14.4 300 13:52 05.04.2021
4523 Clouds 4 1003 60 10000 11.32 310 13:27 05.04.2021
4524 Clouds 3 1003 75 10000 7.2 300 12:46 05.04.2021
4525 Clouds 3 1003 75 10000 9.77 310 12:25 05.04.2021
4526 Snow 1 1003 93 10000 8.75 320 11:48 05.04.2021
4527 Snow 1 1003 93 1200 12.35 320 11:28 05.04.2021
4528 Snow 2 1002 80 10000 9.26 290 10:55 05.04.2021
4529 Rain 2 1002 80 10000 9.26 290 10:35 05.04.2021
4530 Clouds 3 1002 81 10000 10.8 310 09:48 05.04.2021
4531 Clouds 3 1001 87 10000 7.2 290 09:26 05.04.2021
4532 Rain 3 1001 87 10000 8.75 310 08:47 05.04.2021
4533 Drizzle 4 1001 87 6000 8.75 300 08:26 05.04.2021
4534 Rain 4 1001 93 10000 9.77 310 07:57 05.04.2021
4535 Clouds 5 1000 93 3800 8.75 270 07:29 05.04.2021
4536 Clouds 5 1004 81 10000 8.23 240 03:42 05.04.2021
4537 Clear 5 1010 81 10000 7.72 230 00:54 05.04.2021
4538 Clear 5 1011 81 10000 6.69 240 00:19 05.04.2021
4539 Clear 5 1011 81 10000 6.69 230 23:32 04.04.2021
4540 Clear 6 1013 81 10000 4.63 230 22:58 04.04.2021
4541 Clear 5 1013 81 10000 4.63 230 22:34 04.04.2021
4542 Clear 5 1013 81 10000 4.63 230 22:34 04.04.2021
4543 Clouds 6 1014 75 10000 6.17 240 21:57 04.04.2021
4544 Clouds 7 1015 70 10000 5.66 240 21:21 04.04.2021
4545 Clouds 7 1015 76 10000 6.17 240 20:43 04.04.2021
4546 Clouds 8 1016 71 10000 6.17 250 20:23 04.04.2021
4547 Clouds 8 1017 71 10000 6.17 250 19:40 04.04.2021
4548 Clouds 8 1017 71 10000 7.2 250 19:19 04.04.2021
4549 Clouds 8 1017 66 10000 5.14 260 18:51 04.04.2021
4550 Clouds 8 1018 66 10000 6.69 270 18:25 04.04.2021
4551 Clouds 8 1019 71 10000 5.14 280 17:59 04.04.2021
4552 Clouds 8 1019 71 10000 6.69 270 17:25 04.04.2021
4553 Clouds 8 1019 71 10000 6.69 270 17:25 04.04.2021
4554 Clouds 8 1019 66 10000 6.17 270 16:57 04.04.2021
4555 Clouds 8 1019 66 10000 6.17 270 16:39 04.04.2021
4556 Clouds 7 1020 76 10000 5.66 260 15:54 04.04.2021
4557 Clouds 8 1021 76 10000 6.17 270 15:32 04.04.2021
4558 Clouds 7 1021 76 10000 6.69 260 14:40 04.04.2021
4559 Clouds 7 1022 76 10000 6.17 260 14:21 04.04.2021
4560 Clouds 7 1022 70 10000 4.63 270 13:27 04.04.2021
4561 Clouds 7 1023 70 10000 5.66 270 12:52 04.04.2021
4562 Clouds 7 1023 75 10000 5.14 270 12:28 04.04.2021
4563 Clouds 6 1023 75 10000 4.12 270 11:50 04.04.2021
4564 Drizzle 6 1023 81 10000 4.12 270 11:30 04.04.2021
4565 Drizzle 5 1023 87 10000 4.12 270 10:55 04.04.2021
4566 Drizzle 5 1023 87 10000 4.12 270 10:32 04.04.2021
4567 Drizzle 5 1023 87 10000 4.63 270 09:52 04.04.2021
4568 Drizzle 5 1024 87 10000 3.6 270 09:23 04.04.2021
4569 Drizzle 4 1024 93 10000 4.12 270 08:49 04.04.2021
4570 Drizzle 5 1024 81 10000 3.6 270 08:31 04.04.2021
4571 Clouds 5 1024 75 10000 4.63 280 07:21 04.04.2021
4572 Clouds 5 1024 75 10000 3.09 270 06:33 04.04.2021
4573 Clouds 5 1025 75 10000 3.09 290 03:25 04.04.2021
4574 Clouds 4 1025 81 10000 2.57 300 01:18 04.04.2021
4575 Clouds 5 1026 81 10000 4.12 310 00:19 04.04.2021
4576 Clouds 5 1025 81 10000 4.12 300 23:47 03.04.2021
4577 Clouds 4 1025 81 10000 4.12 300 23:18 03.04.2021
4578 Clouds 5 1026 70 10000 4.63 290 22:48 03.04.2021
4579 Clouds 5 1026 70 10000 5.14 300 22:19 03.04.2021
4580 Clouds 5 1026 70 10000 5.14 300 21:47 03.04.2021
4581 Clouds 6 1026 70 10000 5.14 310 21:23 03.04.2021
4582 Clouds 6 1025 70 10000 6.69 320 20:49 03.04.2021
4583 Clouds 7 1025 65 10000 6.17 330 20:27 03.04.2021
4584 Clouds 7 1025 66 10000 5.14 320 19:50 03.04.2021
4585 Clouds 8 1025 66 10000 4.63 340 19:24 03.04.2021
4586 Clouds 9 1025 66 10000 6.17 330 18:47 03.04.2021
4587 Clouds 10 1025 62 10000 6.17 320 18:24 03.04.2021
4588 Clouds 10 1025 57 10000 6.17 320 17:51 03.04.2021
4589 Clouds 11 1025 50 10000 7.2 310 17:25 03.04.2021
4590 Clouds 12 1025 47 10000 7.2 320 16:51 03.04.2021
4591 Clouds 12 1025 43 10000 6.69 330 16:21 03.04.2021
4592 Clouds 12 1025 37 10000 6.69 310 15:50 03.04.2021
4593 Clouds 12 1026 43 10000 6.17 320 15:22 03.04.2021
4594 Clouds 12 1026 46 10000 6.17 310 14:44 03.04.2021
4595 Clouds 12 1026 43 10000 6.17 330 14:24 03.04.2021
4596 Clouds 12 1026 40 10000 7.2 320 13:51 03.04.2021
4597 Clouds 12 1026 50 10000 6.17 310 13:24 03.04.2021
4598 Clouds 12 1026 62 10000 5.66 300 12:56 03.04.2021
4599 Clouds 11 1026 66 10000 4.12 310 12:32 03.04.2021
4600 Clouds 11 1026 71 10000 4.12 300 11:40 03.04.2021
4601 Clear 9 1026 76 10000 1.54 290 11:19 03.04.2021
4602 Clear 8 1026 81 10000 2.57 310 10:43 03.04.2021
4603 Clear 7 1026 87 10000 2.06 290 10:25 03.04.2021
4604 Fog 5 1025 100 3000 2.06 300 09:29 03.04.2021
4605 Fog 4 1025 100 1000 2.57 310 08:59 03.04.2021
4606 Fog 3 1025 100 400 3.6 320 08:31 03.04.2021
4607 Mist 3 1024 100 4000 3.09 310 07:30 03.04.2021
4608 Mist 3 1024 93 5000 4.12 310 06:53 03.04.2021
4609 Clear 3 1023 93 10000 3.6 300 03:53 03.04.2021
4610 Clouds 3 1023 87 10000 3.09 300 02:54 03.04.2021
4611 Clouds 3 1023 87 10000 3.09 290 02:27 03.04.2021
4612 Clouds 5 1022 70 10000 5.14 320 00:31 03.04.2021
4613 Clouds 5 1022 81 10000 4.63 310 23:59 02.04.2021
4614 Clouds 5 1022 81 10000 5.66 320 23:29 02.04.2021
4615 Clouds 5 1022 75 10000 6.17 310 22:56 02.04.2021
4616 Clouds 5 1022 75 10000 6.17 310 22:37 02.04.2021
4617 Clouds 6 1022 81 10000 6.69 320 21:59 02.04.2021
4618 Clouds 6 1022 81 10000 6.69 320 21:40 02.04.2021
4619 Clouds 6 1022 75 10000 6.69 310 21:18 02.04.2021
4620 Clouds 6 1022 81 10000 6.69 310 20:38 02.04.2021
4621 Clouds 6 1022 81 10000 6.69 310 20:20 02.04.2021
4622 Clouds 6 1022 76 10000 8.23 320 19:41 02.04.2021
4623 Clouds 6 1022 81 10000 6.69 310 19:22 02.04.2021
4624 Clouds 6 1022 87 10000 6.17 300 18:46 02.04.2021
4625 Clouds 6 1022 87 10000 6.69 310 18:28 02.04.2021
4626 Clouds 7 1022 81 10000 7.72 320 17:55 02.04.2021
4627 Clouds 7 1022 70 10000 7.2 300 17:24 02.04.2021
4628 Clouds 8 1023 65 10000 8.75 320 16:24 02.04.2021
4629 Clouds 8 1023 65 10000 8.75 320 15:43 02.04.2021
4630 Clouds 8 1023 61 10000 8.23 310 15:20 02.04.2021
4631 Clouds 8 1024 65 10000 6.69 310 14:33 02.04.2021
4632 Clouds 7 1024 65 10000 8.23 310 13:50 02.04.2021
4633 Clouds 7 1024 70 10000 7.72 320 13:28 02.04.2021
4634 Clouds 7 1024 70 10000 8.23 320 12:58 02.04.2021
4635 Clouds 6 1024 70 10000 8.23 320 12:36 02.04.2021
4636 Clouds 7 1024 70 10000 8.23 310 12:18 02.04.2021
4637 Clouds 7 1024 70 10000 7.2 310 11:44 02.04.2021
4638 Clouds 7 1024 70 10000 5.66 300 11:18 02.04.2021
4639 Clouds 5 1024 75 10000 6.69 320 10:42 02.04.2021
4640 Clouds 5 1024 75 10000 6.69 320 10:22 02.04.2021
4641 Clouds 5 1024 75 10000 4.63 310 09:39 02.04.2021
4642 Clouds 5 1024 75 10000 4.63 310 09:21 02.04.2021
4643 Clouds 5 1024 75 10000 5.14 320 08:45 02.04.2021
4644 Clouds 5 1024 81 10000 4.63 330 08:26 02.04.2021
4645 Clouds 5 1024 87 10000 3.09 330 07:20 02.04.2021
4646 Fog 3 1024 100 300 2.06 310 06:34 02.04.2021
4647 Clear 2 1024 100 10000 2.57 300 03:39 02.04.2021
4648 Clear 5 1024 81 10000 2.06 360 01:40 02.04.2021
4649 Clear 5 1024 81 10000 2.06 350 00:43 02.04.2021
4650 Clear 6 1024 81 10000 2.57 350 23:44 01.04.2021
4651 Clouds 6 1024 81 10000 2.57 340 23:26 01.04.2021
4652 Clouds 7 1024 81 10000 2.57 350 22:41 01.04.2021
4653 Clouds 7 1024 81 10000 4.12 350 22:18 01.04.2021
4654 Clouds 7 1024 81 10000 4.12 330 21:42 01.04.2021
4655 Clouds 8 1023 76 10000 5.14 330 21:22 01.04.2021
4656 Clouds 8 1023 76 10000 5.66 320 20:41 01.04.2021
4657 Clouds 8 1023 76 10000 6.17 320 20:21 01.04.2021
4658 Clouds 9 1022 71 10000 6.69 320 19:41 01.04.2021
4659 Clouds 9 1022 76 10000 7.2 320 19:20 01.04.2021
4660 Clouds 10 1022 66 10000 5.66 360 18:44 01.04.2021
4661 Clouds 11 1022 71 10000 5.14 320 18:18 01.04.2021
4662 Clouds 11 1022 71 10000 4.63 330 17:41 01.04.2021
4663 Clouds 11 1022 71 10000 5.66 320 17:23 01.04.2021
4664 Clouds 10 1022 76 10000 7.2 320 16:50 01.04.2021
4665 Clouds 9 1022 76 10000 7.72 320 16:18 01.04.2021
4666 Clouds 9 1022 76 10000 7.72 320 16:18 01.04.2021
4667 Clouds 9 1022 76 10000 7.72 320 16:18 01.04.2021
4668 Clouds 10 1022 66 10000 7.2 320 15:40 01.04.2021
4669 Clouds 10 1022 71 10000 7.2 320 15:19 01.04.2021
4670 Clouds 10 1022 71 10000 8.23 320 14:42 01.04.2021
4671 Clouds 10 1022 71 10000 8.23 320 14:23 01.04.2021
4672 Clouds 10 1021 76 10000 8.23 340 13:52 01.04.2021
4673 Clouds 11 1021 71 10000 7.72 320 13:30 01.04.2021
4674 Clouds 11 1021 76 10000 7.72 330 12:49 01.04.2021
4675 Clouds 12 1020 71 10000 8.23 320 12:30 01.04.2021
4676 Clouds 11 1020 76 10000 7.72 330 11:47 01.04.2021
4677 Clouds 11 1019 76 10000 6.69 320 11:24 01.04.2021
4678 Clouds 11 1019 76 10000 6.17 330 10:53 01.04.2021
4679 Clouds 10 1019 76 10000 6.17 330 10:35 01.04.2021
4680 Mist 10 1019 76 3500 5.14 300 09:54 01.04.2021
4681 Haze 10 1019 76 5000 5.66 300 09:24 01.04.2021
4682 Clouds 10 1018 71 8000 3.09 300 08:33 01.04.2021
4683 Clear 10 1017 76 10000 3.09 280 07:57 01.04.2021
4684 Clear 10 1017 71 10000 2.06 280 07:19 01.04.2021
4685 Clear 10 1017 66 10000 2.57 310 06:42 01.04.2021
4686 Rain 10 1018 81 10000 1.03 0 03:30 01.04.2021
4687 Clear 12 1018 66 10000 1.03 260 00:49 01.04.2021
4688 Clear 12 1018 58 10000 1.91 315 23:44 31.03.2021
4689 Clear 12 1019 71 10000 1.03 190 23:19 31.03.2021
4690 Clear 13 1019 58 10000 0.51 0 22:41 31.03.2021
4691 Clear 14 1019 47 10000 1.54 30 22:20 31.03.2021
4692 Clear 15 1019 42 10000 2.57 30 21:46 31.03.2021
4693 Clear 16 1019 36 10000 2.57 30 21:23 31.03.2021
4694 Clear 17 1019 34 10000 3.09 10 20:56 31.03.2021
4695 Clear 17 1019 34 10000 3.09 10 20:38 31.03.2021
4696 Clear 18 1018 32 10000 3.09 10 20:18 31.03.2021
4697 Clear 20 1018 32 10000 3.09 350 19:38 31.03.2021
4698 Clear 21 1018 37 10000 2.57 300 19:18 31.03.2021
4699 Clear 23 1019 28 10000 2.57 290 18:49 31.03.2021
4700 Clear 23 1019 28 10000 2.57 250 17:58 31.03.2021
4701 Clear 23 1019 28 10000 2.57 250 17:36 31.03.2021
4702 Clear 23 1019 27 10000 3.09 230 17:18 31.03.2021
4703 Clear 24 1019 25 10000 2.57 230 16:48 31.03.2021
4704 Clear 23 1020 28 10000 2.06 240 16:25 31.03.2021
4705 Clear 23 1020 27 10000 2.57 190 15:50 31.03.2021
4706 Clear 23 1020 25 10000 3.09 210 15:20 31.03.2021
4707 Clear 22 1021 30 10000 2.57 180 14:46 31.03.2021
4708 Clear 22 1021 35 10000 1.54 180 14:24 31.03.2021
4709 Clear 22 1021 35 10000 1.03 0 13:43 31.03.2021
4710 Clear 22 1022 35 10000 1.03 0 13:19 31.03.2021
4711 Clear 20 1022 37 10000 1.54 0 12:37 31.03.2021
4712 Clear 19 1022 42 10000 1.03 0 12:18 31.03.2021
4713 Clear 16 1023 47 10000 1.54 150 11:22 31.03.2021
4714 Clear 14 1023 54 10000 1.03 0 10:48 31.03.2021
4715 Clear 12 1023 58 10000 1.54 150 10:27 31.03.2021
4716 Clear 10 1023 57 10000 1.54 140 09:46 31.03.2021
4717 Clear 8 1023 66 10000 2.06 140 09:27 31.03.2021
4718 Clear 7 1023 76 10000 1.54 80 08:43 31.03.2021
4719 Clear 5 1023 81 10000 1.54 90 08:25 31.03.2021
4720 Clear 5 1024 75 10000 1.03 50 07:33 31.03.2021
4721 Clear 5 1025 87 10000 1.54 70 04:34 31.03.2021
4722 Clear 6 1026 93 10000 1.03 200 02:37 31.03.2021
4723 Clouds 8 1027 76 10000 1.03 140 00:54 31.03.2021
4724 Clear 9 1027 76 10000 1.03 140 00:25 31.03.2021
4725 Clear 9 1027 71 10000 1.03 140 23:55 30.03.2021
4726 Clear 10 1027 58 10000 0.51 50 23:24 30.03.2021
4727 Clear 11 1027 62 10000 1.03 0 22:49 30.03.2021
4728 Clear 11 1027 62 10000 1.03 150 22:30 30.03.2021
4729 Clear 11 1027 50 10000 1.03 0 21:56 30.03.2021
4730 Clear 12 1027 47 10000 0.51 0 21:29 30.03.2021
4731 Clear 13 1027 47 10000 1.03 190 20:59 30.03.2021
4732 Clear 14 1027 47 10000 1.03 190 20:38 30.03.2021
4733 Clear 16 1027 42 10000 2.06 200 20:18 30.03.2021
4734 Clear 18 1027 34 10000 2.06 200 19:41 30.03.2021
4735 Clear 20 1028 37 10000 2.06 230 18:57 30.03.2021
4736 Clear 21 1028 35 10000 1.54 240 18:27 30.03.2021
4737 Clear 21 1028 28 10000 3.09 250 17:47 30.03.2021
4738 Clear 20 1029 32 10000 3.09 250 17:29 30.03.2021
4739 Clear 20 1029 30 10000 4.12 250 16:47 30.03.2021
4740 Clear 21 1029 32 10000 3.6 230 16:27 30.03.2021
4741 Clear 20 1030 40 10000 3.6 240 15:38 30.03.2021
4742 Clear 20 1030 40 10000 3.6 240 15:19 30.03.2021
4743 Clear 20 1030 39 10000 4.63 220 14:45 30.03.2021
4744 Clear 20 1030 45 10000 4.12 220 14:20 30.03.2021
4745 Clear 20 1030 45 10000 4.12 230 13:49 30.03.2021
4746 Clear 19 1030 52 10000 4.63 240 13:24 30.03.2021
4747 Clear 18 1030 55 10000 4.12 250 12:41 30.03.2021
4748 Clear 18 1030 55 10000 4.12 250 12:41 30.03.2021
4749 Clear 18 1030 55 10000 3.6 250 12:21 30.03.2021
4750 Clear 17 1030 59 10000 3.09 260 11:47 30.03.2021
4751 Clear 16 1030 58 10000 3.09 240 11:19 30.03.2021
4752 Clear 15 1030 54 10000 3.09 240 10:42 30.03.2021
4753 Clear 14 1030 58 10000 3.6 250 10:19 30.03.2021
4754 Clear 12 1030 66 10000 2.57 240 09:41 30.03.2021
4755 Clear 11 1030 71 10000 1.54 230 09:21 30.03.2021
4756 Clear 9 1030 66 10000 1.03 0 08:43 30.03.2021
4757 Clear 7 1029 70 10000 1.54 230 07:56 30.03.2021
4758 Clear 7 1029 70 10000 2.06 220 07:31 30.03.2021
4759 Clear 7 1029 76 10000 1.54 200 06:30 30.03.2021
4760 Clear 6 1029 87 10000 1.54 190 05:25 30.03.2021
4761 Clear 8 1029 93 10000 1.54 180 01:47 30.03.2021
4762 Clear 10 1028 81 10000 1.54 290 23:55 29.03.2021
4763 Clear 10 1028 81 10000 1.54 320 23:22 29.03.2021
4764 Clear 11 1028 66 10000 2.06 300 22:43 29.03.2021
4765 Clear 12 1028 67 10000 2.06 260 21:58 29.03.2021
4766 Clear 13 1028 67 10000 2.06 260 21:37 29.03.2021
4767 Clear 13 1027 67 10000 2.57 240 20:57 29.03.2021
4768 Clear 14 1027 67 10000 2.57 240 20:37 29.03.2021
4769 Clear 17 1026 55 10000 5.66 260 19:56 29.03.2021
4770 Clear 16 1026 55 10000 5.66 260 19:32 29.03.2021
4771 Clear 17 1026 52 10000 6.69 250 18:57 29.03.2021
4772 Clear 18 1026 52 10000 6.69 250 18:38 29.03.2021
4773 Clear 18 1026 52 10000 7.72 250 18:20 29.03.2021
4774 Clear 19 1026 52 10000 7.72 250 17:37 29.03.2021
4775 Clear 18 1026 52 10000 8.23 260 16:55 29.03.2021
4776 Clear 19 1026 52 10000 8.23 260 16:34 29.03.2021
4777 Clear 18 1026 55 10000 6.69 240 15:49 29.03.2021
4778 Clear 18 1026 52 10000 8.23 250 15:31 29.03.2021
4779 Clear 18 1026 55 10000 8.23 240 14:54 29.03.2021
4780 Clear 18 1026 55 10000 8.23 240 14:31 29.03.2021
4781 Clear 17 1025 55 10000 7.72 250 13:47 29.03.2021
4782 Clear 17 1025 59 10000 8.23 260 13:24 29.03.2021
4783 Clear 16 1025 59 10000 6.69 250 12:50 29.03.2021
4784 Clear 15 1025 58 10000 8.75 240 11:53 29.03.2021
4785 Clear 14 1025 58 10000 8.75 240 11:35 29.03.2021
4786 Clear 13 1024 62 10000 7.72 240 10:59 29.03.2021
4787 Clear 13 1024 62 10000 7.72 240 10:36 29.03.2021
4788 Clouds 12 1024 62 10000 7.2 240 09:44 29.03.2021
4789 Clear 11 1024 66 10000 6.17 230 08:58 29.03.2021
4790 Clear 11 1024 66 10000 5.66 240 08:28 29.03.2021
4791 Clear 11 1024 66 10000 5.14 240 07:41 29.03.2021
4792 Clear 10 1023 66 10000 6.17 220 06:42 29.03.2021
4793 Clear 10 1024 71 10000 5.66 220 03:59 29.03.2021
4794 Clear 10 1024 71 10000 5.66 220 03:59 29.03.2021
4795 Clear 11 1024 66 10000 5.14 240 01:58 29.03.2021
4796 Clouds 11 1024 66 10000 5.66 230 00:23 29.03.2021
4797 Clouds 10 1024 76 10000 4.63 240 23:50 28.03.2021
4798 Clouds 10 1024 71 10000 5.14 230 23:19 28.03.2021
4799 Clouds 10 1024 71 10000 4.63 230 22:41 28.03.2021
4800 Clouds 10 1024 71 10000 4.63 230 22:21 28.03.2021
4801 Clouds 10 1024 71 10000 4.63 230 21:45 28.03.2021
4802 Clouds 10 1023 71 10000 6.69 230 21:23 28.03.2021
4803 Clouds 10 1023 71 10000 6.17 240 20:50 28.03.2021
4804 Clouds 10 1023 71 10000 6.17 240 20:32 28.03.2021
4805 Clouds 10 1023 71 10000 6.17 230 19:46 28.03.2021
4806 Clouds 10 1023 71 10000 6.17 230 19:23 28.03.2021
4807 Clouds 10 1023 71 10000 6.69 230 18:58 28.03.2021
4808 Clouds 10 1023 71 10000 6.69 230 18:33 28.03.2021
4809 Clouds 10 1023 71 10000 8.75 240 17:56 28.03.2021
4810 Clouds 10 1023 71 10000 8.75 240 17:36 28.03.2021
4811 Rain 10 1023 76 10000 8.23 230 16:55 28.03.2021
4812 Rain 10 1023 81 10000 5.66 240 16:24 28.03.2021
4813 Rain 10 1023 71 10000 7.2 240 15:49 28.03.2021
4814 Rain 10 1023 66 10000 8.23 240 15:24 28.03.2021
4815 Rain 11 1023 62 10000 10.29 230 14:39 28.03.2021
4816 Rain 12 1022 62 10000 9.26 230 13:59 28.03.2021
4817 Clouds 12 1023 66 10000 9.77 220 13:34 28.03.2021
4818 Clouds 12 1023 66 10000 9.26 220 12:55 28.03.2021
4819 Clouds 11 1023 66 10000 9.26 220 12:34 28.03.2021
4820 Clouds 11 1023 66 10000 9.26 220 12:34 28.03.2021
4821 Clear 10 1023 66 10000 7.72 230 11:52 28.03.2021
4822 Clear 9 1023 71 10000 7.2 220 11:32 28.03.2021
4823 Clear 8 1024 71 10000 6.17 220 10:48 28.03.2021
4824 Clear 8 1024 76 10000 7.2 220 10:29 28.03.2021
4825 Clear 7 1024 70 10000 5.66 220 09:51 28.03.2021
4826 Clear 6 1024 70 10000 5.14 210 09:27 28.03.2021
4827 Clear 5 1024 75 10000 4.12 210 08:49 28.03.2021
4828 Clear 4 1024 75 10000 4.12 200 08:30 28.03.2021
4829 Clear 4 1024 75 10000 3.6 200 07:39 28.03.2021
4830 Clear 4 1024 75 10000 3.09 200 06:20 28.03.2021
4831 Clear 3 1025 81 10000 3.09 210 03:28 28.03.2021
4832 Clear 3 1025 87 10000 3.09 220 00:36 28.03.2021
4833 Clear 3 1025 87 10000 3.09 220 23:53 27.03.2021
4834 Clear 3 1025 87 10000 3.09 220 23:34 27.03.2021
4835 Clear 4 1024 87 10000 3.09 220 22:40 27.03.2021
4836 Clouds 3 1024 87 10000 4.12 240 22:21 27.03.2021
4837 Clouds 4 1024 87 10000 3.6 240 21:42 27.03.2021
4838 Clouds 4 1024 87 10000 3.6 250 21:21 27.03.2021
4839 Clouds 4 1023 87 10000 3.09 220 20:56 27.03.2021
4840 Clouds 5 1023 87 10000 3.09 220 20:37 27.03.2021
4841 Clouds 4 1022 93 10000 4.12 230 19:56 27.03.2021
4842 Clouds 4 1022 93 10000 4.12 230 19:37 27.03.2021
4843 Clouds 4 1022 87 10000 4.12 240 19:18 27.03.2021
4844 Clouds 5 1022 87 10000 6.17 240 18:41 27.03.2021
4845 Clouds 5 1021 81 10000 6.69 270 18:20 27.03.2021
4846 Clouds 6 1020 70 10000 6.69 260 17:29 27.03.2021
4847 Rain 7 1020 75 10000 6.69 270 16:58 27.03.2021
4848 Clouds 7 1020 75 10000 6.69 260 16:38 27.03.2021
4849 Clouds 7 1020 75 10000 6.69 260 16:20 27.03.2021
4850 Clouds 6 1019 75 10000 9.77 290 15:45 27.03.2021
4851 Clouds 6 1018 65 10000 7.72 250 14:59 27.03.2021
4852 Clouds 7 1018 65 10000 7.72 250 14:38 27.03.2021
4853 Rain 6 1017 70 10000 6.69 260 13:39 27.03.2021
4854 Clouds 6 1017 75 10000 8.75 270 13:19 27.03.2021
4855 Rain 6 1017 70 10000 12.35 290 12:43 27.03.2021
4856 Clouds 7 1015 76 10000 4.63 260 11:50 27.03.2021
4857 Rain 6 1015 81 10000 10.29 250 11:31 27.03.2021
4858 Rain 7 1014 71 10000 9.26 260 10:57 27.03.2021
4859 Rain 7 1014 71 10000 9.26 260 10:38 27.03.2021
4860 Clouds 7 1013 81 10000 6.69 240 09:50 27.03.2021
4861 Clouds 6 1013 81 10000 8.23 240 09:21 27.03.2021
4862 Clouds 6 1013 81 10000 6.69 240 08:40 27.03.2021
4863 Clouds 6 1012 81 10000 6.69 240 07:54 27.03.2021
4864 Clouds 6 1011 87 10000 6.69 240 07:18 27.03.2021
4865 Rain 6 1011 87 10000 6.17 240 06:42 27.03.2021
4866 Rain 6 1010 87 10000 9.26 270 04:42 27.03.2021
4867 Clear 9 1008 71 10000 4.12 150 02:45 27.03.2021
4868 Clear 8 1010 71 10000 3.09 150 00:44 27.03.2021
4869 Clear 8 1010 71 10000 3.6 150 00:25 27.03.2021
4870 Clear 8 1011 76 10000 3.09 160 23:37 26.03.2021
4871 Clear 9 1011 71 10000 2.06 240 22:40 26.03.2021
4872 Clear 10 1012 66 10000 3.09 200 21:53 26.03.2021
4873 Clear 10 1012 66 10000 2.57 160 21:24 26.03.2021
4874 Clear 11 1012 66 10000 3.09 180 20:58 26.03.2021
4875 Clear 11 1012 62 10000 3.09 160 20:31 26.03.2021
4876 Clear 11 1012 54 10000 2.06 150 19:53 26.03.2021
4877 Clear 11 1012 54 10000 2.06 150 19:34 26.03.2021
4878 Clear 13 1012 47 10000 3.6 210 18:55 26.03.2021
4879 Clear 13 1012 47 10000 3.6 210 18:55 26.03.2021
4880 Clear 13 1012 47 10000 3.6 210 18:36 26.03.2021
4881 Clear 14 1013 51 10000 4.63 200 18:18 26.03.2021
4882 Clear 15 1013 47 10000 5.14 200 17:41 26.03.2021
4883 Clouds 15 1013 44 10000 6.17 190 16:52 26.03.2021
4884 Clouds 15 1014 48 10000 7.2 180 16:23 26.03.2021
4885 Clouds 15 1014 51 10000 5.66 190 15:43 26.03.2021
4886 Clouds 15 1015 51 10000 5.66 190 14:54 26.03.2021
4887 Clouds 15 1015 47 10000 6.69 200 14:20 26.03.2021
4888 Clouds 15 1015 54 10000 5.14 180 13:33 26.03.2021
4889 Clouds 15 1016 58 10000 6.69 200 12:48 26.03.2021
4890 Clouds 13 1017 58 10000 6.69 200 11:50 26.03.2021
4891 Clouds 12 1017 62 10000 6.69 200 11:31 26.03.2021
4892 Clouds 12 1018 66 10000 7.2 190 10:45 26.03.2021
4893 Clouds 11 1018 71 10000 6.17 200 10:27 26.03.2021
4894 Clear 10 1018 76 10000 4.63 200 09:41 26.03.2021
4895 Clouds 8 1017 87 7000 4.12 170 08:59 26.03.2021
4896 Clouds 8 1017 87 7000 4.12 170 08:35 26.03.2021
4897 Mist 6 1017 93 3500 3.6 190 07:58 26.03.2021
4898 Mist 5 1018 93 3200 3.09 180 07:22 26.03.2021
4899 Mist 4 1018 93 2800 2.57 170 06:57 26.03.2021
4900 Mist 3 1018 100 3200 2.06 190 06:26 26.03.2021
4901 Mist 4 1018 100 3500 1.54 190 05:21 26.03.2021
4902 Clear 4 1019 93 10000 2.57 180 01:50 26.03.2021
4903 Clear 6 1019 87 10000 2.06 200 00:23 26.03.2021
4904 Clear 6 1019 87 10000 2.06 220 23:44 25.03.2021
4905 Clear 7 1019 87 10000 3.09 230 22:51 25.03.2021
4906 Clouds 8 1019 87 10000 3.6 230 22:27 25.03.2021
4907 Clouds 8 1019 81 10000 3.09 220 21:49 25.03.2021
4908 Clouds 9 1019 81 10000 3.09 220 21:31 25.03.2021
4909 Clouds 9 1019 87 10000 3.09 230 20:43 25.03.2021
4910 Clouds 10 1019 81 10000 2.57 240 20:25 25.03.2021
4911 Clouds 10 1019 81 10000 3.6 260 19:45 25.03.2021
4912 Clouds 10 1019 81 10000 3.6 260 19:45 25.03.2021
4913 Clouds 11 1018 62 10000 2.57 210 19:26 25.03.2021
4914 Clouds 11 1018 62 10000 2.57 190 18:47 25.03.2021
4915 Clouds 11 1018 62 10000 2.06 200 18:26 25.03.2021
4916 Clouds 11 1018 62 10000 2.06 200 18:26 25.03.2021
4917 Clouds 11 1018 62 10000 2.06 200 18:26 25.03.2021
4918 Clouds 12 1018 62 10000 2.06 220 17:45 25.03.2021
4919 Clouds 13 1018 58 10000 2.57 190 17:27 25.03.2021
4920 Clouds 13 1018 58 10000 3.09 210 16:51 25.03.2021
4921 Clouds 14 1018 54 10000 2.57 180 16:31 25.03.2021
4922 Clouds 13 1018 58 10000 2.57 180 15:45 25.03.2021
4923 Clouds 13 1019 58 10000 3.09 220 15:22 25.03.2021
4924 Clouds 13 1019 58 10000 2.57 220 14:46 25.03.2021
4925 Clouds 13 1019 58 10000 4.12 190 13:56 25.03.2021
4926 Clouds 12 1019 62 10000 4.12 200 13:24 25.03.2021
4927 Clouds 12 1019 58 10000 4.12 210 12:45 25.03.2021
4928 Clouds 13 1019 62 10000 4.12 230 12:21 25.03.2021
4929 Clear 12 1019 58 10000 3.09 220 11:53 25.03.2021
4930 Clear 12 1020 62 10000 3.09 190 11:30 25.03.2021
4931 Clear 11 1020 71 10000 2.57 180 10:57 25.03.2021
4932 Clear 10 1020 71 10000 2.57 180 10:38 25.03.2021
4933 Clear 9 1020 71 10000 2.06 170 10:18 25.03.2021
4934 Clear 9 1020 71 10000 2.06 170 10:18 25.03.2021
4935 Clouds 8 1020 81 8000 1.54 170 09:42 25.03.2021
4936 Clouds 6 1020 87 7000 1.03 0 08:59 25.03.2021
4937 Clouds 5 1019 93 7000 1.03 180 08:30 25.03.2021
4938 Clouds 3 1019 93 6000 1.03 270 07:26 25.03.2021
4939 Mist 3 1019 93 5000 0.51 0 06:42 25.03.2021
4940 Mist 3 1019 93 4500 1.03 0 06:22 25.03.2021
4941 Mist 3 1019 100 3000 1.03 190 04:50 25.03.2021
4942 Clouds 4 1019 93 6000 1.54 270 01:20 25.03.2021
4943 Clouds 6 1019 87 7000 1.03 200 00:19 25.03.2021
4944 Clouds 6 1019 87 10000 1.03 0 23:40 24.03.2021
4945 Clouds 6 1020 87 10000 1.54 290 23:19 24.03.2021
4946 Clear 8 1020 76 10000 2.57 310 22:39 24.03.2021
4947 Clear 8 1020 71 10000 3.6 310 21:51 24.03.2021
4948 Clear 8 1020 71 10000 3.6 310 21:32 24.03.2021
4949 Clear 8 1019 71 10000 1.54 180 20:59 24.03.2021
4950 Clear 8 1019 71 10000 1.54 180 20:41 24.03.2021
4951 Clear 8 1019 76 10000 1.54 230 20:18 24.03.2021
4952 Clouds 9 1019 76 10000 2.06 230 19:33 24.03.2021
4953 Clear 12 1019 62 10000 3.09 220 18:56 24.03.2021
4954 Clear 12 1019 62 10000 3.09 220 18:37 24.03.2021
4955 Clear 12 1019 62 10000 3.6 230 18:19 24.03.2021
4956 Clouds 14 1019 51 10000 5.14 230 17:33 24.03.2021
4957 Clear 14 1019 51 10000 5.14 230 16:59 24.03.2021
4958 Clear 14 1019 51 10000 5.14 230 16:40 24.03.2021
4959 Clear 15 1019 54 10000 5.14 240 16:19 24.03.2021
4960 Clouds 15 1019 51 10000 5.14 230 15:41 24.03.2021
4961 Clouds 15 1020 51 10000 6.69 230 15:20 24.03.2021
4962 Clouds 14 1020 51 10000 6.69 230 14:41 24.03.2021
4963 Clouds 14 1020 54 10000 5.66 220 14:21 24.03.2021
4964 Clouds 14 1021 54 10000 7.2 230 13:44 24.03.2021
4965 Clouds 14 1021 54 10000 6.17 230 13:24 24.03.2021
4966 Clouds 13 1021 66 8000 6.17 220 12:40 24.03.2021
4967 Clouds 13 1021 66 8000 6.17 220 12:20 24.03.2021
4968 Clouds 12 1022 66 8000 5.66 230 11:41 24.03.2021
4969 Clouds 10 1022 71 7000 4.63 200 10:49 24.03.2021
4970 Clouds 10 1022 76 7000 4.12 200 10:31 24.03.2021
4971 Clouds 9 1022 81 6000 3.09 210 09:58 24.03.2021
4972 Clouds 8 1022 81 6000 3.09 210 09:36 24.03.2021
4973 Clouds 7 1022 81 6000 3.09 210 09:18 24.03.2021
4974 Mist 6 1022 87 5000 2.57 200 08:43 24.03.2021
4975 Mist 5 1022 87 4200 2.57 200 07:50 24.03.2021
4976 Mist 4 1022 87 4200 2.57 200 07:25 24.03.2021
4977 Mist 5 1022 87 4500 2.57 200 06:46 24.03.2021
4978 Clear 5 1023 93 10000 2.06 200 02:41 24.03.2021
4979 Clouds 5 1023 93 10000 1.54 220 00:42 24.03.2021
4980 Clouds 5 1023 93 10000 1.54 190 23:52 23.03.2021
4981 Clouds 5 1023 93 10000 1.54 200 23:20 23.03.2021
4982 Clouds 4 1023 93 10000 1.54 190 22:51 23.03.2021
4983 Clouds 4 1023 93 10000 2.06 220 22:25 23.03.2021
4984 Clouds 4 1023 93 10000 2.57 240 21:47 23.03.2021
4985 Clouds 5 1023 87 10000 2.06 220 21:29 23.03.2021
4986 Clouds 5 1023 87 10000 1.54 220 20:47 23.03.2021
4987 Clouds 6 1023 93 10000 1.03 250 20:25 23.03.2021
4988 Clouds 6 1023 81 10000 1.03 280 19:50 23.03.2021
4989 Clouds 7 1023 76 10000 1.03 310 19:26 23.03.2021
4990 Clouds 7 1023 76 10000 1.03 310 19:26 23.03.2021
4991 Clouds 8 1023 71 10000 1.54 320 18:59 23.03.2021
4992 Clouds 8 1023 71 10000 1.54 320 18:37 23.03.2021
4993 Clouds 9 1023 66 10000 0.51 300 18:18 23.03.2021
4994 Clouds 9 1023 66 10000 1.54 0 17:42 23.03.2021
4995 Clouds 10 1023 62 10000 1.54 320 17:20 23.03.2021
4996 Clouds 9 1023 66 10000 3.6 310 16:25 23.03.2021
4997 Clouds 9 1024 66 10000 3.09 310 15:48 23.03.2021
4998 Clouds 10 1024 66 10000 3.09 320 15:22 23.03.2021
4999 Clouds 9 1024 71 10000 3.6 320 14:45 23.03.2021
5000 Clouds 9 1024 71 10000 3.09 300 14:19 23.03.2021
5001 Clouds 9 1024 71 10000 4.12 280 13:47 23.03.2021
5002 Clouds 8 1024 71 10000 4.63 280 13:24 23.03.2021
5003 Clouds 8 1024 71 10000 4.12 280 12:44 23.03.2021
5004 Clouds 8 1024 71 10000 4.12 290 12:24 23.03.2021
5005 Clouds 7 1024 70 10000 5.66 260 11:48 23.03.2021
5006 Clouds 7 1024 76 10000 3.6 250 11:18 23.03.2021
5007 Clouds 7 1024 76 10000 4.12 250 10:42 23.03.2021
5008 Clouds 7 1024 76 10000 4.63 260 10:20 23.03.2021
5009 Clouds 7 1024 75 10000 4.63 250 09:49 23.03.2021
5010 Clouds 6 1024 75 10000 5.14 250 09:22 23.03.2021
5011 Clouds 6 1024 81 10000 4.12 240 08:55 23.03.2021
5012 Clouds 6 1024 81 10000 4.12 240 08:37 23.03.2021
5013 Clouds 5 1024 87 10000 3.6 240 08:18 23.03.2021
5014 Clouds 5 1024 87 10000 2.57 230 07:27 23.03.2021
5015 Clouds 5 1024 81 10000 1.03 230 06:52 23.03.2021
5016 Clouds 5 1024 81 10000 4.12 280 03:24 23.03.2021
5017 Clouds 5 1024 81 10000 3.6 280 02:29 23.03.2021
5018 Clouds 5 1024 87 10000 2.57 290 23:47 22.03.2021
5019 Clouds 5 1024 87 10000 3.09 300 23:18 22.03.2021
5020 Clouds 5 1024 87 10000 2.57 300 22:42 22.03.2021
5021 Clouds 6 1024 81 10000 3.6 300 22:20 22.03.2021
5022 Drizzle 6 1024 81 10000 3.6 300 21:47 22.03.2021
5023 Clouds 6 1024 81 10000 3.6 300 21:26 22.03.2021
5024 Clouds 6 1024 81 10000 3.6 310 20:44 22.03.2021
5025 Clouds 6 1024 81 10000 4.12 290 20:25 22.03.2021
5026 Clouds 6 1023 75 10000 4.12 300 19:58 22.03.2021
5027 Clouds 6 1023 75 10000 4.12 300 19:38 22.03.2021
5028 Clouds 7 1023 70 10000 4.63 300 19:20 22.03.2021
5029 Clouds 7 1023 70 10000 5.14 310 18:41 22.03.2021
5030 Clouds 7 1023 70 10000 5.14 310 18:22 22.03.2021
5031 Clouds 7 1023 70 10000 4.12 310 17:49 22.03.2021
5032 Clouds 8 1022 71 10000 4.63 340 17:22 22.03.2021
5033 Clouds 8 1022 71 10000 6.69 310 16:55 22.03.2021
5034 Clouds 8 1022 71 10000 5.14 320 16:37 22.03.2021
5035 Clouds 8 1023 76 10000 5.14 320 15:43 22.03.2021
5036 Clouds 8 1023 76 10000 4.63 320 15:23 22.03.2021
5037 Clouds 7 1023 76 10000 4.63 340 14:58 22.03.2021
5038 Clouds 8 1023 76 10000 4.63 310 14:34 22.03.2021
5039 Clouds 7 1023 76 10000 5.14 330 13:52 22.03.2021
5040 Clouds 7 1023 76 10000 5.14 330 13:33 22.03.2021
5041 Clouds 7 1022 76 10000 5.14 320 12:59 22.03.2021
5042 Clouds 7 1022 76 10000 5.14 320 12:26 22.03.2021
5043 Clouds 7 1022 81 10000 4.63 340 11:57 22.03.2021
5044 Clouds 7 1022 81 10000 4.63 340 11:39 22.03.2021
5045 Clouds 7 1022 81 10000 4.63 340 11:20 22.03.2021
5046 Clouds 6 1022 87 8000 2.57 340 10:41 22.03.2021
5047 Clouds 6 1022 93 6000 3.09 340 10:20 22.03.2021
5048 Clouds 5 1022 87 9000 5.14 340 09:36 22.03.2021
5049 Clouds 5 1021 87 10000 4.63 330 08:59 22.03.2021
5050 Clouds 5 1021 87 10000 4.63 330 08:40 22.03.2021
5051 Clouds 5 1021 87 10000 3.6 340 08:21 22.03.2021
5052 Drizzle 5 1021 87 10000 3.6 330 07:43 22.03.2021
5053 Clouds 5 1021 87 10000 4.12 330 06:52 22.03.2021
5054 Clouds 4 1020 93 10000 4.12 310 05:19 22.03.2021
5055 Clouds 5 1020 81 10000 6.17 310 00:55 22.03.2021
5056 Clouds 5 1020 81 10000 6.17 320 00:21 22.03.2021
5057 Clouds 5 1020 81 10000 6.17 310 23:52 21.03.2021
5058 Clouds 5 1020 75 10000 6.69 310 23:19 21.03.2021
5059 Clouds 5 1020 75 10000 7.72 320 22:54 21.03.2021
5060 Clouds 5 1020 75 10000 6.17 330 21:56 21.03.2021
5061 Clouds 5 1020 75 10000 6.17 330 21:38 21.03.2021
5062 Clouds 5 1020 75 10000 7.2 320 21:20 21.03.2021
5063 Clouds 5 1020 75 10000 7.2 320 20:41 21.03.2021
5064 Clouds 5 1020 75 10000 7.2 320 20:22 21.03.2021
5065 Clouds 5 1020 75 10000 7.2 310 19:52 21.03.2021
5066 Clouds 5 1019 75 10000 7.72 320 19:21 21.03.2021
5067 Clouds 5 1019 70 10000 9.77 320 18:46 21.03.2021
5068 Clouds 6 1019 65 10000 7.72 320 18:27 21.03.2021
5069 Clouds 6 1019 65 10000 8.75 330 17:45 21.03.2021
5070 Clouds 6 1019 65 10000 10.29 320 17:20 21.03.2021
5071 Clouds 6 1019 65 10000 9.26 320 16:57 21.03.2021
5072 Clouds 7 1019 65 10000 9.26 330 16:30 21.03.2021
5073 Clouds 7 1019 61 10000 9.77 320 15:58 21.03.2021
5074 Clouds 7 1019 61 10000 9.77 320 15:38 21.03.2021
5075 Clouds 7 1019 65 10000 9.26 320 15:19 21.03.2021
5076 Clouds 7 1019 65 10000 9.26 320 15:19 21.03.2021
5077 Clouds 7 1018 65 10000 10.29 320 14:42 21.03.2021
5078 Clouds 7 1018 61 10000 9.26 320 14:24 21.03.2021
5079 Clouds 7 1018 65 10000 10.29 320 13:52 21.03.2021
5080 Clouds 7 1018 65 10000 8.75 330 12:59 21.03.2021
5081 Clouds 7 1018 65 10000 8.75 330 12:41 21.03.2021
5082 Clouds 7 1018 65 10000 10.29 320 12:22 21.03.2021
5083 Clouds 7 1018 70 10000 10.29 330 11:28 21.03.2021
5084 Clouds 6 1018 70 10000 10.8 330 10:59 21.03.2021
5085 Clouds 6 1018 70 10000 10.8 330 10:41 21.03.2021
5086 Clouds 6 1018 70 10000 10.29 320 10:22 21.03.2021
5087 Clouds 6 1017 70 10000 7.72 320 09:44 21.03.2021
5088 Clouds 5 1018 75 10000 8.75 320 09:26 21.03.2021
5089 Clouds 5 1018 75 10000 9.26 320 08:40 21.03.2021
5090 Clouds 5 1017 75 10000 9.26 320 08:21 21.03.2021
5091 Clouds 5 1017 81 10000 8.23 320 07:38 21.03.2021
5092 Drizzle 5 1017 81 10000 8.75 320 06:56 21.03.2021
5093 Drizzle 6 1017 87 5000 6.69 290 05:45 21.03.2021
5094 Drizzle 5 1019 93 10000 5.66 260 02:25 21.03.2021
5095 Clouds 5 1021 93 10000 6.17 270 00:42 21.03.2021
5096 Clouds 5 1021 93 10000 6.17 270 00:22 21.03.2021
5097 Drizzle 5 1021 93 8000 5.66 280 23:49 20.03.2021
5098 Clouds 5 1021 87 10000 5.14 270 23:22 20.03.2021
5099 Drizzle 5 1021 93 10000 5.66 280 22:56 20.03.2021
5100 Clouds 5 1022 93 10000 6.17 290 22:23 20.03.2021
5101 Drizzle 5 1022 93 10000 6.69 290 21:47 20.03.2021
5102 Drizzle 5 1022 93 5000 4.63 260 21:25 20.03.2021
5103 Drizzle 5 1022 93 5000 5.66 260 20:48 20.03.2021
5104 Drizzle 5 1022 93 10000 6.17 260 20:23 20.03.2021
5105 Clouds 5 1023 87 10000 5.66 260 19:51 20.03.2021
5106 Clouds 5 1023 87 10000 6.17 260 19:28 20.03.2021
5107 Clouds 6 1023 75 10000 7.2 260 18:50 20.03.2021
5108 Clouds 6 1024 75 10000 6.69 270 18:27 20.03.2021
5109 Clouds 6 1024 70 10000 5.66 260 17:58 20.03.2021
5110 Clouds 6 1024 70 10000 5.66 260 17:40 20.03.2021
5111 Clouds 6 1024 70 10000 6.69 260 17:19 20.03.2021
5112 Clouds 6 1025 65 10000 7.2 270 16:38 20.03.2021
5113 Clouds 6 1025 65 10000 6.69 260 16:18 20.03.2021
5114 Clouds 6 1025 65 10000 6.17 260 15:40 20.03.2021
5115 Clouds 6 1026 65 10000 6.17 260 15:21 20.03.2021
5116 Clouds 6 1026 65 10000 6.17 260 14:32 20.03.2021
5117 Clouds 6 1027 61 10000 6.17 230 13:59 20.03.2021
5118 Clouds 6 1027 60 10000 5.14 240 13:30 20.03.2021
5119 Clouds 6 1027 60 10000 5.14 240 13:30 20.03.2021
5120 Clouds 4 1029 56 10000 4.63 230 12:37 20.03.2021
5121 Clouds 4 1029 56 10000 4.63 230 12:18 20.03.2021
5122 Clouds 4 1029 56 10000 4.63 230 11:41 20.03.2021
5123 Clouds 3 1029 64 10000 4.63 230 11:21 20.03.2021
5124 Clouds 2 1029 60 10000 5.14 230 10:45 20.03.2021
5125 Clouds 2 1029 64 10000 4.12 230 10:23 20.03.2021
5126 Clouds 1 1029 74 10000 3.09 230 09:44 20.03.2021
5127 Clouds 0 1029 74 10000 3.09 240 09:22 20.03.2021
5128 Clouds -1 1029 80 10000 1.54 230 08:51 20.03.2021
5129 Clear -1 1029 80 10000 1.54 210 08:19 20.03.2021
5130 Clear -2 1029 80 10000 1.54 220 07:48 20.03.2021
5131 Clear -2 1029 86 10000 0.51 0 07:29 20.03.2021
5132 Clear -3 1029 86 10000 1.03 180 06:40 20.03.2021
5133 Clear -4 1029 86 10000 1.54 260 05:28 20.03.2021
5134 Clear -4 1030 93 10000 0.51 0 03:44 20.03.2021
5135 Clear -2 1030 69 10000 2.06 50 01:42 20.03.2021
5136 Clear -2 1030 69 10000 3.09 70 23:48 19.03.2021
5137 Clear -1 1030 69 10000 3.6 70 23:20 19.03.2021
5138 Clear -1 1029 74 10000 2.57 50 22:45 19.03.2021
5139 Clear 0 1029 74 10000 3.09 70 22:24 19.03.2021
5140 Clear 0 1029 69 10000 4.12 70 21:51 19.03.2021
5141 Clear 1 1028 64 10000 4.12 60 21:21 19.03.2021
5142 Clear 1 1028 69 10000 4.12 60 20:46 19.03.2021
5143 Clouds 2 1028 64 10000 4.63 50 20:27 19.03.2021
5144 Clouds 2 1028 69 10000 3.6 50 19:52 19.03.2021
5145 Clouds 3 1027 65 10000 4.63 50 19:25 19.03.2021
5146 Clouds 3 1027 65 10000 6.69 60 18:58 19.03.2021
5147 Clouds 3 1027 65 10000 6.69 60 18:36 19.03.2021
5148 Clouds 4 1027 70 10000 6.69 50 18:18 19.03.2021
5149 Clouds 5 1026 65 10000 5.14 50 17:48 19.03.2021
5150 Clouds 6 1026 61 10000 5.66 30 17:23 19.03.2021
5151 Clouds 6 1026 61 10000 4.63 40 16:44 19.03.2021
5152 Clouds 6 1026 65 10000 5.14 50 16:26 19.03.2021
5153 Clouds 7 1026 61 10000 6.17 40 15:43 19.03.2021
5154 Clouds 6 1026 65 10000 4.12 350 15:22 19.03.2021
5155 Clouds 6 1026 70 10000 4.63 10 14:42 19.03.2021
5156 Clouds 7 1026 65 10000 4.63 30 14:21 19.03.2021
5157 Clouds 7 1025 61 10000 4.63 10 13:34 19.03.2021
5158 Clouds 6 1025 61 10000 4.63 20 12:49 19.03.2021
5159 Clouds 7 1025 61 10000 5.66 20 12:30 19.03.2021
5160 Clouds 7 1025 65 10000 5.66 360 11:39 19.03.2021
5161 Clear 6 1025 75 10000 4.63 20 10:53 19.03.2021
5162 Clear 5 1025 75 10000 4.12 20 10:30 19.03.2021
5163 Clear 4 1024 75 10000 4.12 10 09:49 19.03.2021
5164 Clear 3 1024 75 10000 4.12 20 09:30 19.03.2021
5165 Clear 2 1024 75 10000 4.12 20 08:54 19.03.2021
5166 Clear 2 1024 75 10000 4.12 20 08:36 19.03.2021
5167 Clear 0 1023 75 10000 3.6 20 07:54 19.03.2021
5168 Clear 0 1023 75 10000 3.6 20 07:35 19.03.2021
5169 Clear -1 1023 74 10000 2.57 10 06:43 19.03.2021
5170 Clear 0 1021 69 10000 3.09 20 02:45 19.03.2021
5171 Clear 0 1021 75 10000 3.09 30 00:52 19.03.2021
5172 Clear 1 1020 80 10000 3.09 30 23:30 18.03.2021
5173 Clear 1 1020 80 10000 3.09 30 23:30 18.03.2021
5174 Clear 2 1020 80 10000 3.6 20 22:58 18.03.2021
5175 Clear 2 1020 80 10000 3.6 20 22:38 18.03.2021
5176 Clear 2 1020 80 10000 3.09 30 22:18 18.03.2021
5177 Clouds 3 1020 81 10000 3.6 20 21:39 18.03.2021
5178 Clouds 4 1020 75 10000 5.14 360 20:51 18.03.2021
5179 Clouds 4 1020 75 10000 5.14 360 20:32 18.03.2021
5180 Clouds 4 1019 70 10000 2.57 10 19:48 18.03.2021
5181 Clouds 4 1019 70 10000 3.09 20 19:29 18.03.2021
5182 Clouds 5 1019 70 10000 3.09 20 18:58 18.03.2021
5183 Clouds 5 1019 70 10000 3.09 20 18:34 18.03.2021
5184 Clouds 5 1019 75 10000 3.09 30 17:51 18.03.2021
5185 Clouds 5 1020 81 10000 0.51 0 17:26 18.03.2021
5186 Clouds 5 1020 75 10000 0.51 110 16:49 18.03.2021
5187 Clouds 6 1020 75 10000 2.06 300 16:30 18.03.2021
5188 Clouds 6 1020 70 10000 2.06 340 15:49 18.03.2021
5189 Clouds 5 1021 70 10000 2.57 320 15:28 18.03.2021
5190 Clouds 5 1021 70 10000 3.6 320 14:57 18.03.2021
5191 Clouds 5 1021 70 10000 3.6 320 14:33 18.03.2021
5192 Clouds 6 1022 65 10000 1.54 310 13:54 18.03.2021
5193 Clouds 6 1022 65 10000 2.06 300 13:27 18.03.2021
5194 Clouds 6 1023 65 10000 2.06 260 12:46 18.03.2021
5195 Clouds 6 1023 65 10000 1.54 320 12:28 18.03.2021
5196 Clouds 5 1023 70 10000 1.54 300 11:55 18.03.2021
5197 Clouds 5 1023 70 10000 1.54 300 11:34 18.03.2021
5198 Clouds 5 1024 81 10000 1.54 300 10:51 18.03.2021
5199 Clouds 4 1024 93 9000 1.03 0 10:29 18.03.2021
5200 Clouds 4 1024 93 6000 0.51 0 09:58 18.03.2021
5201 Mist 3 1024 93 5000 1.03 0 09:30 18.03.2021
5202 Mist 2 1024 100 5000 2.06 290 08:57 18.03.2021
5203 Mist 2 1024 100 5000 2.06 290 08:33 18.03.2021
5204 Fog 2 1024 93 1000 2.06 260 07:58 18.03.2021
5205 Fog 1 1024 93 1000 2.06 260 07:40 18.03.2021
5206 Fog 1 1024 100 500 2.57 260 06:40 18.03.2021
5207 Fog 1 1025 100 400 2.06 290 06:22 18.03.2021
5208 Fog 0 1025 100 400 3.09 280 05:25 18.03.2021
5209 Fog 2 1026 100 200 3.09 290 00:40 18.03.2021
5210 Fog 1 1026 93 10000 2.06 300 23:19 17.03.2021
5211 Clear 1 1026 100 10000 2.57 310 22:38 17.03.2021
5212 Fog 1 1027 100 10000 1.54 300 22:20 17.03.2021
5213 Fog 1 1027 100 10000 2.06 290 21:50 17.03.2021
5214 Clear 2 1027 100 10000 1.03 280 21:31 17.03.2021
5215 Clouds 2 1026 93 10000 1.54 310 20:48 17.03.2021
5216 Clouds 2 1026 100 10000 1.03 300 20:26 17.03.2021
5217 Clouds 3 1026 93 10000 1.54 310 19:58 17.03.2021
5218 Clouds 3 1026 93 10000 1.54 310 19:39 17.03.2021
5219 Clouds 4 1025 87 10000 2.57 310 19:19 17.03.2021
5220 Rain 4 1025 81 6000 6.17 10 18:49 17.03.2021
5221 Rain 5 1025 81 10000 3.6 300 18:31 17.03.2021
5222 Clouds 6 1025 75 10000 3.09 310 17:33 17.03.2021
5223 Clouds 6 1025 70 10000 1.54 340 16:59 17.03.2021
5224 Clouds 6 1025 70 10000 1.54 340 16:39 17.03.2021
5225 Clouds 7 1025 70 10000 4.12 320 16:20 17.03.2021
5226 Clouds 6 1024 75 10000 3.09 290 15:45 17.03.2021
5227 Clouds 6 1024 81 10000 3.09 340 15:26 17.03.2021
5228 Rain 7 1024 61 8000 7.72 340 14:40 17.03.2021
5229 Rain 8 1024 57 10000 3.09 360 14:19 17.03.2021
5230 Clouds 8 1024 57 10000 3.09 10 13:54 17.03.2021
5231 Clouds 8 1023 61 10000 2.57 360 13:24 17.03.2021
5232 Clouds 9 1023 57 10000 2.06 0 12:43 17.03.2021
5233 Clouds 7 1023 61 10000 3.6 20 12:25 17.03.2021
5234 Clouds 7 1023 65 10000 4.12 350 11:41 17.03.2021
5235 Clouds 6 1024 65 10000 3.6 360 11:21 17.03.2021
5236 Clouds 5 1023 75 10000 2.57 300 10:52 17.03.2021
5237 Clouds 5 1023 81 10000 3.6 290 10:24 17.03.2021
5238 Clouds 4 1023 81 10000 4.63 300 09:46 17.03.2021
5239 Clouds 4 1023 75 10000 3.09 300 09:20 17.03.2021
5240 Clouds 4 1023 81 10000 4.12 300 08:53 17.03.2021
5241 Clouds 3 1023 81 10000 4.12 300 08:33 17.03.2021
5242 Clouds 3 1022 81 10000 2.57 290 07:46 17.03.2021
5243 Clouds 2 1022 87 10000 2.57 290 07:19 17.03.2021
5244 Clouds 2 1022 87 10000 2.57 290 06:36 17.03.2021
5245 Clouds 2 1022 93 10000 4.12 290 04:19 17.03.2021
5246 Clouds 2 1022 87 10000 3.6 300 02:49 17.03.2021
5247 Clouds 3 1022 87 10000 3.09 300 00:40 17.03.2021
5248 Clouds 3 1022 87 10000 4.63 300 23:28 16.03.2021
5249 Clouds 3 1022 87 10000 3.6 290 22:48 16.03.2021
5250 Clouds 3 1022 87 10000 2.57 270 22:29 16.03.2021
5251 Clouds 3 1022 81 10000 3.09 320 21:47 16.03.2021
5252 Clouds 3 1022 81 10000 4.63 330 21:29 16.03.2021
5253 Clouds 4 1021 70 10000 4.12 320 20:58 16.03.2021
5254 Clouds 4 1021 70 10000 3.6 330 20:20 16.03.2021
5255 Clouds 4 1022 70 10000 4.63 340 19:58 16.03.2021
5256 Clouds 4 1022 70 10000 4.63 340 19:40 16.03.2021
5257 Clouds 5 1021 75 10000 5.66 340 19:20 16.03.2021
5258 Clouds 5 1021 65 10000 5.14 340 18:40 16.03.2021
5259 Clouds 6 1021 65 10000 4.63 340 18:21 16.03.2021
5260 Clouds 6 1021 70 10000 5.66 340 17:47 16.03.2021
5261 Clouds 7 1021 61 10000 6.69 340 17:29 16.03.2021
5262 Clouds 7 1021 61 10000 7.2 340 16:52 16.03.2021
5263 Clouds 7 1021 57 10000 6.69 330 16:28 16.03.2021
5264 Clouds 8 1020 53 10000 7.2 310 15:47 16.03.2021
5265 Clouds 8 1020 53 10000 7.72 320 15:21 16.03.2021
5266 Clouds 8 1020 57 10000 8.23 300 14:58 16.03.2021
5267 Clouds 8 1020 57 10000 8.23 300 14:40 16.03.2021
5268 Clouds 8 1020 57 10000 8.23 300 14:40 16.03.2021
5269 Clouds 7 1020 57 10000 6.69 310 14:21 16.03.2021
5270 Clouds 7 1021 57 10000 7.2 330 13:54 16.03.2021
5271 Clouds 8 1021 57 10000 8.23 310 13:26 16.03.2021
5272 Clouds 8 1021 57 10000 8.23 310 12:54 16.03.2021
5273 Clouds 8 1021 57 10000 8.23 310 12:35 16.03.2021
5274 Clouds 7 1020 65 10000 6.69 310 11:54 16.03.2021
5275 Clouds 7 1020 70 10000 7.2 320 11:28 16.03.2021
5276 Clouds 5 1020 87 10000 6.69 300 10:45 16.03.2021
5277 Clouds 5 1020 81 10000 7.2 300 10:20 16.03.2021
5278 Clouds 5 1020 81 10000 6.69 300 09:40 16.03.2021
5279 Clouds 5 1020 81 10000 6.17 290 09:19 16.03.2021
5280 Clouds 5 1019 81 10000 4.63 290 08:52 16.03.2021
5281 Clouds 5 1019 81 10000 4.63 290 08:33 16.03.2021
5282 Clouds 4 1019 87 10000 5.14 300 07:50 16.03.2021
5283 Clouds 4 1019 87 10000 4.12 300 07:24 16.03.2021
5284 Clouds 4 1019 87 10000 4.63 290 06:37 16.03.2021
5285 Clouds 4 1018 87 10000 5.66 300 05:36 16.03.2021
5286 Clear 2 1017 93 10000 3.6 300 02:46 16.03.2021
5287 Clear 2 1017 93 10000 3.6 300 02:25 16.03.2021
5288 Clear 3 1016 93 10000 5.14 300 00:38 16.03.2021
5289 Clouds 3 1015 87 10000 4.12 300 23:54 15.03.2021
5290 Clouds 3 1015 93 10000 4.12 300 23:19 15.03.2021
5291 Clouds 4 1015 93 10000 4.63 300 22:43 15.03.2021
5292 Clouds 4 1014 93 10000 5.14 300 22:24 15.03.2021
5293 Clouds 4 1014 87 10000 5.14 300 21:49 15.03.2021
5294 Clouds 4 1013 87 10000 5.14 310 21:28 15.03.2021
5295 Clouds 4 1013 87 10000 5.66 300 20:54 15.03.2021
5296 Clouds 4 1013 87 10000 5.66 300 20:36 15.03.2021
5297 Clouds 5 1012 81 10000 6.17 310 20:18 15.03.2021
5298 Clouds 5 1012 81 10000 7.72 320 19:43 15.03.2021
5299 Clouds 5 1012 75 10000 9.77 310 19:22 15.03.2021
5300 Clouds 6 1011 70 10000 10.8 320 18:47 15.03.2021
5301 Clouds 6 1011 75 10000 9.77 310 18:23 15.03.2021
5302 Clouds 6 1010 70 10000 10.8 310 17:55 15.03.2021
5303 Clouds 6 1009 70 10000 10.29 310 17:28 15.03.2021
5304 Clouds 6 1009 81 10000 8.23 320 16:49 15.03.2021
5305 Clouds 6 1009 87 10000 6.69 330 16:20 15.03.2021
5306 Clouds 6 1008 76 10000 10.8 320 15:39 15.03.2021
5307 Clouds 7 1008 76 10000 9.77 300 15:20 15.03.2021
5308 Clouds 7 1007 76 10000 10.29 290 14:41 15.03.2021
5309 Clouds 7 1007 76 10000 10.29 290 14:21 15.03.2021
5310 Clouds 7 1007 76 10000 10.29 290 13:46 15.03.2021
5311 Clouds 7 1007 76 10000 10.8 310 13:24 15.03.2021
5312 Clouds 8 1007 76 10000 10.29 290 12:47 15.03.2021
5313 Clouds 7 1007 76 10000 9.26 290 12:18 15.03.2021
5314 Clouds 7 1006 76 10000 8.23 300 11:47 15.03.2021
5315 Clouds 7 1006 81 10000 7.72 290 11:29 15.03.2021
5316 Clouds 6 1006 87 10000 7.72 270 10:45 15.03.2021
5317 Clouds 6 1006 87 10000 7.72 270 10:45 15.03.2021
5318 Clouds 6 1006 87 10000 8.23 270 10:26 15.03.2021
5319 Clouds 6 1006 87 10000 8.23 270 10:26 15.03.2021
5320 Clouds 5 1006 93 10000 7.2 260 09:49 15.03.2021
5321 Clouds 5 1006 87 10000 6.69 260 09:30 15.03.2021
5322 Rain 5 1006 87 10000 7.2 260 08:48 15.03.2021
5323 Clouds 5 1006 87 10000 6.17 250 08:28 15.03.2021
5324 Clouds 4 1006 93 10000 5.14 260 07:49 15.03.2021
5325 Clouds 4 1006 93 10000 4.63 260 07:30 15.03.2021
5326 Clouds 4 1006 93 10000 4.12 250 06:39 15.03.2021
5327 Clouds 3 1006 93 10000 3.6 250 05:31 15.03.2021
5328 Clouds 4 1007 87 10000 3.6 240 01:26 15.03.2021
5329 Clouds 4 1007 87 10000 3.6 240 23:54 14.03.2021
5330 Clouds 4 1008 87 10000 4.12 240 23:19 14.03.2021
5331 Clouds 4 1008 93 10000 4.12 240 22:46 14.03.2021
5332 Clouds 4 1008 87 10000 4.12 240 22:19 14.03.2021
5333 Clouds 4 1008 87 10000 4.63 260 21:45 14.03.2021
5334 Clouds 5 1008 87 10000 5.66 260 21:19 14.03.2021
5335 Clouds 5 1008 87 10000 4.63 250 20:43 14.03.2021
5336 Clouds 5 1008 87 10000 3.6 260 20:25 14.03.2021
5337 Clouds 6 1008 87 10000 4.63 250 19:43 14.03.2021
5338 Clouds 6 1008 87 10000 4.63 280 19:23 14.03.2021
5339 Clouds 6 1007 81 10000 4.63 260 18:49 14.03.2021
5340 Clouds 7 1007 76 10000 6.17 260 18:27 14.03.2021
5341 Clouds 7 1007 81 10000 5.14 250 17:41 14.03.2021
5342 Rain 7 1007 76 10000 4.63 300 17:22 14.03.2021
5343 Clouds 8 1006 71 10000 7.2 260 16:46 14.03.2021
5344 Rain 9 1006 66 10000 6.17 270 16:28 14.03.2021
5345 Rain 8 1007 71 10000 5.14 280 15:56 14.03.2021
5346 Clouds 8 1007 71 10000 5.14 280 15:36 14.03.2021
5347 Rain 8 1007 87 10000 4.63 260 14:41 14.03.2021
5348 Clouds 7 1007 75 9000 9.77 310 14:23 14.03.2021
5349 Rain 8 1006 61 10000 7.2 270 13:49 14.03.2021
5350 Rain 8 1006 66 10000 9.26 260 13:29 14.03.2021
5351 Clouds 9 1006 66 10000 8.75 260 12:47 14.03.2021
5352 Clouds 8 1005 71 10000 8.75 260 12:28 14.03.2021
5353 Clouds 8 1005 76 10000 7.2 270 11:54 14.03.2021
5354 Clouds 8 1005 76 10000 7.2 270 11:36 14.03.2021
5355 Clouds 7 1004 81 10000 7.72 260 10:56 14.03.2021
5356 Clouds 7 1004 81 10000 7.72 260 10:37 14.03.2021
5357 Clouds 6 1004 87 10000 8.23 270 10:18 14.03.2021
5358 Clouds 6 1004 93 10000 5.14 270 09:44 14.03.2021
5359 Clouds 4 1003 87 8000 4.63 300 09:23 14.03.2021
5360 Rain 4 1003 87 10000 4.12 310 08:49 14.03.2021
5361 Rain 4 1002 93 10000 5.14 300 08:31 14.03.2021
5362 Rain 4 1001 93 9000 7.2 300 07:48 14.03.2021
5363 Rain 4 1001 93 9000 7.2 300 07:48 14.03.2021
5364 Rain 4 1000 87 10000 7.72 260 07:20 14.03.2021
5365 Clouds 3 999 87 10000 7.2 270 05:33 14.03.2021
5366 Rain 4 993 87 10000 13.89 270 00:59 14.03.2021
5367 Rain 4 993 87 10000 12.86 260 00:20 14.03.2021
5368 Rain 4 993 87 10000 12.86 260 00:20 14.03.2021
5369 Rain 4 992 87 10000 13.89 260 23:57 13.03.2021
5370 Rain 4 992 87 10000 13.89 260 23:36 13.03.2021
5371 Rain 5 991 81 10000 13.38 260 22:55 13.03.2021
5372 Rain 5 991 81 10000 13.38 260 22:36 13.03.2021
5373 Rain 5 990 87 10000 13.89 250 21:50 13.03.2021
5374 Rain 5 989 81 10000 12.86 250 21:27 13.03.2021
5375 Rain 6 989 75 10000 12.35 240 20:54 13.03.2021
5376 Rain 6 989 75 10000 12.35 240 20:32 13.03.2021
5377 Clouds 5 989 81 10000 12.35 250 19:56 13.03.2021
5378 Clouds 5 989 81 10000 12.35 250 19:36 13.03.2021
5379 Clouds 5 989 81 10000 12.35 250 19:18 13.03.2021
5380 Clouds 5 989 81 10000 12.35 250 19:18 13.03.2021
5381 Clouds 5 988 87 10000 13.89 270 18:40 13.03.2021
5382 Rain 5 987 81 10000 10.29 250 18:19 13.03.2021
5383 Clouds 6 987 81 10000 8.23 220 17:44 13.03.2021
5384 Rain 6 987 81 10000 10.29 230 17:25 13.03.2021
5385 Clouds 6 987 81 10000 11.32 240 16:50 13.03.2021
5386 Clouds 7 987 71 10000 9.26 230 16:31 13.03.2021
5387 Rain 6 987 81 10000 8.75 250 15:47 13.03.2021
5388 Rain 7 987 71 10000 11.32 230 14:56 13.03.2021
5389 Clouds 7 987 71 10000 11.32 230 14:38 13.03.2021
5390 Clouds 8 988 76 10000 9.26 230 14:18 13.03.2021
5391 Clouds 7 988 81 10000 7.72 250 13:26 13.03.2021
5392 Rain 6 988 81 8000 11.32 260 12:48 13.03.2021
5393 Clouds 8 988 71 10000 9.26 220 12:29 13.03.2021
5394 Clouds 8 988 71 10000 8.75 220 11:52 13.03.2021
5395 Clouds 8 988 81 10000 8.75 220 11:31 13.03.2021
5396 Clouds 7 989 75 10000 8.23 220 10:55 13.03.2021
5397 Clouds 6 989 75 10000 13.89 240 10:31 13.03.2021
5398 Rain 6 988 87 9000 8.23 180 09:57 13.03.2021
5399 Rain 6 989 87 9000 8.75 180 09:31 13.03.2021
5400 Rain 5 989 93 9000 8.75 180 08:53 13.03.2021
5401 Rain 5 990 93 9000 8.75 170 08:20 13.03.2021
5402 Rain 5 991 93 10000 8.23 170 07:56 13.03.2021
5403 Rain 5 992 93 10000 8.23 180 07:28 13.03.2021
5404 Clouds 4 996 93 10000 4.12 190 04:45 13.03.2021
5405 Clouds 3 998 87 10000 7.72 220 01:22 13.03.2021
5406 Rain 3 999 93 5000 6.17 280 00:24 13.03.2021
5407 Clouds 4 999 87 10000 5.66 230 23:33 12.03.2021
5408 Rain 4 999 87 10000 5.14 230 22:57 12.03.2021
5409 Clouds 5 998 81 10000 5.14 240 22:30 12.03.2021
5410 Clouds 4 998 87 10000 4.63 250 21:56 12.03.2021
5411 Clouds 4 998 87 10000 4.63 250 21:37 12.03.2021
5412 Rain 4 999 93 8000 3.09 280 21:18 12.03.2021
5413 Clouds 4 998 93 10000 6.17 270 20:47 12.03.2021
5414 Clouds 5 998 87 10000 5.66 230 20:22 12.03.2021
5415 Clouds 4 999 93 10000 3.6 240 19:44 12.03.2021
5416 Clouds 4 999 93 10000 5.14 240 19:25 12.03.2021
5417 Clouds 5 998 81 6000 9.77 230 18:47 12.03.2021
5418 Rain 6 998 71 10000 10.29 220 18:25 12.03.2021
5419 Clouds 7 998 71 10000 8.75 220 17:44 12.03.2021
5420 Rain 7 999 81 10000 5.14 220 17:26 12.03.2021
5421 Rain 7 999 81 10000 9.26 220 16:44 12.03.2021
5422 Rain 8 1000 76 10000 10.29 220 16:24 12.03.2021
5423 Rain 8 1000 76 10000 10.29 220 16:24 12.03.2021
5424 Clouds 8 1000 76 10000 9.77 220 15:38 12.03.2021
5425 Clouds 8 1001 71 10000 12.35 230 14:58 12.03.2021
5426 Clouds 7 1001 71 10000 12.35 230 14:38 12.03.2021
5427 Rain 9 1001 57 10000 11.32 230 14:18 12.03.2021
5428 Clouds 9 1002 57 10000 9.77 230 13:38 12.03.2021
5429 Clouds 9 1002 61 10000 10.8 240 13:19 12.03.2021
5430 Clouds 9 1002 66 10000 11.32 230 12:49 12.03.2021
5431 Clouds 8 1002 61 10000 10.8 240 12:28 12.03.2021
5432 Clouds 8 1002 66 10000 10.29 240 11:54 12.03.2021
5433 Clouds 8 1002 66 10000 10.29 240 11:54 12.03.2021
5434 Clouds 8 1002 70 10000 10.8 240 11:25 12.03.2021
5435 Clouds 7 1003 70 10000 9.26 240 10:57 12.03.2021
5436 Clouds 7 1003 75 10000 10.8 240 10:28 12.03.2021
5437 Clouds 7 1003 75 10000 9.26 240 09:58 12.03.2021
5438 Clouds 6 1003 75 10000 9.77 250 09:27 12.03.2021
5439 Clouds 6 1002 75 10000 8.75 240 08:51 12.03.2021
5440 Clouds 6 1002 75 10000 8.75 240 08:33 12.03.2021
5441 Clouds 5 1002 75 10000 8.23 260 07:41 12.03.2021
5442 Clouds 6 1002 75 10000 8.23 260 07:18 12.03.2021
5443 Clouds 6 1001 75 10000 8.23 260 06:40 12.03.2021
5444 Clouds 5 998 87 10000 5.14 230 03:29 12.03.2021
5445 Rain 5 997 87 10000 6.17 240 00:52 12.03.2021
5446 Clouds 5 997 87 10000 6.17 240 23:40 11.03.2021
5447 Clouds 6 996 81 10000 4.63 250 22:58 11.03.2021
5448 Rain 6 996 81 10000 4.63 250 22:38 11.03.2021
5449 Clouds 6 995 87 10000 5.66 260 22:18 11.03.2021
5450 Rain 6 995 87 10000 4.63 280 21:42 11.03.2021
5451 Clouds 7 995 87 10000 8.23 260 21:21 11.03.2021
5452 Rain 7 994 81 10000 5.66 250 20:49 11.03.2021
5453 Clouds 7 995 81 10000 5.14 250 20:22 11.03.2021
5454 Clouds 7 995 87 10000 3.6 250 19:49 11.03.2021
5455 Rain 8 994 81 10000 7.72 260 19:30 11.03.2021
5456 Clouds 8 994 81 10000 9.77 260 18:52 11.03.2021
5457 Rain 8 994 81 10000 9.77 260 18:34 11.03.2021
5458 Clouds 8 993 76 10000 14.4 270 17:52 11.03.2021
5459 Clouds 8 993 76 10000 12.86 270 17:30 11.03.2021
5460 Clouds 9 992 81 10000 11.83 260 16:32 11.03.2021
5461 Clouds 9 991 81 10000 12.35 250 15:56 11.03.2021
5462 Clouds 9 991 81 10000 12.35 250 15:37 11.03.2021
5463 Rain 8 990 87 10000 13.38 240 15:19 11.03.2021
5464 Rain 8 990 81 6000 13.38 250 14:43 11.03.2021
5465 Rain 9 989 76 10000 13.38 230 14:18 11.03.2021
5466 Rain 10 989 71 10000 14.4 250 13:43 11.03.2021
5467 Rain 11 989 71 10000 13.89 230 13:21 11.03.2021
5468 Clouds 12 990 62 10000 13.38 240 12:50 11.03.2021
5469 Clouds 11 990 66 10000 11.83 230 12:28 11.03.2021
5470 Clouds 11 990 71 10000 11.83 220 11:46 11.03.2021
5471 Clouds 11 991 71 10000 13.38 220 11:27 11.03.2021
5472 Clouds 11 991 71 10000 12.86 220 10:55 11.03.2021
5473 Clouds 10 992 81 10000 10.29 220 10:25 11.03.2021
5474 Clouds 9 992 87 10000 9.26 200 09:50 11.03.2021
5475 Clouds 9 992 87 10000 9.26 200 09:32 11.03.2021
5476 Clouds 8 993 87 10000 7.72 200 08:50 11.03.2021
5477 Clouds 7 994 93 7000 8.23 190 08:31 11.03.2021
5478 Clouds 7 994 93 9000 7.72 200 07:47 11.03.2021
5479 Clouds 7 995 93 9000 7.72 200 07:20 11.03.2021
5480 Rain 7 995 87 9000 7.2 200 06:40 11.03.2021
5481 Rain 7 996 87 7000 6.17 200 06:21 11.03.2021
5482 Clouds 6 1001 87 6000 8.23 170 02:25 11.03.2021
5483 Rain 7 1004 81 10000 7.72 180 00:26 11.03.2021
5484 Rain 7 1006 76 10000 8.75 160 23:23 10.03.2021
5485 Rain 7 1007 76 10000 7.72 160 22:42 10.03.2021
5486 Rain 7 1007 76 10000 7.2 160 22:21 10.03.2021
5487 Rain 7 1008 76 10000 7.72 160 21:44 10.03.2021
5488 Clouds 7 1009 76 10000 7.2 160 21:22 10.03.2021
5489 Clouds 7 1009 76 10000 7.2 160 21:22 10.03.2021
5490 Clouds 7 1010 76 10000 7.2 160 20:45 10.03.2021
5491 Rain 7 1010 76 10000 5.66 140 20:27 10.03.2021
5492 Rain 7 1011 81 10000 5.14 140 19:48 10.03.2021
5493 Rain 7 1012 81 10000 5.14 160 19:27 10.03.2021
5494 Rain 7 1012 76 10000 5.14 150 18:46 10.03.2021
5495 Rain 7 1012 81 10000 5.14 150 18:24 10.03.2021
5496 Rain 7 1012 81 10000 5.14 150 18:24 10.03.2021
5497 Rain 7 1013 81 10000 4.63 160 17:56 10.03.2021
5498 Rain 7 1013 81 10000 4.63 160 17:37 10.03.2021
5499 Rain 7 1014 81 10000 4.63 170 17:19 10.03.2021
5500 Clouds 7 1014 76 10000 4.63 180 16:42 10.03.2021
5501 Rain 7 1014 76 10000 5.66 180 16:23 10.03.2021
5502 Clouds 7 1014 76 10000 4.63 190 15:46 10.03.2021
5503 Clouds 7 1015 76 10000 4.63 190 15:23 10.03.2021
5504 Clouds 7 1015 76 10000 5.66 170 14:56 10.03.2021
5505 Clouds 7 1016 70 10000 6.17 170 14:20 10.03.2021
5506 Clouds 7 1016 70 10000 6.17 170 14:20 10.03.2021
5507 Clouds 7 1016 70 10000 6.17 180 13:52 10.03.2021
5508 Clouds 6 1017 75 10000 6.17 170 13:30 10.03.2021
5509 Clouds 6 1017 70 10000 7.2 170 12:46 10.03.2021
5510 Clouds 6 1017 70 10000 5.66 170 12:21 10.03.2021
5511 Clouds 5 1017 81 8000 5.66 150 11:44 10.03.2021
5512 Clouds 4 1017 87 7000 4.63 160 11:21 10.03.2021
5513 Clouds 4 1018 87 7000 4.12 150 10:49 10.03.2021
5514 Mist 3 1018 93 5000 3.6 140 10:30 10.03.2021
5515 Mist 3 1018 93 3600 2.57 140 09:46 10.03.2021
5516 Mist 3 1018 93 3000 2.57 130 09:27 10.03.2021
5517 Mist 2 1018 100 2800 3.09 160 08:58 10.03.2021
5518 Mist 2 1018 100 2800 3.09 160 08:40 10.03.2021
5519 Mist 2 1018 93 2800 2.06 150 08:21 10.03.2021
5520 Mist 2 1018 93 2800 2.06 170 07:41 10.03.2021
5521 Mist 2 1018 100 2800 2.57 170 07:19 10.03.2021
5522 Mist 2 1018 100 3800 2.06 160 06:46 10.03.2021
5523 Mist 2 1018 100 3800 1.63 133 02:42 10.03.2021
5524 Fog 2 1018 100 700 1.03 80 23:59 09.03.2021
5525 Mist 2 1018 100 1800 1.54 90 23:27 09.03.2021
5526 Fog 2 1018 100 800 1.54 80 22:50 09.03.2021
5527 Mist 2 1018 100 1100 1.03 70 22:31 09.03.2021
5528 Mist 2 1018 100 1000 1.54 60 21:58 09.03.2021
5529 Mist 2 1018 100 1000 1.54 60 21:37 09.03.2021
5530 Mist 2 1018 100 1600 1.54 60 21:18 09.03.2021
5531 Mist 2 1018 100 1800 1.54 80 20:45 09.03.2021
5532 Mist 2 1018 100 1500 1.54 90 20:23 09.03.2021
5533 Mist 2 1018 100 1500 1.54 80 19:59 09.03.2021
5534 Mist 2 1018 100 1500 2.57 100 19:29 09.03.2021
5535 Mist 2 1017 100 1000 2.57 90 18:55 09.03.2021
5536 Mist 2 1017 100 1200 2.06 100 18:31 09.03.2021
5537 Mist 2 1017 100 1600 2.57 90 17:59 09.03.2021
5538 Mist 2 1017 100 1600 2.57 90 17:39 09.03.2021
5539 Mist 2 1017 100 2000 2.57 90 17:20 09.03.2021
5540 Mist 2 1017 100 1500 3.09 90 16:40 09.03.2021
5541 Mist 2 1017 100 1500 3.09 80 16:21 09.03.2021
5542 Mist 2 1017 100 2000 2.57 80 15:56 09.03.2021
5543 Mist 2 1016 100 3000 2.06 100 15:25 09.03.2021
5544 Mist 2 1016 93 3500 2.57 110 14:49 09.03.2021
5545 Mist 2 1016 93 4500 2.57 120 14:26 09.03.2021
5546 Mist 2 1017 93 4500 2.57 120 13:42 09.03.2021
5547 Mist 2 1017 93 4500 2.57 120 13:21 09.03.2021
5548 Mist 2 1017 93 5000 2.57 120 12:54 09.03.2021
5549 Mist 2 1017 93 5000 2.57 120 12:35 09.03.2021
5550 Rain 2 1017 93 5000 3.6 120 11:44 09.03.2021
5551 Rain 2 1017 93 5000 3.6 120 11:22 09.03.2021
5552 Rain 1 1017 93 5000 3.09 120 10:59 09.03.2021
5553 Rain 1 1017 93 5000 3.09 120 10:39 09.03.2021
5554 Snow 1 1017 93 5000 3.09 130 10:20 09.03.2021
5555 Snow 1 1017 93 4500 2.57 130 09:46 09.03.2021
5556 Rain 1 1017 100 3500 2.57 130 09:27 09.03.2021
5557 Rain 1 1017 100 2000 2.57 130 08:57 09.03.2021
5558 Rain 1 1017 100 2000 3.09 130 08:32 09.03.2021
5559 Snow 1 1017 100 2000 3.09 130 07:46 09.03.2021
5560 Snow 1 1017 100 2000 3.09 130 07:26 09.03.2021
5561 Snow 1 1017 100 2800 4.12 130 06:55 09.03.2021
5562 Snow 1 1017 100 2400 4.63 140 05:53 09.03.2021
5563 Rain 3 1020 65 10000 1.54 200 01:42 09.03.2021
5564 Rain 3 1020 60 10000 2.57 120 23:58 08.03.2021
5565 Rain 3 1020 60 10000 2.57 120 23:39 08.03.2021
5566 Rain 3 1021 60 10000 2.57 140 23:19 08.03.2021
5567 Clear 3 1021 56 10000 2.57 140 22:40 08.03.2021
5568 Clear 3 1021 52 10000 2.06 130 22:21 08.03.2021
5569 Clear 4 1021 48 10000 2.06 140 21:50 08.03.2021
5570 Clear 4 1021 48 10000 2.06 140 21:50 08.03.2021
5571 Clear 3 1021 60 10000 1.54 150 21:30 08.03.2021
5572 Clear 4 1021 48 10000 1.03 140 20:44 08.03.2021
5573 Clear 4 1021 56 10000 1.54 200 20:23 08.03.2021
5574 Clear 3 1021 52 10000 1.54 160 19:53 08.03.2021
5575 Clear 5 1022 42 10000 1.54 140 19:27 08.03.2021
5576 Clear 4 1022 48 10000 2.06 150 18:38 08.03.2021
5577 Clear 5 1022 45 10000 1.54 140 18:19 08.03.2021
5578 Clear 5 1022 45 10000 2.57 150 17:48 08.03.2021
5579 Clear 6 1022 39 10000 2.06 120 17:24 08.03.2021
5580 Clear 6 1022 39 10000 3.09 140 16:45 08.03.2021
5581 Clear 6 1022 39 10000 3.09 140 16:26 08.03.2021
5582 Clear 7 1022 39 10000 2.57 120 15:48 08.03.2021
5583 Clear 7 1023 36 10000 3.09 150 15:25 08.03.2021
5584 Clear 7 1023 39 10000 3.6 160 14:38 08.03.2021
5585 Clear 6 1023 38 10000 3.09 130 14:19 08.03.2021
5586 Clouds 6 1023 36 10000 3.09 170 13:37 08.03.2021
5587 Clouds 6 1023 38 10000 4.12 160 13:18 08.03.2021
5588 Clouds 6 1024 45 10000 2.57 150 12:42 08.03.2021
5589 Clouds 6 1024 52 10000 2.57 150 12:22 08.03.2021
5590 Clear 5 1024 56 10000 2.57 150 11:38 08.03.2021
5591 Clear 4 1024 60 10000 2.06 150 11:18 08.03.2021
5592 Clear 3 1024 70 10000 2.06 140 10:41 08.03.2021
5593 Clear 2 1024 69 10000 2.06 120 10:19 08.03.2021
5594 Clear 1 1024 75 10000 2.57 90 09:41 08.03.2021
5595 Clear 1 1024 80 10000 1.54 80 09:22 08.03.2021
5596 Clear -1 1023 93 10000 1.54 40 08:28 08.03.2021
5597 Fog -2 1023 93 10000 1.54 30 07:23 08.03.2021
5598 Clear -1 1022 100 10000 0.51 30 06:43 08.03.2021
5599 Clouds 0 1021 100 10000 2.06 310 03:39 08.03.2021
5600 Clouds 2 1021 93 10000 2.57 300 00:44 08.03.2021
5601 Drizzle 3 1021 87 8000 4.12 340 23:57 07.03.2021
5602 Drizzle 3 1021 87 8000 4.12 340 23:39 07.03.2021
5603 Clouds 3 1021 93 6000 5.14 350 23:19 07.03.2021
5604 Clouds 4 1021 93 7000 4.63 310 22:43 07.03.2021
5605 Clouds 4 1020 93 10000 5.14 280 22:25 07.03.2021
5606 Drizzle 4 1020 87 10000 5.14 270 21:45 07.03.2021
5607 Clouds 4 1020 87 10000 5.66 260 21:25 07.03.2021
5608 Clouds 4 1020 81 10000 5.14 260 20:48 07.03.2021
5609 Clouds 4 1021 81 10000 5.14 260 20:30 07.03.2021
5610 Clouds 4 1021 81 10000 4.63 270 19:57 07.03.2021
5611 Clouds 4 1021 81 10000 4.63 270 19:38 07.03.2021
5612 Clouds 4 1021 81 10000 4.63 260 19:20 07.03.2021
5613 Clouds 4 1020 75 10000 5.14 260 18:44 07.03.2021
5614 Clouds 4 1020 75 10000 5.14 270 18:20 07.03.2021
5615 Clouds 4 1021 75 10000 5.66 260 17:42 07.03.2021
5616 Clouds 5 1021 70 10000 6.17 270 17:21 07.03.2021
5617 Clouds 5 1021 70 10000 5.66 280 16:59 07.03.2021
5618 Clouds 5 1021 70 10000 5.66 280 16:38 07.03.2021
5619 Clouds 5 1021 70 10000 6.17 270 16:19 07.03.2021
5620 Clouds 5 1021 70 10000 6.17 270 16:19 07.03.2021
5621 Clouds 5 1022 70 10000 6.69 280 15:45 07.03.2021
5622 Clouds 4 1022 70 10000 6.69 270 15:23 07.03.2021
5623 Clouds 5 1022 65 10000 5.66 270 14:39 07.03.2021
5624 Clouds 5 1022 65 10000 7.2 280 14:20 07.03.2021
5625 Clouds 5 1023 65 10000 7.2 270 13:41 07.03.2021
5626 Clouds 5 1023 65 10000 6.69 270 13:21 07.03.2021
5627 Clouds 5 1023 65 10000 5.66 260 12:47 07.03.2021
5628 Clouds 5 1024 65 10000 6.17 260 12:29 07.03.2021
5629 Clouds 5 1024 70 10000 5.66 250 11:49 07.03.2021
5630 Clouds 4 1024 70 10000 4.12 260 11:22 07.03.2021
5631 Clouds 3 1024 75 10000 4.63 260 10:50 07.03.2021
5632 Clouds 3 1024 70 10000 4.63 260 10:31 07.03.2021
5633 Clouds 2 1025 80 10000 3.6 260 09:51 07.03.2021
5634 Clouds 2 1025 80 10000 3.09 250 09:26 07.03.2021
5635 Clouds 2 1025 75 10000 3.09 260 08:48 07.03.2021
5636 Clouds 2 1025 80 10000 3.6 250 08:25 07.03.2021
5637 Clouds 2 1025 80 10000 3.6 250 07:51 07.03.2021
5638 Clouds 0 1028 93 10000 2.57 270 02:44 07.03.2021
5639 Clouds -1 1028 93 10000 2.06 260 01:45 07.03.2021
5640 Clear -1 1029 93 10000 2.57 260 00:24 07.03.2021
5641 Clear 0 1029 86 10000 2.57 250 23:39 06.03.2021
5642 Clouds 1 1030 86 10000 2.57 280 22:57 06.03.2021
5643 Clouds 1 1030 86 10000 2.57 280 22:38 06.03.2021
5644 Clouds 2 1030 80 10000 3.09 300 22:19 06.03.2021
5645 Clouds 3 1030 81 10000 2.57 290 21:40 06.03.2021
5646 Clouds 3 1030 87 10000 2.06 280 21:20 06.03.2021
5647 Clouds 3 1030 87 10000 2.06 280 20:41 06.03.2021
5648 Clouds 3 1030 87 10000 2.57 310 19:51 06.03.2021
5649 Clouds 4 1031 87 10000 2.06 300 19:25 06.03.2021
5650 Clouds 4 1031 87 10000 2.06 300 18:57 06.03.2021
5651 Clouds 4 1031 87 10000 2.06 300 18:39 06.03.2021
5652 Clouds 4 1030 87 10000 2.06 330 18:20 06.03.2021
5653 Clouds 5 1031 87 10000 4.63 290 17:47 06.03.2021
5654 Clouds 5 1031 81 10000 2.57 290 17:26 06.03.2021
5655 Clouds 5 1031 81 10000 3.09 290 16:53 06.03.2021
5656 Clouds 5 1031 81 10000 5.14 270 16:30 06.03.2021
5657 Clouds 6 1031 75 10000 5.14 280 15:55 06.03.2021
5658 Clouds 6 1031 75 10000 5.14 280 15:34 06.03.2021
5659 Clouds 6 1032 87 10000 4.63 280 14:57 06.03.2021
5660 Clouds 5 1032 81 10000 5.14 280 14:31 06.03.2021
5661 Clouds 6 1032 81 10000 4.63 270 13:50 06.03.2021
5662 Clouds 6 1033 87 10000 6.17 290 13:32 06.03.2021
5663 Clouds 6 1033 87 10000 4.63 280 12:58 06.03.2021
5664 Clouds 6 1033 87 10000 4.63 280 12:38 06.03.2021
5665 Clouds 6 1033 81 10000 4.63 290 12:18 06.03.2021
5666 Clouds 5 1033 87 10000 3.6 270 11:29 06.03.2021
5667 Clouds 4 1033 93 10000 4.12 280 10:59 06.03.2021
5668 Clouds 4 1033 93 10000 4.12 280 10:41 06.03.2021
5669 Clouds 3 1033 93 10000 4.63 270 09:56 06.03.2021
5670 Clouds 2 1033 93 10000 4.63 270 09:24 06.03.2021
5671 Clouds 2 1033 87 10000 4.12 260 08:54 06.03.2021
5672 Clouds 1 1033 93 10000 3.09 260 08:30 06.03.2021
5673 Clouds 1 1033 93 10000 3.09 260 08:30 06.03.2021
5674 Clouds 1 1032 86 10000 3.6 250 07:43 06.03.2021
5675 Clouds 1 1032 86 10000 3.09 250 07:21 06.03.2021
5676 Clouds 1 1032 86 10000 3.09 260 05:50 06.03.2021
5677 Clouds -1 1032 86 10000 1.54 250 03:47 06.03.2021
5678 Clouds -1 1033 86 10000 1.03 270 01:33 06.03.2021
5679 Clouds -1 1033 86 10000 1.03 230 00:46 06.03.2021
5680 Clouds -1 1032 86 10000 1.03 250 23:48 05.03.2021
5681 Clouds -2 1032 86 10000 1.03 240 23:19 05.03.2021
5682 Clear -1 1032 86 10000 1.54 260 22:43 05.03.2021
5683 Clear -1 1032 74 10000 2.57 270 22:21 05.03.2021
5684 Clear 0 1032 75 10000 1.54 290 21:51 05.03.2021
5685 Clear 1 1032 69 10000 2.06 300 21:29 05.03.2021
5686 Clear 0 1031 74 10000 2.06 290 20:50 05.03.2021
5687 Clear 2 1031 65 10000 2.06 320 20:25 05.03.2021
5688 Clear 2 1031 65 10000 3.09 340 19:49 05.03.2021
5689 Clear 3 1031 56 10000 3.6 340 19:26 05.03.2021
5690 Clear 3 1031 56 10000 3.6 340 19:26 05.03.2021
5691 Clear 3 1030 52 10000 4.12 320 18:55 05.03.2021
5692 Clear 4 1030 52 10000 4.12 310 18:36 05.03.2021
5693 Clear 3 1030 52 10000 4.12 310 18:18 05.03.2021
5694 Clouds 5 1030 48 10000 4.63 320 17:33 05.03.2021
5695 Clouds 6 1029 45 10000 5.14 290 16:45 05.03.2021
5696 Clouds 7 1029 42 10000 4.63 290 16:24 05.03.2021
5697 Clouds 6 1029 42 10000 3.6 0 15:56 05.03.2021
5698 Clouds 7 1029 42 10000 3.6 320 15:29 05.03.2021
5699 Clouds 7 1029 45 10000 2.57 290 14:58 05.03.2021
5700 Clouds 7 1029 45 10000 2.57 290 14:38 05.03.2021
5701 Clouds 6 1029 45 10000 3.6 0 13:46 05.03.2021
5702 Clouds 7 1029 45 10000 3.6 360 13:22 05.03.2021
5703 Clouds 6 1029 48 10000 3.6 30 12:49 05.03.2021
5704 Clouds 6 1029 45 10000 4.12 30 11:54 05.03.2021
5705 Clouds 5 1029 45 10000 4.12 30 11:36 05.03.2021
5706 Clear 5 1028 52 10000 3.6 350 11:18 05.03.2021
5707 Clear 4 1028 56 10000 3.6 10 10:40 05.03.2021
5708 Clear 3 1028 60 10000 3.09 350 10:22 05.03.2021
5709 Clear 2 1027 60 10000 2.57 350 09:47 05.03.2021
5710 Clear 1 1027 64 10000 2.06 10 09:26 05.03.2021
5711 Clear -1 1027 69 10000 2.57 350 08:41 05.03.2021
5712 Clear -2 1026 74 10000 2.57 10 08:22 05.03.2021
5713 Clear -2 1026 74 10000 3.6 10 07:43 05.03.2021
5714 Clear -2 1026 74 10000 2.06 350 06:56 05.03.2021
5715 Clear -2 1025 80 10000 2.57 360 06:31 05.03.2021
5716 Clear 0 1023 74 10000 5.14 20 01:52 05.03.2021
5717 Clear 0 1022 74 10000 4.63 30 00:34 05.03.2021
5718 Clouds 1 1022 69 10000 4.63 30 23:36 04.03.2021
5719 Clouds 2 1021 75 10000 6.17 20 22:40 04.03.2021
5720 Clouds 3 1021 75 10000 5.14 30 22:22 04.03.2021
5721 Clouds 3 1020 81 10000 4.63 20 21:47 04.03.2021
5722 Drizzle 3 1020 81 10000 4.63 20 21:27 04.03.2021
5723 Drizzle 3 1020 87 10000 4.63 20 20:41 04.03.2021
5724 Drizzle 3 1019 87 6000 6.17 20 20:22 04.03.2021
5725 Drizzle 4 1019 87 8000 3.6 350 19:57 04.03.2021
5726 Drizzle 4 1019 87 8000 3.6 350 19:38 04.03.2021
5727 Clouds 4 1019 87 10000 4.12 340 19:18 04.03.2021
5728 Clouds 4 1018 81 10000 4.12 310 18:38 04.03.2021
5729 Clouds 5 1018 75 10000 3.6 320 18:20 04.03.2021
5730 Clouds 5 1018 70 10000 4.12 340 17:43 04.03.2021
5731 Clouds 5 1018 70 10000 5.14 340 17:22 04.03.2021
5732 Clouds 5 1018 75 10000 5.66 330 16:46 04.03.2021
5733 Clouds 5 1018 75 10000 5.66 330 16:25 04.03.2021
5734 Clouds 6 1018 70 10000 4.63 340 15:50 04.03.2021
5735 Clouds 6 1018 65 10000 5.66 330 15:31 04.03.2021
5736 Clouds 6 1018 70 10000 4.12 320 14:48 04.03.2021
5737 Clouds 6 1018 75 10000 3.6 290 14:26 04.03.2021
5738 Clouds 6 1019 81 10000 4.63 280 13:47 04.03.2021
5739 Clouds 5 1019 81 10000 4.63 290 13:29 04.03.2021
5740 Clouds 5 1019 81 10000 3.6 280 12:53 04.03.2021
5741 Clouds 5 1019 81 10000 3.6 280 12:35 04.03.2021
5742 Clouds 4 1019 81 10000 3.09 270 11:47 04.03.2021
5743 Clouds 4 1019 81 10000 3.6 260 11:25 04.03.2021
5744 Clouds 4 1019 81 10000 3.09 260 10:47 04.03.2021
5745 Clouds 3 1020 87 10000 3.09 280 10:26 04.03.2021
5746 Clouds 3 1020 87 10000 4.12 280 09:42 04.03.2021
5747 Clouds 3 1020 87 10000 3.6 260 09:21 04.03.2021
5748 Clouds 3 1020 87 10000 3.09 280 08:35 04.03.2021
5749 Drizzle 2 1020 100 5000 3.6 300 07:53 04.03.2021
5750 Drizzle 2 1020 93 6000 3.6 270 07:29 04.03.2021
5751 Mist 2 1021 93 5000 3.6 310 06:24 04.03.2021
5752 Mist 2 1021 100 4500 3.6 280 05:27 04.03.2021
5753 Mist 2 1023 100 2800 5.66 290 01:41 04.03.2021
5754 Mist 3 1024 100 3000 4.63 310 22:44 03.03.2021
5755 Mist 4 1024 93 3000 4.63 310 22:26 03.03.2021
5756 Mist 4 1024 93 3200 4.63 310 21:45 03.03.2021
5757 Mist 4 1024 93 3200 4.63 310 21:24 03.03.2021
5758 Mist 5 1024 93 3200 4.12 300 20:59 03.03.2021
5759 Mist 5 1024 93 3200 4.12 300 20:41 03.03.2021
5760 Mist 5 1024 93 3800 4.12 310 20:19 03.03.2021
5761 Mist 5 1024 93 3800 4.12 310 20:19 03.03.2021
5762 Mist 5 1024 87 5000 5.66 310 19:42 03.03.2021
5763 Clear 6 1024 81 6000 4.63 300 19:23 03.03.2021
5764 Clear 8 1024 76 6000 4.12 310 18:48 03.03.2021
5765 Clear 8 1024 76 7000 3.09 290 18:29 03.03.2021
5766 Clear 10 1024 71 8000 6.17 270 17:54 03.03.2021
5767 Clear 10 1024 66 8000 4.63 270 17:20 03.03.2021
5768 Clear 11 1024 66 10000 4.63 270 16:44 03.03.2021
5769 Clear 11 1024 66 10000 5.14 280 16:26 03.03.2021
5770 Clear 12 1024 62 10000 5.66 280 15:45 03.03.2021
5771 Clear 12 1025 66 10000 5.14 260 15:27 03.03.2021
5772 Clear 13 1025 58 10000 5.14 250 14:34 03.03.2021
5773 Clear 13 1025 58 10000 4.63 230 13:59 03.03.2021
5774 Clear 13 1025 58 10000 4.63 230 13:38 03.03.2021
5775 Clear 13 1026 62 10000 3.6 220 13:18 03.03.2021
5776 Clear 12 1026 62 10000 3.6 240 12:41 03.03.2021
5777 Clear 11 1026 66 10000 3.6 230 12:22 03.03.2021
5778 Clear 10 1026 66 10000 2.06 220 11:44 03.03.2021
5779 Clear 9 1027 71 10000 2.57 210 11:22 03.03.2021
5780 Clear 9 1027 76 10000 1.54 190 10:44 03.03.2021
5781 Clear 6 1027 81 10000 1.54 180 10:21 03.03.2021
5782 Clear 3 1027 87 10000 1.54 170 09:41 03.03.2021
5783 Clear 0 1027 93 9000 1.03 0 08:51 03.03.2021
5784 Clear 0 1027 100 8000 1.03 120 08:23 03.03.2021
5785 Fog -1 1027 100 4000 1.03 130 07:53 03.03.2021
5786 Fog -1 1027 100 2700 1.03 140 07:26 03.03.2021
5787 Fog -1 1028 93 5000 1.03 80 06:21 03.03.2021
5788 Mist 0 1028 93 1000 1.54 140 05:44 03.03.2021
5789 Fog 1 1028 100 300 1.03 0 04:36 03.03.2021
5790 Fog 1 1029 100 4000 1.54 150 03:53 03.03.2021
5791 Clear 3 1030 87 10000 1.54 80 00:19 03.03.2021
5792 Clear 4 1030 87 10000 1.03 0 23:32 02.03.2021
5793 Clear 4 1030 87 10000 1.54 100 22:50 02.03.2021
5794 Clear 5 1031 81 10000 2.06 120 22:21 02.03.2021
5795 Clear 5 1030 87 10000 2.06 110 21:51 02.03.2021
5796 Clear 5 1030 87 10000 2.06 110 21:33 02.03.2021
5797 Clear 7 1031 71 10000 3.6 120 20:56 02.03.2021
5798 Clear 7 1031 71 10000 3.6 120 20:38 02.03.2021
5799 Clear 8 1031 66 10000 3.09 120 20:20 02.03.2021
5800 Clear 7 1031 66 10000 3.6 130 19:46 02.03.2021
5801 Clear 7 1031 66 10000 2.57 140 19:28 02.03.2021
5802 Clear 10 1031 62 10000 2.06 130 18:42 02.03.2021
5803 Clear 11 1031 54 10000 1.54 110 18:21 02.03.2021
5804 Clear 11 1031 54 10000 2.57 110 17:57 02.03.2021
5805 Clear 12 1031 54 10000 3.6 100 17:39 02.03.2021
5806 Clear 12 1031 54 10000 3.6 100 17:19 02.03.2021
5807 Clear 12 1031 58 10000 3.09 110 16:45 02.03.2021
5808 Clear 12 1032 62 10000 2.57 110 15:54 02.03.2021
5809 Clear 12 1032 62 10000 3.09 110 15:27 02.03.2021
5810 Clear 11 1032 66 10000 2.57 120 14:50 02.03.2021
5811 Clear 11 1033 71 10000 2.57 120 14:19 02.03.2021
5812 Clear 9 1033 75 10000 2.57 130 13:47 02.03.2021
5813 Clouds 8 1033 81 10000 2.57 140 13:24 02.03.2021
5814 Clouds 7 1034 81 10000 1.54 100 12:47 02.03.2021
5815 Clouds 7 1034 87 10000 2.57 150 12:25 02.03.2021
5816 Fog 3 1034 93 8000 2.57 140 11:45 02.03.2021
5817 Fog 4 1034 86 8000 2.06 110 11:23 02.03.2021
5818 Fog 1 1034 86 7000 2.57 120 10:53 02.03.2021
5819 Fog 3 1034 86 7000 2.57 130 10:29 02.03.2021
5820 Fog 2 1034 87 7000 2.57 90 09:43 02.03.2021
5821 Clouds 1 1034 93 7000 2.57 80 09:24 02.03.2021
5822 Clear 0 1034 93 6000 1.54 70 08:53 02.03.2021
5823 Clear 0 1034 93 6000 1.54 70 08:33 02.03.2021
5824 Fog -1 1033 93 5000 2.06 80 07:46 02.03.2021
5825 Mist -1 1033 100 4800 2.06 60 06:37 02.03.2021
5826 Mist -1 1034 93 2800 1.54 50 05:50 02.03.2021
5827 Mist -1 1034 93 2800 1.54 50 05:32 02.03.2021
5828 Mist 0 1034 93 4200 2.57 60 04:24 02.03.2021
5829 Clear 0 1034 93 9000 2.57 50 01:42 02.03.2021
5830 Clear 1 1034 100 9000 3.09 50 01:19 02.03.2021
5831 Clear 2 1034 93 10000 2.06 60 23:29 01.03.2021
5832 Clear 2 1034 93 10000 2.06 50 22:56 01.03.2021
5833 Clear 2 1034 93 10000 2.06 50 22:38 01.03.2021
5834 Clear 3 1034 93 10000 1.54 60 22:19 01.03.2021
5835 Clear 3 1035 93 10000 2.06 50 21:41 01.03.2021
5836 Clear 2 1035 93 10000 2.57 50 21:23 01.03.2021
5837 Clear 3 1034 87 10000 2.06 60 20:42 01.03.2021
5838 Clear 3 1034 87 10000 1.54 60 20:20 01.03.2021
5839 Clear 5 1034 87 10000 0.51 70 19:43 01.03.2021
5840 Clear 5 1034 87 10000 1.03 150 19:24 01.03.2021
5841 Clouds 6 1034 81 10000 1.03 130 18:43 01.03.2021
5842 Clouds 6 1034 81 10000 2.57 140 18:23 01.03.2021
5843 Clouds 7 1034 76 10000 3.09 140 17:47 01.03.2021
5844 Clear 8 1034 76 10000 3.6 140 17:22 01.03.2021
5845 Clear 9 1034 71 10000 3.09 150 16:47 01.03.2021
5846 Clear 9 1034 71 10000 3.6 150 16:27 01.03.2021
5847 Clear 9 1035 66 10000 2.57 130 15:49 01.03.2021
5848 Clear 9 1035 66 10000 2.06 130 15:23 01.03.2021
5849 Clouds 9 1035 66 10000 2.06 0 14:58 01.03.2021
5850 Clouds 9 1035 66 10000 2.06 0 14:39 01.03.2021
5851 Clouds 8 1036 66 10000 3.09 120 13:56 01.03.2021
5852 Clouds 8 1036 66 10000 3.09 120 13:37 01.03.2021
5853 Clouds 8 1036 66 10000 2.06 100 13:18 01.03.2021
5854 Clouds 7 1036 70 10000 2.06 0 12:42 01.03.2021
5855 Clouds 6 1036 75 10000 3.6 130 12:22 01.03.2021
5856 Clouds 6 1036 75 10000 2.06 90 11:47 01.03.2021
5857 Clouds 5 1036 81 10000 2.06 100 11:23 01.03.2021
5858 Clouds 4 1036 87 10000 2.06 80 10:37 01.03.2021
5859 Clouds 3 1036 93 10000 2.06 100 10:19 01.03.2021
5860 Clouds 3 1036 93 8000 2.06 90 09:50 01.03.2021
5861 Mist 2 1036 93 5000 1.54 40 09:28 01.03.2021
5862 Mist 2 1036 100 4500 1.54 40 08:55 01.03.2021
5863 Mist 2 1036 100 4500 1.54 40 08:55 01.03.2021
5864 Mist 2 1036 100 5000 2.06 30 08:30 01.03.2021
5865 Clouds 2 1036 93 10000 2.57 30 07:19 01.03.2021
5866 Mist 2 1036 100 5000 3.09 20 06:24 01.03.2021
5867 Fog 3 1036 100 400 1.54 280 02:38 01.03.2021
5868 Mist 4 1037 93 2500 1.03 0 23:47 28.02.2021
5869 Clouds 4 1037 93 9000 2.06 340 22:57 28.02.2021
5870 Clouds 4 1037 93 9000 2.06 340 22:37 28.02.2021
5871 Clouds 4 1036 93 10000 3.09 350 22:18 28.02.2021
5872 Clouds 4 1036 93 10000 3.09 330 21:37 28.02.2021
5873 Clouds 4 1036 93 10000 3.09 350 21:18 28.02.2021
5874 Clouds 4 1036 93 10000 1.03 0 20:39 28.02.2021
5875 Clouds 4 1037 93 10000 2.06 340 20:19 28.02.2021
5876 Clouds 5 1037 93 10000 2.57 20 19:46 28.02.2021
5877 Clouds 5 1037 81 10000 2.57 340 19:25 28.02.2021
5878 Clouds 5 1036 87 10000 3.09 340 18:44 28.02.2021
5879 Clouds 6 1037 81 10000 3.09 340 18:26 28.02.2021
5880 Clouds 6 1036 81 10000 2.06 360 17:56 28.02.2021
5881 Clouds 6 1036 81 10000 2.06 360 17:37 28.02.2021
5882 Clouds 6 1037 81 10000 2.57 10 17:18 28.02.2021
5883 Clouds 6 1037 81 10000 2.57 10 16:44 28.02.2021
5884 Clouds 7 1037 81 10000 3.09 360 16:26 28.02.2021
5885 Clouds 7 1037 81 10000 2.57 20 15:51 28.02.2021
5886 Clouds 7 1037 81 10000 1.54 0 15:26 28.02.2021
5887 Clouds 7 1037 81 10000 2.57 10 14:57 28.02.2021
5888 Clouds 7 1038 81 10000 2.06 40 14:30 28.02.2021
5889 Clouds 7 1038 81 10000 1.03 0 13:56 28.02.2021
5890 Clouds 6 1038 87 10000 1.03 0 13:36 28.02.2021
5891 Clouds 6 1038 87 10000 1.03 0 13:18 28.02.2021
5892 Clouds 5 1038 93 9000 1.54 240 12:48 28.02.2021
5893 Clouds 4 1038 100 7000 1.54 250 12:30 28.02.2021
5894 Clouds 4 1038 93 6000 2.06 250 11:55 28.02.2021
5895 Clouds 4 1038 93 6000 2.06 250 11:36 28.02.2021
5896 Mist 3 1038 100 3300 2.06 220 11:18 28.02.2021
5897 Fog 3 1039 100 350 1.54 220 10:30 28.02.2021
5898 Fog 3 1039 100 350 1.03 0 09:59 28.02.2021
5899 Fog 2 1039 100 350 1.03 0 09:38 28.02.2021
5900 Fog 2 1039 100 250 1.03 0 09:20 28.02.2021
5901 Fog 1 1039 100 200 2.06 10 08:38 28.02.2021
5902 Fog 1 1038 93 100 2.06 280 08:20 28.02.2021
5903 Fog 1 1038 100 100 1.54 290 07:44 28.02.2021
5904 Fog 1 1038 100 100 1.54 300 07:25 28.02.2021
5905 Fog 1 1038 100 100 1.54 270 06:24 28.02.2021
5906 Fog 1 1038 100 200 2.06 290 05:20 28.02.2021
5907 Fog 0 1039 100 400 1.54 290 02:28 28.02.2021
5908 Fog 1 1039 93 300 1.54 240 01:28 28.02.2021
5909 Fog 1 1039 93 300 1.03 260 00:40 28.02.2021
5910 Fog 2 1039 100 800 1.54 250 23:51 27.02.2021
5911 Fog 2 1039 93 1400 1.54 240 23:22 27.02.2021
5912 Clear 2 1039 100 6000 2.06 250 22:50 27.02.2021
5913 Clear 3 1039 93 10000 1.03 240 22:25 27.02.2021
5914 Clear 4 1039 93 10000 1.54 300 21:59 27.02.2021
5915 Clear 4 1039 93 10000 1.54 300 21:38 27.02.2021
5916 Clouds 4 1039 93 10000 2.06 290 21:18 27.02.2021
5917 Clouds 5 1039 87 10000 2.06 300 20:46 27.02.2021
5918 Clouds 5 1039 87 10000 2.06 280 20:25 27.02.2021
5919 Clouds 6 1039 81 10000 2.57 310 19:43 27.02.2021
5920 Clear 6 1039 81 10000 2.57 310 19:24 27.02.2021
5921 Clouds 7 1039 76 10000 2.06 310 18:42 27.02.2021
5922 Clouds 8 1039 76 10000 3.6 340 18:21 27.02.2021
5923 Clouds 8 1039 71 10000 4.12 340 17:45 27.02.2021
5924 Clouds 9 1039 71 10000 4.63 340 17:21 27.02.2021
5925 Clouds 9 1039 71 10000 4.12 330 16:59 27.02.2021
5926 Clouds 9 1039 71 10000 4.12 330 16:41 27.02.2021
5927 Clouds 9 1039 71 10000 4.12 330 16:23 27.02.2021
5928 Clouds 9 1039 71 10000 4.12 310 15:39 27.02.2021
5929 Clouds 9 1039 76 10000 4.63 300 14:52 27.02.2021
5930 Clouds 9 1039 81 10000 4.63 300 14:33 27.02.2021
5931 Clouds 8 1039 81 10000 5.14 300 13:56 27.02.2021
5932 Clouds 8 1039 81 10000 5.14 300 13:37 27.02.2021
5933 Clouds 8 1040 87 10000 4.63 290 12:58 27.02.2021
5934 Clouds 7 1040 87 10000 4.63 300 12:38 27.02.2021
5935 Clouds 7 1040 87 10000 4.63 300 12:19 27.02.2021
5936 Clouds 6 1039 93 10000 5.14 300 11:42 27.02.2021
5937 Clouds 6 1039 93 10000 5.14 300 11:24 27.02.2021
5938 Clouds 6 1039 93 10000 3.6 290 10:47 27.02.2021
5939 Drizzle 5 1039 93 5000 3.6 300 10:28 27.02.2021
5940 Drizzle 5 1039 93 6000 3.09 290 09:52 27.02.2021
5941 Clouds 5 1039 93 9000 3.09 300 09:31 27.02.2021
5942 Drizzle 4 1038 100 8000 3.6 300 08:43 27.02.2021
5943 Drizzle 4 1038 93 8000 3.6 310 08:22 27.02.2021
5944 Clouds 4 1038 93 10000 5.14 300 07:42 27.02.2021
5945 Clouds 4 1038 93 6000 5.14 310 06:21 27.02.2021
5946 Clouds 4 1036 93 10000 4.12 290 01:21 27.02.2021
5947 Clouds 4 1036 93 10000 4.63 290 23:58 26.02.2021
5948 Clouds 4 1036 93 10000 4.63 300 23:40 26.02.2021
5949 Clouds 4 1036 93 10000 4.63 300 23:18 26.02.2021
5950 Clouds 5 1035 87 10000 5.14 300 22:31 26.02.2021
5951 Clouds 5 1035 87 10000 4.63 290 21:49 26.02.2021
5952 Clouds 5 1034 87 10000 3.6 300 21:31 26.02.2021
5953 Clouds 5 1034 87 10000 4.12 310 20:45 26.02.2021
5954 Clear 5 1034 87 10000 3.09 300 20:24 26.02.2021
5955 Clear 5 1034 87 10000 3.09 300 19:53 26.02.2021
5956 Clouds 6 1033 81 10000 3.09 300 19:26 26.02.2021
5957 Clouds 7 1033 81 10000 3.09 310 18:49 26.02.2021
5958 Clouds 7 1033 76 10000 5.14 310 18:24 26.02.2021
5959 Clouds 8 1032 66 10000 5.66 310 17:56 26.02.2021
5960 Clouds 8 1032 66 10000 5.66 310 17:36 26.02.2021
5961 Clouds 9 1032 57 10000 6.69 290 16:58 26.02.2021
5962 Clouds 9 1032 57 10000 6.69 290 16:40 26.02.2021
5963 Clouds 9 1032 57 10000 6.69 290 16:40 26.02.2021
5964 Clouds 9 1032 57 10000 6.69 310 16:22 26.02.2021
5965 Clouds 10 1032 53 10000 7.2 320 15:43 26.02.2021
5966 Clouds 10 1032 57 10000 7.72 300 15:23 26.02.2021
5967 Clouds 10 1032 57 10000 7.2 310 14:52 26.02.2021
5968 Clouds 9 1032 61 10000 7.72 300 14:34 26.02.2021
5969 Clouds 10 1032 53 10000 7.72 310 13:52 26.02.2021
5970 Clouds 10 1032 53 10000 7.72 310 13:33 26.02.2021
5971 Clouds 10 1032 57 10000 7.2 300 12:50 26.02.2021
5972 Clouds 10 1032 53 10000 6.69 300 12:27 26.02.2021
5973 Clouds 10 1032 62 10000 5.66 290 11:42 26.02.2021
5974 Clear 9 1031 76 10000 4.12 280 10:58 26.02.2021
5975 Clear 8 1031 76 10000 4.12 280 10:37 26.02.2021
5976 Clear 6 1031 87 10000 3.09 280 09:48 26.02.2021
5977 Clear 6 1031 87 10000 3.6 290 09:28 26.02.2021
5978 Clear 6 1031 87 10000 3.6 290 08:36 26.02.2021
5979 Clear 6 1030 87 10000 3.6 290 07:58 26.02.2021
5980 Rain 6 1030 87 10000 3.09 280 07:24 26.02.2021
5981 Clear 6 1030 87 10000 3.09 290 06:35 26.02.2021
5982 Clear 6 1029 87 10000 2.06 220 05:19 26.02.2021
5983 Clear 7 1029 93 10000 2.06 270 02:41 26.02.2021
5984 Clouds 7 1029 81 10000 4.12 320 00:33 26.02.2021
5985 Rain 8 1028 81 10000 3.09 300 23:41 25.02.2021
5986 Clouds 8 1028 81 10000 3.09 310 23:21 25.02.2021
5987 Rain 9 1028 81 10000 3.09 310 22:42 25.02.2021
5988 Rain 9 1027 76 10000 3.6 340 21:56 25.02.2021
5989 Rain 9 1027 76 10000 3.6 340 21:35 25.02.2021
5990 Clear 10 1027 82 10000 3.09 330 20:58 25.02.2021
5991 Clear 10 1027 82 10000 3.09 330 20:38 25.02.2021
5992 Clear 10 1027 82 10000 3.6 340 20:20 25.02.2021
5993 Clouds 11 1026 76 10000 5.14 340 19:49 25.02.2021
5994 Clear 11 1026 66 10000 2.06 310 19:21 25.02.2021
5995 Clear 12 1025 67 10000 2.06 240 18:56 25.02.2021
5996 Clear 13 1025 67 10000 2.57 240 18:19 25.02.2021
5997 Clear 15 1025 62 10000 2.57 240 17:46 25.02.2021
5998 Clear 15 1025 58 10000 4.63 250 17:25 25.02.2021
5999 Clear 16 1025 55 10000 4.12 250 16:42 25.02.2021
6000 Clear 16 1025 48 10000 6.69 250 16:24 25.02.2021
6001 Clear 17 1024 51 10000 6.17 240 15:30 25.02.2021
6002 Clouds 17 1024 51 10000 6.17 250 14:49 25.02.2021
6003 Clouds 17 1025 48 10000 8.23 250 14:22 25.02.2021
6004 Clear 17 1025 48 10000 7.72 260 13:51 25.02.2021
6005 Clear 17 1025 51 10000 6.69 260 13:25 25.02.2021
6006 Clear 17 1025 51 10000 6.17 250 12:50 25.02.2021
6007 Clear 16 1025 59 10000 4.63 240 12:21 25.02.2021
6008 Clear 15 1025 63 10000 5.14 240 11:45 25.02.2021
6009 Clear 14 1025 67 10000 4.63 240 11:19 25.02.2021
6010 Clear 14 1025 67 10000 4.12 250 10:44 25.02.2021
6011 Clear 13 1025 67 10000 3.09 210 10:23 25.02.2021
6012 Clear 11 1025 71 10000 3.09 210 09:42 25.02.2021
6013 Clear 8 1024 87 10000 2.57 190 08:55 25.02.2021
6014 Clear 8 1024 93 10000 2.06 190 08:25 25.02.2021
6015 Clear 8 1024 93 10000 1.54 190 07:53 25.02.2021
6016 Clear 8 1024 93 10000 2.06 200 07:31 25.02.2021
6017 Clear 8 1024 87 10000 2.06 190 06:53 25.02.2021
6018 Clear 9 1026 87 10000 2.06 170 01:59 25.02.2021
6019 Clear 9 1026 87 10000 2.06 170 01:37 25.02.2021
6020 Clear 10 1026 81 10000 3.09 190 00:41 25.02.2021
6021 Clear 10 1026 81 10000 3.09 160 23:52 24.02.2021
6022 Clear 10 1026 71 10000 2.57 150 23:28 24.02.2021
6023 Clear 10 1026 76 10000 1.03 140 22:45 24.02.2021
6024 Clear 10 1026 76 10000 1.54 150 22:25 24.02.2021
6025 Clear 10 1026 71 10000 1.03 150 21:46 24.02.2021
6026 Clear 12 1027 62 10000 1.54 160 20:59 24.02.2021
6027 Clear 12 1027 62 10000 1.54 160 20:40 24.02.2021
6028 Clear 12 1027 66 10000 2.06 160 20:20 24.02.2021
6029 Clear 12 1027 58 10000 3.09 160 19:36 24.02.2021
6030 Clear 13 1027 58 10000 3.09 160 19:18 24.02.2021
6031 Clear 14 1027 54 10000 2.06 160 18:39 24.02.2021
6032 Clear 14 1027 51 10000 2.57 200 18:21 24.02.2021
6033 Clear 16 1027 45 10000 2.57 210 17:38 24.02.2021
6034 Clear 17 1027 48 10000 4.12 220 17:19 24.02.2021
6035 Clear 18 1027 42 10000 5.66 220 16:44 24.02.2021
6036 Clear 18 1027 45 10000 6.69 230 16:19 24.02.2021
6037 Clear 18 1027 45 10000 6.17 230 15:40 24.02.2021
6038 Clear 18 1028 48 10000 8.23 220 14:57 24.02.2021
6039 Clear 18 1028 48 10000 8.75 230 14:35 24.02.2021
6040 Clouds 18 1028 48 10000 8.23 240 13:59 24.02.2021
6041 Clouds 18 1028 48 10000 8.23 240 13:40 24.02.2021
6042 Clouds 18 1028 55 10000 7.72 230 13:21 24.02.2021
6043 Clear 18 1028 55 10000 8.23 230 12:45 24.02.2021
6044 Clear 17 1029 55 10000 7.2 220 12:26 24.02.2021
6045 Clear 17 1029 55 10000 6.17 220 11:47 24.02.2021
6046 Clear 16 1029 67 10000 5.14 210 10:57 24.02.2021
6047 Clear 15 1029 67 10000 5.14 210 10:32 24.02.2021
6048 Clear 13 1029 71 10000 4.12 200 09:50 24.02.2021
6049 Clear 11 1029 82 10000 3.09 190 09:20 24.02.2021
6050 Clear 10 1029 81 10000 3.6 190 08:35 24.02.2021
6051 Clear 10 1029 81 10000 4.63 180 07:57 24.02.2021
6052 Clear 10 1029 81 10000 3.6 180 07:20 24.02.2021
6053 Clear 9 1029 81 10000 3.6 170 06:31 24.02.2021
6054 Clear 10 1029 81 10000 3.09 190 03:40 24.02.2021
6055 Clear 12 1029 76 10000 2.57 160 00:37 24.02.2021
6056 Clear 11 1029 71 10000 3.09 190 23:29 23.02.2021
6057 Clear 11 1029 76 10000 3.09 170 22:40 23.02.2021
6058 Clear 11 1029 76 10000 3.09 170 22:40 23.02.2021
6059 Clear 11 1029 76 10000 2.06 170 22:20 23.02.2021
6060 Clear 11 1028 82 10000 3.6 170 21:46 23.02.2021
6061 Clear 12 1029 82 10000 3.6 160 21:24 23.02.2021
6062 Clear 12 1029 76 10000 2.57 170 20:49 23.02.2021
6063 Clear 12 1030 82 10000 1.54 170 20:30 23.02.2021
6064 Clear 12 1030 82 10000 1.54 170 20:30 23.02.2021
6065 Clear 13 1030 71 10000 1.03 0 19:49 23.02.2021
6066 Clear 14 1029 71 10000 1.54 170 19:29 23.02.2021
6067 Clear 13 1029 71 10000 2.57 180 18:59 23.02.2021
6068 Clear 14 1029 71 10000 2.57 180 18:41 23.02.2021
6069 Clear 15 1028 63 10000 2.57 210 18:20 23.02.2021
6070 Clear 16 1028 63 10000 3.09 200 17:46 23.02.2021
6071 Clear 16 1028 63 10000 3.6 190 17:25 23.02.2021
6072 Clear 17 1028 59 10000 6.17 220 16:43 23.02.2021
6073 Clouds 17 1028 59 10000 5.66 220 16:20 23.02.2021
6074 Clouds 17 1028 59 10000 6.17 220 15:44 23.02.2021
6075 Clouds 17 1028 59 10000 6.69 230 15:25 23.02.2021
6076 Clouds 17 1028 59 10000 6.69 210 14:46 23.02.2021
6077 Clouds 17 1029 59 10000 8.23 230 14:27 23.02.2021
6078 Clouds 17 1029 59 10000 8.23 230 13:56 23.02.2021
6079 Clouds 17 1029 59 10000 8.23 230 13:34 23.02.2021
6080 Clear 16 1029 59 10000 5.66 220 12:56 23.02.2021
6081 Clear 15 1029 55 10000 5.66 210 12:23 23.02.2021
6082 Clear 14 1029 62 10000 4.63 210 11:52 23.02.2021
6083 Clear 13 1028 62 10000 3.6 200 11:26 23.02.2021
6084 Clear 12 1028 66 10000 2.57 190 10:54 23.02.2021
6085 Clear 10 1028 76 10000 2.57 150 10:36 23.02.2021
6086 Clear 9 1028 81 10000 2.06 150 09:57 23.02.2021
6087 Clear 9 1028 81 10000 2.06 150 09:36 23.02.2021
6088 Clear 9 1028 81 10000 1.54 100 09:18 23.02.2021
6089 Clear 8 1028 71 10000 1.03 130 08:43 23.02.2021
6090 Clear 8 1027 76 10000 1.54 100 08:20 23.02.2021
6091 Clear 7 1027 81 10000 2.06 190 06:52 23.02.2021
6092 Clear 8 1026 81 10000 1.54 190 05:22 23.02.2021
6093 Clear 10 1025 66 10000 3.6 200 02:37 23.02.2021
6094 Clear 10 1025 71 10000 1.54 200 01:55 23.02.2021
6095 Clear 10 1024 71 10000 3.09 190 00:19 23.02.2021
6096 Clear 10 1024 71 10000 2.57 170 23:25 22.02.2021
6097 Clear 10 1023 62 10000 2.57 170 22:42 22.02.2021
6098 Clear 10 1023 71 10000 2.57 170 22:21 22.02.2021
6099 Clear 10 1022 66 10000 1.54 170 21:56 22.02.2021
6100 Clear 10 1022 66 10000 1.54 170 21:37 22.02.2021
6101 Clear 10 1022 66 10000 1.54 170 21:37 22.02.2021
6102 Clear 10 1022 66 10000 1.54 210 21:19 22.02.2021
6103 Clear 10 1022 62 10000 2.57 200 20:43 22.02.2021
6104 Clear 11 1022 62 10000 2.06 200 20:24 22.02.2021
6105 Clear 10 1021 62 10000 2.06 190 19:44 22.02.2021
6106 Clear 10 1021 62 10000 1.54 170 19:26 22.02.2021
6107 Clear 11 1021 54 10000 1.54 150 18:47 22.02.2021
6108 Clear 12 1020 51 10000 2.06 160 18:29 22.02.2021
6109 Clear 13 1020 54 10000 2.06 160 17:48 22.02.2021
6110 Clear 15 1020 55 10000 1.54 160 17:19 22.02.2021
6111 Clear 17 1020 42 10000 1.54 200 16:48 22.02.2021
6112 Clear 17 1019 42 10000 2.06 200 16:29 22.02.2021
6113 Clear 18 1019 36 10000 4.63 200 15:31 22.02.2021
6114 Clear 18 1019 39 10000 4.12 190 14:53 22.02.2021
6115 Clear 18 1019 39 10000 4.12 190 14:35 22.02.2021
6116 Clear 18 1018 39 10000 4.12 190 13:51 22.02.2021
6117 Clear 17 1018 42 10000 3.6 190 13:31 22.02.2021
6118 Clear 17 1018 42 10000 3.6 190 12:47 22.02.2021
6119 Clear 16 1018 51 10000 3.6 150 12:23 22.02.2021
6120 Clear 14 1018 54 10000 3.6 130 11:51 22.02.2021
6121 Clear 13 1018 58 10000 3.09 150 11:29 22.02.2021
6122 Clear 12 1018 66 10000 3.6 150 10:54 22.02.2021
6123 Clear 10 1018 66 10000 2.57 130 10:36 22.02.2021
6124 Clear 9 1018 66 10000 2.57 130 10:18 22.02.2021
6125 Clear 8 1018 66 10000 3.6 140 09:37 22.02.2021
6126 Clear 7 1018 70 10000 3.6 140 09:18 22.02.2021
6127 Clear 6 1017 75 10000 3.09 140 08:44 22.02.2021
6128 Clear 4 1017 75 10000 2.57 130 08:20 22.02.2021
6129 Clear 4 1017 75 10000 2.57 130 07:42 22.02.2021
6130 Clear 4 1017 75 10000 2.57 130 07:20 22.02.2021
6131 Clear 4 1017 75 10000 2.06 130 06:25 22.02.2021
6132 Clear 4 1016 87 10000 1.54 110 03:49 22.02.2021
6133 Clear 4 1016 93 10000 1.54 100 03:22 22.02.2021
6134 Clear 7 1016 76 10000 2.57 140 00:54 22.02.2021
6135 Clear 6 1016 81 10000 1.54 110 00:29 22.02.2021
6136 Clear 6 1016 87 10000 2.06 120 23:55 21.02.2021
6137 Clear 6 1016 87 10000 1.54 100 23:23 21.02.2021
6138 Clear 7 1015 87 10000 1.54 110 22:28 21.02.2021
6139 Clear 7 1015 81 10000 1.03 0 21:52 21.02.2021
6140 Clear 7 1015 81 10000 1.03 0 21:33 21.02.2021
6141 Clear 8 1015 81 10000 1.03 100 20:58 21.02.2021
6142 Clear 8 1015 81 10000 1.03 100 20:36 21.02.2021
6143 Clear 8 1015 81 10000 1.54 110 20:18 21.02.2021
6144 Clear 10 1015 66 10000 1.54 120 19:43 21.02.2021
6145 Clear 10 1015 71 10000 2.06 130 19:23 21.02.2021
6146 Clear 13 1014 58 10000 1.54 130 18:29 21.02.2021
6147 Clear 14 1014 55 10000 3.09 140 17:59 21.02.2021
6148 Clear 15 1014 55 10000 3.09 140 17:27 21.02.2021
6149 Clear 16 1014 55 10000 3.09 130 16:53 21.02.2021
6150 Clear 16 1014 51 10000 3.09 160 16:32 21.02.2021
6151 Clear 17 1014 48 10000 3.09 150 15:47 21.02.2021
6152 Clear 17 1014 48 10000 2.57 150 15:20 21.02.2021
6153 Clear 17 1015 51 10000 2.57 170 14:42 21.02.2021
6154 Clear 17 1015 51 10000 2.06 160 14:22 21.02.2021
6155 Clear 17 1015 48 10000 3.09 150 13:46 21.02.2021
6156 Clear 16 1015 48 10000 3.09 170 13:23 21.02.2021
6157 Clear 15 1015 62 10000 3.09 150 12:31 21.02.2021
6158 Clear 14 1015 62 10000 3.09 140 11:45 21.02.2021
6159 Clear 11 1015 71 10000 1.54 120 10:59 21.02.2021
6160 Clear 10 1015 71 10000 2.57 130 10:24 21.02.2021
6161 Clear 9 1015 76 10000 2.57 130 09:57 21.02.2021
6162 Clear 8 1015 76 10000 2.57 130 09:35 21.02.2021
6163 Clear 5 1015 87 10000 2.57 120 08:59 21.02.2021
6164 Clear 5 1014 81 10000 2.57 130 08:30 21.02.2021
6165 Clear 4 1014 87 10000 1.54 130 07:37 21.02.2021
6166 Clear 5 1014 81 10000 2.57 130 06:59 21.02.2021
6167 Clear 6 1013 81 10000 2.57 130 04:44 21.02.2021
6168 Clear 7 1013 81 10000 1.54 140 02:31 21.02.2021
6169 Clear 8 1013 81 10000 3.09 130 00:47 21.02.2021
6170 Clear 8 1013 81 10000 3.09 130 00:20 21.02.2021
6171 Clear 9 1013 76 10000 3.09 130 23:28 20.02.2021
6172 Clear 9 1013 76 10000 2.57 130 22:47 20.02.2021
6173 Clear 10 1013 71 10000 3.6 130 22:27 20.02.2021
6174 Clear 10 1013 71 10000 3.6 140 21:45 20.02.2021
6175 Clear 10 1013 71 10000 3.6 140 21:26 20.02.2021
6176 Clear 10 1013 71 10000 3.09 140 20:51 20.02.2021
6177 Clear 11 1013 71 10000 3.6 140 20:30 20.02.2021
6178 Clear 11 1013 71 10000 3.6 140 19:53 20.02.2021
6179 Clear 11 1013 71 10000 3.6 140 19:33 20.02.2021
6180 Clear 12 1013 62 10000 4.63 130 18:47 20.02.2021
6181 Clear 13 1013 67 10000 4.63 140 18:27 20.02.2021
6182 Clear 13 1013 67 10000 3.6 150 17:43 20.02.2021
6183 Clear 13 1013 67 10000 4.12 160 17:25 20.02.2021
6184 Clear 14 1013 62 10000 5.14 150 16:48 20.02.2021
6185 Clear 15 1013 58 10000 5.14 160 16:22 20.02.2021
6186 Clear 15 1013 58 10000 6.17 150 15:40 20.02.2021
6187 Clear 15 1013 58 10000 6.17 180 14:51 20.02.2021
6188 Clear 15 1014 58 10000 6.69 180 14:25 20.02.2021
6189 Clear 15 1014 58 10000 5.66 170 13:53 20.02.2021
6190 Clear 14 1014 62 10000 4.63 170 13:28 20.02.2021
6191 Clear 13 1015 67 10000 3.6 150 12:56 20.02.2021
6192 Clear 13 1015 67 10000 3.6 150 12:35 20.02.2021
6193 Clear 10 1015 76 10000 4.63 150 11:50 20.02.2021
6194 Clear 8 1015 76 10000 3.6 140 11:31 20.02.2021
6195 Clear 8 1015 81 10000 4.12 140 10:50 20.02.2021
6196 Clear 7 1015 81 10000 3.6 130 10:21 20.02.2021
6197 Clear 6 1016 87 10000 3.09 130 09:46 20.02.2021
6198 Clear 6 1015 81 10000 3.09 140 08:56 20.02.2021
6199 Clear 5 1015 81 10000 3.09 140 08:24 20.02.2021
6200 Clear 6 1015 81 10000 2.57 130 05:45 20.02.2021
6201 Clear 7 1015 76 10000 2.57 130 02:32 20.02.2021
6202 Clear 7 1015 76 10000 2.57 130 01:58 20.02.2021
6203 Clear 7 1016 76 10000 3.09 140 01:18 20.02.2021
6204 Clear 7 1016 76 10000 3.09 140 01:18 20.02.2021
6205 Clear 7 1016 76 10000 3.6 140 00:37 20.02.2021
6206 Clear 7 1016 76 10000 3.6 150 23:30 19.02.2021
6207 Clear 7 1016 76 10000 4.12 150 22:47 19.02.2021
6208 Clear 7 1016 76 10000 4.12 150 22:20 19.02.2021
6209 Clear 7 1016 76 10000 3.6 140 21:44 19.02.2021
6210 Clear 7 1016 76 10000 3.6 140 21:25 19.02.2021
6211 Clear 7 1016 76 10000 3.09 150 20:44 19.02.2021
6212 Clear 7 1016 76 10000 3.09 140 20:26 19.02.2021
6213 Clear 8 1016 71 10000 3.09 150 19:50 19.02.2021
6214 Clear 7 1016 76 10000 3.09 140 19:20 19.02.2021
6215 Clear 8 1016 71 10000 3.09 140 18:53 19.02.2021
6216 Clear 7 1016 70 10000 3.09 150 18:30 19.02.2021
6217 Clear 8 1016 71 10000 3.09 160 17:45 19.02.2021
6218 Clear 10 1016 62 10000 4.12 210 16:46 19.02.2021
6219 Clear 10 1016 62 10000 4.63 200 16:23 19.02.2021
6220 Clouds 10 1016 62 10000 4.12 200 15:56 19.02.2021
6221 Clouds 10 1016 57 10000 5.14 210 15:30 19.02.2021
6222 Clouds 10 1016 57 10000 6.17 230 14:55 19.02.2021
6223 Clouds 10 1016 57 10000 6.17 230 14:35 19.02.2021
6224 Clouds 10 1016 66 10000 5.66 240 13:57 19.02.2021
6225 Clouds 10 1016 66 10000 5.66 240 13:37 19.02.2021
6226 Clouds 9 1016 76 10000 5.14 220 12:59 19.02.2021
6227 Clouds 8 1016 76 10000 5.14 220 12:41 19.02.2021
6228 Clouds 8 1016 76 10000 4.12 220 12:20 19.02.2021
6229 Clouds 7 1017 81 10000 5.66 230 11:44 19.02.2021
6230 Clouds 6 1017 81 10000 6.69 230 11:19 19.02.2021
6231 Clouds 5 1016 87 10000 6.69 230 10:38 19.02.2021
6232 Clouds 5 1016 87 10000 4.63 230 10:19 19.02.2021
6233 Clouds 5 1016 87 10000 5.14 220 09:38 19.02.2021
6234 Clouds 5 1015 87 10000 4.12 230 09:19 19.02.2021
6235 Clouds 4 1015 93 10000 4.63 230 08:49 19.02.2021
6236 Clouds 4 1015 87 10000 5.14 230 08:21 19.02.2021
6237 Clear 4 1014 87 10000 5.14 230 07:47 19.02.2021
6238 Clear 4 1014 87 10000 5.66 230 07:26 19.02.2021
6239 Clear 4 1013 87 10000 5.14 230 06:47 19.02.2021
6240 Clear 5 1011 87 10000 5.66 240 04:44 19.02.2021
6241 Clear 5 1011 87 10000 5.66 240 04:25 19.02.2021
6242 Clouds 6 1009 87 10000 4.12 250 01:46 19.02.2021
6243 Rain 7 1008 87 10000 5.14 270 00:36 19.02.2021
6244 Rain 8 1006 87 10000 5.14 210 23:52 18.02.2021
6245 Rain 8 1006 87 10000 5.14 210 23:33 18.02.2021
6246 Rain 8 1006 71 10000 5.14 190 22:44 18.02.2021
6247 Clouds 8 1006 71 10000 4.63 180 22:26 18.02.2021
6248 Rain 7 1006 76 10000 4.63 170 21:45 18.02.2021
6249 Clouds 8 1006 76 10000 4.12 160 21:24 18.02.2021
6250 Clouds 8 1006 76 10000 4.12 160 20:41 18.02.2021
6251 Rain 8 1006 71 10000 4.63 150 20:23 18.02.2021
6252 Rain 9 1006 66 10000 5.66 140 19:46 18.02.2021
6253 Rain 9 1007 66 10000 6.69 150 19:26 18.02.2021
6254 Rain 9 1006 66 10000 5.14 120 18:53 18.02.2021
6255 Clear 9 1007 66 10000 6.17 140 18:29 18.02.2021
6256 Rain 9 1007 66 10000 6.17 140 17:52 18.02.2021
6257 Clear 10 1008 66 10000 6.69 140 17:26 18.02.2021
6258 Clear 10 1008 66 10000 6.17 140 16:55 18.02.2021
6259 Clear 10 1008 66 10000 6.17 140 16:36 18.02.2021
6260 Clear 10 1009 66 10000 6.17 140 16:18 18.02.2021
6261 Clear 10 1009 66 10000 6.17 130 15:38 18.02.2021
6262 Clear 10 1009 66 10000 7.2 140 15:19 18.02.2021
6263 Clear 10 1010 66 10000 6.69 150 14:46 18.02.2021
6264 Clear 10 1011 66 10000 7.2 150 14:27 18.02.2021
6265 Clear 10 1011 66 10000 8.23 150 13:45 18.02.2021
6266 Clear 11 1012 66 10000 7.2 160 13:19 18.02.2021
6267 Clear 10 1012 66 10000 6.17 150 12:45 18.02.2021
6268 Clear 10 1013 66 10000 5.14 150 12:23 18.02.2021
6269 Clear 9 1013 76 10000 5.14 160 11:46 18.02.2021
6270 Clear 9 1013 76 10000 4.63 150 11:27 18.02.2021
6271 Clear 8 1014 76 10000 4.63 140 10:48 18.02.2021
6272 Clear 7 1014 81 10000 4.12 140 10:29 18.02.2021
6273 Clear 7 1014 81 10000 4.12 150 09:50 18.02.2021
6274 Clouds 6 1015 81 10000 3.6 160 09:24 18.02.2021
6275 Clouds 6 1015 81 10000 3.6 160 08:48 18.02.2021
6276 Clouds 6 1015 87 10000 4.12 160 08:25 18.02.2021
6277 Clouds 6 1014 87 10000 4.12 160 07:35 18.02.2021
6278 Clouds 6 1015 81 10000 3.6 160 06:58 18.02.2021
6279 Clear 6 1015 87 10000 3.09 190 03:52 18.02.2021
6280 Clear 6 1015 87 10000 3.09 190 03:52 18.02.2021
6281 Clouds 8 1016 81 10000 4.12 210 23:56 17.02.2021
6282 Clouds 8 1016 81 10000 4.12 210 23:37 17.02.2021
6283 Clouds 8 1016 81 10000 3.6 210 22:56 17.02.2021
6284 Clouds 8 1016 81 10000 3.6 200 22:27 17.02.2021
6285 Clouds 8 1016 87 10000 3.09 210 21:58 17.02.2021
6286 Clouds 8 1016 81 10000 3.09 200 21:23 17.02.2021
6287 Clouds 7 1016 87 10000 2.57 190 20:56 17.02.2021
6288 Clouds 7 1016 87 10000 2.57 190 20:37 17.02.2021
6289 Clouds 7 1016 93 10000 2.06 170 19:55 17.02.2021
6290 Clouds 7 1016 93 10000 2.06 170 19:35 17.02.2021
6291 Clouds 7 1015 87 10000 2.57 180 18:52 17.02.2021
6292 Clouds 7 1015 87 10000 2.57 180 18:33 17.02.2021
6293 Clouds 8 1015 87 10000 3.09 190 17:46 17.02.2021
6294 Clouds 8 1015 87 10000 3.09 200 17:21 17.02.2021
6295 Clouds 8 1015 81 10000 3.6 220 16:51 17.02.2021
6296 Clouds 8 1015 81 10000 3.6 220 16:29 17.02.2021
6297 Clouds 8 1015 81 10000 3.09 230 15:56 17.02.2021
6298 Clouds 8 1015 81 10000 3.09 230 15:37 17.02.2021
6299 Clouds 8 1015 81 10000 4.63 240 15:19 17.02.2021
6300 Clouds 8 1015 81 10000 4.12 240 14:41 17.02.2021
6301 Clouds 8 1015 81 10000 4.63 240 14:23 17.02.2021
6302 Clouds 8 1015 81 10000 6.17 240 13:42 17.02.2021
6303 Clouds 8 1015 81 10000 5.14 260 12:59 17.02.2021
6304 Clouds 8 1014 87 10000 7.2 260 12:26 17.02.2021
6305 Clouds 8 1014 87 10000 5.66 250 11:49 17.02.2021
6306 Clouds 8 1014 87 10000 5.66 250 11:30 17.02.2021
6307 Clouds 7 1013 93 10000 5.66 250 10:58 17.02.2021
6308 Clouds 7 1013 93 10000 5.14 240 10:40 17.02.2021
6309 Clouds 7 1013 93 10000 5.14 240 10:20 17.02.2021
6310 Clouds 6 1013 100 9000 3.6 240 09:40 17.02.2021
6311 Clouds 6 1013 93 8000 5.14 250 09:18 17.02.2021
6312 Clouds 6 1012 93 8000 5.14 250 08:42 17.02.2021
6313 Clouds 6 1012 93 6000 5.66 240 08:20 17.02.2021
6314 Clouds 6 1011 93 7000 5.66 240 07:24 17.02.2021
6315 Drizzle 6 1009 93 6000 5.66 240 03:55 17.02.2021
6316 Rain 6 1009 93 7000 5.14 250 02:33 17.02.2021
6317 Clouds 6 1008 93 10000 6.17 240 01:49 17.02.2021
6318 Clouds 5 1008 87 10000 2.57 210 00:30 17.02.2021
6319 Rain 5 1008 81 10000 2.57 190 23:53 16.02.2021
6320 Rain 4 1008 81 10000 2.57 190 23:34 16.02.2021
6321 Clouds 4 1008 87 10000 1.54 160 22:42 16.02.2021
6322 Clouds 4 1008 87 10000 2.06 140 22:24 16.02.2021
6323 Clouds 3 1008 93 10000 3.09 140 21:42 16.02.2021
6324 Clouds 4 1009 87 10000 3.09 140 21:22 16.02.2021
6325 Clear 4 1009 87 10000 3.09 140 20:59 16.02.2021
6326 Clear 4 1009 87 10000 3.09 140 20:41 16.02.2021
6327 Clear 4 1009 93 10000 2.57 130 20:20 16.02.2021
6328 Clear 4 1010 93 10000 2.57 120 19:42 16.02.2021
6329 Clouds 4 1010 93 8000 2.06 130 19:22 16.02.2021
6330 Clouds 4 1010 93 9000 2.06 140 18:40 16.02.2021
6331 Clouds 4 1010 93 8000 2.57 140 18:22 16.02.2021
6332 Clouds 4 1010 93 8000 2.57 140 17:50 16.02.2021
6333 Clear 5 1010 93 10000 4.63 120 17:26 16.02.2021
6334 Clear 5 1011 93 10000 4.12 140 16:51 16.02.2021
6335 Clouds 5 1012 93 7000 5.14 140 16:29 16.02.2021
6336 Clouds 5 1012 93 7000 5.66 140 15:47 16.02.2021
6337 Mist 5 1013 93 5000 3.6 130 15:26 16.02.2021
6338 Mist 5 1014 100 3500 3.6 140 14:51 16.02.2021
6339 Mist 5 1014 100 3500 3.6 140 14:32 16.02.2021
6340 Mist 5 1015 93 1800 4.12 140 13:58 16.02.2021
6341 Mist 5 1015 93 1800 4.12 140 13:35 16.02.2021
6342 Fog 4 1016 100 800 3.09 140 12:47 16.02.2021
6343 Rain 3 1016 100 1200 2.57 140 12:26 16.02.2021
6344 Rain 3 1016 100 1000 3.09 140 11:55 16.02.2021
6345 Rain 3 1016 100 1000 3.09 140 11:55 16.02.2021
6346 Rain 3 1016 100 1000 3.09 140 11:37 16.02.2021
6347 Rain 4 1016 93 1000 3.09 130 11:18 16.02.2021
6348 Rain 3 1017 100 500 3.09 150 10:45 16.02.2021
6349 Rain 3 1017 100 600 2.57 160 10:25 16.02.2021
6350 Rain 3 1017 100 1500 3.09 170 09:48 16.02.2021
6351 Mist 3 1018 100 1800 3.6 200 09:26 16.02.2021
6352 Mist 3 1018 93 1800 2.57 190 08:48 16.02.2021
6353 Mist 2 1017 100 1500 2.06 160 08:26 16.02.2021
6354 Mist 3 1017 93 1200 2.57 140 07:32 16.02.2021
6355 Fog 3 1019 100 800 2.06 210 06:24 16.02.2021
6356 Fog 2 1020 100 300 2.06 240 02:19 16.02.2021
6357 Mist 2 1020 100 1000 3.6 240 23:47 15.02.2021
6358 Mist 2 1020 100 1200 3.6 240 23:26 15.02.2021
6359 Mist 2 1020 100 1000 2.57 230 22:47 15.02.2021
6360 Drizzle 2 1020 93 1000 2.06 220 22:25 15.02.2021
6361 Drizzle 2 1020 93 1000 2.06 210 21:42 15.02.2021
6362 Drizzle 1 1020 100 1200 2.06 200 21:24 15.02.2021
6363 Drizzle 1 1020 100 1200 2.06 200 21:24 15.02.2021
6364 Mist 1 1020 100 2000 2.06 200 20:53 15.02.2021
6365 Drizzle 1 1020 100 2000 2.06 200 20:35 15.02.2021
6366 Rain 1 1020 100 2700 2.06 200 19:50 15.02.2021
6367 Rain 1 1020 100 2700 2.06 200 19:50 15.02.2021
6368 Drizzle 1 1020 100 2700 2.06 200 19:50 15.02.2021
6369 Mist 1 1020 93 2700 2.57 180 19:25 15.02.2021
6370 Rain 1 1020 93 3800 3.09 170 18:54 15.02.2021
6371 Rain 1 1020 93 4500 3.6 170 18:27 15.02.2021
6372 Rain 0 1020 100 8000 4.12 170 17:57 15.02.2021
6373 Rain 0 1020 100 8000 4.12 170 17:39 15.02.2021
6374 Rain 0 1020 100 5000 4.12 160 17:20 15.02.2021
6375 Rain 0 1021 100 4200 3.6 160 16:42 15.02.2021
6376 Rain 0 1021 93 5000 4.63 160 16:21 15.02.2021
6377 Rain 0 1021 93 8000 6.17 140 15:42 15.02.2021
6378 Rain 0 1022 86 8000 6.17 140 15:19 15.02.2021
6379 Rain 0 1023 80 8000 4.12 140 14:44 15.02.2021
6380 Rain 1 1023 69 10000 5.14 150 14:20 15.02.2021
6381 Snow 1 1023 60 10000 6.17 140 13:49 15.02.2021
6382 Rain 1 1024 44 10000 5.14 130 13:20 15.02.2021
6383 Snow 1 1025 51 10000 5.14 140 12:47 15.02.2021
6384 Clouds 1 1025 47 10000 5.14 150 12:25 15.02.2021
6385 Clear 1 1025 47 10000 5.14 150 11:51 15.02.2021
6386 Snow 1 1025 44 10000 6.69 140 11:26 15.02.2021
6387 Clouds 1 1026 44 10000 6.17 150 10:55 15.02.2021
6388 Snow 0 1026 44 10000 6.17 150 10:36 15.02.2021
6389 Snow 0 1026 47 10000 5.14 150 10:18 15.02.2021
6390 Snow -1 1026 51 10000 5.14 130 09:47 15.02.2021
6391 Snow -1 1027 54 10000 4.63 130 09:25 15.02.2021
6392 Snow -2 1027 54 10000 6.17 140 08:22 15.02.2021
6393 Clear -2 1028 59 10000 6.17 130 07:20 15.02.2021
6394 Snow -3 1029 59 10000 5.14 130 06:41 15.02.2021
6395 Clear -3 1030 58 10000 7.2 130 04:41 15.02.2021
6396 Clear -3 1033 59 10000 5.66 130 02:21 15.02.2021
6397 Clear -3 1034 63 10000 5.66 130 00:22 15.02.2021
6398 Clear -3 1035 63 10000 6.17 130 23:29 14.02.2021
6399 Clear -3 1035 63 10000 6.69 120 22:47 14.02.2021
6400 Clear -3 1035 63 10000 5.14 130 22:29 14.02.2021
6401 Clear -4 1036 63 10000 5.14 130 21:53 14.02.2021
6402 Clear -3 1036 59 10000 5.66 130 21:31 14.02.2021
6403 Clear -3 1036 63 10000 5.14 130 20:55 14.02.2021
6404 Clear -3 1036 63 10000 5.66 130 20:31 14.02.2021
6405 Clear -3 1037 63 10000 5.66 130 19:57 14.02.2021
6406 Clear -3 1037 63 10000 5.66 130 19:35 14.02.2021
6407 Clear -2 1037 59 10000 4.63 130 18:45 14.02.2021
6408 Clear -2 1037 59 10000 4.12 130 18:24 14.02.2021
6409 Clear -2 1037 55 10000 4.12 120 17:45 14.02.2021
6410 Clear -1 1038 59 10000 4.63 130 17:26 14.02.2021
6411 Clear -1 1038 55 10000 4.63 130 16:40 14.02.2021
6412 Clear 0 1038 51 10000 3.6 130 16:21 14.02.2021
6413 Clear -1 1039 59 10000 4.12 140 15:45 14.02.2021
6414 Clear -1 1039 59 10000 3.6 130 14:59 14.02.2021
6415 Clear -1 1039 59 10000 3.6 130 14:33 14.02.2021
6416 Clear -1 1040 63 10000 2.57 140 13:59 14.02.2021
6417 Clear -1 1040 63 10000 2.57 140 13:33 14.02.2021
6418 Clear -3 1040 68 10000 3.09 120 12:58 14.02.2021
6419 Clear -4 1041 73 10000 3.09 130 12:23 14.02.2021
6420 Clear -5 1041 73 10000 3.09 130 11:52 14.02.2021
6421 Clear -6 1041 79 10000 2.57 130 11:28 14.02.2021
6422 Clear -7 1041 79 10000 2.57 130 10:59 14.02.2021
6423 Clear -9 1041 85 10000 2.57 130 10:23 14.02.2021
6424 Clear -10 1041 85 10000 3.6 130 09:40 14.02.2021
6425 Clear -10 1041 85 10000 3.09 130 09:21 14.02.2021
6426 Clear -11 1041 85 10000 2.57 130 08:56 14.02.2021
6427 Clear -11 1041 85 10000 2.57 120 07:58 14.02.2021
6428 Clear -11 1041 85 10000 2.57 130 06:59 14.02.2021
6429 Clear -11 1041 85 10000 2.06 130 05:44 14.02.2021
6430 Clear -10 1042 85 8000 2.57 130 03:57 14.02.2021
6431 Clear -10 1042 92 8000 1.54 110 02:29 14.02.2021
6432 Clear -10 1042 92 9000 1.03 0 00:59 14.02.2021
6433 Clear -9 1042 92 9000 1.03 0 00:41 14.02.2021
6434 Clear -9 1042 92 9000 2.06 120 23:49 13.02.2021
6435 Clear -9 1042 92 10000 1.54 130 23:25 13.02.2021
6436 Clear -8 1042 93 10000 1.54 120 22:51 13.02.2021
6437 Fog -9 1042 92 4500 1.03 150 22:22 13.02.2021
6438 Clear -9 1042 92 10000 1.03 150 21:49 13.02.2021
6439 Clear -8 1042 93 10000 1.03 160 21:26 13.02.2021
6440 Clear -8 1042 93 10000 1.03 160 21:26 13.02.2021
6441 Clear -7 1042 86 10000 1.54 140 20:44 13.02.2021
6442 Clear -7 1042 93 10000 2.06 130 20:26 13.02.2021
6443 Clear -6 1042 93 10000 1.54 140 19:48 13.02.2021
6444 Clear -6 1042 86 10000 1.54 160 19:23 13.02.2021
6445 Clear -6 1042 80 10000 1.03 130 18:49 13.02.2021
6446 Clear -4 1042 80 10000 2.06 140 18:27 13.02.2021
6447 Clear -4 1042 74 10000 2.57 140 17:44 13.02.2021
6448 Clear -3 1042 74 10000 2.57 140 17:25 13.02.2021
6449 Clouds -3 1042 69 10000 1.54 170 16:52 13.02.2021
6450 Clouds -2 1042 69 10000 1.54 170 16:31 13.02.2021
6451 Clouds -1 1042 64 10000 1.54 150 15:43 13.02.2021
6452 Clouds -2 1042 74 10000 1.54 180 15:25 13.02.2021
6453 Clouds -1 1042 74 10000 2.06 170 14:40 13.02.2021
6454 Clear -1 1042 69 10000 2.06 200 13:49 13.02.2021
6455 Clear -2 1042 74 10000 1.54 170 13:27 13.02.2021
6456 Clear -3 1042 74 10000 1.54 220 12:52 13.02.2021
6457 Clear -3 1042 68 10000 1.03 0 12:21 13.02.2021
6458 Clear -4 1042 74 10000 0.51 240 11:55 13.02.2021
6459 Clear -7 1042 79 10000 1.03 240 11:22 13.02.2021
6460 Clear -8 1042 79 10000 1.03 230 10:59 13.02.2021
6461 Clear -8 1042 79 10000 1.03 230 10:41 13.02.2021
6462 Clear -10 1042 92 10000 0.51 250 10:22 13.02.2021
6463 Clear -11 1042 85 10000 0.98 85 09:46 13.02.2021
6464 Clear -12 1042 92 10000 0.51 230 09:25 13.02.2021
6465 Clear -13 1042 85 10000 1.54 250 08:47 13.02.2021
6466 Clear -12 1042 85 10000 1.38 65 08:18 13.02.2021
6467 Clear -12 1041 92 10000 1.03 0 06:50 13.02.2021
6468 Clear -12 1041 85 10000 1.03 80 06:22 13.02.2021
6469 Clear -12 1041 92 10000 0.51 220 04:31 13.02.2021
6470 Clear -11 1041 92 10000 0.51 270 02:37 13.02.2021
6471 Clear -9 1041 73 10000 2.06 50 00:54 13.02.2021
6472 Clear -8 1040 67 10000 1.54 60 00:18 13.02.2021
6473 Clear -8 1040 67 10000 1.54 70 23:44 12.02.2021
6474 Clear -8 1040 67 10000 1.54 60 23:18 12.02.2021
6475 Clear -8 1040 67 10000 2.57 60 22:32 12.02.2021
6476 Clear -7 1040 63 10000 3.09 60 21:58 12.02.2021
6477 Clear -8 1040 63 10000 3.09 60 21:38 12.02.2021
6478 Clear -6 1039 58 10000 3.09 60 21:20 12.02.2021
6479 Clear -6 1039 63 10000 3.09 50 20:40 12.02.2021
6480 Clear -6 1039 58 10000 3.6 50 20:21 12.02.2021
6481 Clear -6 1039 63 10000 3.09 50 19:49 12.02.2021
6482 Clear -5 1039 68 10000 2.57 50 19:27 12.02.2021
6483 Clear -5 1038 63 10000 3.09 50 18:32 12.02.2021
6484 Clouds -4 1038 54 10000 4.12 60 17:53 12.02.2021
6485 Clouds -3 1038 54 10000 5.14 60 17:35 12.02.2021
6486 Clouds -2 1038 50 10000 5.66 70 16:44 12.02.2021
6487 Clouds -2 1038 59 10000 5.14 60 15:49 12.02.2021
6488 Clouds -2 1037 54 10000 5.66 80 15:24 12.02.2021
6489 Clouds -2 1037 59 10000 5.66 50 14:59 12.02.2021
6490 Clouds -2 1037 59 10000 5.66 50 14:34 12.02.2021
6491 Clouds -2 1037 59 10000 5.14 60 13:48 12.02.2021
6492 Clouds -2 1037 63 10000 4.63 90 13:29 12.02.2021
6493 Clouds -3 1037 68 10000 4.12 60 12:53 12.02.2021
6494 Clouds -3 1037 68 10000 4.12 60 12:35 12.02.2021
6495 Clouds -4 1037 68 10000 4.63 70 11:47 12.02.2021
6496 Clouds -5 1037 74 10000 4.12 60 11:21 12.02.2021
6497 Clouds -6 1037 79 10000 5.14 50 10:48 12.02.2021
6498 Clouds -6 1037 73 10000 4.63 60 10:19 12.02.2021
6499 Clouds -7 1036 73 10000 4.12 50 09:42 12.02.2021
6500 Clouds -8 1036 79 10000 3.09 50 09:23 12.02.2021
6501 Clouds -9 1036 85 10000 1.54 70 08:45 12.02.2021
6502 Clouds -9 1036 85 10000 2.06 30 08:22 12.02.2021
6503 Clouds -9 1036 86 10000 1.54 70 07:51 12.02.2021
6504 Clouds -10 1036 92 10000 1.03 50 07:24 12.02.2021
6505 Clouds -9 1035 92 10000 1.03 0 06:53 12.02.2021
6506 Clear -10 1035 85 10000 2.06 50 05:37 12.02.2021
6507 Clear -9 1034 79 10000 2.57 30 03:46 12.02.2021
6508 Clouds -7 1034 86 10000 2.57 40 00:34 12.02.2021
6509 Clouds -7 1033 86 10000 2.06 50 23:38 11.02.2021
6510 Clouds -7 1033 86 10000 2.06 50 23:20 11.02.2021
6511 Clouds -7 1033 86 10000 2.06 50 22:44 11.02.2021
6512 Clear -7 1033 79 10000 2.57 60 22:23 11.02.2021
6513 Clouds -6 1033 80 10000 3.09 50 21:43 11.02.2021
6514 Clouds -7 1032 93 10000 2.06 60 21:25 11.02.2021
6515 Clouds -6 1032 93 10000 0.51 0 20:58 11.02.2021
6516 Clouds -7 1032 93 10000 0.51 0 20:39 11.02.2021
6517 Clouds -6 1032 93 10000 1.03 280 20:21 11.02.2021
6518 Clouds -5 1032 93 10000 1.03 300 19:47 11.02.2021
6519 Fog -6 1032 93 10000 0.51 0 19:26 11.02.2021
6520 Fog -5 1032 100 5000 1.54 250 18:43 11.02.2021
6521 Clouds -4 1031 86 10000 1.54 250 18:21 11.02.2021
6522 Clouds -4 1031 80 10000 0.51 0 17:49 11.02.2021
6523 Clouds -3 1031 80 10000 0.51 0 17:21 11.02.2021
6524 Snow -3 1031 86 2500 3.6 340 16:47 11.02.2021
6525 Clouds -2 1030 74 10000 3.09 290 16:29 11.02.2021
6526 Clouds -2 1030 74 10000 3.6 290 15:48 11.02.2021
6527 Clouds -1 1030 64 10000 2.06 310 15:29 11.02.2021
6528 Clouds -1 1030 74 10000 3.6 300 14:58 11.02.2021
6529 Clouds -1 1030 74 10000 3.6 300 14:32 11.02.2021
6530 Clouds -1 1030 64 10000 2.57 300 13:45 11.02.2021
6531 Clouds -2 1030 69 10000 2.57 280 13:21 11.02.2021
6532 Clouds -2 1030 69 10000 2.57 290 12:58 11.02.2021
6533 Clouds -2 1030 69 10000 2.57 290 12:36 11.02.2021
6534 Clouds -3 1030 74 10000 2.06 290 11:58 11.02.2021
6535 Clouds -2 1030 74 10000 2.06 290 11:40 11.02.2021
6536 Clouds -3 1029 74 10000 2.06 270 11:20 11.02.2021
6537 Clouds -5 1029 80 10000 2.06 270 10:42 11.02.2021
6538 Clear -5 1029 86 10000 2.06 280 10:22 11.02.2021
6539 Clear -8 1029 92 10000 2.06 280 09:42 11.02.2021
6540 Clear -9 1028 92 10000 2.06 270 09:19 11.02.2021
6541 Clouds -9 1028 92 10000 1.03 0 08:50 11.02.2021
6542 Clouds -9 1027 92 10000 2.06 280 07:58 11.02.2021
6543 Clouds -9 1027 92 10000 2.06 280 07:58 11.02.2021
6544 Clouds -8 1027 86 10000 1.54 280 06:49 11.02.2021
6545 Clouds -8 1027 86 10000 1.54 300 06:29 11.02.2021
6546 Clouds -9 1025 92 10000 2.57 300 03:54 11.02.2021
6547 Clear -8 1024 86 10000 3.09 320 02:28 11.02.2021
6548 Clear -6 1023 68 10000 3.09 350 00:46 11.02.2021
6549 Clear -6 1022 68 10000 3.6 360 00:18 11.02.2021
6550 Clouds -5 1022 74 10000 3.6 350 23:35 10.02.2021
6551 Clouds -4 1021 68 10000 3.09 350 22:49 10.02.2021
6552 Clouds -4 1021 68 10000 3.6 360 22:26 10.02.2021
6553 Clouds -4 1020 68 10000 3.09 360 21:55 10.02.2021
6554 Clouds -4 1020 68 10000 3.09 360 21:37 10.02.2021
6555 Clouds -3 1020 68 10000 4.12 20 21:18 10.02.2021
6556 Clouds -3 1019 69 10000 4.63 10 20:40 10.02.2021
6557 Clouds -3 1019 69 10000 4.12 10 20:20 10.02.2021
6558 Clouds -3 1019 69 10000 4.12 30 19:43 10.02.2021
6559 Clouds -3 1018 69 10000 5.14 20 19:22 10.02.2021
6560 Clouds -3 1018 69 10000 4.12 20 18:40 10.02.2021
6561 Clouds -2 1017 64 10000 3.6 20 18:21 10.02.2021
6562 Clouds -2 1017 69 10000 3.6 20 17:50 10.02.2021
6563 Clouds -2 1016 69 10000 4.63 20 17:22 10.02.2021
6564 Clouds -2 1016 69 10000 5.66 20 16:52 10.02.2021
6565 Clouds -2 1016 69 10000 4.63 20 16:29 10.02.2021
6566 Clouds -2 1015 69 10000 4.12 30 15:47 10.02.2021
6567 Clouds -2 1015 64 10000 5.66 20 15:22 10.02.2021
6568 Clouds -2 1015 69 10000 4.63 10 14:42 10.02.2021
6569 Clouds -2 1014 69 10000 5.66 10 14:21 10.02.2021
6570 Clouds -2 1014 69 10000 6.17 10 13:50 10.02.2021
6571 Clouds -2 1014 69 10000 6.69 10 13:27 10.02.2021
6572 Clouds -2 1013 64 10000 7.72 20 12:48 10.02.2021
6573 Clouds -2 1013 69 10000 7.2 20 12:29 10.02.2021
6574 Clouds -2 1013 68 10000 7.72 20 11:47 10.02.2021
6575 Clouds -2 1013 68 10000 8.23 20 11:29 10.02.2021
6576 Clouds -3 1012 68 10000 6.69 30 10:49 10.02.2021
6577 Clouds -3 1012 74 10000 7.2 20 10:20 10.02.2021
6578 Clouds -4 1011 80 10000 5.66 30 09:43 10.02.2021
6579 Clouds -4 1011 80 10000 5.66 20 09:21 10.02.2021
6580 Clouds -5 1011 86 10000 5.66 20 08:50 10.02.2021
6581 Clouds -5 1011 80 10000 4.63 30 08:29 10.02.2021
6582 Clouds -5 1010 80 10000 5.66 20 07:19 10.02.2021
6583 Snow -5 1010 86 10000 4.12 30 04:47 10.02.2021
6584 Clouds -7 1010 93 10000 2.06 40 01:20 10.02.2021
6585 Clouds -6 1010 93 10000 2.06 30 23:40 09.02.2021
6586 Clouds -6 1010 93 10000 2.57 30 23:19 09.02.2021
6587 Clouds -5 1009 86 10000 3.6 50 22:41 09.02.2021
6588 Clouds -5 1009 86 10000 4.12 30 22:23 09.02.2021
6589 Clouds -5 1009 80 10000 4.12 30 21:42 09.02.2021
6590 Snow -4 1009 86 10000 4.63 20 21:19 09.02.2021
6591 Snow -4 1009 86 10000 4.12 20 20:42 09.02.2021
6592 Snow -4 1009 86 10000 3.09 30 20:24 09.02.2021
6593 Snow -4 1009 86 10000 3.09 40 19:42 09.02.2021
6594 Snow -4 1009 86 10000 3.09 40 19:22 09.02.2021
6595 Clouds -4 1009 80 10000 3.6 30 18:44 09.02.2021
6596 Clouds -4 1009 80 10000 3.6 10 18:26 09.02.2021
6597 Clouds -4 1009 80 10000 2.57 30 17:49 09.02.2021
6598 Snow -3 1009 74 10000 3.09 40 17:27 09.02.2021
6599 Snow -3 1009 74 10000 3.6 20 16:53 09.02.2021
6600 Snow -3 1009 68 10000 4.12 20 16:20 09.02.2021
6601 Clouds -3 1008 68 10000 3.6 30 15:58 09.02.2021
6602 Clouds -3 1008 68 10000 3.6 30 15:39 09.02.2021
6603 Clouds -3 1008 68 10000 4.12 20 15:20 09.02.2021
6604 Clouds -3 1008 68 10000 4.12 30 14:42 09.02.2021
6605 Clouds -2 1008 68 10000 3.6 30 14:21 09.02.2021
6606 Clouds -3 1008 68 10000 5.14 40 13:41 09.02.2021
6607 Clouds -3 1008 68 10000 5.14 40 13:20 09.02.2021
6608 Clouds -4 1008 68 10000 4.63 50 12:43 09.02.2021
6609 Clouds -4 1008 68 10000 5.14 50 12:24 09.02.2021
6610 Clouds -4 1008 68 10000 4.12 50 11:44 09.02.2021
6611 Clouds -5 1008 74 10000 4.12 50 11:21 09.02.2021
6612 Snow -5 1008 74 10000 3.6 50 10:57 09.02.2021
6613 Snow -5 1008 80 10000 3.09 50 10:21 09.02.2021
6614 Snow -6 1007 86 3800 2.06 60 09:52 09.02.2021
6615 Snow -6 1007 86 2500 2.57 70 09:26 09.02.2021
6616 Snow -5 1007 86 6000 3.6 60 08:56 09.02.2021
6617 Snow -5 1006 86 3000 3.6 60 08:29 09.02.2021
6618 Snow -5 1006 86 3500 3.6 70 07:53 09.02.2021
6619 Snow -5 1006 80 7000 5.14 50 05:35 09.02.2021
6620 Clouds -5 1005 80 10000 4.63 20 03:49 09.02.2021
6621 Snow -8 1005 92 10000 1.54 310 01:52 09.02.2021
6622 Snow -7 1005 93 10000 1.03 290 00:31 09.02.2021
6623 Clouds -7 1005 93 10000 0.51 260 23:44 08.02.2021
6624 Snow -7 1005 93 9000 1.03 180 23:19 08.02.2021
6625 Snow -6 1005 93 8000 1.03 160 22:43 08.02.2021
6626 Snow -6 1005 86 6000 1.54 140 22:22 08.02.2021
6627 Snow -6 1005 86 6000 2.57 100 21:46 08.02.2021
6628 Snow -5 1005 86 5000 2.06 120 21:23 08.02.2021
6629 Snow -5 1005 86 5000 1.54 140 20:55 08.02.2021
6630 Snow -5 1005 86 5000 1.54 140 20:36 08.02.2021
6631 Snow -5 1005 86 2800 3.09 130 20:18 08.02.2021
6632 Snow -4 1004 86 2500 4.12 130 19:41 08.02.2021
6633 Snow -5 1004 86 10000 4.12 110 19:21 08.02.2021
6634 Snow -3 1004 68 10000 6.69 80 18:44 08.02.2021
6635 Snow -3 1004 68 10000 7.2 70 18:19 08.02.2021
6636 Snow -3 1003 68 10000 7.2 70 17:43 08.02.2021
6637 Clouds -3 1003 68 10000 7.72 60 17:23 08.02.2021
6638 Clouds -3 1003 63 10000 8.23 60 16:42 08.02.2021
6639 Clouds -3 1003 63 10000 6.17 70 16:21 08.02.2021
6640 Clouds -2 1003 63 10000 8.23 60 15:42 08.02.2021
6641 Clouds -2 1003 63 10000 6.69 70 15:20 08.02.2021
6642 Clouds -3 1004 63 10000 7.72 70 14:51 08.02.2021
6643 Clouds -3 1004 63 10000 8.75 70 14:31 08.02.2021
6644 Snow -3 1004 63 10000 8.75 60 13:56 08.02.2021
6645 Snow -3 1004 63 10000 8.75 60 13:32 08.02.2021
6646 Clouds -3 1004 63 10000 9.26 70 12:53 08.02.2021
6647 Clouds -3 1004 63 10000 9.26 70 12:35 08.02.2021
6648 Clouds -4 1005 63 10000 7.72 70 11:47 08.02.2021
6649 Clouds -4 1005 63 10000 7.72 70 11:22 08.02.2021
6650 Snow -4 1005 63 10000 9.26 70 10:45 08.02.2021
6651 Snow -4 1005 68 10000 8.75 70 10:24 08.02.2021
6652 Snow -4 1005 58 10000 8.23 70 09:53 08.02.2021